<?xml version="1.0" encoding="UTF-8" standalone="no" ?>
<gpx xmlns="http://www.topografix.com/GPX/1/1" xmlns:xsi="http://www.w3.org/2001/XMLSchema-instance" xsi:schemaLocation="http://www.topografix.com/GPX/1/1 http://www.topografix.com/GPX/1/1/gpx.xsd" version="1.1" creator="VisuGPX - https://www.visugpx.com">
  <metadata>
    <name>Rando CAF 25 Km</name>
    <desc><![CDATA[Le brevet des 25km du CAF]]></desc>
  </metadata>
  <trk>
    <name><![CDATA[07/10/12 09:01]]></name>
    <desc><![CDATA[]]></desc>
    <trkseg>
      <trkpt lat="47.3018" lon="4.98216">
        <ele>394</ele>
        <time>2012-10-07T07:01:40Z</time>
      </trkpt>
      <trkpt lat="47.30174" lon="4.98205">
        <ele>401</ele>
        <time>2012-10-07T07:01:41Z</time>
      </trkpt>
      <trkpt lat="47.3018" lon="4.98215">
        <ele>394</ele>
        <time>2012-10-07T07:01:42Z</time>
      </trkpt>
      <trkpt lat="47.30172" lon="4.98209">
        <ele>399</ele>
        <time>2012-10-07T07:01:45Z</time>
      </trkpt>
      <trkpt lat="47.30175" lon="4.98204">
        <ele>408</ele>
        <time>2012-10-07T07:02:02Z</time>
      </trkpt>
      <trkpt lat="47.30175" lon="4.98204">
        <ele>408</ele>
        <time>2012-10-07T07:02:02Z</time>
      </trkpt>
      <trkpt lat="47.30175" lon="4.98204">
        <ele>409</ele>
        <time>2012-10-07T07:02:06Z</time>
      </trkpt>
      <trkpt lat="47.30178" lon="4.98209">
        <ele>411</ele>
        <time>2012-10-07T07:02:11Z</time>
      </trkpt>
      <trkpt lat="47.30178" lon="4.98217">
        <ele>413</ele>
        <time>2012-10-07T07:02:15Z</time>
      </trkpt>
      <trkpt lat="47.30178" lon="4.98225">
        <ele>414</ele>
        <time>2012-10-07T07:02:19Z</time>
      </trkpt>
      <trkpt lat="47.30177" lon="4.98233">
        <ele>414</ele>
        <time>2012-10-07T07:02:22Z</time>
      </trkpt>
      <trkpt lat="47.30172" lon="4.98239">
        <ele>414</ele>
        <time>2012-10-07T07:02:25Z</time>
      </trkpt>
      <trkpt lat="47.30169" lon="4.98247">
        <ele>415</ele>
        <time>2012-10-07T07:02:28Z</time>
      </trkpt>
      <trkpt lat="47.30168" lon="4.98254">
        <ele>415</ele>
        <time>2012-10-07T07:02:30Z</time>
      </trkpt>
      <trkpt lat="47.30168" lon="4.98261">
        <ele>416</ele>
        <time>2012-10-07T07:02:33Z</time>
      </trkpt>
      <trkpt lat="47.30166" lon="4.98269">
        <ele>417</ele>
        <time>2012-10-07T07:02:36Z</time>
      </trkpt>
      <trkpt lat="47.30165" lon="4.98276">
        <ele>417</ele>
        <time>2012-10-07T07:02:39Z</time>
      </trkpt>
      <trkpt lat="47.30163" lon="4.98283">
        <ele>417</ele>
        <time>2012-10-07T07:02:42Z</time>
      </trkpt>
      <trkpt lat="47.30162" lon="4.9829">
        <ele>418</ele>
        <time>2012-10-07T07:02:44Z</time>
      </trkpt>
      <trkpt lat="47.30162" lon="4.98298">
        <ele>420</ele>
        <time>2012-10-07T07:02:47Z</time>
      </trkpt>
      <trkpt lat="47.3016" lon="4.98304">
        <ele>421</ele>
        <time>2012-10-07T07:02:49Z</time>
      </trkpt>
      <trkpt lat="47.30158" lon="4.9831">
        <ele>421</ele>
        <time>2012-10-07T07:02:51Z</time>
      </trkpt>
      <trkpt lat="47.30154" lon="4.98316">
        <ele>423</ele>
        <time>2012-10-07T07:02:53Z</time>
      </trkpt>
      <trkpt lat="47.30153" lon="4.98324">
        <ele>426</ele>
        <time>2012-10-07T07:02:56Z</time>
      </trkpt>
      <trkpt lat="47.30152" lon="4.98332">
        <ele>426</ele>
        <time>2012-10-07T07:02:59Z</time>
      </trkpt>
      <trkpt lat="47.30151" lon="4.98339">
        <ele>426</ele>
        <time>2012-10-07T07:03:01Z</time>
      </trkpt>
      <trkpt lat="47.30151" lon="4.98346">
        <ele>425</ele>
        <time>2012-10-07T07:03:04Z</time>
      </trkpt>
      <trkpt lat="47.30151" lon="4.98354">
        <ele>426</ele>
        <time>2012-10-07T07:03:07Z</time>
      </trkpt>
      <trkpt lat="47.3015" lon="4.98361">
        <ele>426</ele>
        <time>2012-10-07T07:03:10Z</time>
      </trkpt>
      <trkpt lat="47.30147" lon="4.98367">
        <ele>427</ele>
        <time>2012-10-07T07:03:13Z</time>
      </trkpt>
      <trkpt lat="47.30139" lon="4.98374">
        <ele>425</ele>
        <time>2012-10-07T07:03:15Z</time>
      </trkpt>
      <trkpt lat="47.30134" lon="4.98376">
        <ele>424</ele>
        <time>2012-10-07T07:03:18Z</time>
      </trkpt>
      <trkpt lat="47.3013" lon="4.9837">
        <ele>422</ele>
        <time>2012-10-07T07:03:21Z</time>
      </trkpt>
      <trkpt lat="47.30127" lon="4.98364">
        <ele>423</ele>
        <time>2012-10-07T07:03:24Z</time>
      </trkpt>
      <trkpt lat="47.30123" lon="4.98358">
        <ele>425</ele>
        <time>2012-10-07T07:03:28Z</time>
      </trkpt>
      <trkpt lat="47.30118" lon="4.98353">
        <ele>426</ele>
        <time>2012-10-07T07:03:31Z</time>
      </trkpt>
      <trkpt lat="47.30114" lon="4.98348">
        <ele>426</ele>
        <time>2012-10-07T07:03:34Z</time>
      </trkpt>
      <trkpt lat="47.30112" lon="4.98339">
        <ele>425</ele>
        <time>2012-10-07T07:03:37Z</time>
      </trkpt>
      <trkpt lat="47.30109" lon="4.98332">
        <ele>425</ele>
        <time>2012-10-07T07:03:40Z</time>
      </trkpt>
      <trkpt lat="47.30106" lon="4.98325">
        <ele>423</ele>
        <time>2012-10-07T07:03:43Z</time>
      </trkpt>
      <trkpt lat="47.30103" lon="4.98318">
        <ele>423</ele>
        <time>2012-10-07T07:03:46Z</time>
      </trkpt>
      <trkpt lat="47.301" lon="4.98312">
        <ele>426</ele>
        <time>2012-10-07T07:03:50Z</time>
      </trkpt>
      <trkpt lat="47.30096" lon="4.98303">
        <ele>427</ele>
        <time>2012-10-07T07:03:53Z</time>
      </trkpt>
      <trkpt lat="47.30095" lon="4.98297">
        <ele>426</ele>
        <time>2012-10-07T07:03:55Z</time>
      </trkpt>
      <trkpt lat="47.30093" lon="4.9829">
        <ele>425</ele>
        <time>2012-10-07T07:03:57Z</time>
      </trkpt>
      <trkpt lat="47.3009" lon="4.98282">
        <ele>428</ele>
        <time>2012-10-07T07:04:01Z</time>
      </trkpt>
      <trkpt lat="47.30086" lon="4.98274">
        <ele>428</ele>
        <time>2012-10-07T07:04:04Z</time>
      </trkpt>
      <trkpt lat="47.30082" lon="4.98269">
        <ele>429</ele>
        <time>2012-10-07T07:04:07Z</time>
      </trkpt>
      <trkpt lat="47.30079" lon="4.98262">
        <ele>430</ele>
        <time>2012-10-07T07:04:10Z</time>
      </trkpt>
      <trkpt lat="47.30076" lon="4.98255">
        <ele>429</ele>
        <time>2012-10-07T07:04:13Z</time>
      </trkpt>
      <trkpt lat="47.30073" lon="4.98249">
        <ele>429</ele>
        <time>2012-10-07T07:04:16Z</time>
      </trkpt>
      <trkpt lat="47.30069" lon="4.98242">
        <ele>429</ele>
        <time>2012-10-07T07:04:19Z</time>
      </trkpt>
      <trkpt lat="47.30066" lon="4.98236">
        <ele>429</ele>
        <time>2012-10-07T07:04:22Z</time>
      </trkpt>
      <trkpt lat="47.30063" lon="4.98231">
        <ele>429</ele>
        <time>2012-10-07T07:04:25Z</time>
      </trkpt>
      <trkpt lat="47.30059" lon="4.98226">
        <ele>429</ele>
        <time>2012-10-07T07:04:28Z</time>
      </trkpt>
      <trkpt lat="47.30056" lon="4.98219">
        <ele>429</ele>
        <time>2012-10-07T07:04:31Z</time>
      </trkpt>
      <trkpt lat="47.30052" lon="4.98213">
        <ele>429</ele>
        <time>2012-10-07T07:04:34Z</time>
      </trkpt>
      <trkpt lat="47.30047" lon="4.98206">
        <ele>429</ele>
        <time>2012-10-07T07:04:37Z</time>
      </trkpt>
      <trkpt lat="47.30044" lon="4.98199">
        <ele>428</ele>
        <time>2012-10-07T07:04:39Z</time>
      </trkpt>
      <trkpt lat="47.30042" lon="4.98194">
        <ele>428</ele>
        <time>2012-10-07T07:04:42Z</time>
      </trkpt>
      <trkpt lat="47.30039" lon="4.98187">
        <ele>428</ele>
        <time>2012-10-07T07:04:45Z</time>
      </trkpt>
      <trkpt lat="47.30036" lon="4.98182">
        <ele>429</ele>
        <time>2012-10-07T07:04:48Z</time>
      </trkpt>
      <trkpt lat="47.30033" lon="4.98175">
        <ele>429</ele>
        <time>2012-10-07T07:04:51Z</time>
      </trkpt>
      <trkpt lat="47.30029" lon="4.98168">
        <ele>429</ele>
        <time>2012-10-07T07:04:54Z</time>
      </trkpt>
      <trkpt lat="47.30026" lon="4.98162">
        <ele>429</ele>
        <time>2012-10-07T07:04:57Z</time>
      </trkpt>
      <trkpt lat="47.30022" lon="4.98156">
        <ele>430</ele>
        <time>2012-10-07T07:05:00Z</time>
      </trkpt>
      <trkpt lat="47.3002" lon="4.98149">
        <ele>429</ele>
        <time>2012-10-07T07:05:04Z</time>
      </trkpt>
      <trkpt lat="47.30017" lon="4.98143">
        <ele>431</ele>
        <time>2012-10-07T07:05:08Z</time>
      </trkpt>
      <trkpt lat="47.30013" lon="4.98139">
        <ele>431</ele>
        <time>2012-10-07T07:05:11Z</time>
      </trkpt>
      <trkpt lat="47.3001" lon="4.98133">
        <ele>430</ele>
        <time>2012-10-07T07:05:14Z</time>
      </trkpt>
      <trkpt lat="47.30007" lon="4.98125">
        <ele>429</ele>
        <time>2012-10-07T07:05:17Z</time>
      </trkpt>
      <trkpt lat="47.30005" lon="4.98119">
        <ele>429</ele>
        <time>2012-10-07T07:05:20Z</time>
      </trkpt>
      <trkpt lat="47.30003" lon="4.98111">
        <ele>430</ele>
        <time>2012-10-07T07:05:23Z</time>
      </trkpt>
      <trkpt lat="47.29998" lon="4.98104">
        <ele>431</ele>
        <time>2012-10-07T07:05:26Z</time>
      </trkpt>
      <trkpt lat="47.29995" lon="4.98097">
        <ele>431</ele>
        <time>2012-10-07T07:05:29Z</time>
      </trkpt>
      <trkpt lat="47.29992" lon="4.98091">
        <ele>431</ele>
        <time>2012-10-07T07:05:32Z</time>
      </trkpt>
      <trkpt lat="47.29989" lon="4.98085">
        <ele>431</ele>
        <time>2012-10-07T07:05:35Z</time>
      </trkpt>
      <trkpt lat="47.29986" lon="4.98078">
        <ele>432</ele>
        <time>2012-10-07T07:05:38Z</time>
      </trkpt>
      <trkpt lat="47.29982" lon="4.98072">
        <ele>432</ele>
        <time>2012-10-07T07:05:41Z</time>
      </trkpt>
      <trkpt lat="47.29979" lon="4.98065">
        <ele>431</ele>
        <time>2012-10-07T07:05:44Z</time>
      </trkpt>
      <trkpt lat="47.29977" lon="4.98059">
        <ele>430</ele>
        <time>2012-10-07T07:05:46Z</time>
      </trkpt>
      <trkpt lat="47.29974" lon="4.98052">
        <ele>429</ele>
        <time>2012-10-07T07:05:49Z</time>
      </trkpt>
      <trkpt lat="47.29972" lon="4.98044">
        <ele>428</ele>
        <time>2012-10-07T07:05:52Z</time>
      </trkpt>
      <trkpt lat="47.29969" lon="4.98037">
        <ele>428</ele>
        <time>2012-10-07T07:05:55Z</time>
      </trkpt>
      <trkpt lat="47.29966" lon="4.9803">
        <ele>429</ele>
        <time>2012-10-07T07:05:58Z</time>
      </trkpt>
      <trkpt lat="47.29963" lon="4.98024">
        <ele>428</ele>
        <time>2012-10-07T07:06:01Z</time>
      </trkpt>
      <trkpt lat="47.2996" lon="4.98016">
        <ele>429</ele>
        <time>2012-10-07T07:06:04Z</time>
      </trkpt>
      <trkpt lat="47.29957" lon="4.98009">
        <ele>430</ele>
        <time>2012-10-07T07:06:07Z</time>
      </trkpt>
      <trkpt lat="47.29954" lon="4.98002">
        <ele>430</ele>
        <time>2012-10-07T07:06:10Z</time>
      </trkpt>
      <trkpt lat="47.29952" lon="4.97996">
        <ele>430</ele>
        <time>2012-10-07T07:06:13Z</time>
      </trkpt>
      <trkpt lat="47.29948" lon="4.97988">
        <ele>429</ele>
        <time>2012-10-07T07:06:16Z</time>
      </trkpt>
      <trkpt lat="47.29945" lon="4.97982">
        <ele>430</ele>
        <time>2012-10-07T07:06:19Z</time>
      </trkpt>
      <trkpt lat="47.29943" lon="4.97974">
        <ele>432</ele>
        <time>2012-10-07T07:06:22Z</time>
      </trkpt>
      <trkpt lat="47.2994" lon="4.97967">
        <ele>433</ele>
        <time>2012-10-07T07:06:25Z</time>
      </trkpt>
      <trkpt lat="47.29938" lon="4.97961">
        <ele>433</ele>
        <time>2012-10-07T07:06:28Z</time>
      </trkpt>
      <trkpt lat="47.29934" lon="4.97955">
        <ele>433</ele>
        <time>2012-10-07T07:06:31Z</time>
      </trkpt>
      <trkpt lat="47.29932" lon="4.97948">
        <ele>435</ele>
        <time>2012-10-07T07:06:34Z</time>
      </trkpt>
      <trkpt lat="47.29929" lon="4.97941">
        <ele>436</ele>
        <time>2012-10-07T07:06:37Z</time>
      </trkpt>
      <trkpt lat="47.29926" lon="4.97935">
        <ele>436</ele>
        <time>2012-10-07T07:06:40Z</time>
      </trkpt>
      <trkpt lat="47.29922" lon="4.97929">
        <ele>436</ele>
        <time>2012-10-07T07:06:43Z</time>
      </trkpt>
      <trkpt lat="47.29918" lon="4.97923">
        <ele>435</ele>
        <time>2012-10-07T07:06:46Z</time>
      </trkpt>
      <trkpt lat="47.29915" lon="4.97917">
        <ele>437</ele>
        <time>2012-10-07T07:06:49Z</time>
      </trkpt>
      <trkpt lat="47.29912" lon="4.97911">
        <ele>437</ele>
        <time>2012-10-07T07:06:52Z</time>
      </trkpt>
      <trkpt lat="47.29909" lon="4.97905">
        <ele>437</ele>
        <time>2012-10-07T07:06:55Z</time>
      </trkpt>
      <trkpt lat="47.29905" lon="4.979">
        <ele>437</ele>
        <time>2012-10-07T07:06:58Z</time>
      </trkpt>
      <trkpt lat="47.29902" lon="4.97893">
        <ele>436</ele>
        <time>2012-10-07T07:07:01Z</time>
      </trkpt>
      <trkpt lat="47.29898" lon="4.97887">
        <ele>436</ele>
        <time>2012-10-07T07:07:04Z</time>
      </trkpt>
      <trkpt lat="47.29895" lon="4.97881">
        <ele>436</ele>
        <time>2012-10-07T07:07:07Z</time>
      </trkpt>
      <trkpt lat="47.29892" lon="4.97874">
        <ele>435</ele>
        <time>2012-10-07T07:07:10Z</time>
      </trkpt>
      <trkpt lat="47.29889" lon="4.97867">
        <ele>436</ele>
        <time>2012-10-07T07:07:13Z</time>
      </trkpt>
      <trkpt lat="47.29886" lon="4.9786">
        <ele>436</ele>
        <time>2012-10-07T07:07:16Z</time>
      </trkpt>
      <trkpt lat="47.29882" lon="4.97854">
        <ele>437</ele>
        <time>2012-10-07T07:07:19Z</time>
      </trkpt>
      <trkpt lat="47.29881" lon="4.97847">
        <ele>435</ele>
        <time>2012-10-07T07:07:21Z</time>
      </trkpt>
      <trkpt lat="47.2988" lon="4.97838">
        <ele>435</ele>
        <time>2012-10-07T07:07:24Z</time>
      </trkpt>
      <trkpt lat="47.29879" lon="4.97829">
        <ele>434</ele>
        <time>2012-10-07T07:07:27Z</time>
      </trkpt>
      <trkpt lat="47.29878" lon="4.97821">
        <ele>434</ele>
        <time>2012-10-07T07:07:30Z</time>
      </trkpt>
      <trkpt lat="47.29878" lon="4.97813">
        <ele>434</ele>
        <time>2012-10-07T07:07:33Z</time>
      </trkpt>
      <trkpt lat="47.29878" lon="4.97804">
        <ele>434</ele>
        <time>2012-10-07T07:07:36Z</time>
      </trkpt>
      <trkpt lat="47.29877" lon="4.97796">
        <ele>434</ele>
        <time>2012-10-07T07:07:39Z</time>
      </trkpt>
      <trkpt lat="47.29876" lon="4.97789">
        <ele>434</ele>
        <time>2012-10-07T07:07:42Z</time>
      </trkpt>
      <trkpt lat="47.29876" lon="4.97781">
        <ele>434</ele>
        <time>2012-10-07T07:07:45Z</time>
      </trkpt>
      <trkpt lat="47.29876" lon="4.97773">
        <ele>434</ele>
        <time>2012-10-07T07:07:48Z</time>
      </trkpt>
      <trkpt lat="47.29877" lon="4.97764">
        <ele>434</ele>
        <time>2012-10-07T07:07:51Z</time>
      </trkpt>
      <trkpt lat="47.29877" lon="4.97757">
        <ele>434</ele>
        <time>2012-10-07T07:07:53Z</time>
      </trkpt>
      <trkpt lat="47.29876" lon="4.97749">
        <ele>435</ele>
        <time>2012-10-07T07:07:56Z</time>
      </trkpt>
      <trkpt lat="47.29874" lon="4.97742">
        <ele>435</ele>
        <time>2012-10-07T07:07:59Z</time>
      </trkpt>
      <trkpt lat="47.29876" lon="4.97734">
        <ele>434</ele>
        <time>2012-10-07T07:08:02Z</time>
      </trkpt>
      <trkpt lat="47.29876" lon="4.97726">
        <ele>433</ele>
        <time>2012-10-07T07:08:05Z</time>
      </trkpt>
      <trkpt lat="47.29876" lon="4.97718">
        <ele>433</ele>
        <time>2012-10-07T07:08:08Z</time>
      </trkpt>
      <trkpt lat="47.29876" lon="4.9771">
        <ele>434</ele>
        <time>2012-10-07T07:08:11Z</time>
      </trkpt>
      <trkpt lat="47.29876" lon="4.97701">
        <ele>434</ele>
        <time>2012-10-07T07:08:14Z</time>
      </trkpt>
      <trkpt lat="47.29876" lon="4.97692">
        <ele>434</ele>
        <time>2012-10-07T07:08:17Z</time>
      </trkpt>
      <trkpt lat="47.29876" lon="4.97684">
        <ele>434</ele>
        <time>2012-10-07T07:08:20Z</time>
      </trkpt>
      <trkpt lat="47.29875" lon="4.97675">
        <ele>434</ele>
        <time>2012-10-07T07:08:24Z</time>
      </trkpt>
      <trkpt lat="47.29875" lon="4.97667">
        <ele>434</ele>
        <time>2012-10-07T07:08:27Z</time>
      </trkpt>
      <trkpt lat="47.29874" lon="4.9766">
        <ele>434</ele>
        <time>2012-10-07T07:08:30Z</time>
      </trkpt>
      <trkpt lat="47.29872" lon="4.97652">
        <ele>433</ele>
        <time>2012-10-07T07:08:33Z</time>
      </trkpt>
      <trkpt lat="47.29871" lon="4.97645">
        <ele>434</ele>
        <time>2012-10-07T07:08:36Z</time>
      </trkpt>
      <trkpt lat="47.2987" lon="4.97636">
        <ele>434</ele>
        <time>2012-10-07T07:08:39Z</time>
      </trkpt>
      <trkpt lat="47.2987" lon="4.97629">
        <ele>436</ele>
        <time>2012-10-07T07:08:42Z</time>
      </trkpt>
      <trkpt lat="47.29868" lon="4.97621">
        <ele>436</ele>
        <time>2012-10-07T07:08:45Z</time>
      </trkpt>
      <trkpt lat="47.29866" lon="4.97614">
        <ele>436</ele>
        <time>2012-10-07T07:08:48Z</time>
      </trkpt>
      <trkpt lat="47.29865" lon="4.97605">
        <ele>436</ele>
        <time>2012-10-07T07:08:51Z</time>
      </trkpt>
      <trkpt lat="47.29864" lon="4.97597">
        <ele>436</ele>
        <time>2012-10-07T07:08:54Z</time>
      </trkpt>
      <trkpt lat="47.29863" lon="4.97589">
        <ele>436</ele>
        <time>2012-10-07T07:08:57Z</time>
      </trkpt>
      <trkpt lat="47.29861" lon="4.97582">
        <ele>437</ele>
        <time>2012-10-07T07:09:00Z</time>
      </trkpt>
      <trkpt lat="47.29859" lon="4.97574">
        <ele>436</ele>
        <time>2012-10-07T07:09:03Z</time>
      </trkpt>
      <trkpt lat="47.29858" lon="4.97567">
        <ele>436</ele>
        <time>2012-10-07T07:09:06Z</time>
      </trkpt>
      <trkpt lat="47.29856" lon="4.97559">
        <ele>435</ele>
        <time>2012-10-07T07:09:09Z</time>
      </trkpt>
      <trkpt lat="47.29854" lon="4.97551">
        <ele>435</ele>
        <time>2012-10-07T07:09:12Z</time>
      </trkpt>
      <trkpt lat="47.29852" lon="4.97544">
        <ele>436</ele>
        <time>2012-10-07T07:09:15Z</time>
      </trkpt>
      <trkpt lat="47.2985" lon="4.97536">
        <ele>436</ele>
        <time>2012-10-07T07:09:18Z</time>
      </trkpt>
      <trkpt lat="47.29848" lon="4.97528">
        <ele>435</ele>
        <time>2012-10-07T07:09:21Z</time>
      </trkpt>
      <trkpt lat="47.29846" lon="4.97521">
        <ele>436</ele>
        <time>2012-10-07T07:09:24Z</time>
      </trkpt>
      <trkpt lat="47.29845" lon="4.97513">
        <ele>436</ele>
        <time>2012-10-07T07:09:27Z</time>
      </trkpt>
      <trkpt lat="47.29843" lon="4.97506">
        <ele>435</ele>
        <time>2012-10-07T07:09:30Z</time>
      </trkpt>
      <trkpt lat="47.29842" lon="4.97498">
        <ele>435</ele>
        <time>2012-10-07T07:09:33Z</time>
      </trkpt>
      <trkpt lat="47.2984" lon="4.9749">
        <ele>435</ele>
        <time>2012-10-07T07:09:36Z</time>
      </trkpt>
      <trkpt lat="47.29839" lon="4.97483">
        <ele>435</ele>
        <time>2012-10-07T07:09:39Z</time>
      </trkpt>
      <trkpt lat="47.29838" lon="4.97475">
        <ele>435</ele>
        <time>2012-10-07T07:09:42Z</time>
      </trkpt>
      <trkpt lat="47.29837" lon="4.97468">
        <ele>436</ele>
        <time>2012-10-07T07:09:45Z</time>
      </trkpt>
      <trkpt lat="47.29836" lon="4.9746">
        <ele>437</ele>
        <time>2012-10-07T07:09:48Z</time>
      </trkpt>
      <trkpt lat="47.29836" lon="4.97452">
        <ele>438</ele>
        <time>2012-10-07T07:09:51Z</time>
      </trkpt>
      <trkpt lat="47.29835" lon="4.97445">
        <ele>438</ele>
        <time>2012-10-07T07:09:54Z</time>
      </trkpt>
      <trkpt lat="47.29834" lon="4.97437">
        <ele>439</ele>
        <time>2012-10-07T07:09:57Z</time>
      </trkpt>
      <trkpt lat="47.29833" lon="4.9743">
        <ele>440</ele>
        <time>2012-10-07T07:10:00Z</time>
      </trkpt>
      <trkpt lat="47.29832" lon="4.97421">
        <ele>439</ele>
        <time>2012-10-07T07:10:03Z</time>
      </trkpt>
      <trkpt lat="47.29832" lon="4.97414">
        <ele>438</ele>
        <time>2012-10-07T07:10:06Z</time>
      </trkpt>
      <trkpt lat="47.2983" lon="4.97406">
        <ele>438</ele>
        <time>2012-10-07T07:10:09Z</time>
      </trkpt>
      <trkpt lat="47.29826" lon="4.97401">
        <ele>437</ele>
        <time>2012-10-07T07:10:12Z</time>
      </trkpt>
      <trkpt lat="47.29821" lon="4.97398">
        <ele>436</ele>
        <time>2012-10-07T07:10:17Z</time>
      </trkpt>
      <trkpt lat="47.29815" lon="4.97397">
        <ele>438</ele>
        <time>2012-10-07T07:10:23Z</time>
      </trkpt>
      <trkpt lat="47.29811" lon="4.97392">
        <ele>438</ele>
        <time>2012-10-07T07:10:26Z</time>
      </trkpt>
      <trkpt lat="47.2981" lon="4.97384">
        <ele>438</ele>
        <time>2012-10-07T07:10:29Z</time>
      </trkpt>
      <trkpt lat="47.2981" lon="4.97377">
        <ele>438</ele>
        <time>2012-10-07T07:10:32Z</time>
      </trkpt>
      <trkpt lat="47.2981" lon="4.9737">
        <ele>438</ele>
        <time>2012-10-07T07:10:35Z</time>
      </trkpt>
      <trkpt lat="47.29808" lon="4.97362">
        <ele>438</ele>
        <time>2012-10-07T07:10:38Z</time>
      </trkpt>
      <trkpt lat="47.29805" lon="4.97358">
        <ele>438</ele>
        <time>2012-10-07T07:10:41Z</time>
      </trkpt>
      <trkpt lat="47.29802" lon="4.97352">
        <ele>438</ele>
        <time>2012-10-07T07:10:44Z</time>
      </trkpt>
      <trkpt lat="47.29798" lon="4.97346">
        <ele>437</ele>
        <time>2012-10-07T07:10:47Z</time>
      </trkpt>
      <trkpt lat="47.29794" lon="4.97342">
        <ele>437</ele>
        <time>2012-10-07T07:10:50Z</time>
      </trkpt>
      <trkpt lat="47.29788" lon="4.97337">
        <ele>439</ele>
        <time>2012-10-07T07:10:54Z</time>
      </trkpt>
      <trkpt lat="47.29783" lon="4.97332">
        <ele>440</ele>
        <time>2012-10-07T07:10:57Z</time>
      </trkpt>
      <trkpt lat="47.29779" lon="4.97328">
        <ele>440</ele>
        <time>2012-10-07T07:11:00Z</time>
      </trkpt>
      <trkpt lat="47.29775" lon="4.97323">
        <ele>442</ele>
        <time>2012-10-07T07:11:08Z</time>
      </trkpt>
      <trkpt lat="47.2977" lon="4.97318">
        <ele>442</ele>
        <time>2012-10-07T07:11:11Z</time>
      </trkpt>
      <trkpt lat="47.29766" lon="4.97313">
        <ele>442</ele>
        <time>2012-10-07T07:11:14Z</time>
      </trkpt>
      <trkpt lat="47.29761" lon="4.97308">
        <ele>441</ele>
        <time>2012-10-07T07:11:17Z</time>
      </trkpt>
      <trkpt lat="47.29757" lon="4.97304">
        <ele>443</ele>
        <time>2012-10-07T07:11:20Z</time>
      </trkpt>
      <trkpt lat="47.29752" lon="4.97298">
        <ele>442</ele>
        <time>2012-10-07T07:11:24Z</time>
      </trkpt>
      <trkpt lat="47.29747" lon="4.97294">
        <ele>442</ele>
        <time>2012-10-07T07:11:27Z</time>
      </trkpt>
      <trkpt lat="47.29742" lon="4.9729">
        <ele>443</ele>
        <time>2012-10-07T07:11:30Z</time>
      </trkpt>
      <trkpt lat="47.29738" lon="4.97286">
        <ele>443</ele>
        <time>2012-10-07T07:11:33Z</time>
      </trkpt>
      <trkpt lat="47.29733" lon="4.97281">
        <ele>444</ele>
        <time>2012-10-07T07:11:38Z</time>
      </trkpt>
      <trkpt lat="47.29728" lon="4.97276">
        <ele>444</ele>
        <time>2012-10-07T07:11:41Z</time>
      </trkpt>
      <trkpt lat="47.29724" lon="4.97271">
        <ele>446</ele>
        <time>2012-10-07T07:11:44Z</time>
      </trkpt>
      <trkpt lat="47.2972" lon="4.97266">
        <ele>446</ele>
        <time>2012-10-07T07:11:47Z</time>
      </trkpt>
      <trkpt lat="47.29717" lon="4.97262">
        <ele>444</ele>
        <time>2012-10-07T07:11:50Z</time>
      </trkpt>
      <trkpt lat="47.29712" lon="4.97257">
        <ele>443</ele>
        <time>2012-10-07T07:11:53Z</time>
      </trkpt>
      <trkpt lat="47.29707" lon="4.97252">
        <ele>441</ele>
        <time>2012-10-07T07:11:56Z</time>
      </trkpt>
      <trkpt lat="47.29702" lon="4.97252">
        <ele>442</ele>
        <time>2012-10-07T07:12:00Z</time>
      </trkpt>
      <trkpt lat="47.29695" lon="4.97249">
        <ele>441</ele>
        <time>2012-10-07T07:12:04Z</time>
      </trkpt>
      <trkpt lat="47.2969" lon="4.97248">
        <ele>441</ele>
        <time>2012-10-07T07:12:07Z</time>
      </trkpt>
      <trkpt lat="47.29686" lon="4.97249">
        <ele>442</ele>
        <time>2012-10-07T07:12:10Z</time>
      </trkpt>
      <trkpt lat="47.29682" lon="4.97252">
        <ele>442</ele>
        <time>2012-10-07T07:12:13Z</time>
      </trkpt>
      <trkpt lat="47.29675" lon="4.97254">
        <ele>443</ele>
        <time>2012-10-07T07:12:16Z</time>
      </trkpt>
      <trkpt lat="47.2967" lon="4.97255">
        <ele>444</ele>
        <time>2012-10-07T07:12:19Z</time>
      </trkpt>
      <trkpt lat="47.29664" lon="4.97254">
        <ele>443</ele>
        <time>2012-10-07T07:12:22Z</time>
      </trkpt>
      <trkpt lat="47.29659" lon="4.97249">
        <ele>441</ele>
        <time>2012-10-07T07:12:25Z</time>
      </trkpt>
      <trkpt lat="47.29654" lon="4.97249">
        <ele>439</ele>
        <time>2012-10-07T07:12:28Z</time>
      </trkpt>
      <trkpt lat="47.29648" lon="4.97251">
        <ele>439</ele>
        <time>2012-10-07T07:12:32Z</time>
      </trkpt>
      <trkpt lat="47.29644" lon="4.97255">
        <ele>443</ele>
        <time>2012-10-07T07:12:37Z</time>
      </trkpt>
      <trkpt lat="47.2964" lon="4.9726">
        <ele>442</ele>
        <time>2012-10-07T07:12:40Z</time>
      </trkpt>
      <trkpt lat="47.29637" lon="4.97265">
        <ele>442</ele>
        <time>2012-10-07T07:12:43Z</time>
      </trkpt>
      <trkpt lat="47.29632" lon="4.97269">
        <ele>443</ele>
        <time>2012-10-07T07:12:46Z</time>
      </trkpt>
      <trkpt lat="47.29628" lon="4.97274">
        <ele>443</ele>
        <time>2012-10-07T07:12:49Z</time>
      </trkpt>
      <trkpt lat="47.29626" lon="4.9728">
        <ele>447</ele>
        <time>2012-10-07T07:12:53Z</time>
      </trkpt>
      <trkpt lat="47.29623" lon="4.97287">
        <ele>448</ele>
        <time>2012-10-07T07:12:57Z</time>
      </trkpt>
      <trkpt lat="47.2962" lon="4.97292">
        <ele>449</ele>
        <time>2012-10-07T07:13:00Z</time>
      </trkpt>
      <trkpt lat="47.29615" lon="4.97294">
        <ele>448</ele>
        <time>2012-10-07T07:13:03Z</time>
      </trkpt>
      <trkpt lat="47.2961" lon="4.97297">
        <ele>448</ele>
        <time>2012-10-07T07:13:06Z</time>
      </trkpt>
      <trkpt lat="47.29606" lon="4.97301">
        <ele>450</ele>
        <time>2012-10-07T07:13:09Z</time>
      </trkpt>
      <trkpt lat="47.29602" lon="4.97306">
        <ele>449</ele>
        <time>2012-10-07T07:13:13Z</time>
      </trkpt>
      <trkpt lat="47.29598" lon="4.97308">
        <ele>447</ele>
        <time>2012-10-07T07:13:16Z</time>
      </trkpt>
      <trkpt lat="47.29593" lon="4.97313">
        <ele>446</ele>
        <time>2012-10-07T07:13:19Z</time>
      </trkpt>
      <trkpt lat="47.29588" lon="4.97318">
        <ele>445</ele>
        <time>2012-10-07T07:13:22Z</time>
      </trkpt>
      <trkpt lat="47.29585" lon="4.97322">
        <ele>446</ele>
        <time>2012-10-07T07:13:24Z</time>
      </trkpt>
      <trkpt lat="47.29582" lon="4.97328">
        <ele>448</ele>
        <time>2012-10-07T07:13:27Z</time>
      </trkpt>
      <trkpt lat="47.29576" lon="4.97334">
        <ele>448</ele>
        <time>2012-10-07T07:13:31Z</time>
      </trkpt>
      <trkpt lat="47.29572" lon="4.97339">
        <ele>449</ele>
        <time>2012-10-07T07:13:34Z</time>
      </trkpt>
      <trkpt lat="47.29569" lon="4.97344">
        <ele>450</ele>
        <time>2012-10-07T07:13:38Z</time>
      </trkpt>
      <trkpt lat="47.29565" lon="4.97348">
        <ele>449</ele>
        <time>2012-10-07T07:13:42Z</time>
      </trkpt>
      <trkpt lat="47.29562" lon="4.97354">
        <ele>449</ele>
        <time>2012-10-07T07:13:45Z</time>
      </trkpt>
      <trkpt lat="47.29559" lon="4.97359">
        <ele>449</ele>
        <time>2012-10-07T07:13:48Z</time>
      </trkpt>
      <trkpt lat="47.29556" lon="4.97366">
        <ele>449</ele>
        <time>2012-10-07T07:13:52Z</time>
      </trkpt>
      <trkpt lat="47.29553" lon="4.97374">
        <ele>449</ele>
        <time>2012-10-07T07:13:56Z</time>
      </trkpt>
      <trkpt lat="47.29548" lon="4.97379">
        <ele>448</ele>
        <time>2012-10-07T07:13:59Z</time>
      </trkpt>
      <trkpt lat="47.29543" lon="4.97383">
        <ele>448</ele>
        <time>2012-10-07T07:14:02Z</time>
      </trkpt>
      <trkpt lat="47.29538" lon="4.97385">
        <ele>448</ele>
        <time>2012-10-07T07:14:05Z</time>
      </trkpt>
      <trkpt lat="47.29534" lon="4.9739">
        <ele>449</ele>
        <time>2012-10-07T07:14:08Z</time>
      </trkpt>
      <trkpt lat="47.2953" lon="4.97393">
        <ele>449</ele>
        <time>2012-10-07T07:14:13Z</time>
      </trkpt>
      <trkpt lat="47.29526" lon="4.97397">
        <ele>449</ele>
        <time>2012-10-07T07:14:18Z</time>
      </trkpt>
      <trkpt lat="47.29521" lon="4.974">
        <ele>447</ele>
        <time>2012-10-07T07:14:21Z</time>
      </trkpt>
      <trkpt lat="47.29517" lon="4.97405">
        <ele>446</ele>
        <time>2012-10-07T07:14:24Z</time>
      </trkpt>
      <trkpt lat="47.29514" lon="4.97411">
        <ele>448</ele>
        <time>2012-10-07T07:14:30Z</time>
      </trkpt>
      <trkpt lat="47.2951" lon="4.97416">
        <ele>448</ele>
        <time>2012-10-07T07:14:33Z</time>
      </trkpt>
      <trkpt lat="47.29505" lon="4.97419">
        <ele>447</ele>
        <time>2012-10-07T07:14:36Z</time>
      </trkpt>
      <trkpt lat="47.29499" lon="4.97423">
        <ele>446</ele>
        <time>2012-10-07T07:14:40Z</time>
      </trkpt>
      <trkpt lat="47.29496" lon="4.97427">
        <ele>444</ele>
        <time>2012-10-07T07:14:42Z</time>
      </trkpt>
      <trkpt lat="47.29492" lon="4.97434">
        <ele>444</ele>
        <time>2012-10-07T07:14:45Z</time>
      </trkpt>
      <trkpt lat="47.2949" lon="4.97441">
        <ele>444</ele>
        <time>2012-10-07T07:14:48Z</time>
      </trkpt>
      <trkpt lat="47.29489" lon="4.97448">
        <ele>446</ele>
        <time>2012-10-07T07:14:51Z</time>
      </trkpt>
      <trkpt lat="47.29487" lon="4.97455">
        <ele>446</ele>
        <time>2012-10-07T07:14:54Z</time>
      </trkpt>
      <trkpt lat="47.29483" lon="4.97461">
        <ele>444</ele>
        <time>2012-10-07T07:14:57Z</time>
      </trkpt>
      <trkpt lat="47.29483" lon="4.97468">
        <ele>444</ele>
        <time>2012-10-07T07:15:00Z</time>
      </trkpt>
      <trkpt lat="47.29482" lon="4.97476">
        <ele>444</ele>
        <time>2012-10-07T07:15:03Z</time>
      </trkpt>
      <trkpt lat="47.2948" lon="4.97484">
        <ele>444</ele>
        <time>2012-10-07T07:15:07Z</time>
      </trkpt>
      <trkpt lat="47.29478" lon="4.97492">
        <ele>443</ele>
        <time>2012-10-07T07:15:11Z</time>
      </trkpt>
      <trkpt lat="47.29474" lon="4.97498">
        <ele>441</ele>
        <time>2012-10-07T07:15:14Z</time>
      </trkpt>
      <trkpt lat="47.29471" lon="4.97504">
        <ele>440</ele>
        <time>2012-10-07T07:15:17Z</time>
      </trkpt>
      <trkpt lat="47.29468" lon="4.97509">
        <ele>439</ele>
        <time>2012-10-07T07:15:20Z</time>
      </trkpt>
      <trkpt lat="47.29465" lon="4.97515">
        <ele>439</ele>
        <time>2012-10-07T07:15:24Z</time>
      </trkpt>
      <trkpt lat="47.29464" lon="4.97523">
        <ele>440</ele>
        <time>2012-10-07T07:15:27Z</time>
      </trkpt>
      <trkpt lat="47.29462" lon="4.97532">
        <ele>439</ele>
        <time>2012-10-07T07:15:30Z</time>
      </trkpt>
      <trkpt lat="47.2946" lon="4.9754">
        <ele>440</ele>
        <time>2012-10-07T07:15:33Z</time>
      </trkpt>
      <trkpt lat="47.29458" lon="4.97548">
        <ele>440</ele>
        <time>2012-10-07T07:15:36Z</time>
      </trkpt>
      <trkpt lat="47.29455" lon="4.97556">
        <ele>439</ele>
        <time>2012-10-07T07:15:39Z</time>
      </trkpt>
      <trkpt lat="47.29453" lon="4.97564">
        <ele>439</ele>
        <time>2012-10-07T07:15:42Z</time>
      </trkpt>
      <trkpt lat="47.29451" lon="4.9757">
        <ele>438</ele>
        <time>2012-10-07T07:15:45Z</time>
      </trkpt>
      <trkpt lat="47.2945" lon="4.97577">
        <ele>439</ele>
        <time>2012-10-07T07:15:49Z</time>
      </trkpt>
      <trkpt lat="47.29449" lon="4.97585">
        <ele>439</ele>
        <time>2012-10-07T07:15:51Z</time>
      </trkpt>
      <trkpt lat="47.29449" lon="4.97594">
        <ele>439</ele>
        <time>2012-10-07T07:15:54Z</time>
      </trkpt>
      <trkpt lat="47.29449" lon="4.97604">
        <ele>440</ele>
        <time>2012-10-07T07:15:57Z</time>
      </trkpt>
      <trkpt lat="47.29448" lon="4.97613">
        <ele>441</ele>
        <time>2012-10-07T07:16:00Z</time>
      </trkpt>
      <trkpt lat="47.29446" lon="4.97621">
        <ele>442</ele>
        <time>2012-10-07T07:16:03Z</time>
      </trkpt>
      <trkpt lat="47.29444" lon="4.97629">
        <ele>443</ele>
        <time>2012-10-07T07:16:06Z</time>
      </trkpt>
      <trkpt lat="47.29441" lon="4.97637">
        <ele>442</ele>
        <time>2012-10-07T07:16:09Z</time>
      </trkpt>
      <trkpt lat="47.29438" lon="4.97645">
        <ele>442</ele>
        <time>2012-10-07T07:16:12Z</time>
      </trkpt>
      <trkpt lat="47.29435" lon="4.97653">
        <ele>442</ele>
        <time>2012-10-07T07:16:15Z</time>
      </trkpt>
      <trkpt lat="47.29433" lon="4.97662">
        <ele>441</ele>
        <time>2012-10-07T07:16:18Z</time>
      </trkpt>
      <trkpt lat="47.29432" lon="4.97669">
        <ele>441</ele>
        <time>2012-10-07T07:16:21Z</time>
      </trkpt>
      <trkpt lat="47.2943" lon="4.97677">
        <ele>442</ele>
        <time>2012-10-07T07:16:24Z</time>
      </trkpt>
      <trkpt lat="47.29428" lon="4.97685">
        <ele>442</ele>
        <time>2012-10-07T07:16:27Z</time>
      </trkpt>
      <trkpt lat="47.29427" lon="4.97692">
        <ele>443</ele>
        <time>2012-10-07T07:16:30Z</time>
      </trkpt>
      <trkpt lat="47.29425" lon="4.977">
        <ele>443</ele>
        <time>2012-10-07T07:16:33Z</time>
      </trkpt>
      <trkpt lat="47.29422" lon="4.97708">
        <ele>443</ele>
        <time>2012-10-07T07:16:36Z</time>
      </trkpt>
      <trkpt lat="47.2942" lon="4.97714">
        <ele>443</ele>
        <time>2012-10-07T07:16:38Z</time>
      </trkpt>
      <trkpt lat="47.29417" lon="4.97719">
        <ele>442</ele>
        <time>2012-10-07T07:16:40Z</time>
      </trkpt>
      <trkpt lat="47.29414" lon="4.97725">
        <ele>441</ele>
        <time>2012-10-07T07:16:42Z</time>
      </trkpt>
      <trkpt lat="47.29411" lon="4.97732">
        <ele>441</ele>
        <time>2012-10-07T07:16:45Z</time>
      </trkpt>
      <trkpt lat="47.29409" lon="4.9774">
        <ele>440</ele>
        <time>2012-10-07T07:16:48Z</time>
      </trkpt>
      <trkpt lat="47.29407" lon="4.97749">
        <ele>440</ele>
        <time>2012-10-07T07:16:51Z</time>
      </trkpt>
      <trkpt lat="47.29404" lon="4.97756">
        <ele>439</ele>
        <time>2012-10-07T07:16:54Z</time>
      </trkpt>
      <trkpt lat="47.29402" lon="4.97764">
        <ele>439</ele>
        <time>2012-10-07T07:16:57Z</time>
      </trkpt>
      <trkpt lat="47.29401" lon="4.97772">
        <ele>439</ele>
        <time>2012-10-07T07:17:00Z</time>
      </trkpt>
      <trkpt lat="47.29398" lon="4.97777">
        <ele>438</ele>
        <time>2012-10-07T07:17:02Z</time>
      </trkpt>
      <trkpt lat="47.29396" lon="4.97785">
        <ele>438</ele>
        <time>2012-10-07T07:17:05Z</time>
      </trkpt>
      <trkpt lat="47.29393" lon="4.97791">
        <ele>436</ele>
        <time>2012-10-07T07:17:07Z</time>
      </trkpt>
      <trkpt lat="47.29392" lon="4.97798">
        <ele>435</ele>
        <time>2012-10-07T07:17:09Z</time>
      </trkpt>
      <trkpt lat="47.29391" lon="4.97806">
        <ele>436</ele>
        <time>2012-10-07T07:17:12Z</time>
      </trkpt>
      <trkpt lat="47.29386" lon="4.97809">
        <ele>435</ele>
        <time>2012-10-07T07:17:15Z</time>
      </trkpt>
      <trkpt lat="47.29379" lon="4.97809">
        <ele>433</ele>
        <time>2012-10-07T07:17:18Z</time>
      </trkpt>
      <trkpt lat="47.29374" lon="4.97805">
        <ele>433</ele>
        <time>2012-10-07T07:17:21Z</time>
      </trkpt>
      <trkpt lat="47.2937" lon="4.978">
        <ele>431</ele>
        <time>2012-10-07T07:17:24Z</time>
      </trkpt>
      <trkpt lat="47.29365" lon="4.97795">
        <ele>430</ele>
        <time>2012-10-07T07:17:27Z</time>
      </trkpt>
      <trkpt lat="47.2936" lon="4.97794">
        <ele>429</ele>
        <time>2012-10-07T07:17:31Z</time>
      </trkpt>
      <trkpt lat="47.29356" lon="4.97791">
        <ele>429</ele>
        <time>2012-10-07T07:17:36Z</time>
      </trkpt>
      <trkpt lat="47.29351" lon="4.97794">
        <ele>428</ele>
        <time>2012-10-07T07:17:43Z</time>
      </trkpt>
      <trkpt lat="47.2935" lon="4.97802">
        <ele>427</ele>
        <time>2012-10-07T07:17:49Z</time>
      </trkpt>
      <trkpt lat="47.29348" lon="4.97809">
        <ele>426</ele>
        <time>2012-10-07T07:18:09Z</time>
      </trkpt>
      <trkpt lat="47.29343" lon="4.97812">
        <ele>422</ele>
        <time>2012-10-07T07:18:14Z</time>
      </trkpt>
      <trkpt lat="47.29338" lon="4.9781">
        <ele>422</ele>
        <time>2012-10-07T07:18:19Z</time>
      </trkpt>
      <trkpt lat="47.29333" lon="4.97812">
        <ele>423</ele>
        <time>2012-10-07T07:18:29Z</time>
      </trkpt>
      <trkpt lat="47.29328" lon="4.97809">
        <ele>422</ele>
        <time>2012-10-07T07:18:33Z</time>
      </trkpt>
      <trkpt lat="47.29322" lon="4.97806">
        <ele>417</ele>
        <time>2012-10-07T07:18:46Z</time>
      </trkpt>
      <trkpt lat="47.29318" lon="4.97804">
        <ele>414</ele>
        <time>2012-10-07T07:18:51Z</time>
      </trkpt>
      <trkpt lat="47.29313" lon="4.97804">
        <ele>415</ele>
        <time>2012-10-07T07:18:54Z</time>
      </trkpt>
      <trkpt lat="47.29308" lon="4.97804">
        <ele>414</ele>
        <time>2012-10-07T07:18:59Z</time>
      </trkpt>
      <trkpt lat="47.29302" lon="4.97803">
        <ele>414</ele>
        <time>2012-10-07T07:19:05Z</time>
      </trkpt>
      <trkpt lat="47.29297" lon="4.97801">
        <ele>415</ele>
        <time>2012-10-07T07:19:08Z</time>
      </trkpt>
      <trkpt lat="47.29293" lon="4.97797">
        <ele>414</ele>
        <time>2012-10-07T07:19:11Z</time>
      </trkpt>
      <trkpt lat="47.29287" lon="4.97795">
        <ele>416</ele>
        <time>2012-10-07T07:19:15Z</time>
      </trkpt>
      <trkpt lat="47.29281" lon="4.97793">
        <ele>417</ele>
        <time>2012-10-07T07:19:19Z</time>
      </trkpt>
      <trkpt lat="47.29276" lon="4.97791">
        <ele>419</ele>
        <time>2012-10-07T07:19:22Z</time>
      </trkpt>
      <trkpt lat="47.2927" lon="4.97788">
        <ele>419</ele>
        <time>2012-10-07T07:19:28Z</time>
      </trkpt>
      <trkpt lat="47.29266" lon="4.97788">
        <ele>419</ele>
        <time>2012-10-07T07:19:32Z</time>
      </trkpt>
      <trkpt lat="47.2926" lon="4.97785">
        <ele>417</ele>
        <time>2012-10-07T07:19:38Z</time>
      </trkpt>
      <trkpt lat="47.29254" lon="4.9778">
        <ele>415</ele>
        <time>2012-10-07T07:19:42Z</time>
      </trkpt>
      <trkpt lat="47.29249" lon="4.97778">
        <ele>415</ele>
        <time>2012-10-07T07:19:47Z</time>
      </trkpt>
      <trkpt lat="47.29246" lon="4.97773">
        <ele>413</ele>
        <time>2012-10-07T07:19:53Z</time>
      </trkpt>
      <trkpt lat="47.29246" lon="4.97773">
        <ele>413</ele>
        <time>2012-10-07T07:19:53Z</time>
      </trkpt>
      <trkpt lat="47.29246" lon="4.97773">
        <ele>413</ele>
        <time>2012-10-07T07:19:54Z</time>
      </trkpt>
      <trkpt lat="47.29241" lon="4.9777">
        <ele>414</ele>
        <time>2012-10-07T07:19:59Z</time>
      </trkpt>
      <trkpt lat="47.29236" lon="4.97768">
        <ele>415</ele>
        <time>2012-10-07T07:20:03Z</time>
      </trkpt>
      <trkpt lat="47.29231" lon="4.97768">
        <ele>415</ele>
        <time>2012-10-07T07:20:06Z</time>
      </trkpt>
      <trkpt lat="47.29227" lon="4.97764">
        <ele>414</ele>
        <time>2012-10-07T07:20:10Z</time>
      </trkpt>
      <trkpt lat="47.29224" lon="4.97758">
        <ele>415</ele>
        <time>2012-10-07T07:20:13Z</time>
      </trkpt>
      <trkpt lat="47.2922" lon="4.97753">
        <ele>413</ele>
        <time>2012-10-07T07:20:16Z</time>
      </trkpt>
      <trkpt lat="47.29216" lon="4.97748">
        <ele>412</ele>
        <time>2012-10-07T07:20:22Z</time>
      </trkpt>
      <trkpt lat="47.29211" lon="4.97744">
        <ele>410</ele>
        <time>2012-10-07T07:20:29Z</time>
      </trkpt>
      <trkpt lat="47.29206" lon="4.97742">
        <ele>411</ele>
        <time>2012-10-07T07:20:33Z</time>
      </trkpt>
      <trkpt lat="47.29201" lon="4.97738">
        <ele>410</ele>
        <time>2012-10-07T07:20:37Z</time>
      </trkpt>
      <trkpt lat="47.29197" lon="4.97733">
        <ele>409</ele>
        <time>2012-10-07T07:20:43Z</time>
      </trkpt>
      <trkpt lat="47.29192" lon="4.97731">
        <ele>410</ele>
        <time>2012-10-07T07:20:47Z</time>
      </trkpt>
      <trkpt lat="47.29189" lon="4.97725">
        <ele>408</ele>
        <time>2012-10-07T07:20:51Z</time>
      </trkpt>
      <trkpt lat="47.29184" lon="4.97721">
        <ele>408</ele>
        <time>2012-10-07T07:20:53Z</time>
      </trkpt>
      <trkpt lat="47.2918" lon="4.97719">
        <ele>407</ele>
        <time>2012-10-07T07:20:55Z</time>
      </trkpt>
      <trkpt lat="47.29175" lon="4.97715">
        <ele>406</ele>
        <time>2012-10-07T07:20:58Z</time>
      </trkpt>
      <trkpt lat="47.2917" lon="4.97711">
        <ele>405</ele>
        <time>2012-10-07T07:21:01Z</time>
      </trkpt>
      <trkpt lat="47.29166" lon="4.97706">
        <ele>402</ele>
        <time>2012-10-07T07:21:05Z</time>
      </trkpt>
      <trkpt lat="47.29162" lon="4.977">
        <ele>402</ele>
        <time>2012-10-07T07:21:10Z</time>
      </trkpt>
      <trkpt lat="47.2916" lon="4.97694">
        <ele>401</ele>
        <time>2012-10-07T07:21:16Z</time>
      </trkpt>
      <trkpt lat="47.2916" lon="4.97685">
        <ele>403</ele>
        <time>2012-10-07T07:21:20Z</time>
      </trkpt>
      <trkpt lat="47.29158" lon="4.97678">
        <ele>402</ele>
        <time>2012-10-07T07:21:27Z</time>
      </trkpt>
      <trkpt lat="47.29154" lon="4.97675">
        <ele>403</ele>
        <time>2012-10-07T07:21:31Z</time>
      </trkpt>
      <trkpt lat="47.29151" lon="4.97668">
        <ele>403</ele>
        <time>2012-10-07T07:21:35Z</time>
      </trkpt>
      <trkpt lat="47.29151" lon="4.9766">
        <ele>400</ele>
        <time>2012-10-07T07:21:41Z</time>
      </trkpt>
      <trkpt lat="47.29148" lon="4.97655">
        <ele>399</ele>
        <time>2012-10-07T07:21:46Z</time>
      </trkpt>
      <trkpt lat="47.29145" lon="4.97649">
        <ele>399</ele>
        <time>2012-10-07T07:21:53Z</time>
      </trkpt>
      <trkpt lat="47.2914" lon="4.97646">
        <ele>400</ele>
        <time>2012-10-07T07:21:58Z</time>
      </trkpt>
      <trkpt lat="47.29137" lon="4.97639">
        <ele>400</ele>
        <time>2012-10-07T07:22:02Z</time>
      </trkpt>
      <trkpt lat="47.29137" lon="4.97632">
        <ele>397</ele>
        <time>2012-10-07T07:22:06Z</time>
      </trkpt>
      <trkpt lat="47.29133" lon="4.97625">
        <ele>394</ele>
        <time>2012-10-07T07:22:11Z</time>
      </trkpt>
      <trkpt lat="47.29129" lon="4.97621">
        <ele>393</ele>
        <time>2012-10-07T07:22:14Z</time>
      </trkpt>
      <trkpt lat="47.29123" lon="4.97616">
        <ele>395</ele>
        <time>2012-10-07T07:22:17Z</time>
      </trkpt>
      <trkpt lat="47.29118" lon="4.97613">
        <ele>395</ele>
        <time>2012-10-07T07:22:20Z</time>
      </trkpt>
      <trkpt lat="47.29113" lon="4.97608">
        <ele>396</ele>
        <time>2012-10-07T07:22:23Z</time>
      </trkpt>
      <trkpt lat="47.29109" lon="4.97602">
        <ele>394</ele>
        <time>2012-10-07T07:22:28Z</time>
      </trkpt>
      <trkpt lat="47.29105" lon="4.976">
        <ele>394</ele>
        <time>2012-10-07T07:22:31Z</time>
      </trkpt>
      <trkpt lat="47.291" lon="4.97599">
        <ele>394</ele>
        <time>2012-10-07T07:22:34Z</time>
      </trkpt>
      <trkpt lat="47.29096" lon="4.97594">
        <ele>391</ele>
        <time>2012-10-07T07:22:44Z</time>
      </trkpt>
      <trkpt lat="47.29091" lon="4.97592">
        <ele>390</ele>
        <time>2012-10-07T07:22:48Z</time>
      </trkpt>
      <trkpt lat="47.29087" lon="4.97587">
        <ele>388</ele>
        <time>2012-10-07T07:22:52Z</time>
      </trkpt>
      <trkpt lat="47.29082" lon="4.97582">
        <ele>387</ele>
        <time>2012-10-07T07:22:56Z</time>
      </trkpt>
      <trkpt lat="47.29077" lon="4.97581">
        <ele>386</ele>
        <time>2012-10-07T07:22:59Z</time>
      </trkpt>
      <trkpt lat="47.29071" lon="4.9758">
        <ele>385</ele>
        <time>2012-10-07T07:23:03Z</time>
      </trkpt>
      <trkpt lat="47.29066" lon="4.97578">
        <ele>384</ele>
        <time>2012-10-07T07:23:07Z</time>
      </trkpt>
      <trkpt lat="47.29061" lon="4.97576">
        <ele>382</ele>
        <time>2012-10-07T07:23:12Z</time>
      </trkpt>
      <trkpt lat="47.29056" lon="4.97576">
        <ele>382</ele>
        <time>2012-10-07T07:23:15Z</time>
      </trkpt>
      <trkpt lat="47.29052" lon="4.97572">
        <ele>380</ele>
        <time>2012-10-07T07:23:22Z</time>
      </trkpt>
      <trkpt lat="47.29047" lon="4.9757">
        <ele>378</ele>
        <time>2012-10-07T07:23:26Z</time>
      </trkpt>
      <trkpt lat="47.29042" lon="4.97572">
        <ele>376</ele>
        <time>2012-10-07T07:23:33Z</time>
      </trkpt>
      <trkpt lat="47.29042" lon="4.97572">
        <ele>376</ele>
        <time>2012-10-07T07:23:33Z</time>
      </trkpt>
      <trkpt lat="47.29042" lon="4.97572">
        <ele>374</ele>
        <time>2012-10-07T07:23:38Z</time>
      </trkpt>
      <trkpt lat="47.2904" lon="4.97579">
        <ele>375</ele>
        <time>2012-10-07T07:23:45Z</time>
      </trkpt>
      <trkpt lat="47.29038" lon="4.97586">
        <ele>375</ele>
        <time>2012-10-07T07:23:48Z</time>
      </trkpt>
      <trkpt lat="47.29033" lon="4.9759">
        <ele>375</ele>
        <time>2012-10-07T07:23:51Z</time>
      </trkpt>
      <trkpt lat="47.29032" lon="4.97599">
        <ele>374</ele>
        <time>2012-10-07T07:23:55Z</time>
      </trkpt>
      <trkpt lat="47.29031" lon="4.97608">
        <ele>374</ele>
        <time>2012-10-07T07:23:58Z</time>
      </trkpt>
      <trkpt lat="47.29029" lon="4.97615">
        <ele>373</ele>
        <time>2012-10-07T07:24:00Z</time>
      </trkpt>
      <trkpt lat="47.29025" lon="4.9762">
        <ele>372</ele>
        <time>2012-10-07T07:24:03Z</time>
      </trkpt>
      <trkpt lat="47.29022" lon="4.97628">
        <ele>373</ele>
        <time>2012-10-07T07:24:05Z</time>
      </trkpt>
      <trkpt lat="47.29018" lon="4.97637">
        <ele>371</ele>
        <time>2012-10-07T07:24:07Z</time>
      </trkpt>
      <trkpt lat="47.29014" lon="4.97644">
        <ele>370</ele>
        <time>2012-10-07T07:24:09Z</time>
      </trkpt>
      <trkpt lat="47.29009" lon="4.97645">
        <ele>368</ele>
        <time>2012-10-07T07:24:11Z</time>
      </trkpt>
      <trkpt lat="47.29003" lon="4.97645">
        <ele>367</ele>
        <time>2012-10-07T07:24:13Z</time>
      </trkpt>
      <trkpt lat="47.28998" lon="4.97642">
        <ele>367</ele>
        <time>2012-10-07T07:24:16Z</time>
      </trkpt>
      <trkpt lat="47.28994" lon="4.9764">
        <ele>368</ele>
        <time>2012-10-07T07:24:18Z</time>
      </trkpt>
      <trkpt lat="47.28988" lon="4.97638">
        <ele>371</ele>
        <time>2012-10-07T07:24:21Z</time>
      </trkpt>
      <trkpt lat="47.28985" lon="4.97633">
        <ele>371</ele>
        <time>2012-10-07T07:24:24Z</time>
      </trkpt>
      <trkpt lat="47.2898" lon="4.9763">
        <ele>372</ele>
        <time>2012-10-07T07:24:27Z</time>
      </trkpt>
      <trkpt lat="47.28976" lon="4.97625">
        <ele>373</ele>
        <time>2012-10-07T07:24:30Z</time>
      </trkpt>
      <trkpt lat="47.28972" lon="4.9762">
        <ele>372</ele>
        <time>2012-10-07T07:24:34Z</time>
      </trkpt>
      <trkpt lat="47.28969" lon="4.97613">
        <ele>375</ele>
        <time>2012-10-07T07:24:38Z</time>
      </trkpt>
      <trkpt lat="47.28966" lon="4.97607">
        <ele>377</ele>
        <time>2012-10-07T07:24:40Z</time>
      </trkpt>
      <trkpt lat="47.28962" lon="4.97602">
        <ele>377</ele>
        <time>2012-10-07T07:24:43Z</time>
      </trkpt>
      <trkpt lat="47.28958" lon="4.97596">
        <ele>379</ele>
        <time>2012-10-07T07:24:46Z</time>
      </trkpt>
      <trkpt lat="47.28953" lon="4.97594">
        <ele>380</ele>
        <time>2012-10-07T07:24:50Z</time>
      </trkpt>
      <trkpt lat="47.28948" lon="4.9759">
        <ele>380</ele>
        <time>2012-10-07T07:24:55Z</time>
      </trkpt>
      <trkpt lat="47.28944" lon="4.97589">
        <ele>382</ele>
        <time>2012-10-07T07:24:59Z</time>
      </trkpt>
      <trkpt lat="47.28939" lon="4.97586">
        <ele>383</ele>
        <time>2012-10-07T07:25:03Z</time>
      </trkpt>
      <trkpt lat="47.28934" lon="4.97585">
        <ele>383</ele>
        <time>2012-10-07T07:25:06Z</time>
      </trkpt>
      <trkpt lat="47.28928" lon="4.97582">
        <ele>382</ele>
        <time>2012-10-07T07:25:09Z</time>
      </trkpt>
      <trkpt lat="47.28923" lon="4.97577">
        <ele>383</ele>
        <time>2012-10-07T07:25:13Z</time>
      </trkpt>
      <trkpt lat="47.28917" lon="4.97574">
        <ele>385</ele>
        <time>2012-10-07T07:25:17Z</time>
      </trkpt>
      <trkpt lat="47.28912" lon="4.97571">
        <ele>387</ele>
        <time>2012-10-07T07:25:21Z</time>
      </trkpt>
      <trkpt lat="47.28908" lon="4.97564">
        <ele>385</ele>
        <time>2012-10-07T07:25:25Z</time>
      </trkpt>
      <trkpt lat="47.28903" lon="4.9756">
        <ele>385</ele>
        <time>2012-10-07T07:25:29Z</time>
      </trkpt>
      <trkpt lat="47.28899" lon="4.97557">
        <ele>386</ele>
        <time>2012-10-07T07:25:34Z</time>
      </trkpt>
      <trkpt lat="47.28895" lon="4.97552">
        <ele>389</ele>
        <time>2012-10-07T07:25:39Z</time>
      </trkpt>
      <trkpt lat="47.28893" lon="4.97546">
        <ele>395</ele>
        <time>2012-10-07T07:25:45Z</time>
      </trkpt>
      <trkpt lat="47.28889" lon="4.97541">
        <ele>396</ele>
        <time>2012-10-07T07:25:50Z</time>
      </trkpt>
      <trkpt lat="47.28884" lon="4.97538">
        <ele>398</ele>
        <time>2012-10-07T07:25:53Z</time>
      </trkpt>
      <trkpt lat="47.2888" lon="4.97535">
        <ele>399</ele>
        <time>2012-10-07T07:25:56Z</time>
      </trkpt>
      <trkpt lat="47.2888" lon="4.97535">
        <ele>399</ele>
        <time>2012-10-07T07:25:56Z</time>
      </trkpt>
      <trkpt lat="47.2888" lon="4.97535">
        <ele>399</ele>
        <time>2012-10-07T07:25:57Z</time>
      </trkpt>
      <trkpt lat="47.28876" lon="4.9753">
        <ele>399</ele>
        <time>2012-10-07T07:26:03Z</time>
      </trkpt>
      <trkpt lat="47.28869" lon="4.97524">
        <ele>402</ele>
        <time>2012-10-07T07:26:06Z</time>
      </trkpt>
      <trkpt lat="47.28864" lon="4.9752">
        <ele>403</ele>
        <time>2012-10-07T07:26:08Z</time>
      </trkpt>
      <trkpt lat="47.2886" lon="4.97515">
        <ele>405</ele>
        <time>2012-10-07T07:26:11Z</time>
      </trkpt>
      <trkpt lat="47.28855" lon="4.97512">
        <ele>408</ele>
        <time>2012-10-07T07:26:15Z</time>
      </trkpt>
      <trkpt lat="47.2885" lon="4.97506">
        <ele>409</ele>
        <time>2012-10-07T07:26:18Z</time>
      </trkpt>
      <trkpt lat="47.28847" lon="4.975">
        <ele>412</ele>
        <time>2012-10-07T07:26:22Z</time>
      </trkpt>
      <trkpt lat="47.28843" lon="4.97496">
        <ele>415</ele>
        <time>2012-10-07T07:26:29Z</time>
      </trkpt>
      <trkpt lat="47.2884" lon="4.9749">
        <ele>418</ele>
        <time>2012-10-07T07:26:34Z</time>
      </trkpt>
      <trkpt lat="47.28836" lon="4.97485">
        <ele>420</ele>
        <time>2012-10-07T07:26:37Z</time>
      </trkpt>
      <trkpt lat="47.28832" lon="4.97481">
        <ele>419</ele>
        <time>2012-10-07T07:26:40Z</time>
      </trkpt>
      <trkpt lat="47.28827" lon="4.97475">
        <ele>420</ele>
        <time>2012-10-07T07:26:43Z</time>
      </trkpt>
      <trkpt lat="47.28822" lon="4.9747">
        <ele>421</ele>
        <time>2012-10-07T07:26:47Z</time>
      </trkpt>
      <trkpt lat="47.28819" lon="4.97464">
        <ele>424</ele>
        <time>2012-10-07T07:26:53Z</time>
      </trkpt>
      <trkpt lat="47.28816" lon="4.97458">
        <ele>425</ele>
        <time>2012-10-07T07:26:58Z</time>
      </trkpt>
      <trkpt lat="47.28812" lon="4.97453">
        <ele>428</ele>
        <time>2012-10-07T07:27:03Z</time>
      </trkpt>
      <trkpt lat="47.28808" lon="4.97447">
        <ele>428</ele>
        <time>2012-10-07T07:27:05Z</time>
      </trkpt>
      <trkpt lat="47.28805" lon="4.97442">
        <ele>427</ele>
        <time>2012-10-07T07:27:07Z</time>
      </trkpt>
      <trkpt lat="47.28803" lon="4.97436">
        <ele>430</ele>
        <time>2012-10-07T07:27:12Z</time>
      </trkpt>
      <trkpt lat="47.28799" lon="4.97428">
        <ele>431</ele>
        <time>2012-10-07T07:27:18Z</time>
      </trkpt>
      <trkpt lat="47.28795" lon="4.97424">
        <ele>431</ele>
        <time>2012-10-07T07:27:23Z</time>
      </trkpt>
      <trkpt lat="47.28791" lon="4.97419">
        <ele>431</ele>
        <time>2012-10-07T07:27:26Z</time>
      </trkpt>
      <trkpt lat="47.28787" lon="4.97414">
        <ele>433</ele>
        <time>2012-10-07T07:27:32Z</time>
      </trkpt>
      <trkpt lat="47.28784" lon="4.97409">
        <ele>435</ele>
        <time>2012-10-07T07:27:36Z</time>
      </trkpt>
      <trkpt lat="47.28781" lon="4.97403">
        <ele>437</ele>
        <time>2012-10-07T07:27:42Z</time>
      </trkpt>
      <trkpt lat="47.28777" lon="4.97397">
        <ele>440</ele>
        <time>2012-10-07T07:27:48Z</time>
      </trkpt>
      <trkpt lat="47.28774" lon="4.97391">
        <ele>441</ele>
        <time>2012-10-07T07:27:53Z</time>
      </trkpt>
      <trkpt lat="47.28772" lon="4.97383">
        <ele>442</ele>
        <time>2012-10-07T07:28:01Z</time>
      </trkpt>
      <trkpt lat="47.2877" lon="4.97376">
        <ele>442</ele>
        <time>2012-10-07T07:28:08Z</time>
      </trkpt>
      <trkpt lat="47.28768" lon="4.9737">
        <ele>443</ele>
        <time>2012-10-07T07:28:14Z</time>
      </trkpt>
      <trkpt lat="47.28767" lon="4.97362">
        <ele>445</ele>
        <time>2012-10-07T07:28:18Z</time>
      </trkpt>
      <trkpt lat="47.28767" lon="4.97356">
        <ele>445</ele>
        <time>2012-10-07T07:28:22Z</time>
      </trkpt>
      <trkpt lat="47.28764" lon="4.97349">
        <ele>443</ele>
        <time>2012-10-07T07:28:27Z</time>
      </trkpt>
      <trkpt lat="47.28761" lon="4.97343">
        <ele>442</ele>
        <time>2012-10-07T07:28:31Z</time>
      </trkpt>
      <trkpt lat="47.28759" lon="4.97335">
        <ele>440</ele>
        <time>2012-10-07T07:28:35Z</time>
      </trkpt>
      <trkpt lat="47.28758" lon="4.97327">
        <ele>441</ele>
        <time>2012-10-07T07:28:42Z</time>
      </trkpt>
      <trkpt lat="47.28755" lon="4.97318">
        <ele>440</ele>
        <time>2012-10-07T07:28:47Z</time>
      </trkpt>
      <trkpt lat="47.28757" lon="4.97312">
        <ele>437</ele>
        <time>2012-10-07T07:28:51Z</time>
      </trkpt>
      <trkpt lat="47.28754" lon="4.97307">
        <ele>437</ele>
        <time>2012-10-07T07:28:56Z</time>
      </trkpt>
      <trkpt lat="47.28756" lon="4.973">
        <ele>440</ele>
        <time>2012-10-07T07:29:04Z</time>
      </trkpt>
      <trkpt lat="47.28758" lon="4.97293">
        <ele>442</ele>
        <time>2012-10-07T07:29:11Z</time>
      </trkpt>
      <trkpt lat="47.2876" lon="4.97287">
        <ele>447</ele>
        <time>2012-10-07T07:29:26Z</time>
      </trkpt>
      <trkpt lat="47.28759" lon="4.9728">
        <ele>448</ele>
        <time>2012-10-07T07:29:34Z</time>
      </trkpt>
      <trkpt lat="47.28756" lon="4.97274">
        <ele>450</ele>
        <time>2012-10-07T07:29:44Z</time>
      </trkpt>
      <trkpt lat="47.28753" lon="4.97268">
        <ele>452</ele>
        <time>2012-10-07T07:29:54Z</time>
      </trkpt>
      <trkpt lat="47.2875" lon="4.97262">
        <ele>454</ele>
        <time>2012-10-07T07:30:02Z</time>
      </trkpt>
      <trkpt lat="47.28745" lon="4.97261">
        <ele>455</ele>
        <time>2012-10-07T07:30:13Z</time>
      </trkpt>
      <trkpt lat="47.2874" lon="4.97258">
        <ele>454</ele>
        <time>2012-10-07T07:30:15Z</time>
      </trkpt>
      <trkpt lat="47.28739" lon="4.9725">
        <ele>455</ele>
        <time>2012-10-07T07:30:19Z</time>
      </trkpt>
      <trkpt lat="47.28741" lon="4.97243">
        <ele>456</ele>
        <time>2012-10-07T07:30:23Z</time>
      </trkpt>
      <trkpt lat="47.28746" lon="4.97242">
        <ele>455</ele>
        <time>2012-10-07T07:30:26Z</time>
      </trkpt>
      <trkpt lat="47.28745" lon="4.97235">
        <ele>458</ele>
        <time>2012-10-07T07:30:35Z</time>
      </trkpt>
      <trkpt lat="47.28743" lon="4.97228">
        <ele>458</ele>
        <time>2012-10-07T07:30:38Z</time>
      </trkpt>
      <trkpt lat="47.2874" lon="4.97222">
        <ele>459</ele>
        <time>2012-10-07T07:30:42Z</time>
      </trkpt>
      <trkpt lat="47.28739" lon="4.97216">
        <ele>459</ele>
        <time>2012-10-07T07:30:46Z</time>
      </trkpt>
      <trkpt lat="47.28734" lon="4.97208">
        <ele>460</ele>
        <time>2012-10-07T07:30:50Z</time>
      </trkpt>
      <trkpt lat="47.28731" lon="4.97202">
        <ele>460</ele>
        <time>2012-10-07T07:30:55Z</time>
      </trkpt>
      <trkpt lat="47.28728" lon="4.97196">
        <ele>459</ele>
        <time>2012-10-07T07:30:57Z</time>
      </trkpt>
      <trkpt lat="47.28728" lon="4.97188">
        <ele>458</ele>
        <time>2012-10-07T07:31:00Z</time>
      </trkpt>
      <trkpt lat="47.2873" lon="4.97182">
        <ele>459</ele>
        <time>2012-10-07T07:31:03Z</time>
      </trkpt>
      <trkpt lat="47.28735" lon="4.97178">
        <ele>460</ele>
        <time>2012-10-07T07:31:08Z</time>
      </trkpt>
      <trkpt lat="47.28739" lon="4.97174">
        <ele>461</ele>
        <time>2012-10-07T07:31:12Z</time>
      </trkpt>
      <trkpt lat="47.28743" lon="4.97168">
        <ele>462</ele>
        <time>2012-10-07T07:31:15Z</time>
      </trkpt>
      <trkpt lat="47.28747" lon="4.97162">
        <ele>463</ele>
        <time>2012-10-07T07:31:19Z</time>
      </trkpt>
      <trkpt lat="47.2875" lon="4.97158">
        <ele>463</ele>
        <time>2012-10-07T07:31:23Z</time>
      </trkpt>
      <trkpt lat="47.28754" lon="4.97153">
        <ele>464</ele>
        <time>2012-10-07T07:31:25Z</time>
      </trkpt>
      <trkpt lat="47.28758" lon="4.97149">
        <ele>464</ele>
        <time>2012-10-07T07:31:28Z</time>
      </trkpt>
      <trkpt lat="47.28762" lon="4.97146">
        <ele>468</ele>
        <time>2012-10-07T07:31:34Z</time>
      </trkpt>
      <trkpt lat="47.28767" lon="4.97143">
        <ele>469</ele>
        <time>2012-10-07T07:31:38Z</time>
      </trkpt>
      <trkpt lat="47.28771" lon="4.97139">
        <ele>469</ele>
        <time>2012-10-07T07:31:42Z</time>
      </trkpt>
      <trkpt lat="47.28776" lon="4.97136">
        <ele>469</ele>
        <time>2012-10-07T07:31:45Z</time>
      </trkpt>
      <trkpt lat="47.28782" lon="4.97134">
        <ele>470</ele>
        <time>2012-10-07T07:31:48Z</time>
      </trkpt>
      <trkpt lat="47.28786" lon="4.97132">
        <ele>469</ele>
        <time>2012-10-07T07:31:51Z</time>
      </trkpt>
      <trkpt lat="47.28792" lon="4.97129">
        <ele>469</ele>
        <time>2012-10-07T07:31:54Z</time>
      </trkpt>
      <trkpt lat="47.28797" lon="4.97127">
        <ele>470</ele>
        <time>2012-10-07T07:31:57Z</time>
      </trkpt>
      <trkpt lat="47.28803" lon="4.97126">
        <ele>470</ele>
        <time>2012-10-07T07:32:00Z</time>
      </trkpt>
      <trkpt lat="47.28802" lon="4.97119">
        <ele>469</ele>
        <time>2012-10-07T07:32:12Z</time>
      </trkpt>
      <trkpt lat="47.28797" lon="4.97118">
        <ele>469</ele>
        <time>2012-10-07T07:32:16Z</time>
      </trkpt>
      <trkpt lat="47.28791" lon="4.97115">
        <ele>470</ele>
        <time>2012-10-07T07:32:20Z</time>
      </trkpt>
      <trkpt lat="47.28788" lon="4.97109">
        <ele>466</ele>
        <time>2012-10-07T07:32:24Z</time>
      </trkpt>
      <trkpt lat="47.28783" lon="4.9711">
        <ele>467</ele>
        <time>2012-10-07T07:32:28Z</time>
      </trkpt>
      <trkpt lat="47.28778" lon="4.97111">
        <ele>470</ele>
        <time>2012-10-07T07:32:31Z</time>
      </trkpt>
      <trkpt lat="47.28773" lon="4.9711">
        <ele>469</ele>
        <time>2012-10-07T07:32:33Z</time>
      </trkpt>
      <trkpt lat="47.28767" lon="4.97107">
        <ele>468</ele>
        <time>2012-10-07T07:32:35Z</time>
      </trkpt>
      <trkpt lat="47.28762" lon="4.97101">
        <ele>469</ele>
        <time>2012-10-07T07:32:38Z</time>
      </trkpt>
      <trkpt lat="47.28759" lon="4.97096">
        <ele>467</ele>
        <time>2012-10-07T07:32:40Z</time>
      </trkpt>
      <trkpt lat="47.28754" lon="4.97093">
        <ele>466</ele>
        <time>2012-10-07T07:32:43Z</time>
      </trkpt>
      <trkpt lat="47.2875" lon="4.9709">
        <ele>465</ele>
        <time>2012-10-07T07:32:45Z</time>
      </trkpt>
      <trkpt lat="47.28745" lon="4.97086">
        <ele>466</ele>
        <time>2012-10-07T07:32:48Z</time>
      </trkpt>
      <trkpt lat="47.2874" lon="4.97085">
        <ele>468</ele>
        <time>2012-10-07T07:32:51Z</time>
      </trkpt>
      <trkpt lat="47.28735" lon="4.97082">
        <ele>468</ele>
        <time>2012-10-07T07:32:54Z</time>
      </trkpt>
      <trkpt lat="47.28732" lon="4.97076">
        <ele>469</ele>
        <time>2012-10-07T07:32:57Z</time>
      </trkpt>
      <trkpt lat="47.28728" lon="4.9707">
        <ele>469</ele>
        <time>2012-10-07T07:33:00Z</time>
      </trkpt>
      <trkpt lat="47.28725" lon="4.97064">
        <ele>469</ele>
        <time>2012-10-07T07:33:05Z</time>
      </trkpt>
      <trkpt lat="47.28721" lon="4.9706">
        <ele>469</ele>
        <time>2012-10-07T07:33:08Z</time>
      </trkpt>
      <trkpt lat="47.28716" lon="4.97055">
        <ele>469</ele>
        <time>2012-10-07T07:33:12Z</time>
      </trkpt>
      <trkpt lat="47.28712" lon="4.9705">
        <ele>469</ele>
        <time>2012-10-07T07:33:15Z</time>
      </trkpt>
      <trkpt lat="47.28707" lon="4.97046">
        <ele>469</ele>
        <time>2012-10-07T07:33:18Z</time>
      </trkpt>
      <trkpt lat="47.28703" lon="4.97042">
        <ele>468</ele>
        <time>2012-10-07T07:33:20Z</time>
      </trkpt>
      <trkpt lat="47.28698" lon="4.97038">
        <ele>470</ele>
        <time>2012-10-07T07:33:24Z</time>
      </trkpt>
      <trkpt lat="47.28693" lon="4.97035">
        <ele>470</ele>
        <time>2012-10-07T07:33:27Z</time>
      </trkpt>
      <trkpt lat="47.28687" lon="4.97032">
        <ele>472</ele>
        <time>2012-10-07T07:33:31Z</time>
      </trkpt>
      <trkpt lat="47.28681" lon="4.97026">
        <ele>472</ele>
        <time>2012-10-07T07:33:34Z</time>
      </trkpt>
      <trkpt lat="47.28677" lon="4.97022">
        <ele>471</ele>
        <time>2012-10-07T07:33:37Z</time>
      </trkpt>
      <trkpt lat="47.28673" lon="4.97019">
        <ele>470</ele>
        <time>2012-10-07T07:33:40Z</time>
      </trkpt>
      <trkpt lat="47.28668" lon="4.97016">
        <ele>470</ele>
        <time>2012-10-07T07:33:42Z</time>
      </trkpt>
      <trkpt lat="47.28665" lon="4.97012">
        <ele>471</ele>
        <time>2012-10-07T07:33:44Z</time>
      </trkpt>
      <trkpt lat="47.28663" lon="4.97004">
        <ele>472</ele>
        <time>2012-10-07T07:33:47Z</time>
      </trkpt>
      <trkpt lat="47.28661" lon="4.96995">
        <ele>471</ele>
        <time>2012-10-07T07:33:50Z</time>
      </trkpt>
      <trkpt lat="47.28658" lon="4.96988">
        <ele>471</ele>
        <time>2012-10-07T07:33:53Z</time>
      </trkpt>
      <trkpt lat="47.28657" lon="4.96981">
        <ele>471</ele>
        <time>2012-10-07T07:33:56Z</time>
      </trkpt>
      <trkpt lat="47.28654" lon="4.96974">
        <ele>471</ele>
        <time>2012-10-07T07:34:00Z</time>
      </trkpt>
      <trkpt lat="47.2865" lon="4.96971">
        <ele>473</ele>
        <time>2012-10-07T07:34:03Z</time>
      </trkpt>
      <trkpt lat="47.28645" lon="4.96964">
        <ele>472</ele>
        <time>2012-10-07T07:34:06Z</time>
      </trkpt>
      <trkpt lat="47.28642" lon="4.96955">
        <ele>474</ele>
        <time>2012-10-07T07:34:09Z</time>
      </trkpt>
      <trkpt lat="47.28641" lon="4.96947">
        <ele>473</ele>
        <time>2012-10-07T07:34:12Z</time>
      </trkpt>
      <trkpt lat="47.28641" lon="4.96938">
        <ele>473</ele>
        <time>2012-10-07T07:34:15Z</time>
      </trkpt>
      <trkpt lat="47.28641" lon="4.96929">
        <ele>474</ele>
        <time>2012-10-07T07:34:19Z</time>
      </trkpt>
      <trkpt lat="47.28642" lon="4.96922">
        <ele>475</ele>
        <time>2012-10-07T07:34:22Z</time>
      </trkpt>
      <trkpt lat="47.28643" lon="4.96914">
        <ele>475</ele>
        <time>2012-10-07T07:34:26Z</time>
      </trkpt>
      <trkpt lat="47.28644" lon="4.96906">
        <ele>475</ele>
        <time>2012-10-07T07:34:29Z</time>
      </trkpt>
      <trkpt lat="47.28646" lon="4.96897">
        <ele>476</ele>
        <time>2012-10-07T07:34:32Z</time>
      </trkpt>
      <trkpt lat="47.28648" lon="4.9689">
        <ele>476</ele>
        <time>2012-10-07T07:34:35Z</time>
      </trkpt>
      <trkpt lat="47.28648" lon="4.96882">
        <ele>478</ele>
        <time>2012-10-07T07:34:39Z</time>
      </trkpt>
      <trkpt lat="47.28648" lon="4.96873">
        <ele>477</ele>
        <time>2012-10-07T07:34:43Z</time>
      </trkpt>
      <trkpt lat="47.28648" lon="4.96865">
        <ele>478</ele>
        <time>2012-10-07T07:34:46Z</time>
      </trkpt>
      <trkpt lat="47.28649" lon="4.96858">
        <ele>481</ele>
        <time>2012-10-07T07:34:49Z</time>
      </trkpt>
      <trkpt lat="47.2865" lon="4.96851">
        <ele>482</ele>
        <time>2012-10-07T07:34:52Z</time>
      </trkpt>
      <trkpt lat="47.28652" lon="4.96842">
        <ele>481</ele>
        <time>2012-10-07T07:34:56Z</time>
      </trkpt>
      <trkpt lat="47.28652" lon="4.96833">
        <ele>480</ele>
        <time>2012-10-07T07:35:00Z</time>
      </trkpt>
      <trkpt lat="47.28653" lon="4.96825">
        <ele>479</ele>
        <time>2012-10-07T07:35:03Z</time>
      </trkpt>
      <trkpt lat="47.28657" lon="4.96818">
        <ele>479</ele>
        <time>2012-10-07T07:35:06Z</time>
      </trkpt>
      <trkpt lat="47.2866" lon="4.96809">
        <ele>478</ele>
        <time>2012-10-07T07:35:09Z</time>
      </trkpt>
      <trkpt lat="47.28665" lon="4.96802">
        <ele>477</ele>
        <time>2012-10-07T07:35:12Z</time>
      </trkpt>
      <trkpt lat="47.28669" lon="4.96798">
        <ele>478</ele>
        <time>2012-10-07T07:35:15Z</time>
      </trkpt>
      <trkpt lat="47.28671" lon="4.96791">
        <ele>480</ele>
        <time>2012-10-07T07:35:18Z</time>
      </trkpt>
      <trkpt lat="47.28672" lon="4.96784">
        <ele>479</ele>
        <time>2012-10-07T07:35:21Z</time>
      </trkpt>
      <trkpt lat="47.28674" lon="4.96778">
        <ele>479</ele>
        <time>2012-10-07T07:35:25Z</time>
      </trkpt>
      <trkpt lat="47.28677" lon="4.96771">
        <ele>481</ele>
        <time>2012-10-07T07:35:28Z</time>
      </trkpt>
      <trkpt lat="47.28679" lon="4.96764">
        <ele>483</ele>
        <time>2012-10-07T07:35:31Z</time>
      </trkpt>
      <trkpt lat="47.2868" lon="4.96756">
        <ele>485</ele>
        <time>2012-10-07T07:35:36Z</time>
      </trkpt>
      <trkpt lat="47.28682" lon="4.96748">
        <ele>485</ele>
        <time>2012-10-07T07:35:39Z</time>
      </trkpt>
      <trkpt lat="47.28684" lon="4.96741">
        <ele>484</ele>
        <time>2012-10-07T07:35:41Z</time>
      </trkpt>
      <trkpt lat="47.28686" lon="4.96734">
        <ele>484</ele>
        <time>2012-10-07T07:35:44Z</time>
      </trkpt>
      <trkpt lat="47.28688" lon="4.96728">
        <ele>484</ele>
        <time>2012-10-07T07:35:46Z</time>
      </trkpt>
      <trkpt lat="47.2869" lon="4.96721">
        <ele>486</ele>
        <time>2012-10-07T07:35:49Z</time>
      </trkpt>
      <trkpt lat="47.28692" lon="4.96713">
        <ele>485</ele>
        <time>2012-10-07T07:35:52Z</time>
      </trkpt>
      <trkpt lat="47.28693" lon="4.96706">
        <ele>484</ele>
        <time>2012-10-07T07:35:55Z</time>
      </trkpt>
      <trkpt lat="47.28694" lon="4.96698">
        <ele>484</ele>
        <time>2012-10-07T07:35:58Z</time>
      </trkpt>
      <trkpt lat="47.28695" lon="4.96691">
        <ele>483</ele>
        <time>2012-10-07T07:36:01Z</time>
      </trkpt>
      <trkpt lat="47.28698" lon="4.96683">
        <ele>485</ele>
        <time>2012-10-07T07:36:05Z</time>
      </trkpt>
      <trkpt lat="47.287" lon="4.96675">
        <ele>485</ele>
        <time>2012-10-07T07:36:09Z</time>
      </trkpt>
      <trkpt lat="47.287" lon="4.96666">
        <ele>483</ele>
        <time>2012-10-07T07:36:12Z</time>
      </trkpt>
      <trkpt lat="47.28704" lon="4.96658">
        <ele>481</ele>
        <time>2012-10-07T07:36:15Z</time>
      </trkpt>
      <trkpt lat="47.28706" lon="4.96652">
        <ele>481</ele>
        <time>2012-10-07T07:36:17Z</time>
      </trkpt>
      <trkpt lat="47.28709" lon="4.96646">
        <ele>480</ele>
        <time>2012-10-07T07:36:20Z</time>
      </trkpt>
      <trkpt lat="47.28712" lon="4.9664">
        <ele>481</ele>
        <time>2012-10-07T07:36:24Z</time>
      </trkpt>
      <trkpt lat="47.28715" lon="4.96633">
        <ele>483</ele>
        <time>2012-10-07T07:36:29Z</time>
      </trkpt>
      <trkpt lat="47.28713" lon="4.96626">
        <ele>484</ele>
        <time>2012-10-07T07:36:37Z</time>
      </trkpt>
      <trkpt lat="47.28716" lon="4.96621">
        <ele>481</ele>
        <time>2012-10-07T07:36:57Z</time>
      </trkpt>
      <trkpt lat="47.28713" lon="4.96615">
        <ele>478</ele>
        <time>2012-10-07T07:37:27Z</time>
      </trkpt>
      <trkpt lat="47.28713" lon="4.96615">
        <ele>478</ele>
        <time>2012-10-07T07:37:27Z</time>
      </trkpt>
      <trkpt lat="47.28713" lon="4.96615">
        <ele>478</ele>
        <time>2012-10-07T07:37:30Z</time>
      </trkpt>
      <trkpt lat="47.28715" lon="4.96609">
        <ele>479</ele>
        <time>2012-10-07T07:37:44Z</time>
      </trkpt>
      <trkpt lat="47.2871" lon="4.96608">
        <ele>476</ele>
        <time>2012-10-07T07:39:03Z</time>
      </trkpt>
      <trkpt lat="47.2871" lon="4.96608">
        <ele>476</ele>
        <time>2012-10-07T07:39:03Z</time>
      </trkpt>
      <trkpt lat="47.2871" lon="4.96608">
        <ele>476</ele>
        <time>2012-10-07T07:39:04Z</time>
      </trkpt>
      <trkpt lat="47.28706" lon="4.96612">
        <ele>475</ele>
        <time>2012-10-07T07:40:39Z</time>
      </trkpt>
      <trkpt lat="47.28711" lon="4.9661">
        <ele>475</ele>
        <time>2012-10-07T07:41:05Z</time>
      </trkpt>
      <trkpt lat="47.28711" lon="4.9661">
        <ele>475</ele>
        <time>2012-10-07T07:41:05Z</time>
      </trkpt>
      <trkpt lat="47.28711" lon="4.9661">
        <ele>477</ele>
        <time>2012-10-07T07:41:21Z</time>
      </trkpt>
      <trkpt lat="47.28711" lon="4.96602">
        <ele>478</ele>
        <time>2012-10-07T07:41:41Z</time>
      </trkpt>
      <trkpt lat="47.28714" lon="4.96596">
        <ele>476</ele>
        <time>2012-10-07T07:41:45Z</time>
      </trkpt>
      <trkpt lat="47.28717" lon="4.9659">
        <ele>475</ele>
        <time>2012-10-07T07:41:48Z</time>
      </trkpt>
      <trkpt lat="47.28718" lon="4.96582">
        <ele>477</ele>
        <time>2012-10-07T07:41:52Z</time>
      </trkpt>
      <trkpt lat="47.28722" lon="4.96575">
        <ele>476</ele>
        <time>2012-10-07T07:41:56Z</time>
      </trkpt>
      <trkpt lat="47.28724" lon="4.96568">
        <ele>477</ele>
        <time>2012-10-07T07:42:00Z</time>
      </trkpt>
      <trkpt lat="47.28726" lon="4.9656">
        <ele>476</ele>
        <time>2012-10-07T07:42:04Z</time>
      </trkpt>
      <trkpt lat="47.28729" lon="4.96554">
        <ele>476</ele>
        <time>2012-10-07T07:42:07Z</time>
      </trkpt>
      <trkpt lat="47.28731" lon="4.96547">
        <ele>475</ele>
        <time>2012-10-07T07:42:10Z</time>
      </trkpt>
      <trkpt lat="47.28732" lon="4.96539">
        <ele>475</ele>
        <time>2012-10-07T07:42:14Z</time>
      </trkpt>
      <trkpt lat="47.28734" lon="4.96533">
        <ele>476</ele>
        <time>2012-10-07T07:42:17Z</time>
      </trkpt>
      <trkpt lat="47.28737" lon="4.96527">
        <ele>475</ele>
        <time>2012-10-07T07:42:20Z</time>
      </trkpt>
      <trkpt lat="47.28739" lon="4.9652">
        <ele>475</ele>
        <time>2012-10-07T07:42:23Z</time>
      </trkpt>
      <trkpt lat="47.28738" lon="4.96512">
        <ele>475</ele>
        <time>2012-10-07T07:42:27Z</time>
      </trkpt>
      <trkpt lat="47.28739" lon="4.96505">
        <ele>475</ele>
        <time>2012-10-07T07:42:30Z</time>
      </trkpt>
      <trkpt lat="47.28739" lon="4.96497">
        <ele>475</ele>
        <time>2012-10-07T07:42:33Z</time>
      </trkpt>
      <trkpt lat="47.28739" lon="4.9649">
        <ele>475</ele>
        <time>2012-10-07T07:42:37Z</time>
      </trkpt>
      <trkpt lat="47.28736" lon="4.96483">
        <ele>475</ele>
        <time>2012-10-07T07:42:41Z</time>
      </trkpt>
      <trkpt lat="47.28734" lon="4.96474">
        <ele>477</ele>
        <time>2012-10-07T07:42:45Z</time>
      </trkpt>
      <trkpt lat="47.28732" lon="4.96467">
        <ele>478</ele>
        <time>2012-10-07T07:42:48Z</time>
      </trkpt>
      <trkpt lat="47.28733" lon="4.96458">
        <ele>479</ele>
        <time>2012-10-07T07:42:52Z</time>
      </trkpt>
      <trkpt lat="47.28734" lon="4.96451">
        <ele>480</ele>
        <time>2012-10-07T07:42:55Z</time>
      </trkpt>
      <trkpt lat="47.28736" lon="4.96444">
        <ele>482</ele>
        <time>2012-10-07T07:42:59Z</time>
      </trkpt>
      <trkpt lat="47.28738" lon="4.96438">
        <ele>483</ele>
        <time>2012-10-07T07:43:03Z</time>
      </trkpt>
      <trkpt lat="47.28738" lon="4.96431">
        <ele>484</ele>
        <time>2012-10-07T07:43:09Z</time>
      </trkpt>
      <trkpt lat="47.28733" lon="4.96428">
        <ele>483</ele>
        <time>2012-10-07T07:43:16Z</time>
      </trkpt>
      <trkpt lat="47.28729" lon="4.96431">
        <ele>482</ele>
        <time>2012-10-07T07:43:20Z</time>
      </trkpt>
      <trkpt lat="47.28724" lon="4.9643">
        <ele>483</ele>
        <time>2012-10-07T07:43:25Z</time>
      </trkpt>
      <trkpt lat="47.28721" lon="4.96424">
        <ele>482</ele>
        <time>2012-10-07T07:43:29Z</time>
      </trkpt>
      <trkpt lat="47.28716" lon="4.96424">
        <ele>481</ele>
        <time>2012-10-07T07:43:36Z</time>
      </trkpt>
      <trkpt lat="47.28712" lon="4.96429">
        <ele>481</ele>
        <time>2012-10-07T07:43:44Z</time>
      </trkpt>
      <trkpt lat="47.28711" lon="4.96436">
        <ele>480</ele>
        <time>2012-10-07T07:43:55Z</time>
      </trkpt>
      <trkpt lat="47.28709" lon="4.96441">
        <ele>478</ele>
        <time>2012-10-07T07:44:04Z</time>
      </trkpt>
      <trkpt lat="47.28705" lon="4.96445">
        <ele>478</ele>
        <time>2012-10-07T07:44:09Z</time>
      </trkpt>
      <trkpt lat="47.28705" lon="4.96445">
        <ele>478</ele>
        <time>2012-10-07T07:44:09Z</time>
      </trkpt>
      <trkpt lat="47.28705" lon="4.96445">
        <ele>478</ele>
        <time>2012-10-07T07:44:10Z</time>
      </trkpt>
      <trkpt lat="47.28702" lon="4.9645">
        <ele>477</ele>
        <time>2012-10-07T07:44:17Z</time>
      </trkpt>
      <trkpt lat="47.28702" lon="4.9645">
        <ele>477</ele>
        <time>2012-10-07T07:44:17Z</time>
      </trkpt>
      <trkpt lat="47.28702" lon="4.9645">
        <ele>477</ele>
        <time>2012-10-07T07:44:19Z</time>
      </trkpt>
      <trkpt lat="47.287" lon="4.96456">
        <ele>474</ele>
        <time>2012-10-07T07:44:23Z</time>
      </trkpt>
      <trkpt lat="47.28697" lon="4.96462">
        <ele>473</ele>
        <time>2012-10-07T07:44:27Z</time>
      </trkpt>
      <trkpt lat="47.28695" lon="4.9647">
        <ele>469</ele>
        <time>2012-10-07T07:44:37Z</time>
      </trkpt>
      <trkpt lat="47.28693" lon="4.96476">
        <ele>466</ele>
        <time>2012-10-07T07:44:40Z</time>
      </trkpt>
      <trkpt lat="47.2869" lon="4.96482">
        <ele>464</ele>
        <time>2012-10-07T07:44:42Z</time>
      </trkpt>
      <trkpt lat="47.28687" lon="4.96486">
        <ele>462</ele>
        <time>2012-10-07T07:44:44Z</time>
      </trkpt>
      <trkpt lat="47.28681" lon="4.96492">
        <ele>460</ele>
        <time>2012-10-07T07:44:46Z</time>
      </trkpt>
      <trkpt lat="47.28675" lon="4.96496">
        <ele>460</ele>
        <time>2012-10-07T07:44:48Z</time>
      </trkpt>
      <trkpt lat="47.28669" lon="4.96497">
        <ele>460</ele>
        <time>2012-10-07T07:44:51Z</time>
      </trkpt>
      <trkpt lat="47.28664" lon="4.96496">
        <ele>458</ele>
        <time>2012-10-07T07:44:56Z</time>
      </trkpt>
      <trkpt lat="47.28658" lon="4.96494">
        <ele>457</ele>
        <time>2012-10-07T07:45:00Z</time>
      </trkpt>
      <trkpt lat="47.28654" lon="4.9649">
        <ele>454</ele>
        <time>2012-10-07T07:45:07Z</time>
      </trkpt>
      <trkpt lat="47.28645" lon="4.9649">
        <ele>453</ele>
        <time>2012-10-07T07:45:10Z</time>
      </trkpt>
      <trkpt lat="47.2864" lon="4.9649">
        <ele>454</ele>
        <time>2012-10-07T07:45:11Z</time>
      </trkpt>
      <trkpt lat="47.28635" lon="4.96489">
        <ele>453</ele>
        <time>2012-10-07T07:45:14Z</time>
      </trkpt>
      <trkpt lat="47.28629" lon="4.96485">
        <ele>452</ele>
        <time>2012-10-07T07:45:18Z</time>
      </trkpt>
      <trkpt lat="47.28622" lon="4.96483">
        <ele>452</ele>
        <time>2012-10-07T07:45:21Z</time>
      </trkpt>
      <trkpt lat="47.28616" lon="4.96484">
        <ele>453</ele>
        <time>2012-10-07T07:45:23Z</time>
      </trkpt>
      <trkpt lat="47.2861" lon="4.96482">
        <ele>455</ele>
        <time>2012-10-07T07:45:25Z</time>
      </trkpt>
      <trkpt lat="47.28605" lon="4.96481">
        <ele>454</ele>
        <time>2012-10-07T07:45:28Z</time>
      </trkpt>
      <trkpt lat="47.28599" lon="4.96479">
        <ele>453</ele>
        <time>2012-10-07T07:45:31Z</time>
      </trkpt>
      <trkpt lat="47.28593" lon="4.96477">
        <ele>453</ele>
        <time>2012-10-07T07:45:33Z</time>
      </trkpt>
      <trkpt lat="47.28587" lon="4.96475">
        <ele>452</ele>
        <time>2012-10-07T07:45:35Z</time>
      </trkpt>
      <trkpt lat="47.28581" lon="4.96475">
        <ele>450</ele>
        <time>2012-10-07T07:45:37Z</time>
      </trkpt>
      <trkpt lat="47.28575" lon="4.96474">
        <ele>449</ele>
        <time>2012-10-07T07:45:39Z</time>
      </trkpt>
      <trkpt lat="47.2857" lon="4.96474">
        <ele>447</ele>
        <time>2012-10-07T07:45:41Z</time>
      </trkpt>
      <trkpt lat="47.28566" lon="4.96478">
        <ele>444</ele>
        <time>2012-10-07T07:45:44Z</time>
      </trkpt>
      <trkpt lat="47.2856" lon="4.96481">
        <ele>443</ele>
        <time>2012-10-07T07:45:46Z</time>
      </trkpt>
      <trkpt lat="47.28554" lon="4.96482">
        <ele>441</ele>
        <time>2012-10-07T07:45:48Z</time>
      </trkpt>
      <trkpt lat="47.28549" lon="4.96484">
        <ele>438</ele>
        <time>2012-10-07T07:45:51Z</time>
      </trkpt>
      <trkpt lat="47.28544" lon="4.96484">
        <ele>437</ele>
        <time>2012-10-07T07:45:53Z</time>
      </trkpt>
      <trkpt lat="47.28539" lon="4.96486">
        <ele>437</ele>
        <time>2012-10-07T07:45:55Z</time>
      </trkpt>
      <trkpt lat="47.28533" lon="4.96487">
        <ele>436</ele>
        <time>2012-10-07T07:45:57Z</time>
      </trkpt>
      <trkpt lat="47.28526" lon="4.96487">
        <ele>436</ele>
        <time>2012-10-07T07:46:00Z</time>
      </trkpt>
      <trkpt lat="47.2852" lon="4.96488">
        <ele>434</ele>
        <time>2012-10-07T07:46:02Z</time>
      </trkpt>
      <trkpt lat="47.28514" lon="4.96488">
        <ele>433</ele>
        <time>2012-10-07T07:46:05Z</time>
      </trkpt>
      <trkpt lat="47.28508" lon="4.96488">
        <ele>433</ele>
        <time>2012-10-07T07:46:07Z</time>
      </trkpt>
      <trkpt lat="47.28502" lon="4.96486">
        <ele>431</ele>
        <time>2012-10-07T07:46:09Z</time>
      </trkpt>
      <trkpt lat="47.28497" lon="4.96486">
        <ele>429</ele>
        <time>2012-10-07T07:46:11Z</time>
      </trkpt>
      <trkpt lat="47.2849" lon="4.96487">
        <ele>428</ele>
        <time>2012-10-07T07:46:14Z</time>
      </trkpt>
      <trkpt lat="47.28485" lon="4.96489">
        <ele>428</ele>
        <time>2012-10-07T07:46:18Z</time>
      </trkpt>
      <trkpt lat="47.2848" lon="4.96492">
        <ele>424</ele>
        <time>2012-10-07T07:46:23Z</time>
      </trkpt>
      <trkpt lat="47.28474" lon="4.96494">
        <ele>421</ele>
        <time>2012-10-07T07:46:26Z</time>
      </trkpt>
      <trkpt lat="47.28468" lon="4.96498">
        <ele>418</ele>
        <time>2012-10-07T07:46:29Z</time>
      </trkpt>
      <trkpt lat="47.28464" lon="4.965">
        <ele>416</ele>
        <time>2012-10-07T07:46:32Z</time>
      </trkpt>
      <trkpt lat="47.28459" lon="4.96502">
        <ele>415</ele>
        <time>2012-10-07T07:46:34Z</time>
      </trkpt>
      <trkpt lat="47.28454" lon="4.96503">
        <ele>413</ele>
        <time>2012-10-07T07:46:37Z</time>
      </trkpt>
      <trkpt lat="47.28448" lon="4.96505">
        <ele>410</ele>
        <time>2012-10-07T07:46:40Z</time>
      </trkpt>
      <trkpt lat="47.28443" lon="4.9651">
        <ele>405</ele>
        <time>2012-10-07T07:46:44Z</time>
      </trkpt>
      <trkpt lat="47.28438" lon="4.96512">
        <ele>404</ele>
        <time>2012-10-07T07:46:47Z</time>
      </trkpt>
      <trkpt lat="47.28434" lon="4.96518">
        <ele>408</ele>
        <time>2012-10-07T07:46:52Z</time>
      </trkpt>
      <trkpt lat="47.2843" lon="4.96523">
        <ele>404</ele>
        <time>2012-10-07T07:46:56Z</time>
      </trkpt>
      <trkpt lat="47.28421" lon="4.96522">
        <ele>405</ele>
        <time>2012-10-07T07:46:59Z</time>
      </trkpt>
      <trkpt lat="47.28414" lon="4.96522">
        <ele>406</ele>
        <time>2012-10-07T07:47:01Z</time>
      </trkpt>
      <trkpt lat="47.28408" lon="4.9652">
        <ele>406</ele>
        <time>2012-10-07T07:47:03Z</time>
      </trkpt>
      <trkpt lat="47.28404" lon="4.96517">
        <ele>405</ele>
        <time>2012-10-07T07:47:05Z</time>
      </trkpt>
      <trkpt lat="47.28401" lon="4.96512">
        <ele>404</ele>
        <time>2012-10-07T07:47:08Z</time>
      </trkpt>
      <trkpt lat="47.28397" lon="4.96506">
        <ele>405</ele>
        <time>2012-10-07T07:47:10Z</time>
      </trkpt>
      <trkpt lat="47.28393" lon="4.96502">
        <ele>406</ele>
        <time>2012-10-07T07:47:12Z</time>
      </trkpt>
      <trkpt lat="47.2839" lon="4.96494">
        <ele>407</ele>
        <time>2012-10-07T07:47:15Z</time>
      </trkpt>
      <trkpt lat="47.28387" lon="4.96488">
        <ele>407</ele>
        <time>2012-10-07T07:47:18Z</time>
      </trkpt>
      <trkpt lat="47.28385" lon="4.96481">
        <ele>407</ele>
        <time>2012-10-07T07:47:20Z</time>
      </trkpt>
      <trkpt lat="47.28383" lon="4.96473">
        <ele>406</ele>
        <time>2012-10-07T07:47:23Z</time>
      </trkpt>
      <trkpt lat="47.28385" lon="4.96467">
        <ele>405</ele>
        <time>2012-10-07T07:47:25Z</time>
      </trkpt>
      <trkpt lat="47.28382" lon="4.9646">
        <ele>408</ele>
        <time>2012-10-07T07:47:29Z</time>
      </trkpt>
      <trkpt lat="47.28381" lon="4.96451">
        <ele>410</ele>
        <time>2012-10-07T07:47:33Z</time>
      </trkpt>
      <trkpt lat="47.2838" lon="4.96441">
        <ele>411</ele>
        <time>2012-10-07T07:47:37Z</time>
      </trkpt>
      <trkpt lat="47.28379" lon="4.96431">
        <ele>412</ele>
        <time>2012-10-07T07:47:41Z</time>
      </trkpt>
      <trkpt lat="47.28379" lon="4.96422">
        <ele>412</ele>
        <time>2012-10-07T07:47:44Z</time>
      </trkpt>
      <trkpt lat="47.28378" lon="4.96412">
        <ele>411</ele>
        <time>2012-10-07T07:47:47Z</time>
      </trkpt>
      <trkpt lat="47.28378" lon="4.96405">
        <ele>412</ele>
        <time>2012-10-07T07:47:49Z</time>
      </trkpt>
      <trkpt lat="47.28379" lon="4.96397">
        <ele>408</ele>
        <time>2012-10-07T07:47:52Z</time>
      </trkpt>
      <trkpt lat="47.28378" lon="4.96389">
        <ele>407</ele>
        <time>2012-10-07T07:47:55Z</time>
      </trkpt>
      <trkpt lat="47.28379" lon="4.9638">
        <ele>407</ele>
        <time>2012-10-07T07:47:58Z</time>
      </trkpt>
      <trkpt lat="47.28378" lon="4.96371">
        <ele>406</ele>
        <time>2012-10-07T07:48:02Z</time>
      </trkpt>
      <trkpt lat="47.2838" lon="4.96363">
        <ele>405</ele>
        <time>2012-10-07T07:48:04Z</time>
      </trkpt>
      <trkpt lat="47.28382" lon="4.96357">
        <ele>405</ele>
        <time>2012-10-07T07:48:06Z</time>
      </trkpt>
      <trkpt lat="47.28381" lon="4.96351">
        <ele>407</ele>
        <time>2012-10-07T07:48:09Z</time>
      </trkpt>
      <trkpt lat="47.2838" lon="4.96344">
        <ele>411</ele>
        <time>2012-10-07T07:48:14Z</time>
      </trkpt>
      <trkpt lat="47.28377" lon="4.96336">
        <ele>411</ele>
        <time>2012-10-07T07:48:18Z</time>
      </trkpt>
      <trkpt lat="47.28378" lon="4.96329">
        <ele>411</ele>
        <time>2012-10-07T07:48:21Z</time>
      </trkpt>
      <trkpt lat="47.28381" lon="4.96322">
        <ele>413</ele>
        <time>2012-10-07T07:48:24Z</time>
      </trkpt>
      <trkpt lat="47.28384" lon="4.96313">
        <ele>413</ele>
        <time>2012-10-07T07:48:27Z</time>
      </trkpt>
      <trkpt lat="47.28386" lon="4.96307">
        <ele>412</ele>
        <time>2012-10-07T07:48:29Z</time>
      </trkpt>
      <trkpt lat="47.28387" lon="4.96299">
        <ele>412</ele>
        <time>2012-10-07T07:48:31Z</time>
      </trkpt>
      <trkpt lat="47.28387" lon="4.96291">
        <ele>412</ele>
        <time>2012-10-07T07:48:34Z</time>
      </trkpt>
      <trkpt lat="47.28388" lon="4.96283">
        <ele>410</ele>
        <time>2012-10-07T07:48:38Z</time>
      </trkpt>
      <trkpt lat="47.28391" lon="4.96277">
        <ele>409</ele>
        <time>2012-10-07T07:48:40Z</time>
      </trkpt>
      <trkpt lat="47.28392" lon="4.96267">
        <ele>408</ele>
        <time>2012-10-07T07:48:43Z</time>
      </trkpt>
      <trkpt lat="47.28394" lon="4.96259">
        <ele>408</ele>
        <time>2012-10-07T07:48:46Z</time>
      </trkpt>
      <trkpt lat="47.28396" lon="4.96251">
        <ele>407</ele>
        <time>2012-10-07T07:48:50Z</time>
      </trkpt>
      <trkpt lat="47.284" lon="4.96246">
        <ele>405</ele>
        <time>2012-10-07T07:48:54Z</time>
      </trkpt>
      <trkpt lat="47.28402" lon="4.96238">
        <ele>407</ele>
        <time>2012-10-07T07:48:58Z</time>
      </trkpt>
      <trkpt lat="47.28405" lon="4.96232">
        <ele>409</ele>
        <time>2012-10-07T07:49:01Z</time>
      </trkpt>
      <trkpt lat="47.28409" lon="4.96227">
        <ele>410</ele>
        <time>2012-10-07T07:49:05Z</time>
      </trkpt>
      <trkpt lat="47.28412" lon="4.96219">
        <ele>409</ele>
        <time>2012-10-07T07:49:08Z</time>
      </trkpt>
      <trkpt lat="47.28415" lon="4.96213">
        <ele>409</ele>
        <time>2012-10-07T07:49:10Z</time>
      </trkpt>
      <trkpt lat="47.28416" lon="4.96204">
        <ele>410</ele>
        <time>2012-10-07T07:49:14Z</time>
      </trkpt>
      <trkpt lat="47.28418" lon="4.96197">
        <ele>411</ele>
        <time>2012-10-07T07:49:18Z</time>
      </trkpt>
      <trkpt lat="47.28418" lon="4.9619">
        <ele>412</ele>
        <time>2012-10-07T07:49:21Z</time>
      </trkpt>
      <trkpt lat="47.28421" lon="4.96181">
        <ele>412</ele>
        <time>2012-10-07T07:49:25Z</time>
      </trkpt>
      <trkpt lat="47.28421" lon="4.96174">
        <ele>412</ele>
        <time>2012-10-07T07:49:30Z</time>
      </trkpt>
      <trkpt lat="47.28422" lon="4.96167">
        <ele>412</ele>
        <time>2012-10-07T07:49:34Z</time>
      </trkpt>
      <trkpt lat="47.28423" lon="4.96159">
        <ele>410</ele>
        <time>2012-10-07T07:49:37Z</time>
      </trkpt>
      <trkpt lat="47.28422" lon="4.96152">
        <ele>410</ele>
        <time>2012-10-07T07:49:40Z</time>
      </trkpt>
      <trkpt lat="47.28423" lon="4.96145">
        <ele>410</ele>
        <time>2012-10-07T07:49:43Z</time>
      </trkpt>
      <trkpt lat="47.28426" lon="4.96137">
        <ele>412</ele>
        <time>2012-10-07T07:49:47Z</time>
      </trkpt>
      <trkpt lat="47.28427" lon="4.96129">
        <ele>412</ele>
        <time>2012-10-07T07:49:49Z</time>
      </trkpt>
      <trkpt lat="47.2843" lon="4.96123">
        <ele>414</ele>
        <time>2012-10-07T07:49:51Z</time>
      </trkpt>
      <trkpt lat="47.28432" lon="4.96115">
        <ele>415</ele>
        <time>2012-10-07T07:49:54Z</time>
      </trkpt>
      <trkpt lat="47.28435" lon="4.96107">
        <ele>416</ele>
        <time>2012-10-07T07:49:57Z</time>
      </trkpt>
      <trkpt lat="47.28435" lon="4.96098">
        <ele>415</ele>
        <time>2012-10-07T07:50:00Z</time>
      </trkpt>
      <trkpt lat="47.28434" lon="4.96089">
        <ele>414</ele>
        <time>2012-10-07T07:50:03Z</time>
      </trkpt>
      <trkpt lat="47.28434" lon="4.9608">
        <ele>415</ele>
        <time>2012-10-07T07:50:07Z</time>
      </trkpt>
      <trkpt lat="47.28435" lon="4.96071">
        <ele>418</ele>
        <time>2012-10-07T07:50:12Z</time>
      </trkpt>
      <trkpt lat="47.28435" lon="4.96064">
        <ele>419</ele>
        <time>2012-10-07T07:50:16Z</time>
      </trkpt>
      <trkpt lat="47.28434" lon="4.96057">
        <ele>419</ele>
        <time>2012-10-07T07:50:20Z</time>
      </trkpt>
      <trkpt lat="47.28431" lon="4.96049">
        <ele>420</ele>
        <time>2012-10-07T07:50:25Z</time>
      </trkpt>
      <trkpt lat="47.28431" lon="4.9604">
        <ele>421</ele>
        <time>2012-10-07T07:50:28Z</time>
      </trkpt>
      <trkpt lat="47.2843" lon="4.96032">
        <ele>422</ele>
        <time>2012-10-07T07:50:33Z</time>
      </trkpt>
      <trkpt lat="47.28428" lon="4.96024">
        <ele>422</ele>
        <time>2012-10-07T07:50:36Z</time>
      </trkpt>
      <trkpt lat="47.28425" lon="4.96016">
        <ele>424</ele>
        <time>2012-10-07T07:50:39Z</time>
      </trkpt>
      <trkpt lat="47.28422" lon="4.96008">
        <ele>425</ele>
        <time>2012-10-07T07:50:42Z</time>
      </trkpt>
      <trkpt lat="47.28421" lon="4.96001">
        <ele>425</ele>
        <time>2012-10-07T07:50:45Z</time>
      </trkpt>
      <trkpt lat="47.28419" lon="4.95994">
        <ele>424</ele>
        <time>2012-10-07T07:50:48Z</time>
      </trkpt>
      <trkpt lat="47.28416" lon="4.95985">
        <ele>423</ele>
        <time>2012-10-07T07:50:51Z</time>
      </trkpt>
      <trkpt lat="47.28413" lon="4.95978">
        <ele>422</ele>
        <time>2012-10-07T07:50:55Z</time>
      </trkpt>
      <trkpt lat="47.28411" lon="4.95971">
        <ele>420</ele>
        <time>2012-10-07T07:50:59Z</time>
      </trkpt>
      <trkpt lat="47.2841" lon="4.95962">
        <ele>421</ele>
        <time>2012-10-07T07:51:02Z</time>
      </trkpt>
      <trkpt lat="47.28406" lon="4.95955">
        <ele>421</ele>
        <time>2012-10-07T07:51:04Z</time>
      </trkpt>
      <trkpt lat="47.28404" lon="4.95945">
        <ele>421</ele>
        <time>2012-10-07T07:51:07Z</time>
      </trkpt>
      <trkpt lat="47.28402" lon="4.95938">
        <ele>420</ele>
        <time>2012-10-07T07:51:11Z</time>
      </trkpt>
      <trkpt lat="47.284" lon="4.9593">
        <ele>424</ele>
        <time>2012-10-07T07:51:16Z</time>
      </trkpt>
      <trkpt lat="47.28396" lon="4.95928">
        <ele>425</ele>
        <time>2012-10-07T07:51:19Z</time>
      </trkpt>
      <trkpt lat="47.28392" lon="4.95921">
        <ele>426</ele>
        <time>2012-10-07T07:51:23Z</time>
      </trkpt>
      <trkpt lat="47.28389" lon="4.95915">
        <ele>426</ele>
        <time>2012-10-07T07:51:26Z</time>
      </trkpt>
      <trkpt lat="47.28386" lon="4.95907">
        <ele>426</ele>
        <time>2012-10-07T07:51:29Z</time>
      </trkpt>
      <trkpt lat="47.28384" lon="4.959">
        <ele>428</ele>
        <time>2012-10-07T07:51:32Z</time>
      </trkpt>
      <trkpt lat="47.28385" lon="4.95893">
        <ele>427</ele>
        <time>2012-10-07T07:51:35Z</time>
      </trkpt>
      <trkpt lat="47.28382" lon="4.95887">
        <ele>426</ele>
        <time>2012-10-07T07:51:38Z</time>
      </trkpt>
      <trkpt lat="47.28379" lon="4.95878">
        <ele>426</ele>
        <time>2012-10-07T07:51:41Z</time>
      </trkpt>
      <trkpt lat="47.28376" lon="4.9587">
        <ele>426</ele>
        <time>2012-10-07T07:51:44Z</time>
      </trkpt>
      <trkpt lat="47.28374" lon="4.95863">
        <ele>429</ele>
        <time>2012-10-07T07:51:48Z</time>
      </trkpt>
      <trkpt lat="47.28373" lon="4.95857">
        <ele>431</ele>
        <time>2012-10-07T07:51:51Z</time>
      </trkpt>
      <trkpt lat="47.28371" lon="4.95848">
        <ele>431</ele>
        <time>2012-10-07T07:51:55Z</time>
      </trkpt>
      <trkpt lat="47.28371" lon="4.95839">
        <ele>430</ele>
        <time>2012-10-07T07:51:59Z</time>
      </trkpt>
      <trkpt lat="47.28369" lon="4.95831">
        <ele>432</ele>
        <time>2012-10-07T07:52:03Z</time>
      </trkpt>
      <trkpt lat="47.28365" lon="4.95824">
        <ele>433</ele>
        <time>2012-10-07T07:52:07Z</time>
      </trkpt>
      <trkpt lat="47.2836" lon="4.9582">
        <ele>435</ele>
        <time>2012-10-07T07:52:11Z</time>
      </trkpt>
      <trkpt lat="47.28356" lon="4.95812">
        <ele>436</ele>
        <time>2012-10-07T07:52:15Z</time>
      </trkpt>
      <trkpt lat="47.28351" lon="4.95806">
        <ele>435</ele>
        <time>2012-10-07T07:52:17Z</time>
      </trkpt>
      <trkpt lat="47.2835" lon="4.95799">
        <ele>435</ele>
        <time>2012-10-07T07:52:19Z</time>
      </trkpt>
      <trkpt lat="47.28348" lon="4.95792">
        <ele>436</ele>
        <time>2012-10-07T07:52:22Z</time>
      </trkpt>
      <trkpt lat="47.28346" lon="4.95785">
        <ele>435</ele>
        <time>2012-10-07T07:52:25Z</time>
      </trkpt>
      <trkpt lat="47.28341" lon="4.95779">
        <ele>436</ele>
        <time>2012-10-07T07:52:29Z</time>
      </trkpt>
      <trkpt lat="47.2834" lon="4.95771">
        <ele>435</ele>
        <time>2012-10-07T07:52:32Z</time>
      </trkpt>
      <trkpt lat="47.28335" lon="4.95763">
        <ele>435</ele>
        <time>2012-10-07T07:52:35Z</time>
      </trkpt>
      <trkpt lat="47.28332" lon="4.95757">
        <ele>438</ele>
        <time>2012-10-07T07:52:39Z</time>
      </trkpt>
      <trkpt lat="47.28329" lon="4.95752">
        <ele>437</ele>
        <time>2012-10-07T07:52:42Z</time>
      </trkpt>
      <trkpt lat="47.28325" lon="4.95747">
        <ele>437</ele>
        <time>2012-10-07T07:52:46Z</time>
      </trkpt>
      <trkpt lat="47.28322" lon="4.95742">
        <ele>437</ele>
        <time>2012-10-07T07:52:49Z</time>
      </trkpt>
      <trkpt lat="47.28317" lon="4.95736">
        <ele>438</ele>
        <time>2012-10-07T07:52:52Z</time>
      </trkpt>
      <trkpt lat="47.28312" lon="4.95731">
        <ele>438</ele>
        <time>2012-10-07T07:52:54Z</time>
      </trkpt>
      <trkpt lat="47.28307" lon="4.95725">
        <ele>437</ele>
        <time>2012-10-07T07:52:56Z</time>
      </trkpt>
      <trkpt lat="47.28307" lon="4.95717">
        <ele>438</ele>
        <time>2012-10-07T07:52:59Z</time>
      </trkpt>
      <trkpt lat="47.28304" lon="4.95711">
        <ele>438</ele>
        <time>2012-10-07T07:53:02Z</time>
      </trkpt>
      <trkpt lat="47.28304" lon="4.95704">
        <ele>437</ele>
        <time>2012-10-07T07:53:05Z</time>
      </trkpt>
      <trkpt lat="47.283" lon="4.95697">
        <ele>438</ele>
        <time>2012-10-07T07:53:09Z</time>
      </trkpt>
      <trkpt lat="47.28296" lon="4.9569">
        <ele>437</ele>
        <time>2012-10-07T07:53:14Z</time>
      </trkpt>
      <trkpt lat="47.28296" lon="4.95683">
        <ele>439</ele>
        <time>2012-10-07T07:53:17Z</time>
      </trkpt>
      <trkpt lat="47.28294" lon="4.95676">
        <ele>439</ele>
        <time>2012-10-07T07:53:20Z</time>
      </trkpt>
      <trkpt lat="47.28291" lon="4.95668">
        <ele>437</ele>
        <time>2012-10-07T07:53:23Z</time>
      </trkpt>
      <trkpt lat="47.28288" lon="4.95664">
        <ele>437</ele>
        <time>2012-10-07T07:53:26Z</time>
      </trkpt>
      <trkpt lat="47.28285" lon="4.95658">
        <ele>435</ele>
        <time>2012-10-07T07:53:29Z</time>
      </trkpt>
      <trkpt lat="47.28283" lon="4.95651">
        <ele>436</ele>
        <time>2012-10-07T07:53:33Z</time>
      </trkpt>
      <trkpt lat="47.28281" lon="4.95645">
        <ele>438</ele>
        <time>2012-10-07T07:53:36Z</time>
      </trkpt>
      <trkpt lat="47.28277" lon="4.95637">
        <ele>437</ele>
        <time>2012-10-07T07:53:39Z</time>
      </trkpt>
      <trkpt lat="47.28274" lon="4.9563">
        <ele>437</ele>
        <time>2012-10-07T07:53:41Z</time>
      </trkpt>
      <trkpt lat="47.28274" lon="4.9563">
        <ele>437</ele>
        <time>2012-10-07T07:53:41Z</time>
      </trkpt>
      <trkpt lat="47.28274" lon="4.9563">
        <ele>437</ele>
        <time>2012-10-07T07:53:42Z</time>
      </trkpt>
      <trkpt lat="47.28272" lon="4.95624">
        <ele>436</ele>
        <time>2012-10-07T07:53:48Z</time>
      </trkpt>
      <trkpt lat="47.28272" lon="4.95615">
        <ele>434</ele>
        <time>2012-10-07T07:53:50Z</time>
      </trkpt>
      <trkpt lat="47.28269" lon="4.95608">
        <ele>433</ele>
        <time>2012-10-07T07:53:52Z</time>
      </trkpt>
      <trkpt lat="47.28264" lon="4.95602">
        <ele>431</ele>
        <time>2012-10-07T07:53:55Z</time>
      </trkpt>
      <trkpt lat="47.28262" lon="4.95596">
        <ele>429</ele>
        <time>2012-10-07T07:53:59Z</time>
      </trkpt>
      <trkpt lat="47.28262" lon="4.95596">
        <ele>429</ele>
        <time>2012-10-07T07:53:59Z</time>
      </trkpt>
      <trkpt lat="47.28262" lon="4.95596">
        <ele>429</ele>
        <time>2012-10-07T07:54:00Z</time>
      </trkpt>
      <trkpt lat="47.28261" lon="4.95588">
        <ele>428</ele>
        <time>2012-10-07T07:54:03Z</time>
      </trkpt>
      <trkpt lat="47.28259" lon="4.95582">
        <ele>429</ele>
        <time>2012-10-07T07:54:06Z</time>
      </trkpt>
      <trkpt lat="47.28256" lon="4.95576">
        <ele>431</ele>
        <time>2012-10-07T07:54:09Z</time>
      </trkpt>
      <trkpt lat="47.28251" lon="4.95571">
        <ele>428</ele>
        <time>2012-10-07T07:54:12Z</time>
      </trkpt>
      <trkpt lat="47.28246" lon="4.95566">
        <ele>430</ele>
        <time>2012-10-07T07:54:15Z</time>
      </trkpt>
      <trkpt lat="47.28241" lon="4.9556">
        <ele>432</ele>
        <time>2012-10-07T07:54:19Z</time>
      </trkpt>
      <trkpt lat="47.28237" lon="4.95557">
        <ele>432</ele>
        <time>2012-10-07T07:54:21Z</time>
      </trkpt>
      <trkpt lat="47.28233" lon="4.95552">
        <ele>430</ele>
        <time>2012-10-07T07:54:23Z</time>
      </trkpt>
      <trkpt lat="47.2823" lon="4.95547">
        <ele>431</ele>
        <time>2012-10-07T07:54:26Z</time>
      </trkpt>
      <trkpt lat="47.28226" lon="4.95541">
        <ele>431</ele>
        <time>2012-10-07T07:54:29Z</time>
      </trkpt>
      <trkpt lat="47.28223" lon="4.95534">
        <ele>431</ele>
        <time>2012-10-07T07:54:32Z</time>
      </trkpt>
      <trkpt lat="47.28223" lon="4.95534">
        <ele>431</ele>
        <time>2012-10-07T07:54:32Z</time>
      </trkpt>
      <trkpt lat="47.28223" lon="4.95534">
        <ele>431</ele>
        <time>2012-10-07T07:54:33Z</time>
      </trkpt>
      <trkpt lat="47.28216" lon="4.95531">
        <ele>430</ele>
        <time>2012-10-07T07:54:35Z</time>
      </trkpt>
      <trkpt lat="47.2821" lon="4.95527">
        <ele>431</ele>
        <time>2012-10-07T07:54:38Z</time>
      </trkpt>
      <trkpt lat="47.28208" lon="4.95519">
        <ele>432</ele>
        <time>2012-10-07T07:54:42Z</time>
      </trkpt>
      <trkpt lat="47.28204" lon="4.95513">
        <ele>434</ele>
        <time>2012-10-07T07:54:45Z</time>
      </trkpt>
      <trkpt lat="47.282" lon="4.95506">
        <ele>434</ele>
        <time>2012-10-07T07:54:49Z</time>
      </trkpt>
      <trkpt lat="47.28198" lon="4.95497">
        <ele>434</ele>
        <time>2012-10-07T07:54:52Z</time>
      </trkpt>
      <trkpt lat="47.28196" lon="4.95488">
        <ele>434</ele>
        <time>2012-10-07T07:54:55Z</time>
      </trkpt>
      <trkpt lat="47.2819" lon="4.95484">
        <ele>434</ele>
        <time>2012-10-07T07:54:58Z</time>
      </trkpt>
      <trkpt lat="47.28187" lon="4.95477">
        <ele>434</ele>
        <time>2012-10-07T07:55:01Z</time>
      </trkpt>
      <trkpt lat="47.28184" lon="4.95469">
        <ele>435</ele>
        <time>2012-10-07T07:55:04Z</time>
      </trkpt>
      <trkpt lat="47.28182" lon="4.95461">
        <ele>435</ele>
        <time>2012-10-07T07:55:07Z</time>
      </trkpt>
      <trkpt lat="47.28181" lon="4.95453">
        <ele>434</ele>
        <time>2012-10-07T07:55:13Z</time>
      </trkpt>
      <trkpt lat="47.28179" lon="4.95444">
        <ele>434</ele>
        <time>2012-10-07T07:55:16Z</time>
      </trkpt>
      <trkpt lat="47.28178" lon="4.95436">
        <ele>434</ele>
        <time>2012-10-07T07:55:18Z</time>
      </trkpt>
      <trkpt lat="47.28176" lon="4.9543">
        <ele>435</ele>
        <time>2012-10-07T07:55:20Z</time>
      </trkpt>
      <trkpt lat="47.28175" lon="4.95423">
        <ele>441</ele>
        <time>2012-10-07T07:55:24Z</time>
      </trkpt>
      <trkpt lat="47.28172" lon="4.95417">
        <ele>441</ele>
        <time>2012-10-07T07:55:27Z</time>
      </trkpt>
      <trkpt lat="47.28168" lon="4.95412">
        <ele>442</ele>
        <time>2012-10-07T07:55:29Z</time>
      </trkpt>
      <trkpt lat="47.28165" lon="4.95404">
        <ele>440</ele>
        <time>2012-10-07T07:55:33Z</time>
      </trkpt>
      <trkpt lat="47.28162" lon="4.95399">
        <ele>442</ele>
        <time>2012-10-07T07:55:36Z</time>
      </trkpt>
      <trkpt lat="47.28159" lon="4.9539">
        <ele>444</ele>
        <time>2012-10-07T07:55:40Z</time>
      </trkpt>
      <trkpt lat="47.28159" lon="4.95384">
        <ele>444</ele>
        <time>2012-10-07T07:55:43Z</time>
      </trkpt>
      <trkpt lat="47.28159" lon="4.95384">
        <ele>444</ele>
        <time>2012-10-07T07:55:43Z</time>
      </trkpt>
      <trkpt lat="47.28159" lon="4.95384">
        <ele>444</ele>
        <time>2012-10-07T07:55:44Z</time>
      </trkpt>
      <trkpt lat="47.28154" lon="4.95377">
        <ele>444</ele>
        <time>2012-10-07T07:55:46Z</time>
      </trkpt>
      <trkpt lat="47.28151" lon="4.95369">
        <ele>443</ele>
        <time>2012-10-07T07:55:48Z</time>
      </trkpt>
      <trkpt lat="47.28151" lon="4.95362">
        <ele>442</ele>
        <time>2012-10-07T07:55:50Z</time>
      </trkpt>
      <trkpt lat="47.2815" lon="4.95354">
        <ele>440</ele>
        <time>2012-10-07T07:55:53Z</time>
      </trkpt>
      <trkpt lat="47.28148" lon="4.95346">
        <ele>437</ele>
        <time>2012-10-07T07:55:56Z</time>
      </trkpt>
      <trkpt lat="47.28145" lon="4.95338">
        <ele>438</ele>
        <time>2012-10-07T07:56:00Z</time>
      </trkpt>
      <trkpt lat="47.28144" lon="4.9533">
        <ele>440</ele>
        <time>2012-10-07T07:56:05Z</time>
      </trkpt>
      <trkpt lat="47.28142" lon="4.95323">
        <ele>439</ele>
        <time>2012-10-07T07:56:08Z</time>
      </trkpt>
      <trkpt lat="47.2814" lon="4.95316">
        <ele>440</ele>
        <time>2012-10-07T07:56:12Z</time>
      </trkpt>
      <trkpt lat="47.28138" lon="4.95306">
        <ele>438</ele>
        <time>2012-10-07T07:56:15Z</time>
      </trkpt>
      <trkpt lat="47.28136" lon="4.95298">
        <ele>439</ele>
        <time>2012-10-07T07:56:18Z</time>
      </trkpt>
      <trkpt lat="47.28135" lon="4.9529">
        <ele>440</ele>
        <time>2012-10-07T07:56:21Z</time>
      </trkpt>
      <trkpt lat="47.28134" lon="4.95281">
        <ele>440</ele>
        <time>2012-10-07T07:56:25Z</time>
      </trkpt>
      <trkpt lat="47.2813" lon="4.95273">
        <ele>440</ele>
        <time>2012-10-07T07:56:29Z</time>
      </trkpt>
      <trkpt lat="47.28129" lon="4.95264">
        <ele>439</ele>
        <time>2012-10-07T07:56:33Z</time>
      </trkpt>
      <trkpt lat="47.28126" lon="4.95257">
        <ele>439</ele>
        <time>2012-10-07T07:56:35Z</time>
      </trkpt>
      <trkpt lat="47.28123" lon="4.9525">
        <ele>440</ele>
        <time>2012-10-07T07:56:38Z</time>
      </trkpt>
      <trkpt lat="47.28122" lon="4.95242">
        <ele>440</ele>
        <time>2012-10-07T07:56:42Z</time>
      </trkpt>
      <trkpt lat="47.28122" lon="4.95235">
        <ele>440</ele>
        <time>2012-10-07T07:56:45Z</time>
      </trkpt>
      <trkpt lat="47.28122" lon="4.95227">
        <ele>439</ele>
        <time>2012-10-07T07:56:48Z</time>
      </trkpt>
      <trkpt lat="47.28123" lon="4.9522">
        <ele>441</ele>
        <time>2012-10-07T07:56:52Z</time>
      </trkpt>
      <trkpt lat="47.28124" lon="4.95214">
        <ele>441</ele>
        <time>2012-10-07T07:56:55Z</time>
      </trkpt>
      <trkpt lat="47.28126" lon="4.95206">
        <ele>441</ele>
        <time>2012-10-07T07:56:58Z</time>
      </trkpt>
      <trkpt lat="47.28127" lon="4.952">
        <ele>441</ele>
        <time>2012-10-07T07:57:02Z</time>
      </trkpt>
      <trkpt lat="47.28129" lon="4.95192">
        <ele>441</ele>
        <time>2012-10-07T07:57:05Z</time>
      </trkpt>
      <trkpt lat="47.28127" lon="4.95185">
        <ele>439</ele>
        <time>2012-10-07T07:57:09Z</time>
      </trkpt>
      <trkpt lat="47.28126" lon="4.95176">
        <ele>437</ele>
        <time>2012-10-07T07:57:13Z</time>
      </trkpt>
      <trkpt lat="47.28124" lon="4.9517">
        <ele>437</ele>
        <time>2012-10-07T07:57:16Z</time>
      </trkpt>
      <trkpt lat="47.28124" lon="4.95163">
        <ele>439</ele>
        <time>2012-10-07T07:57:20Z</time>
      </trkpt>
      <trkpt lat="47.28124" lon="4.95156">
        <ele>439</ele>
        <time>2012-10-07T07:57:23Z</time>
      </trkpt>
      <trkpt lat="47.28124" lon="4.95148">
        <ele>439</ele>
        <time>2012-10-07T07:57:25Z</time>
      </trkpt>
      <trkpt lat="47.28128" lon="4.95141">
        <ele>439</ele>
        <time>2012-10-07T07:57:27Z</time>
      </trkpt>
      <trkpt lat="47.2813" lon="4.95135">
        <ele>439</ele>
        <time>2012-10-07T07:57:30Z</time>
      </trkpt>
      <trkpt lat="47.28129" lon="4.95127">
        <ele>440</ele>
        <time>2012-10-07T07:57:33Z</time>
      </trkpt>
      <trkpt lat="47.28131" lon="4.9512">
        <ele>439</ele>
        <time>2012-10-07T07:57:36Z</time>
      </trkpt>
      <trkpt lat="47.28133" lon="4.95112">
        <ele>439</ele>
        <time>2012-10-07T07:57:39Z</time>
      </trkpt>
      <trkpt lat="47.28133" lon="4.95105">
        <ele>439</ele>
        <time>2012-10-07T07:57:43Z</time>
      </trkpt>
      <trkpt lat="47.28134" lon="4.95096">
        <ele>441</ele>
        <time>2012-10-07T07:57:47Z</time>
      </trkpt>
      <trkpt lat="47.28136" lon="4.95086">
        <ele>442</ele>
        <time>2012-10-07T07:57:51Z</time>
      </trkpt>
      <trkpt lat="47.28138" lon="4.95078">
        <ele>442</ele>
        <time>2012-10-07T07:57:54Z</time>
      </trkpt>
      <trkpt lat="47.28138" lon="4.9507">
        <ele>442</ele>
        <time>2012-10-07T07:57:57Z</time>
      </trkpt>
      <trkpt lat="47.2814" lon="4.95063">
        <ele>445</ele>
        <time>2012-10-07T07:58:01Z</time>
      </trkpt>
      <trkpt lat="47.28141" lon="4.95055">
        <ele>449</ele>
        <time>2012-10-07T07:58:05Z</time>
      </trkpt>
      <trkpt lat="47.28142" lon="4.95047">
        <ele>448</ele>
        <time>2012-10-07T07:58:07Z</time>
      </trkpt>
      <trkpt lat="47.28143" lon="4.95039">
        <ele>447</ele>
        <time>2012-10-07T07:58:09Z</time>
      </trkpt>
      <trkpt lat="47.28144" lon="4.95031">
        <ele>446</ele>
        <time>2012-10-07T07:58:11Z</time>
      </trkpt>
      <trkpt lat="47.28144" lon="4.95024">
        <ele>447</ele>
        <time>2012-10-07T07:58:15Z</time>
      </trkpt>
      <trkpt lat="47.28145" lon="4.95016">
        <ele>448</ele>
        <time>2012-10-07T07:58:18Z</time>
      </trkpt>
      <trkpt lat="47.28146" lon="4.95009">
        <ele>452</ele>
        <time>2012-10-07T07:58:23Z</time>
      </trkpt>
      <trkpt lat="47.28148" lon="4.95002">
        <ele>450</ele>
        <time>2012-10-07T07:58:27Z</time>
      </trkpt>
      <trkpt lat="47.2815" lon="4.94995">
        <ele>451</ele>
        <time>2012-10-07T07:58:31Z</time>
      </trkpt>
      <trkpt lat="47.28148" lon="4.94988">
        <ele>449</ele>
        <time>2012-10-07T07:58:35Z</time>
      </trkpt>
      <trkpt lat="47.28148" lon="4.94981">
        <ele>448</ele>
        <time>2012-10-07T07:58:39Z</time>
      </trkpt>
      <trkpt lat="47.2815" lon="4.94972">
        <ele>450</ele>
        <time>2012-10-07T07:58:43Z</time>
      </trkpt>
      <trkpt lat="47.2815" lon="4.94964">
        <ele>451</ele>
        <time>2012-10-07T07:58:47Z</time>
      </trkpt>
      <trkpt lat="47.2815" lon="4.94956">
        <ele>452</ele>
        <time>2012-10-07T07:58:51Z</time>
      </trkpt>
      <trkpt lat="47.28151" lon="4.94948">
        <ele>450</ele>
        <time>2012-10-07T07:58:54Z</time>
      </trkpt>
      <trkpt lat="47.28151" lon="4.94939">
        <ele>452</ele>
        <time>2012-10-07T07:58:58Z</time>
      </trkpt>
      <trkpt lat="47.28152" lon="4.94932">
        <ele>452</ele>
        <time>2012-10-07T07:59:00Z</time>
      </trkpt>
      <trkpt lat="47.28154" lon="4.94926">
        <ele>452</ele>
        <time>2012-10-07T07:59:03Z</time>
      </trkpt>
      <trkpt lat="47.28154" lon="4.94918">
        <ele>450</ele>
        <time>2012-10-07T07:59:07Z</time>
      </trkpt>
      <trkpt lat="47.28155" lon="4.94912">
        <ele>451</ele>
        <time>2012-10-07T07:59:10Z</time>
      </trkpt>
      <trkpt lat="47.28157" lon="4.94905">
        <ele>452</ele>
        <time>2012-10-07T07:59:13Z</time>
      </trkpt>
      <trkpt lat="47.28159" lon="4.94899">
        <ele>451</ele>
        <time>2012-10-07T07:59:15Z</time>
      </trkpt>
      <trkpt lat="47.28157" lon="4.94888">
        <ele>453</ele>
        <time>2012-10-07T07:59:20Z</time>
      </trkpt>
      <trkpt lat="47.28159" lon="4.9488">
        <ele>454</ele>
        <time>2012-10-07T07:59:23Z</time>
      </trkpt>
      <trkpt lat="47.28158" lon="4.94871">
        <ele>455</ele>
        <time>2012-10-07T07:59:27Z</time>
      </trkpt>
      <trkpt lat="47.28158" lon="4.94863">
        <ele>455</ele>
        <time>2012-10-07T07:59:32Z</time>
      </trkpt>
      <trkpt lat="47.28159" lon="4.94855">
        <ele>458</ele>
        <time>2012-10-07T07:59:36Z</time>
      </trkpt>
      <trkpt lat="47.2816" lon="4.94847">
        <ele>458</ele>
        <time>2012-10-07T07:59:40Z</time>
      </trkpt>
      <trkpt lat="47.28159" lon="4.9484">
        <ele>458</ele>
        <time>2012-10-07T07:59:44Z</time>
      </trkpt>
      <trkpt lat="47.28159" lon="4.94833">
        <ele>458</ele>
        <time>2012-10-07T07:59:47Z</time>
      </trkpt>
      <trkpt lat="47.28158" lon="4.94825">
        <ele>460</ele>
        <time>2012-10-07T07:59:50Z</time>
      </trkpt>
      <trkpt lat="47.28159" lon="4.94817">
        <ele>462</ele>
        <time>2012-10-07T07:59:53Z</time>
      </trkpt>
      <trkpt lat="47.2816" lon="4.9481">
        <ele>462</ele>
        <time>2012-10-07T07:59:56Z</time>
      </trkpt>
      <trkpt lat="47.28158" lon="4.94802">
        <ele>462</ele>
        <time>2012-10-07T08:00:01Z</time>
      </trkpt>
      <trkpt lat="47.28157" lon="4.94796">
        <ele>459</ele>
        <time>2012-10-07T08:00:04Z</time>
      </trkpt>
      <trkpt lat="47.28154" lon="4.94787">
        <ele>459</ele>
        <time>2012-10-07T08:00:08Z</time>
      </trkpt>
      <trkpt lat="47.28156" lon="4.94781">
        <ele>456</ele>
        <time>2012-10-07T08:00:13Z</time>
      </trkpt>
      <trkpt lat="47.28155" lon="4.94773">
        <ele>455</ele>
        <time>2012-10-07T08:00:15Z</time>
      </trkpt>
      <trkpt lat="47.28155" lon="4.94766">
        <ele>458</ele>
        <time>2012-10-07T08:00:18Z</time>
      </trkpt>
      <trkpt lat="47.28156" lon="4.94758">
        <ele>462</ele>
        <time>2012-10-07T08:00:23Z</time>
      </trkpt>
      <trkpt lat="47.28156" lon="4.9475">
        <ele>461</ele>
        <time>2012-10-07T08:00:25Z</time>
      </trkpt>
      <trkpt lat="47.28157" lon="4.94743">
        <ele>461</ele>
        <time>2012-10-07T08:00:28Z</time>
      </trkpt>
      <trkpt lat="47.28159" lon="4.94733">
        <ele>463</ele>
        <time>2012-10-07T08:00:31Z</time>
      </trkpt>
      <trkpt lat="47.28157" lon="4.94724">
        <ele>463</ele>
        <time>2012-10-07T08:00:36Z</time>
      </trkpt>
      <trkpt lat="47.28156" lon="4.94717">
        <ele>464</ele>
        <time>2012-10-07T08:00:38Z</time>
      </trkpt>
      <trkpt lat="47.28154" lon="4.94709">
        <ele>464</ele>
        <time>2012-10-07T08:00:42Z</time>
      </trkpt>
      <trkpt lat="47.28151" lon="4.94703">
        <ele>463</ele>
        <time>2012-10-07T08:00:45Z</time>
      </trkpt>
      <trkpt lat="47.28148" lon="4.94696">
        <ele>466</ele>
        <time>2012-10-07T08:00:48Z</time>
      </trkpt>
      <trkpt lat="47.28147" lon="4.94689">
        <ele>467</ele>
        <time>2012-10-07T08:00:52Z</time>
      </trkpt>
      <trkpt lat="47.28149" lon="4.94683">
        <ele>467</ele>
        <time>2012-10-07T08:00:55Z</time>
      </trkpt>
      <trkpt lat="47.2815" lon="4.94676">
        <ele>468</ele>
        <time>2012-10-07T08:01:00Z</time>
      </trkpt>
      <trkpt lat="47.28146" lon="4.94672">
        <ele>469</ele>
        <time>2012-10-07T08:01:02Z</time>
      </trkpt>
      <trkpt lat="47.28144" lon="4.94665">
        <ele>472</ele>
        <time>2012-10-07T08:01:07Z</time>
      </trkpt>
      <trkpt lat="47.28145" lon="4.94658">
        <ele>473</ele>
        <time>2012-10-07T08:01:10Z</time>
      </trkpt>
      <trkpt lat="47.28144" lon="4.94651">
        <ele>474</ele>
        <time>2012-10-07T08:01:14Z</time>
      </trkpt>
      <trkpt lat="47.28146" lon="4.94644">
        <ele>475</ele>
        <time>2012-10-07T08:01:17Z</time>
      </trkpt>
      <trkpt lat="47.28143" lon="4.9464">
        <ele>474</ele>
        <time>2012-10-07T08:01:20Z</time>
      </trkpt>
      <trkpt lat="47.2814" lon="4.94633">
        <ele>473</ele>
        <time>2012-10-07T08:01:24Z</time>
      </trkpt>
      <trkpt lat="47.28141" lon="4.94626">
        <ele>473</ele>
        <time>2012-10-07T08:01:27Z</time>
      </trkpt>
      <trkpt lat="47.28141" lon="4.94619">
        <ele>473</ele>
        <time>2012-10-07T08:01:30Z</time>
      </trkpt>
      <trkpt lat="47.28141" lon="4.94612">
        <ele>474</ele>
        <time>2012-10-07T08:01:35Z</time>
      </trkpt>
      <trkpt lat="47.2814" lon="4.94605">
        <ele>475</ele>
        <time>2012-10-07T08:01:38Z</time>
      </trkpt>
      <trkpt lat="47.2814" lon="4.94598">
        <ele>475</ele>
        <time>2012-10-07T08:01:40Z</time>
      </trkpt>
      <trkpt lat="47.28141" lon="4.9459">
        <ele>480</ele>
        <time>2012-10-07T08:01:45Z</time>
      </trkpt>
      <trkpt lat="47.28138" lon="4.94584">
        <ele>480</ele>
        <time>2012-10-07T08:01:57Z</time>
      </trkpt>
      <trkpt lat="47.28135" lon="4.94578">
        <ele>480</ele>
        <time>2012-10-07T08:02:00Z</time>
      </trkpt>
      <trkpt lat="47.28136" lon="4.94571">
        <ele>484</ele>
        <time>2012-10-07T08:02:04Z</time>
      </trkpt>
      <trkpt lat="47.28136" lon="4.94563">
        <ele>485</ele>
        <time>2012-10-07T08:02:08Z</time>
      </trkpt>
      <trkpt lat="47.28135" lon="4.94556">
        <ele>486</ele>
        <time>2012-10-07T08:02:12Z</time>
      </trkpt>
      <trkpt lat="47.28132" lon="4.94547">
        <ele>487</ele>
        <time>2012-10-07T08:02:16Z</time>
      </trkpt>
      <trkpt lat="47.28127" lon="4.94539">
        <ele>488</ele>
        <time>2012-10-07T08:02:20Z</time>
      </trkpt>
      <trkpt lat="47.28126" lon="4.94532">
        <ele>488</ele>
        <time>2012-10-07T08:02:24Z</time>
      </trkpt>
      <trkpt lat="47.28122" lon="4.94526">
        <ele>487</ele>
        <time>2012-10-07T08:02:26Z</time>
      </trkpt>
      <trkpt lat="47.28121" lon="4.94519">
        <ele>488</ele>
        <time>2012-10-07T08:02:30Z</time>
      </trkpt>
      <trkpt lat="47.28123" lon="4.94512">
        <ele>492</ele>
        <time>2012-10-07T08:02:34Z</time>
      </trkpt>
      <trkpt lat="47.28124" lon="4.94505">
        <ele>492</ele>
        <time>2012-10-07T08:02:42Z</time>
      </trkpt>
      <trkpt lat="47.28123" lon="4.94499">
        <ele>491</ele>
        <time>2012-10-07T08:02:48Z</time>
      </trkpt>
      <trkpt lat="47.28119" lon="4.94495">
        <ele>491</ele>
        <time>2012-10-07T08:02:53Z</time>
      </trkpt>
      <trkpt lat="47.28118" lon="4.94481">
        <ele>493</ele>
        <time>2012-10-07T08:03:15Z</time>
      </trkpt>
      <trkpt lat="47.28116" lon="4.94473">
        <ele>496</ele>
        <time>2012-10-07T08:03:18Z</time>
      </trkpt>
      <trkpt lat="47.28118" lon="4.94465">
        <ele>499</ele>
        <time>2012-10-07T08:03:21Z</time>
      </trkpt>
      <trkpt lat="47.2812" lon="4.9446">
        <ele>499</ele>
        <time>2012-10-07T08:03:24Z</time>
      </trkpt>
      <trkpt lat="47.2812" lon="4.9446">
        <ele>499</ele>
        <time>2012-10-07T08:03:24Z</time>
      </trkpt>
      <trkpt lat="47.2812" lon="4.9446">
        <ele>499</ele>
        <time>2012-10-07T08:03:25Z</time>
      </trkpt>
      <trkpt lat="47.28118" lon="4.94452">
        <ele>500</ele>
        <time>2012-10-07T08:03:33Z</time>
      </trkpt>
      <trkpt lat="47.28118" lon="4.94444">
        <ele>500</ele>
        <time>2012-10-07T08:03:36Z</time>
      </trkpt>
      <trkpt lat="47.28121" lon="4.94438">
        <ele>502</ele>
        <time>2012-10-07T08:03:40Z</time>
      </trkpt>
      <trkpt lat="47.28121" lon="4.94431">
        <ele>503</ele>
        <time>2012-10-07T08:03:43Z</time>
      </trkpt>
      <trkpt lat="47.28118" lon="4.94424">
        <ele>505</ele>
        <time>2012-10-07T08:03:47Z</time>
      </trkpt>
      <trkpt lat="47.28114" lon="4.94419">
        <ele>506</ele>
        <time>2012-10-07T08:03:51Z</time>
      </trkpt>
      <trkpt lat="47.2811" lon="4.94415">
        <ele>505</ele>
        <time>2012-10-07T08:03:54Z</time>
      </trkpt>
      <trkpt lat="47.28108" lon="4.94408">
        <ele>506</ele>
        <time>2012-10-07T08:03:59Z</time>
      </trkpt>
      <trkpt lat="47.28105" lon="4.944">
        <ele>508</ele>
        <time>2012-10-07T08:04:04Z</time>
      </trkpt>
      <trkpt lat="47.28102" lon="4.94394">
        <ele>510</ele>
        <time>2012-10-07T08:04:10Z</time>
      </trkpt>
      <trkpt lat="47.28102" lon="4.94394">
        <ele>510</ele>
        <time>2012-10-07T08:04:10Z</time>
      </trkpt>
      <trkpt lat="47.28102" lon="4.94394">
        <ele>510</ele>
        <time>2012-10-07T08:04:11Z</time>
      </trkpt>
      <trkpt lat="47.28099" lon="4.94387">
        <ele>509</ele>
        <time>2012-10-07T08:04:16Z</time>
      </trkpt>
      <trkpt lat="47.28097" lon="4.9438">
        <ele>508</ele>
        <time>2012-10-07T08:04:21Z</time>
      </trkpt>
      <trkpt lat="47.28093" lon="4.94375">
        <ele>509</ele>
        <time>2012-10-07T08:04:26Z</time>
      </trkpt>
      <trkpt lat="47.28093" lon="4.94375">
        <ele>509</ele>
        <time>2012-10-07T08:04:26Z</time>
      </trkpt>
      <trkpt lat="47.28093" lon="4.94375">
        <ele>509</ele>
        <time>2012-10-07T08:04:27Z</time>
      </trkpt>
      <trkpt lat="47.28089" lon="4.9437">
        <ele>510</ele>
        <time>2012-10-07T08:04:29Z</time>
      </trkpt>
      <trkpt lat="47.28086" lon="4.94365">
        <ele>510</ele>
        <time>2012-10-07T08:04:31Z</time>
      </trkpt>
      <trkpt lat="47.28085" lon="4.94356">
        <ele>510</ele>
        <time>2012-10-07T08:04:33Z</time>
      </trkpt>
      <trkpt lat="47.28085" lon="4.94348">
        <ele>513</ele>
        <time>2012-10-07T08:04:36Z</time>
      </trkpt>
      <trkpt lat="47.28083" lon="4.9434">
        <ele>514</ele>
        <time>2012-10-07T08:04:40Z</time>
      </trkpt>
      <trkpt lat="47.2808" lon="4.94334">
        <ele>514</ele>
        <time>2012-10-07T08:04:42Z</time>
      </trkpt>
      <trkpt lat="47.28077" lon="4.94328">
        <ele>515</ele>
        <time>2012-10-07T08:04:45Z</time>
      </trkpt>
      <trkpt lat="47.28074" lon="4.94322">
        <ele>517</ele>
        <time>2012-10-07T08:04:49Z</time>
      </trkpt>
      <trkpt lat="47.28071" lon="4.94315">
        <ele>518</ele>
        <time>2012-10-07T08:04:54Z</time>
      </trkpt>
      <trkpt lat="47.28068" lon="4.9431">
        <ele>516</ele>
        <time>2012-10-07T08:04:56Z</time>
      </trkpt>
      <trkpt lat="47.28067" lon="4.94302">
        <ele>512</ele>
        <time>2012-10-07T08:05:00Z</time>
      </trkpt>
      <trkpt lat="47.2807" lon="4.94296">
        <ele>510</ele>
        <time>2012-10-07T08:05:02Z</time>
      </trkpt>
      <trkpt lat="47.28072" lon="4.9429">
        <ele>507</ele>
        <time>2012-10-07T08:05:05Z</time>
      </trkpt>
      <trkpt lat="47.28077" lon="4.94284">
        <ele>506</ele>
        <time>2012-10-07T08:05:08Z</time>
      </trkpt>
      <trkpt lat="47.28083" lon="4.94282">
        <ele>504</ele>
        <time>2012-10-07T08:05:13Z</time>
      </trkpt>
      <trkpt lat="47.28089" lon="4.9428">
        <ele>504</ele>
        <time>2012-10-07T08:05:16Z</time>
      </trkpt>
      <trkpt lat="47.28095" lon="4.94279">
        <ele>506</ele>
        <time>2012-10-07T08:05:20Z</time>
      </trkpt>
      <trkpt lat="47.28099" lon="4.94281">
        <ele>508</ele>
        <time>2012-10-07T08:05:27Z</time>
      </trkpt>
      <trkpt lat="47.28104" lon="4.9428">
        <ele>508</ele>
        <time>2012-10-07T08:05:32Z</time>
      </trkpt>
      <trkpt lat="47.28109" lon="4.94282">
        <ele>509</ele>
        <time>2012-10-07T08:05:35Z</time>
      </trkpt>
      <trkpt lat="47.28113" lon="4.94285">
        <ele>508</ele>
        <time>2012-10-07T08:05:39Z</time>
      </trkpt>
      <trkpt lat="47.28118" lon="4.94288">
        <ele>509</ele>
        <time>2012-10-07T08:05:46Z</time>
      </trkpt>
      <trkpt lat="47.28123" lon="4.94289">
        <ele>511</ele>
        <time>2012-10-07T08:05:50Z</time>
      </trkpt>
      <trkpt lat="47.28128" lon="4.94292">
        <ele>511</ele>
        <time>2012-10-07T08:05:54Z</time>
      </trkpt>
      <trkpt lat="47.28133" lon="4.94296">
        <ele>513</ele>
        <time>2012-10-07T08:05:58Z</time>
      </trkpt>
      <trkpt lat="47.28134" lon="4.94304">
        <ele>515</ele>
        <time>2012-10-07T08:06:04Z</time>
      </trkpt>
      <trkpt lat="47.28135" lon="4.94312">
        <ele>515</ele>
        <time>2012-10-07T08:06:10Z</time>
      </trkpt>
      <trkpt lat="47.28138" lon="4.9432">
        <ele>515</ele>
        <time>2012-10-07T08:06:17Z</time>
      </trkpt>
      <trkpt lat="47.28142" lon="4.94327">
        <ele>515</ele>
        <time>2012-10-07T08:06:21Z</time>
      </trkpt>
      <trkpt lat="47.28145" lon="4.94334">
        <ele>515</ele>
        <time>2012-10-07T08:06:23Z</time>
      </trkpt>
      <trkpt lat="47.28149" lon="4.9434">
        <ele>513</ele>
        <time>2012-10-07T08:06:27Z</time>
      </trkpt>
      <trkpt lat="47.28152" lon="4.94344">
        <ele>513</ele>
        <time>2012-10-07T08:06:29Z</time>
      </trkpt>
      <trkpt lat="47.28156" lon="4.94351">
        <ele>513</ele>
        <time>2012-10-07T08:06:35Z</time>
      </trkpt>
      <trkpt lat="47.28158" lon="4.94357">
        <ele>512</ele>
        <time>2012-10-07T08:06:38Z</time>
      </trkpt>
      <trkpt lat="47.2816" lon="4.94364">
        <ele>512</ele>
        <time>2012-10-07T08:06:41Z</time>
      </trkpt>
      <trkpt lat="47.28163" lon="4.94372">
        <ele>512</ele>
        <time>2012-10-07T08:06:44Z</time>
      </trkpt>
      <trkpt lat="47.28165" lon="4.94378">
        <ele>511</ele>
        <time>2012-10-07T08:06:47Z</time>
      </trkpt>
      <trkpt lat="47.28168" lon="4.94387">
        <ele>512</ele>
        <time>2012-10-07T08:06:54Z</time>
      </trkpt>
      <trkpt lat="47.28169" lon="4.94394">
        <ele>512</ele>
        <time>2012-10-07T08:07:00Z</time>
      </trkpt>
      <trkpt lat="47.28169" lon="4.94394">
        <ele>512</ele>
        <time>2012-10-07T08:07:00Z</time>
      </trkpt>
      <trkpt lat="47.28169" lon="4.94394">
        <ele>512</ele>
        <time>2012-10-07T08:07:01Z</time>
      </trkpt>
      <trkpt lat="47.28172" lon="4.94401">
        <ele>511</ele>
        <time>2012-10-07T08:07:03Z</time>
      </trkpt>
      <trkpt lat="47.28173" lon="4.94408">
        <ele>510</ele>
        <time>2012-10-07T08:07:06Z</time>
      </trkpt>
      <trkpt lat="47.28176" lon="4.94415">
        <ele>509</ele>
        <time>2012-10-07T08:07:08Z</time>
      </trkpt>
      <trkpt lat="47.28178" lon="4.94424">
        <ele>512</ele>
        <time>2012-10-07T08:07:12Z</time>
      </trkpt>
      <trkpt lat="47.28181" lon="4.94429">
        <ele>512</ele>
        <time>2012-10-07T08:07:16Z</time>
      </trkpt>
      <trkpt lat="47.28184" lon="4.94439">
        <ele>513</ele>
        <time>2012-10-07T08:07:20Z</time>
      </trkpt>
      <trkpt lat="47.28185" lon="4.94445">
        <ele>514</ele>
        <time>2012-10-07T08:07:23Z</time>
      </trkpt>
      <trkpt lat="47.28188" lon="4.9445">
        <ele>513</ele>
        <time>2012-10-07T08:07:25Z</time>
      </trkpt>
      <trkpt lat="47.2819" lon="4.94457">
        <ele>512</ele>
        <time>2012-10-07T08:07:30Z</time>
      </trkpt>
      <trkpt lat="47.2819" lon="4.94457">
        <ele>512</ele>
        <time>2012-10-07T08:07:30Z</time>
      </trkpt>
      <trkpt lat="47.2819" lon="4.94457">
        <ele>512</ele>
        <time>2012-10-07T08:07:31Z</time>
      </trkpt>
      <trkpt lat="47.28192" lon="4.94465">
        <ele>512</ele>
        <time>2012-10-07T08:07:34Z</time>
      </trkpt>
      <trkpt lat="47.28193" lon="4.94472">
        <ele>513</ele>
        <time>2012-10-07T08:07:37Z</time>
      </trkpt>
      <trkpt lat="47.28196" lon="4.94479">
        <ele>513</ele>
        <time>2012-10-07T08:07:40Z</time>
      </trkpt>
      <trkpt lat="47.28198" lon="4.94487">
        <ele>515</ele>
        <time>2012-10-07T08:07:44Z</time>
      </trkpt>
      <trkpt lat="47.282" lon="4.94494">
        <ele>516</ele>
        <time>2012-10-07T08:07:49Z</time>
      </trkpt>
      <trkpt lat="47.28202" lon="4.94504">
        <ele>516</ele>
        <time>2012-10-07T08:07:57Z</time>
      </trkpt>
      <trkpt lat="47.28203" lon="4.94512">
        <ele>516</ele>
        <time>2012-10-07T08:08:00Z</time>
      </trkpt>
      <trkpt lat="47.28206" lon="4.9452">
        <ele>516</ele>
        <time>2012-10-07T08:08:03Z</time>
      </trkpt>
      <trkpt lat="47.28207" lon="4.94527">
        <ele>516</ele>
        <time>2012-10-07T08:08:06Z</time>
      </trkpt>
      <trkpt lat="47.28208" lon="4.94533">
        <ele>516</ele>
        <time>2012-10-07T08:08:08Z</time>
      </trkpt>
      <trkpt lat="47.28211" lon="4.9454">
        <ele>517</ele>
        <time>2012-10-07T08:08:12Z</time>
      </trkpt>
      <trkpt lat="47.28213" lon="4.94548">
        <ele>517</ele>
        <time>2012-10-07T08:08:15Z</time>
      </trkpt>
      <trkpt lat="47.28215" lon="4.94555">
        <ele>518</ele>
        <time>2012-10-07T08:08:18Z</time>
      </trkpt>
      <trkpt lat="47.2822" lon="4.94561">
        <ele>516</ele>
        <time>2012-10-07T08:08:23Z</time>
      </trkpt>
      <trkpt lat="47.28224" lon="4.94567">
        <ele>516</ele>
        <time>2012-10-07T08:08:27Z</time>
      </trkpt>
      <trkpt lat="47.28227" lon="4.94574">
        <ele>516</ele>
        <time>2012-10-07T08:08:30Z</time>
      </trkpt>
      <trkpt lat="47.2823" lon="4.94579">
        <ele>517</ele>
        <time>2012-10-07T08:08:34Z</time>
      </trkpt>
      <trkpt lat="47.28233" lon="4.94586">
        <ele>516</ele>
        <time>2012-10-07T08:08:37Z</time>
      </trkpt>
      <trkpt lat="47.28236" lon="4.94592">
        <ele>517</ele>
        <time>2012-10-07T08:08:41Z</time>
      </trkpt>
      <trkpt lat="47.28239" lon="4.94599">
        <ele>516</ele>
        <time>2012-10-07T08:08:44Z</time>
      </trkpt>
      <trkpt lat="47.2824" lon="4.94609">
        <ele>517</ele>
        <time>2012-10-07T08:08:47Z</time>
      </trkpt>
      <trkpt lat="47.2824" lon="4.94616">
        <ele>516</ele>
        <time>2012-10-07T08:08:51Z</time>
      </trkpt>
      <trkpt lat="47.28242" lon="4.94623">
        <ele>515</ele>
        <time>2012-10-07T08:08:54Z</time>
      </trkpt>
      <trkpt lat="47.28244" lon="4.94629">
        <ele>519</ele>
        <time>2012-10-07T08:08:58Z</time>
      </trkpt>
      <trkpt lat="47.28246" lon="4.94635">
        <ele>522</ele>
        <time>2012-10-07T08:09:03Z</time>
      </trkpt>
      <trkpt lat="47.28249" lon="4.94641">
        <ele>523</ele>
        <time>2012-10-07T08:09:09Z</time>
      </trkpt>
      <trkpt lat="47.28252" lon="4.94646">
        <ele>523</ele>
        <time>2012-10-07T08:09:12Z</time>
      </trkpt>
      <trkpt lat="47.28253" lon="4.94653">
        <ele>523</ele>
        <time>2012-10-07T08:09:16Z</time>
      </trkpt>
      <trkpt lat="47.28254" lon="4.9466">
        <ele>520</ele>
        <time>2012-10-07T08:09:24Z</time>
      </trkpt>
      <trkpt lat="47.28255" lon="4.94668">
        <ele>519</ele>
        <time>2012-10-07T08:09:28Z</time>
      </trkpt>
      <trkpt lat="47.28254" lon="4.94676">
        <ele>518</ele>
        <time>2012-10-07T08:09:30Z</time>
      </trkpt>
      <trkpt lat="47.28255" lon="4.94686">
        <ele>518</ele>
        <time>2012-10-07T08:09:33Z</time>
      </trkpt>
      <trkpt lat="47.28258" lon="4.94692">
        <ele>518</ele>
        <time>2012-10-07T08:09:35Z</time>
      </trkpt>
      <trkpt lat="47.28261" lon="4.94699">
        <ele>518</ele>
        <time>2012-10-07T08:09:37Z</time>
      </trkpt>
      <trkpt lat="47.28264" lon="4.94704">
        <ele>518</ele>
        <time>2012-10-07T08:09:39Z</time>
      </trkpt>
      <trkpt lat="47.28266" lon="4.94712">
        <ele>519</ele>
        <time>2012-10-07T08:09:44Z</time>
      </trkpt>
      <trkpt lat="47.28268" lon="4.94718">
        <ele>520</ele>
        <time>2012-10-07T08:09:47Z</time>
      </trkpt>
      <trkpt lat="47.28268" lon="4.94726">
        <ele>523</ele>
        <time>2012-10-07T08:09:52Z</time>
      </trkpt>
      <trkpt lat="47.2827" lon="4.94733">
        <ele>522</ele>
        <time>2012-10-07T08:09:57Z</time>
      </trkpt>
      <trkpt lat="47.28272" lon="4.94741">
        <ele>519</ele>
        <time>2012-10-07T08:10:01Z</time>
      </trkpt>
      <trkpt lat="47.28275" lon="4.94747">
        <ele>515</ele>
        <time>2012-10-07T08:10:04Z</time>
      </trkpt>
      <trkpt lat="47.28281" lon="4.94751">
        <ele>517</ele>
        <time>2012-10-07T08:10:08Z</time>
      </trkpt>
      <trkpt lat="47.28286" lon="4.94754">
        <ele>518</ele>
        <time>2012-10-07T08:10:12Z</time>
      </trkpt>
      <trkpt lat="47.28291" lon="4.94755">
        <ele>519</ele>
        <time>2012-10-07T08:10:16Z</time>
      </trkpt>
      <trkpt lat="47.28296" lon="4.94758">
        <ele>519</ele>
        <time>2012-10-07T08:10:21Z</time>
      </trkpt>
      <trkpt lat="47.28303" lon="4.94755">
        <ele>519</ele>
        <time>2012-10-07T08:10:26Z</time>
      </trkpt>
      <trkpt lat="47.28308" lon="4.94756">
        <ele>519</ele>
        <time>2012-10-07T08:10:34Z</time>
      </trkpt>
      <trkpt lat="47.28308" lon="4.94756">
        <ele>519</ele>
        <time>2012-10-07T08:10:34Z</time>
      </trkpt>
      <trkpt lat="47.28308" lon="4.94756">
        <ele>519</ele>
        <time>2012-10-07T08:10:36Z</time>
      </trkpt>
      <trkpt lat="47.28313" lon="4.94753">
        <ele>520</ele>
        <time>2012-10-07T08:10:45Z</time>
      </trkpt>
      <trkpt lat="47.28318" lon="4.94751">
        <ele>520</ele>
        <time>2012-10-07T08:10:49Z</time>
      </trkpt>
      <trkpt lat="47.28323" lon="4.94746">
        <ele>520</ele>
        <time>2012-10-07T08:10:54Z</time>
      </trkpt>
      <trkpt lat="47.28328" lon="4.94744">
        <ele>520</ele>
        <time>2012-10-07T08:10:57Z</time>
      </trkpt>
      <trkpt lat="47.28333" lon="4.94742">
        <ele>521</ele>
        <time>2012-10-07T08:11:00Z</time>
      </trkpt>
      <trkpt lat="47.28338" lon="4.9474">
        <ele>522</ele>
        <time>2012-10-07T08:11:03Z</time>
      </trkpt>
      <trkpt lat="47.28342" lon="4.94738">
        <ele>521</ele>
        <time>2012-10-07T08:11:05Z</time>
      </trkpt>
      <trkpt lat="47.28346" lon="4.94734">
        <ele>521</ele>
        <time>2012-10-07T08:11:07Z</time>
      </trkpt>
      <trkpt lat="47.28351" lon="4.9473">
        <ele>520</ele>
        <time>2012-10-07T08:11:10Z</time>
      </trkpt>
      <trkpt lat="47.28351" lon="4.9473">
        <ele>520</ele>
        <time>2012-10-07T08:11:10Z</time>
      </trkpt>
      <trkpt lat="47.28351" lon="4.9473">
        <ele>520</ele>
        <time>2012-10-07T08:11:11Z</time>
      </trkpt>
      <trkpt lat="47.28357" lon="4.94724">
        <ele>520</ele>
        <time>2012-10-07T08:11:17Z</time>
      </trkpt>
      <trkpt lat="47.28363" lon="4.9472">
        <ele>519</ele>
        <time>2012-10-07T08:11:20Z</time>
      </trkpt>
      <trkpt lat="47.28369" lon="4.94716">
        <ele>520</ele>
        <time>2012-10-07T08:11:41Z</time>
      </trkpt>
      <trkpt lat="47.28373" lon="4.94713">
        <ele>520</ele>
        <time>2012-10-07T08:11:42Z</time>
      </trkpt>
      <trkpt lat="47.28379" lon="4.94709">
        <ele>520</ele>
        <time>2012-10-07T08:11:43Z</time>
      </trkpt>
      <trkpt lat="47.28384" lon="4.94705">
        <ele>519</ele>
        <time>2012-10-07T08:11:45Z</time>
      </trkpt>
      <trkpt lat="47.2839" lon="4.94702">
        <ele>519</ele>
        <time>2012-10-07T08:11:47Z</time>
      </trkpt>
      <trkpt lat="47.28395" lon="4.94698">
        <ele>518</ele>
        <time>2012-10-07T08:11:48Z</time>
      </trkpt>
      <trkpt lat="47.284" lon="4.94695">
        <ele>518</ele>
        <time>2012-10-07T08:11:49Z</time>
      </trkpt>
      <trkpt lat="47.28405" lon="4.94692">
        <ele>517</ele>
        <time>2012-10-07T08:11:51Z</time>
      </trkpt>
      <trkpt lat="47.2841" lon="4.94689">
        <ele>517</ele>
        <time>2012-10-07T08:11:53Z</time>
      </trkpt>
      <trkpt lat="47.28415" lon="4.94687">
        <ele>518</ele>
        <time>2012-10-07T08:11:55Z</time>
      </trkpt>
      <trkpt lat="47.2842" lon="4.94682">
        <ele>518</ele>
        <time>2012-10-07T08:11:58Z</time>
      </trkpt>
      <trkpt lat="47.28424" lon="4.94676">
        <ele>519</ele>
        <time>2012-10-07T08:12:01Z</time>
      </trkpt>
      <trkpt lat="47.28427" lon="4.94671">
        <ele>519</ele>
        <time>2012-10-07T08:12:04Z</time>
      </trkpt>
      <trkpt lat="47.28428" lon="4.94663">
        <ele>518</ele>
        <time>2012-10-07T08:12:07Z</time>
      </trkpt>
      <trkpt lat="47.2843" lon="4.94656">
        <ele>519</ele>
        <time>2012-10-07T08:12:10Z</time>
      </trkpt>
      <trkpt lat="47.28435" lon="4.94652">
        <ele>519</ele>
        <time>2012-10-07T08:12:12Z</time>
      </trkpt>
      <trkpt lat="47.28436" lon="4.94645">
        <ele>521</ele>
        <time>2012-10-07T08:12:15Z</time>
      </trkpt>
      <trkpt lat="47.28436" lon="4.94637">
        <ele>522</ele>
        <time>2012-10-07T08:12:20Z</time>
      </trkpt>
      <trkpt lat="47.28434" lon="4.94631">
        <ele>519</ele>
        <time>2012-10-07T08:12:23Z</time>
      </trkpt>
      <trkpt lat="47.28435" lon="4.94623">
        <ele>519</ele>
        <time>2012-10-07T08:12:31Z</time>
      </trkpt>
      <trkpt lat="47.28436" lon="4.94614">
        <ele>520</ele>
        <time>2012-10-07T08:12:35Z</time>
      </trkpt>
      <trkpt lat="47.28438" lon="4.94607">
        <ele>520</ele>
        <time>2012-10-07T08:12:38Z</time>
      </trkpt>
      <trkpt lat="47.2844" lon="4.946">
        <ele>521</ele>
        <time>2012-10-07T08:12:41Z</time>
      </trkpt>
      <trkpt lat="47.28441" lon="4.94594">
        <ele>522</ele>
        <time>2012-10-07T08:12:44Z</time>
      </trkpt>
      <trkpt lat="47.28444" lon="4.94589">
        <ele>522</ele>
        <time>2012-10-07T08:12:47Z</time>
      </trkpt>
      <trkpt lat="47.28445" lon="4.9458">
        <ele>523</ele>
        <time>2012-10-07T08:12:51Z</time>
      </trkpt>
      <trkpt lat="47.28445" lon="4.94573">
        <ele>522</ele>
        <time>2012-10-07T08:12:55Z</time>
      </trkpt>
      <trkpt lat="47.28446" lon="4.94567">
        <ele>523</ele>
        <time>2012-10-07T08:12:57Z</time>
      </trkpt>
      <trkpt lat="47.28449" lon="4.9456">
        <ele>524</ele>
        <time>2012-10-07T08:13:00Z</time>
      </trkpt>
      <trkpt lat="47.28452" lon="4.94554">
        <ele>524</ele>
        <time>2012-10-07T08:13:04Z</time>
      </trkpt>
      <trkpt lat="47.28455" lon="4.94547">
        <ele>524</ele>
        <time>2012-10-07T08:13:07Z</time>
      </trkpt>
      <trkpt lat="47.28458" lon="4.9454">
        <ele>525</ele>
        <time>2012-10-07T08:13:10Z</time>
      </trkpt>
      <trkpt lat="47.28461" lon="4.94534">
        <ele>527</ele>
        <time>2012-10-07T08:13:13Z</time>
      </trkpt>
      <trkpt lat="47.28465" lon="4.94529">
        <ele>529</ele>
        <time>2012-10-07T08:13:16Z</time>
      </trkpt>
      <trkpt lat="47.28469" lon="4.94519">
        <ele>530</ele>
        <time>2012-10-07T08:13:20Z</time>
      </trkpt>
      <trkpt lat="47.28472" lon="4.94513">
        <ele>530</ele>
        <time>2012-10-07T08:13:23Z</time>
      </trkpt>
      <trkpt lat="47.28474" lon="4.94507">
        <ele>530</ele>
        <time>2012-10-07T08:13:25Z</time>
      </trkpt>
      <trkpt lat="47.28476" lon="4.94501">
        <ele>531</ele>
        <time>2012-10-07T08:13:28Z</time>
      </trkpt>
      <trkpt lat="47.28478" lon="4.94494">
        <ele>531</ele>
        <time>2012-10-07T08:13:32Z</time>
      </trkpt>
      <trkpt lat="47.28479" lon="4.94487">
        <ele>533</ele>
        <time>2012-10-07T08:13:36Z</time>
      </trkpt>
      <trkpt lat="47.28482" lon="4.94482">
        <ele>535</ele>
        <time>2012-10-07T08:13:39Z</time>
      </trkpt>
      <trkpt lat="47.28483" lon="4.94475">
        <ele>535</ele>
        <time>2012-10-07T08:13:43Z</time>
      </trkpt>
      <trkpt lat="47.28486" lon="4.94468">
        <ele>537</ele>
        <time>2012-10-07T08:13:46Z</time>
      </trkpt>
      <trkpt lat="47.28487" lon="4.94461">
        <ele>537</ele>
        <time>2012-10-07T08:13:49Z</time>
      </trkpt>
      <trkpt lat="47.28487" lon="4.94453">
        <ele>536</ele>
        <time>2012-10-07T08:13:53Z</time>
      </trkpt>
      <trkpt lat="47.28489" lon="4.94445">
        <ele>536</ele>
        <time>2012-10-07T08:13:56Z</time>
      </trkpt>
      <trkpt lat="47.2849" lon="4.94438">
        <ele>534</ele>
        <time>2012-10-07T08:14:01Z</time>
      </trkpt>
      <trkpt lat="47.28491" lon="4.9443">
        <ele>535</ele>
        <time>2012-10-07T08:14:05Z</time>
      </trkpt>
      <trkpt lat="47.28494" lon="4.94423">
        <ele>534</ele>
        <time>2012-10-07T08:14:08Z</time>
      </trkpt>
      <trkpt lat="47.28496" lon="4.94415">
        <ele>533</ele>
        <time>2012-10-07T08:14:11Z</time>
      </trkpt>
      <trkpt lat="47.28497" lon="4.94407">
        <ele>536</ele>
        <time>2012-10-07T08:14:16Z</time>
      </trkpt>
      <trkpt lat="47.28496" lon="4.94398">
        <ele>537</ele>
        <time>2012-10-07T08:14:20Z</time>
      </trkpt>
      <trkpt lat="47.28496" lon="4.94388">
        <ele>535</ele>
        <time>2012-10-07T08:14:23Z</time>
      </trkpt>
      <trkpt lat="47.28499" lon="4.94382">
        <ele>533</ele>
        <time>2012-10-07T08:14:26Z</time>
      </trkpt>
      <trkpt lat="47.28504" lon="4.94377">
        <ele>533</ele>
        <time>2012-10-07T08:14:29Z</time>
      </trkpt>
      <trkpt lat="47.2851" lon="4.94372">
        <ele>534</ele>
        <time>2012-10-07T08:14:32Z</time>
      </trkpt>
      <trkpt lat="47.28514" lon="4.94367">
        <ele>534</ele>
        <time>2012-10-07T08:14:35Z</time>
      </trkpt>
      <trkpt lat="47.28519" lon="4.94365">
        <ele>535</ele>
        <time>2012-10-07T08:14:39Z</time>
      </trkpt>
      <trkpt lat="47.28524" lon="4.94363">
        <ele>536</ele>
        <time>2012-10-07T08:14:43Z</time>
      </trkpt>
      <trkpt lat="47.28528" lon="4.9436">
        <ele>536</ele>
        <time>2012-10-07T08:14:45Z</time>
      </trkpt>
      <trkpt lat="47.28534" lon="4.94359">
        <ele>536</ele>
        <time>2012-10-07T08:14:49Z</time>
      </trkpt>
      <trkpt lat="47.28541" lon="4.94359">
        <ele>536</ele>
        <time>2012-10-07T08:14:53Z</time>
      </trkpt>
      <trkpt lat="47.28547" lon="4.94357">
        <ele>538</ele>
        <time>2012-10-07T08:14:57Z</time>
      </trkpt>
      <trkpt lat="47.28552" lon="4.94355">
        <ele>539</ele>
        <time>2012-10-07T08:15:00Z</time>
      </trkpt>
      <trkpt lat="47.28557" lon="4.94352">
        <ele>539</ele>
        <time>2012-10-07T08:15:03Z</time>
      </trkpt>
      <trkpt lat="47.28562" lon="4.94352">
        <ele>539</ele>
        <time>2012-10-07T08:15:09Z</time>
      </trkpt>
      <trkpt lat="47.28568" lon="4.94352">
        <ele>540</ele>
        <time>2012-10-07T08:15:12Z</time>
      </trkpt>
      <trkpt lat="47.28575" lon="4.94345">
        <ele>541</ele>
        <time>2012-10-07T08:15:14Z</time>
      </trkpt>
      <trkpt lat="47.28579" lon="4.94341">
        <ele>542</ele>
        <time>2012-10-07T08:15:15Z</time>
      </trkpt>
      <trkpt lat="47.28585" lon="4.94341">
        <ele>540</ele>
        <time>2012-10-07T08:15:20Z</time>
      </trkpt>
      <trkpt lat="47.28584" lon="4.94348">
        <ele>536</ele>
        <time>2012-10-07T08:15:23Z</time>
      </trkpt>
      <trkpt lat="47.28579" lon="4.94345">
        <ele>539</ele>
        <time>2012-10-07T08:15:33Z</time>
      </trkpt>
      <trkpt lat="47.28579" lon="4.94338">
        <ele>540</ele>
        <time>2012-10-07T08:15:37Z</time>
      </trkpt>
      <trkpt lat="47.28577" lon="4.9433">
        <ele>540</ele>
        <time>2012-10-07T08:15:41Z</time>
      </trkpt>
      <trkpt lat="47.28576" lon="4.94324">
        <ele>539</ele>
        <time>2012-10-07T08:15:44Z</time>
      </trkpt>
      <trkpt lat="47.28574" lon="4.94318">
        <ele>539</ele>
        <time>2012-10-07T08:15:47Z</time>
      </trkpt>
      <trkpt lat="47.28571" lon="4.94312">
        <ele>540</ele>
        <time>2012-10-07T08:15:49Z</time>
      </trkpt>
      <trkpt lat="47.28569" lon="4.94304">
        <ele>543</ele>
        <time>2012-10-07T08:15:54Z</time>
      </trkpt>
      <trkpt lat="47.28566" lon="4.94299">
        <ele>544</ele>
        <time>2012-10-07T08:15:57Z</time>
      </trkpt>
      <trkpt lat="47.28564" lon="4.94291">
        <ele>545</ele>
        <time>2012-10-07T08:16:01Z</time>
      </trkpt>
      <trkpt lat="47.28561" lon="4.94285">
        <ele>545</ele>
        <time>2012-10-07T08:16:05Z</time>
      </trkpt>
      <trkpt lat="47.28558" lon="4.94279">
        <ele>543</ele>
        <time>2012-10-07T08:16:09Z</time>
      </trkpt>
      <trkpt lat="47.28555" lon="4.94273">
        <ele>543</ele>
        <time>2012-10-07T08:16:12Z</time>
      </trkpt>
      <trkpt lat="47.28552" lon="4.94267">
        <ele>540</ele>
        <time>2012-10-07T08:16:15Z</time>
      </trkpt>
      <trkpt lat="47.28548" lon="4.9426">
        <ele>540</ele>
        <time>2012-10-07T08:16:18Z</time>
      </trkpt>
      <trkpt lat="47.28546" lon="4.94254">
        <ele>540</ele>
        <time>2012-10-07T08:16:21Z</time>
      </trkpt>
      <trkpt lat="47.28542" lon="4.94247">
        <ele>538</ele>
        <time>2012-10-07T08:16:24Z</time>
      </trkpt>
      <trkpt lat="47.28539" lon="4.94242">
        <ele>537</ele>
        <time>2012-10-07T08:16:27Z</time>
      </trkpt>
      <trkpt lat="47.28535" lon="4.94233">
        <ele>536</ele>
        <time>2012-10-07T08:16:30Z</time>
      </trkpt>
      <trkpt lat="47.28534" lon="4.94224">
        <ele>535</ele>
        <time>2012-10-07T08:16:33Z</time>
      </trkpt>
      <trkpt lat="47.28533" lon="4.94216">
        <ele>534</ele>
        <time>2012-10-07T08:16:37Z</time>
      </trkpt>
      <trkpt lat="47.28531" lon="4.94209">
        <ele>534</ele>
        <time>2012-10-07T08:16:40Z</time>
      </trkpt>
      <trkpt lat="47.28527" lon="4.94203">
        <ele>533</ele>
        <time>2012-10-07T08:16:43Z</time>
      </trkpt>
      <trkpt lat="47.28524" lon="4.94199">
        <ele>534</ele>
        <time>2012-10-07T08:16:46Z</time>
      </trkpt>
      <trkpt lat="47.28522" lon="4.94193">
        <ele>533</ele>
        <time>2012-10-07T08:16:49Z</time>
      </trkpt>
      <trkpt lat="47.28518" lon="4.94188">
        <ele>533</ele>
        <time>2012-10-07T08:16:52Z</time>
      </trkpt>
      <trkpt lat="47.28516" lon="4.9418">
        <ele>533</ele>
        <time>2012-10-07T08:16:55Z</time>
      </trkpt>
      <trkpt lat="47.28512" lon="4.94173">
        <ele>533</ele>
        <time>2012-10-07T08:16:59Z</time>
      </trkpt>
      <trkpt lat="47.2851" lon="4.94166">
        <ele>534</ele>
        <time>2012-10-07T08:17:02Z</time>
      </trkpt>
      <trkpt lat="47.28508" lon="4.9416">
        <ele>535</ele>
        <time>2012-10-07T08:17:06Z</time>
      </trkpt>
      <trkpt lat="47.28505" lon="4.94154">
        <ele>535</ele>
        <time>2012-10-07T08:17:10Z</time>
      </trkpt>
      <trkpt lat="47.28501" lon="4.94148">
        <ele>535</ele>
        <time>2012-10-07T08:17:13Z</time>
      </trkpt>
      <trkpt lat="47.28498" lon="4.94142">
        <ele>535</ele>
        <time>2012-10-07T08:17:17Z</time>
      </trkpt>
      <trkpt lat="47.28495" lon="4.94135">
        <ele>537</ele>
        <time>2012-10-07T08:17:22Z</time>
      </trkpt>
      <trkpt lat="47.28492" lon="4.9413">
        <ele>538</ele>
        <time>2012-10-07T08:17:25Z</time>
      </trkpt>
      <trkpt lat="47.2849" lon="4.94124">
        <ele>539</ele>
        <time>2012-10-07T08:17:28Z</time>
      </trkpt>
      <trkpt lat="47.28484" lon="4.9412">
        <ele>539</ele>
        <time>2012-10-07T08:17:32Z</time>
      </trkpt>
      <trkpt lat="47.28482" lon="4.94114">
        <ele>542</ele>
        <time>2012-10-07T08:17:35Z</time>
      </trkpt>
      <trkpt lat="47.28479" lon="4.9411">
        <ele>542</ele>
        <time>2012-10-07T08:17:38Z</time>
      </trkpt>
      <trkpt lat="47.28474" lon="4.94104">
        <ele>544</ele>
        <time>2012-10-07T08:17:43Z</time>
      </trkpt>
      <trkpt lat="47.28472" lon="4.94099">
        <ele>546</ele>
        <time>2012-10-07T08:17:46Z</time>
      </trkpt>
      <trkpt lat="47.28468" lon="4.94092">
        <ele>549</ele>
        <time>2012-10-07T08:17:50Z</time>
      </trkpt>
      <trkpt lat="47.28464" lon="4.94088">
        <ele>547</ele>
        <time>2012-10-07T08:17:53Z</time>
      </trkpt>
      <trkpt lat="47.28459" lon="4.94086">
        <ele>547</ele>
        <time>2012-10-07T08:17:56Z</time>
      </trkpt>
      <trkpt lat="47.28453" lon="4.94083">
        <ele>546</ele>
        <time>2012-10-07T08:17:59Z</time>
      </trkpt>
      <trkpt lat="47.28448" lon="4.94082">
        <ele>545</ele>
        <time>2012-10-07T08:18:02Z</time>
      </trkpt>
      <trkpt lat="47.28443" lon="4.9408">
        <ele>546</ele>
        <time>2012-10-07T08:18:05Z</time>
      </trkpt>
      <trkpt lat="47.28443" lon="4.9408">
        <ele>546</ele>
        <time>2012-10-07T08:18:05Z</time>
      </trkpt>
      <trkpt lat="47.28443" lon="4.9408">
        <ele>548</ele>
        <time>2012-10-07T08:18:06Z</time>
      </trkpt>
      <trkpt lat="47.28439" lon="4.94077">
        <ele>553</ele>
        <time>2012-10-07T08:18:12Z</time>
      </trkpt>
      <trkpt lat="47.28434" lon="4.94072">
        <ele>554</ele>
        <time>2012-10-07T08:18:17Z</time>
      </trkpt>
      <trkpt lat="47.28429" lon="4.94068">
        <ele>554</ele>
        <time>2012-10-07T08:18:21Z</time>
      </trkpt>
      <trkpt lat="47.28424" lon="4.94064">
        <ele>553</ele>
        <time>2012-10-07T08:18:23Z</time>
      </trkpt>
      <trkpt lat="47.2842" lon="4.94059">
        <ele>553</ele>
        <time>2012-10-07T08:18:26Z</time>
      </trkpt>
      <trkpt lat="47.28416" lon="4.94054">
        <ele>553</ele>
        <time>2012-10-07T08:18:30Z</time>
      </trkpt>
      <trkpt lat="47.28412" lon="4.9405">
        <ele>551</ele>
        <time>2012-10-07T08:18:32Z</time>
      </trkpt>
      <trkpt lat="47.28406" lon="4.94045">
        <ele>552</ele>
        <time>2012-10-07T08:18:36Z</time>
      </trkpt>
      <trkpt lat="47.28404" lon="4.94037">
        <ele>551</ele>
        <time>2012-10-07T08:18:40Z</time>
      </trkpt>
      <trkpt lat="47.284" lon="4.94031">
        <ele>551</ele>
        <time>2012-10-07T08:18:43Z</time>
      </trkpt>
      <trkpt lat="47.28396" lon="4.94025">
        <ele>551</ele>
        <time>2012-10-07T08:18:46Z</time>
      </trkpt>
      <trkpt lat="47.28393" lon="4.9401">
        <ele>551</ele>
        <time>2012-10-07T08:18:47Z</time>
      </trkpt>
      <trkpt lat="47.2839" lon="4.94002">
        <ele>552</ele>
        <time>2012-10-07T08:18:48Z</time>
      </trkpt>
      <trkpt lat="47.28384" lon="4.93997">
        <ele>550</ele>
        <time>2012-10-07T08:18:52Z</time>
      </trkpt>
      <trkpt lat="47.28379" lon="4.93998">
        <ele>545</ele>
        <time>2012-10-07T08:18:54Z</time>
      </trkpt>
      <trkpt lat="47.28373" lon="4.93997">
        <ele>545</ele>
        <time>2012-10-07T08:19:01Z</time>
      </trkpt>
      <trkpt lat="47.28368" lon="4.93992">
        <ele>547</ele>
        <time>2012-10-07T08:19:05Z</time>
      </trkpt>
      <trkpt lat="47.28362" lon="4.93989">
        <ele>547</ele>
        <time>2012-10-07T08:19:12Z</time>
      </trkpt>
      <trkpt lat="47.28358" lon="4.93979">
        <ele>548</ele>
        <time>2012-10-07T08:19:15Z</time>
      </trkpt>
      <trkpt lat="47.28352" lon="4.93974">
        <ele>547</ele>
        <time>2012-10-07T08:19:20Z</time>
      </trkpt>
      <trkpt lat="47.28348" lon="4.93969">
        <ele>547</ele>
        <time>2012-10-07T08:19:24Z</time>
      </trkpt>
      <trkpt lat="47.28349" lon="4.93962">
        <ele>548</ele>
        <time>2012-10-07T08:19:27Z</time>
      </trkpt>
      <trkpt lat="47.28342" lon="4.93958">
        <ele>547</ele>
        <time>2012-10-07T08:19:30Z</time>
      </trkpt>
      <trkpt lat="47.28337" lon="4.93959">
        <ele>546</ele>
        <time>2012-10-07T08:19:31Z</time>
      </trkpt>
      <trkpt lat="47.28331" lon="4.93957">
        <ele>542</ele>
        <time>2012-10-07T08:19:33Z</time>
      </trkpt>
      <trkpt lat="47.28329" lon="4.9395">
        <ele>541</ele>
        <time>2012-10-07T08:19:36Z</time>
      </trkpt>
      <trkpt lat="47.28326" lon="4.93945">
        <ele>540</ele>
        <time>2012-10-07T08:19:39Z</time>
      </trkpt>
      <trkpt lat="47.28321" lon="4.93937">
        <ele>542</ele>
        <time>2012-10-07T08:19:43Z</time>
      </trkpt>
      <trkpt lat="47.28317" lon="4.93932">
        <ele>544</ele>
        <time>2012-10-07T08:19:47Z</time>
      </trkpt>
      <trkpt lat="47.28314" lon="4.93924">
        <ele>544</ele>
        <time>2012-10-07T08:19:51Z</time>
      </trkpt>
      <trkpt lat="47.28311" lon="4.93918">
        <ele>545</ele>
        <time>2012-10-07T08:19:55Z</time>
      </trkpt>
      <trkpt lat="47.28309" lon="4.93912">
        <ele>543</ele>
        <time>2012-10-07T08:20:00Z</time>
      </trkpt>
      <trkpt lat="47.28304" lon="4.93908">
        <ele>545</ele>
        <time>2012-10-07T08:20:04Z</time>
      </trkpt>
      <trkpt lat="47.28301" lon="4.93902">
        <ele>543</ele>
        <time>2012-10-07T08:20:08Z</time>
      </trkpt>
      <trkpt lat="47.28299" lon="4.93897">
        <ele>544</ele>
        <time>2012-10-07T08:20:12Z</time>
      </trkpt>
      <trkpt lat="47.28294" lon="4.93895">
        <ele>546</ele>
        <time>2012-10-07T08:20:15Z</time>
      </trkpt>
      <trkpt lat="47.28289" lon="4.93893">
        <ele>547</ele>
        <time>2012-10-07T08:20:17Z</time>
      </trkpt>
      <trkpt lat="47.2828" lon="4.93888">
        <ele>548</ele>
        <time>2012-10-07T08:20:20Z</time>
      </trkpt>
      <trkpt lat="47.28276" lon="4.9388">
        <ele>548</ele>
        <time>2012-10-07T08:20:22Z</time>
      </trkpt>
      <trkpt lat="47.2827" lon="4.93878">
        <ele>548</ele>
        <time>2012-10-07T08:20:24Z</time>
      </trkpt>
      <trkpt lat="47.28269" lon="4.9387">
        <ele>549</ele>
        <time>2012-10-07T08:20:28Z</time>
      </trkpt>
      <trkpt lat="47.28268" lon="4.93863">
        <ele>550</ele>
        <time>2012-10-07T08:20:34Z</time>
      </trkpt>
      <trkpt lat="47.28262" lon="4.9386">
        <ele>550</ele>
        <time>2012-10-07T08:20:37Z</time>
      </trkpt>
      <trkpt lat="47.28257" lon="4.93858">
        <ele>552</ele>
        <time>2012-10-07T08:20:41Z</time>
      </trkpt>
      <trkpt lat="47.28252" lon="4.93857">
        <ele>553</ele>
        <time>2012-10-07T08:20:46Z</time>
      </trkpt>
      <trkpt lat="47.28252" lon="4.93857">
        <ele>553</ele>
        <time>2012-10-07T08:20:46Z</time>
      </trkpt>
      <trkpt lat="47.28252" lon="4.93857">
        <ele>553</ele>
        <time>2012-10-07T08:20:47Z</time>
      </trkpt>
      <trkpt lat="47.28244" lon="4.93855">
        <ele>554</ele>
        <time>2012-10-07T08:20:49Z</time>
      </trkpt>
      <trkpt lat="47.2824" lon="4.93846">
        <ele>554</ele>
        <time>2012-10-07T08:20:50Z</time>
      </trkpt>
      <trkpt lat="47.28233" lon="4.93844">
        <ele>553</ele>
        <time>2012-10-07T08:20:52Z</time>
      </trkpt>
      <trkpt lat="47.28228" lon="4.93839">
        <ele>553</ele>
        <time>2012-10-07T08:20:54Z</time>
      </trkpt>
      <trkpt lat="47.28223" lon="4.93836">
        <ele>553</ele>
        <time>2012-10-07T08:20:57Z</time>
      </trkpt>
      <trkpt lat="47.28218" lon="4.93834">
        <ele>553</ele>
        <time>2012-10-07T08:21:00Z</time>
      </trkpt>
      <trkpt lat="47.28214" lon="4.93831">
        <ele>553</ele>
        <time>2012-10-07T08:21:04Z</time>
      </trkpt>
      <trkpt lat="47.28208" lon="4.93825">
        <ele>553</ele>
        <time>2012-10-07T08:21:07Z</time>
      </trkpt>
      <trkpt lat="47.28204" lon="4.93819">
        <ele>553</ele>
        <time>2012-10-07T08:21:09Z</time>
      </trkpt>
      <trkpt lat="47.28201" lon="4.93814">
        <ele>553</ele>
        <time>2012-10-07T08:21:11Z</time>
      </trkpt>
      <trkpt lat="47.28196" lon="4.93809">
        <ele>553</ele>
        <time>2012-10-07T08:21:14Z</time>
      </trkpt>
      <trkpt lat="47.28194" lon="4.938">
        <ele>553</ele>
        <time>2012-10-07T08:21:20Z</time>
      </trkpt>
      <trkpt lat="47.28189" lon="4.93798">
        <ele>553</ele>
        <time>2012-10-07T08:21:23Z</time>
      </trkpt>
      <trkpt lat="47.28186" lon="4.93778">
        <ele>552</ele>
        <time>2012-10-07T08:21:25Z</time>
      </trkpt>
      <trkpt lat="47.28177" lon="4.93777">
        <ele>552</ele>
        <time>2012-10-07T08:21:29Z</time>
      </trkpt>
      <trkpt lat="47.28172" lon="4.93778">
        <ele>554</ele>
        <time>2012-10-07T08:21:34Z</time>
      </trkpt>
      <trkpt lat="47.28167" lon="4.93773">
        <ele>552</ele>
        <time>2012-10-07T08:21:36Z</time>
      </trkpt>
      <trkpt lat="47.28164" lon="4.93765">
        <ele>553</ele>
        <time>2012-10-07T08:21:39Z</time>
      </trkpt>
      <trkpt lat="47.2816" lon="4.93759">
        <ele>553</ele>
        <time>2012-10-07T08:21:44Z</time>
      </trkpt>
      <trkpt lat="47.28155" lon="4.93755">
        <ele>553</ele>
        <time>2012-10-07T08:21:46Z</time>
      </trkpt>
      <trkpt lat="47.2815" lon="4.93752">
        <ele>551</ele>
        <time>2012-10-07T08:21:50Z</time>
      </trkpt>
      <trkpt lat="47.28145" lon="4.93751">
        <ele>552</ele>
        <time>2012-10-07T08:21:52Z</time>
      </trkpt>
      <trkpt lat="47.2814" lon="4.93748">
        <ele>552</ele>
        <time>2012-10-07T08:21:55Z</time>
      </trkpt>
      <trkpt lat="47.28136" lon="4.93743">
        <ele>552</ele>
        <time>2012-10-07T08:22:00Z</time>
      </trkpt>
      <trkpt lat="47.28132" lon="4.93739">
        <ele>552</ele>
        <time>2012-10-07T08:22:04Z</time>
      </trkpt>
      <trkpt lat="47.28127" lon="4.93737">
        <ele>551</ele>
        <time>2012-10-07T08:22:06Z</time>
      </trkpt>
      <trkpt lat="47.28125" lon="4.9373">
        <ele>552</ele>
        <time>2012-10-07T08:22:11Z</time>
      </trkpt>
      <trkpt lat="47.28125" lon="4.93722">
        <ele>552</ele>
        <time>2012-10-07T08:22:13Z</time>
      </trkpt>
      <trkpt lat="47.28119" lon="4.93722">
        <ele>550</ele>
        <time>2012-10-07T08:22:15Z</time>
      </trkpt>
      <trkpt lat="47.28114" lon="4.93721">
        <ele>548</ele>
        <time>2012-10-07T08:22:17Z</time>
      </trkpt>
      <trkpt lat="47.28111" lon="4.93715">
        <ele>549</ele>
        <time>2012-10-07T08:22:20Z</time>
      </trkpt>
      <trkpt lat="47.28105" lon="4.93712">
        <ele>550</ele>
        <time>2012-10-07T08:22:22Z</time>
      </trkpt>
      <trkpt lat="47.28101" lon="4.93707">
        <ele>547</ele>
        <time>2012-10-07T08:22:23Z</time>
      </trkpt>
      <trkpt lat="47.28097" lon="4.93703">
        <ele>550</ele>
        <time>2012-10-07T08:22:24Z</time>
      </trkpt>
      <trkpt lat="47.28092" lon="4.93699">
        <ele>548</ele>
        <time>2012-10-07T08:22:27Z</time>
      </trkpt>
      <trkpt lat="47.28089" lon="4.93693">
        <ele>548</ele>
        <time>2012-10-07T08:22:31Z</time>
      </trkpt>
      <trkpt lat="47.2809" lon="4.93684">
        <ele>548</ele>
        <time>2012-10-07T08:22:33Z</time>
      </trkpt>
      <trkpt lat="47.28085" lon="4.93679">
        <ele>548</ele>
        <time>2012-10-07T08:22:36Z</time>
      </trkpt>
      <trkpt lat="47.2808" lon="4.93676">
        <ele>549</ele>
        <time>2012-10-07T08:22:38Z</time>
      </trkpt>
      <trkpt lat="47.28076" lon="4.93672">
        <ele>549</ele>
        <time>2012-10-07T08:22:40Z</time>
      </trkpt>
      <trkpt lat="47.28072" lon="4.93668">
        <ele>549</ele>
        <time>2012-10-07T08:22:42Z</time>
      </trkpt>
      <trkpt lat="47.28066" lon="4.93662">
        <ele>549</ele>
        <time>2012-10-07T08:22:45Z</time>
      </trkpt>
      <trkpt lat="47.28072" lon="4.93651">
        <ele>552</ele>
        <time>2012-10-07T08:22:48Z</time>
      </trkpt>
      <trkpt lat="47.28075" lon="4.93647">
        <ele>556</ele>
        <time>2012-10-07T08:22:50Z</time>
      </trkpt>
      <trkpt lat="47.28079" lon="4.93641">
        <ele>556</ele>
        <time>2012-10-07T08:22:54Z</time>
      </trkpt>
      <trkpt lat="47.28083" lon="4.93638">
        <ele>556</ele>
        <time>2012-10-07T08:22:57Z</time>
      </trkpt>
      <trkpt lat="47.28089" lon="4.93636">
        <ele>556</ele>
        <time>2012-10-07T08:23:02Z</time>
      </trkpt>
      <trkpt lat="47.28094" lon="4.93633">
        <ele>557</ele>
        <time>2012-10-07T08:23:08Z</time>
      </trkpt>
      <trkpt lat="47.28098" lon="4.9363">
        <ele>557</ele>
        <time>2012-10-07T08:23:10Z</time>
      </trkpt>
      <trkpt lat="47.28104" lon="4.93631">
        <ele>558</ele>
        <time>2012-10-07T08:23:14Z</time>
      </trkpt>
      <trkpt lat="47.28107" lon="4.93626">
        <ele>557</ele>
        <time>2012-10-07T08:23:17Z</time>
      </trkpt>
      <trkpt lat="47.28113" lon="4.93621">
        <ele>557</ele>
        <time>2012-10-07T08:23:20Z</time>
      </trkpt>
      <trkpt lat="47.28119" lon="4.9362">
        <ele>559</ele>
        <time>2012-10-07T08:23:24Z</time>
      </trkpt>
      <trkpt lat="47.28119" lon="4.9362">
        <ele>559</ele>
        <time>2012-10-07T08:23:24Z</time>
      </trkpt>
      <trkpt lat="47.28119" lon="4.9362">
        <ele>559</ele>
        <time>2012-10-07T08:23:30Z</time>
      </trkpt>
      <trkpt lat="47.28128" lon="4.93614">
        <ele>561</ele>
        <time>2012-10-07T08:23:33Z</time>
      </trkpt>
      <trkpt lat="47.28132" lon="4.93611">
        <ele>561</ele>
        <time>2012-10-07T08:23:36Z</time>
      </trkpt>
      <trkpt lat="47.28137" lon="4.93607">
        <ele>561</ele>
        <time>2012-10-07T08:23:38Z</time>
      </trkpt>
      <trkpt lat="47.28142" lon="4.93605">
        <ele>561</ele>
        <time>2012-10-07T08:23:42Z</time>
      </trkpt>
      <trkpt lat="47.28146" lon="4.93603">
        <ele>562</ele>
        <time>2012-10-07T08:23:45Z</time>
      </trkpt>
      <trkpt lat="47.28151" lon="4.93599">
        <ele>564</ele>
        <time>2012-10-07T08:23:52Z</time>
      </trkpt>
      <trkpt lat="47.28156" lon="4.93596">
        <ele>563</ele>
        <time>2012-10-07T08:23:55Z</time>
      </trkpt>
      <trkpt lat="47.28162" lon="4.93591">
        <ele>563</ele>
        <time>2012-10-07T08:23:58Z</time>
      </trkpt>
      <trkpt lat="47.28167" lon="4.93588">
        <ele>563</ele>
        <time>2012-10-07T08:24:07Z</time>
      </trkpt>
      <trkpt lat="47.28175" lon="4.93583">
        <ele>564</ele>
        <time>2012-10-07T08:24:09Z</time>
      </trkpt>
      <trkpt lat="47.2818" lon="4.93577">
        <ele>565</ele>
        <time>2012-10-07T08:24:12Z</time>
      </trkpt>
      <trkpt lat="47.2818" lon="4.93577">
        <ele>565</ele>
        <time>2012-10-07T08:24:12Z</time>
      </trkpt>
      <trkpt lat="47.2818" lon="4.93577">
        <ele>565</ele>
        <time>2012-10-07T08:24:13Z</time>
      </trkpt>
      <trkpt lat="47.28187" lon="4.93572">
        <ele>567</ele>
        <time>2012-10-07T08:24:16Z</time>
      </trkpt>
      <trkpt lat="47.2819" lon="4.93568">
        <ele>568</ele>
        <time>2012-10-07T08:24:18Z</time>
      </trkpt>
      <trkpt lat="47.28195" lon="4.93566">
        <ele>570</ele>
        <time>2012-10-07T08:24:23Z</time>
      </trkpt>
      <trkpt lat="47.28195" lon="4.93566">
        <ele>570</ele>
        <time>2012-10-07T08:24:23Z</time>
      </trkpt>
      <trkpt lat="47.28195" lon="4.93566">
        <ele>570</ele>
        <time>2012-10-07T08:24:24Z</time>
      </trkpt>
      <trkpt lat="47.28198" lon="4.9356">
        <ele>573</ele>
        <time>2012-10-07T08:24:29Z</time>
      </trkpt>
      <trkpt lat="47.28198" lon="4.9356">
        <ele>573</ele>
        <time>2012-10-07T08:24:29Z</time>
      </trkpt>
      <trkpt lat="47.28198" lon="4.9356">
        <ele>574</ele>
        <time>2012-10-07T08:24:35Z</time>
      </trkpt>
      <trkpt lat="47.28206" lon="4.93556">
        <ele>574</ele>
        <time>2012-10-07T08:24:36Z</time>
      </trkpt>
      <trkpt lat="47.28212" lon="4.93554">
        <ele>574</ele>
        <time>2012-10-07T08:24:39Z</time>
      </trkpt>
      <trkpt lat="47.28217" lon="4.9355">
        <ele>574</ele>
        <time>2012-10-07T08:24:42Z</time>
      </trkpt>
      <trkpt lat="47.28222" lon="4.93549">
        <ele>573</ele>
        <time>2012-10-07T08:24:45Z</time>
      </trkpt>
      <trkpt lat="47.28222" lon="4.93549">
        <ele>573</ele>
        <time>2012-10-07T08:24:45Z</time>
      </trkpt>
      <trkpt lat="47.28222" lon="4.93549">
        <ele>573</ele>
        <time>2012-10-07T08:24:46Z</time>
      </trkpt>
      <trkpt lat="47.28217" lon="4.9355">
        <ele>574</ele>
        <time>2012-10-07T08:24:47Z</time>
      </trkpt>
      <trkpt lat="47.28222" lon="4.93547">
        <ele>577</ele>
        <time>2012-10-07T08:25:01Z</time>
      </trkpt>
      <trkpt lat="47.28229" lon="4.93544">
        <ele>576</ele>
        <time>2012-10-07T08:25:04Z</time>
      </trkpt>
      <trkpt lat="47.28234" lon="4.9354">
        <ele>576</ele>
        <time>2012-10-07T08:25:06Z</time>
      </trkpt>
      <trkpt lat="47.2824" lon="4.93534">
        <ele>579</ele>
        <time>2012-10-07T08:25:12Z</time>
      </trkpt>
      <trkpt lat="47.28245" lon="4.93533">
        <ele>581</ele>
        <time>2012-10-07T08:25:18Z</time>
      </trkpt>
      <trkpt lat="47.28249" lon="4.93531">
        <ele>584</ele>
        <time>2012-10-07T08:25:27Z</time>
      </trkpt>
      <trkpt lat="47.28254" lon="4.93528">
        <ele>586</ele>
        <time>2012-10-07T08:25:40Z</time>
      </trkpt>
      <trkpt lat="47.28254" lon="4.93528">
        <ele>586</ele>
        <time>2012-10-07T08:25:40Z</time>
      </trkpt>
      <trkpt lat="47.28254" lon="4.93528">
        <ele>586</ele>
        <time>2012-10-07T08:25:41Z</time>
      </trkpt>
      <trkpt lat="47.2826" lon="4.93525">
        <ele>588</ele>
        <time>2012-10-07T08:25:51Z</time>
      </trkpt>
      <trkpt lat="47.28263" lon="4.9352">
        <ele>589</ele>
        <time>2012-10-07T08:25:54Z</time>
      </trkpt>
      <trkpt lat="47.28267" lon="4.93516">
        <ele>590</ele>
        <time>2012-10-07T08:25:58Z</time>
      </trkpt>
      <trkpt lat="47.28274" lon="4.93516">
        <ele>588</ele>
        <time>2012-10-07T08:26:02Z</time>
      </trkpt>
      <trkpt lat="47.28279" lon="4.93514">
        <ele>588</ele>
        <time>2012-10-07T08:26:04Z</time>
      </trkpt>
      <trkpt lat="47.28282" lon="4.93508">
        <ele>591</ele>
        <time>2012-10-07T08:26:12Z</time>
      </trkpt>
      <trkpt lat="47.28288" lon="4.93503">
        <ele>596</ele>
        <time>2012-10-07T08:26:20Z</time>
      </trkpt>
      <trkpt lat="47.28293" lon="4.93499">
        <ele>597</ele>
        <time>2012-10-07T08:26:22Z</time>
      </trkpt>
      <trkpt lat="47.28293" lon="4.93499">
        <ele>597</ele>
        <time>2012-10-07T08:26:22Z</time>
      </trkpt>
      <trkpt lat="47.28293" lon="4.93499">
        <ele>597</ele>
        <time>2012-10-07T08:26:28Z</time>
      </trkpt>
      <trkpt lat="47.28295" lon="4.93493">
        <ele>601</ele>
        <time>2012-10-07T08:26:45Z</time>
      </trkpt>
      <trkpt lat="47.28295" lon="4.93493">
        <ele>601</ele>
        <time>2012-10-07T08:26:45Z</time>
      </trkpt>
      <trkpt lat="47.28295" lon="4.93493">
        <ele>601</ele>
        <time>2012-10-07T08:26:46Z</time>
      </trkpt>
      <trkpt lat="47.28299" lon="4.93487">
        <ele>603</ele>
        <time>2012-10-07T08:26:54Z</time>
      </trkpt>
      <trkpt lat="47.28297" lon="4.9348">
        <ele>604</ele>
        <time>2012-10-07T08:27:00Z</time>
      </trkpt>
      <trkpt lat="47.283" lon="4.93475">
        <ele>605</ele>
        <time>2012-10-07T08:27:06Z</time>
      </trkpt>
      <trkpt lat="47.28304" lon="4.9347">
        <ele>604</ele>
        <time>2012-10-07T08:27:12Z</time>
      </trkpt>
      <trkpt lat="47.28304" lon="4.9347">
        <ele>604</ele>
        <time>2012-10-07T08:27:12Z</time>
      </trkpt>
      <trkpt lat="47.28304" lon="4.9347">
        <ele>605</ele>
        <time>2012-10-07T08:27:14Z</time>
      </trkpt>
      <trkpt lat="47.28307" lon="4.93463">
        <ele>605</ele>
        <time>2012-10-07T08:27:21Z</time>
      </trkpt>
      <trkpt lat="47.28309" lon="4.93456">
        <ele>606</ele>
        <time>2012-10-07T08:27:26Z</time>
      </trkpt>
      <trkpt lat="47.28311" lon="4.9345">
        <ele>605</ele>
        <time>2012-10-07T08:27:31Z</time>
      </trkpt>
      <trkpt lat="47.28311" lon="4.9345">
        <ele>605</ele>
        <time>2012-10-07T08:27:31Z</time>
      </trkpt>
      <trkpt lat="47.28311" lon="4.9345">
        <ele>605</ele>
        <time>2012-10-07T08:27:32Z</time>
      </trkpt>
      <trkpt lat="47.28316" lon="4.93446">
        <ele>607</ele>
        <time>2012-10-07T08:27:36Z</time>
      </trkpt>
      <trkpt lat="47.2832" lon="4.93444">
        <ele>607</ele>
        <time>2012-10-07T08:27:45Z</time>
      </trkpt>
      <trkpt lat="47.28325" lon="4.93441">
        <ele>607</ele>
        <time>2012-10-07T08:27:50Z</time>
      </trkpt>
      <trkpt lat="47.28329" lon="4.93437">
        <ele>608</ele>
        <time>2012-10-07T08:27:53Z</time>
      </trkpt>
      <trkpt lat="47.28333" lon="4.93432">
        <ele>609</ele>
        <time>2012-10-07T08:27:56Z</time>
      </trkpt>
      <trkpt lat="47.28338" lon="4.93428">
        <ele>611</ele>
        <time>2012-10-07T08:27:59Z</time>
      </trkpt>
      <trkpt lat="47.28343" lon="4.93424">
        <ele>612</ele>
        <time>2012-10-07T08:28:01Z</time>
      </trkpt>
      <trkpt lat="47.28343" lon="4.93424">
        <ele>612</ele>
        <time>2012-10-07T08:28:01Z</time>
      </trkpt>
      <trkpt lat="47.28343" lon="4.93424">
        <ele>612</ele>
        <time>2012-10-07T08:28:02Z</time>
      </trkpt>
      <trkpt lat="47.28347" lon="4.93422">
        <ele>613</ele>
        <time>2012-10-07T08:28:04Z</time>
      </trkpt>
      <trkpt lat="47.28354" lon="4.93418">
        <ele>616</ele>
        <time>2012-10-07T08:28:07Z</time>
      </trkpt>
      <trkpt lat="47.28358" lon="4.93415">
        <ele>617</ele>
        <time>2012-10-07T08:28:08Z</time>
      </trkpt>
      <trkpt lat="47.28362" lon="4.93411">
        <ele>617</ele>
        <time>2012-10-07T08:28:09Z</time>
      </trkpt>
      <trkpt lat="47.28368" lon="4.93407">
        <ele>619</ele>
        <time>2012-10-07T08:28:11Z</time>
      </trkpt>
      <trkpt lat="47.28372" lon="4.93405">
        <ele>622</ele>
        <time>2012-10-07T08:28:14Z</time>
      </trkpt>
      <trkpt lat="47.28377" lon="4.93403">
        <ele>626</ele>
        <time>2012-10-07T08:28:17Z</time>
      </trkpt>
      <trkpt lat="47.28383" lon="4.93402">
        <ele>629</ele>
        <time>2012-10-07T08:28:21Z</time>
      </trkpt>
      <trkpt lat="47.28383" lon="4.93402">
        <ele>629</ele>
        <time>2012-10-07T08:28:21Z</time>
      </trkpt>
      <trkpt lat="47.28383" lon="4.93402">
        <ele>629</ele>
        <time>2012-10-07T08:28:22Z</time>
      </trkpt>
      <trkpt lat="47.28389" lon="4.93399">
        <ele>629</ele>
        <time>2012-10-07T08:28:24Z</time>
      </trkpt>
      <trkpt lat="47.28394" lon="4.93398">
        <ele>628</ele>
        <time>2012-10-07T08:28:31Z</time>
      </trkpt>
      <trkpt lat="47.28399" lon="4.93394">
        <ele>627</ele>
        <time>2012-10-07T08:28:34Z</time>
      </trkpt>
      <trkpt lat="47.28404" lon="4.93389">
        <ele>627</ele>
        <time>2012-10-07T08:28:37Z</time>
      </trkpt>
      <trkpt lat="47.2841" lon="4.93386">
        <ele>626</ele>
        <time>2012-10-07T08:28:40Z</time>
      </trkpt>
      <trkpt lat="47.28415" lon="4.93385">
        <ele>629</ele>
        <time>2012-10-07T08:28:48Z</time>
      </trkpt>
      <trkpt lat="47.2842" lon="4.93379">
        <ele>630</ele>
        <time>2012-10-07T08:28:51Z</time>
      </trkpt>
      <trkpt lat="47.28425" lon="4.93375">
        <ele>631</ele>
        <time>2012-10-07T08:28:53Z</time>
      </trkpt>
      <trkpt lat="47.28429" lon="4.93372">
        <ele>632</ele>
        <time>2012-10-07T08:28:55Z</time>
      </trkpt>
      <trkpt lat="47.28433" lon="4.93368">
        <ele>633</ele>
        <time>2012-10-07T08:28:57Z</time>
      </trkpt>
      <trkpt lat="47.28437" lon="4.93364">
        <ele>635</ele>
        <time>2012-10-07T08:28:59Z</time>
      </trkpt>
      <trkpt lat="47.28442" lon="4.93362">
        <ele>637</ele>
        <time>2012-10-07T08:29:03Z</time>
      </trkpt>
      <trkpt lat="47.28447" lon="4.93358">
        <ele>638</ele>
        <time>2012-10-07T08:29:06Z</time>
      </trkpt>
      <trkpt lat="47.28452" lon="4.93356">
        <ele>638</ele>
        <time>2012-10-07T08:29:12Z</time>
      </trkpt>
      <trkpt lat="47.28458" lon="4.93356">
        <ele>639</ele>
        <time>2012-10-07T08:29:15Z</time>
      </trkpt>
      <trkpt lat="47.28463" lon="4.93354">
        <ele>639</ele>
        <time>2012-10-07T08:29:18Z</time>
      </trkpt>
      <trkpt lat="47.28469" lon="4.93353">
        <ele>639</ele>
        <time>2012-10-07T08:29:22Z</time>
      </trkpt>
      <trkpt lat="47.28474" lon="4.93352">
        <ele>639</ele>
        <time>2012-10-07T08:29:25Z</time>
      </trkpt>
      <trkpt lat="47.2848" lon="4.93353">
        <ele>639</ele>
        <time>2012-10-07T08:29:27Z</time>
      </trkpt>
      <trkpt lat="47.28486" lon="4.93354">
        <ele>638</ele>
        <time>2012-10-07T08:29:30Z</time>
      </trkpt>
      <trkpt lat="47.2849" lon="4.93351">
        <ele>637</ele>
        <time>2012-10-07T08:29:32Z</time>
      </trkpt>
      <trkpt lat="47.28496" lon="4.9335">
        <ele>638</ele>
        <time>2012-10-07T08:29:34Z</time>
      </trkpt>
      <trkpt lat="47.28502" lon="4.93349">
        <ele>637</ele>
        <time>2012-10-07T08:29:38Z</time>
      </trkpt>
      <trkpt lat="47.28508" lon="4.93348">
        <ele>638</ele>
        <time>2012-10-07T08:29:42Z</time>
      </trkpt>
      <trkpt lat="47.28512" lon="4.93349">
        <ele>639</ele>
        <time>2012-10-07T08:29:45Z</time>
      </trkpt>
      <trkpt lat="47.28517" lon="4.93355">
        <ele>638</ele>
        <time>2012-10-07T08:29:48Z</time>
      </trkpt>
      <trkpt lat="47.28522" lon="4.93358">
        <ele>637</ele>
        <time>2012-10-07T08:29:51Z</time>
      </trkpt>
      <trkpt lat="47.28528" lon="4.9336">
        <ele>636</ele>
        <time>2012-10-07T08:29:54Z</time>
      </trkpt>
      <trkpt lat="47.28534" lon="4.93361">
        <ele>634</ele>
        <time>2012-10-07T08:29:57Z</time>
      </trkpt>
      <trkpt lat="47.2854" lon="4.93364">
        <ele>633</ele>
        <time>2012-10-07T08:30:02Z</time>
      </trkpt>
      <trkpt lat="47.28544" lon="4.93366">
        <ele>631</ele>
        <time>2012-10-07T08:30:05Z</time>
      </trkpt>
      <trkpt lat="47.28549" lon="4.9337">
        <ele>632</ele>
        <time>2012-10-07T08:30:09Z</time>
      </trkpt>
      <trkpt lat="47.28554" lon="4.93371">
        <ele>634</ele>
        <time>2012-10-07T08:30:13Z</time>
      </trkpt>
      <trkpt lat="47.28559" lon="4.93369">
        <ele>633</ele>
        <time>2012-10-07T08:30:15Z</time>
      </trkpt>
      <trkpt lat="47.28564" lon="4.93367">
        <ele>633</ele>
        <time>2012-10-07T08:30:18Z</time>
      </trkpt>
      <trkpt lat="47.28569" lon="4.93366">
        <ele>633</ele>
        <time>2012-10-07T08:30:21Z</time>
      </trkpt>
      <trkpt lat="47.28574" lon="4.93368">
        <ele>634</ele>
        <time>2012-10-07T08:30:23Z</time>
      </trkpt>
      <trkpt lat="47.28578" lon="4.93368">
        <ele>634</ele>
        <time>2012-10-07T08:30:26Z</time>
      </trkpt>
      <trkpt lat="47.28584" lon="4.93366">
        <ele>634</ele>
        <time>2012-10-07T08:30:29Z</time>
      </trkpt>
      <trkpt lat="47.28591" lon="4.93366">
        <ele>633</ele>
        <time>2012-10-07T08:30:32Z</time>
      </trkpt>
      <trkpt lat="47.28596" lon="4.93366">
        <ele>635</ele>
        <time>2012-10-07T08:30:35Z</time>
      </trkpt>
      <trkpt lat="47.28601" lon="4.93364">
        <ele>637</ele>
        <time>2012-10-07T08:30:38Z</time>
      </trkpt>
      <trkpt lat="47.28606" lon="4.93364">
        <ele>637</ele>
        <time>2012-10-07T08:30:41Z</time>
      </trkpt>
      <trkpt lat="47.28612" lon="4.93364">
        <ele>639</ele>
        <time>2012-10-07T08:30:44Z</time>
      </trkpt>
      <trkpt lat="47.28617" lon="4.93364">
        <ele>639</ele>
        <time>2012-10-07T08:30:47Z</time>
      </trkpt>
      <trkpt lat="47.28624" lon="4.93364">
        <ele>639</ele>
        <time>2012-10-07T08:30:50Z</time>
      </trkpt>
      <trkpt lat="47.2863" lon="4.93368">
        <ele>639</ele>
        <time>2012-10-07T08:30:53Z</time>
      </trkpt>
      <trkpt lat="47.28635" lon="4.93369">
        <ele>641</ele>
        <time>2012-10-07T08:30:57Z</time>
      </trkpt>
      <trkpt lat="47.28641" lon="4.93368">
        <ele>642</ele>
        <time>2012-10-07T08:31:01Z</time>
      </trkpt>
      <trkpt lat="47.28646" lon="4.9337">
        <ele>641</ele>
        <time>2012-10-07T08:31:04Z</time>
      </trkpt>
      <trkpt lat="47.28652" lon="4.9337">
        <ele>642</ele>
        <time>2012-10-07T08:31:08Z</time>
      </trkpt>
      <trkpt lat="47.28657" lon="4.93371">
        <ele>641</ele>
        <time>2012-10-07T08:31:10Z</time>
      </trkpt>
      <trkpt lat="47.28663" lon="4.93374">
        <ele>640</ele>
        <time>2012-10-07T08:31:12Z</time>
      </trkpt>
      <trkpt lat="47.28667" lon="4.9338">
        <ele>641</ele>
        <time>2012-10-07T08:31:18Z</time>
      </trkpt>
      <trkpt lat="47.28672" lon="4.9338">
        <ele>641</ele>
        <time>2012-10-07T08:31:20Z</time>
      </trkpt>
      <trkpt lat="47.28678" lon="4.9338">
        <ele>640</ele>
        <time>2012-10-07T08:31:23Z</time>
      </trkpt>
      <trkpt lat="47.28683" lon="4.93381">
        <ele>640</ele>
        <time>2012-10-07T08:31:26Z</time>
      </trkpt>
      <trkpt lat="47.28689" lon="4.93383">
        <ele>639</ele>
        <time>2012-10-07T08:31:28Z</time>
      </trkpt>
      <trkpt lat="47.28695" lon="4.93385">
        <ele>639</ele>
        <time>2012-10-07T08:31:30Z</time>
      </trkpt>
      <trkpt lat="47.287" lon="4.9339">
        <ele>638</ele>
        <time>2012-10-07T08:31:33Z</time>
      </trkpt>
      <trkpt lat="47.28705" lon="4.93391">
        <ele>637</ele>
        <time>2012-10-07T08:31:36Z</time>
      </trkpt>
      <trkpt lat="47.28711" lon="4.93391">
        <ele>636</ele>
        <time>2012-10-07T08:31:39Z</time>
      </trkpt>
      <trkpt lat="47.28715" lon="4.93393">
        <ele>636</ele>
        <time>2012-10-07T08:31:41Z</time>
      </trkpt>
      <trkpt lat="47.28718" lon="4.93398">
        <ele>635</ele>
        <time>2012-10-07T08:31:44Z</time>
      </trkpt>
      <trkpt lat="47.28723" lon="4.93401">
        <ele>634</ele>
        <time>2012-10-07T08:31:47Z</time>
      </trkpt>
      <trkpt lat="47.28728" lon="4.93404">
        <ele>633</ele>
        <time>2012-10-07T08:31:50Z</time>
      </trkpt>
      <trkpt lat="47.28733" lon="4.93405">
        <ele>634</ele>
        <time>2012-10-07T08:31:53Z</time>
      </trkpt>
      <trkpt lat="47.28738" lon="4.93407">
        <ele>634</ele>
        <time>2012-10-07T08:31:56Z</time>
      </trkpt>
      <trkpt lat="47.28744" lon="4.9341">
        <ele>633</ele>
        <time>2012-10-07T08:31:59Z</time>
      </trkpt>
      <trkpt lat="47.28747" lon="4.93414">
        <ele>632</ele>
        <time>2012-10-07T08:32:01Z</time>
      </trkpt>
      <trkpt lat="47.28752" lon="4.93419">
        <ele>629</ele>
        <time>2012-10-07T08:32:05Z</time>
      </trkpt>
      <trkpt lat="47.28757" lon="4.93421">
        <ele>629</ele>
        <time>2012-10-07T08:32:08Z</time>
      </trkpt>
      <trkpt lat="47.28761" lon="4.93423">
        <ele>630</ele>
        <time>2012-10-07T08:32:12Z</time>
      </trkpt>
      <trkpt lat="47.28768" lon="4.93424">
        <ele>630</ele>
        <time>2012-10-07T08:32:16Z</time>
      </trkpt>
      <trkpt lat="47.28773" lon="4.93425">
        <ele>631</ele>
        <time>2012-10-07T08:32:18Z</time>
      </trkpt>
      <trkpt lat="47.28779" lon="4.93425">
        <ele>631</ele>
        <time>2012-10-07T08:32:22Z</time>
      </trkpt>
      <trkpt lat="47.28784" lon="4.93426">
        <ele>632</ele>
        <time>2012-10-07T08:32:25Z</time>
      </trkpt>
      <trkpt lat="47.28789" lon="4.93427">
        <ele>634</ele>
        <time>2012-10-07T08:32:29Z</time>
      </trkpt>
      <trkpt lat="47.28794" lon="4.93428">
        <ele>633</ele>
        <time>2012-10-07T08:32:32Z</time>
      </trkpt>
      <trkpt lat="47.288" lon="4.93427">
        <ele>632</ele>
        <time>2012-10-07T08:32:34Z</time>
      </trkpt>
      <trkpt lat="47.28807" lon="4.93428">
        <ele>633</ele>
        <time>2012-10-07T08:32:37Z</time>
      </trkpt>
      <trkpt lat="47.28812" lon="4.93431">
        <ele>632</ele>
        <time>2012-10-07T08:32:44Z</time>
      </trkpt>
      <trkpt lat="47.28816" lon="4.93428">
        <ele>627</ele>
        <time>2012-10-07T08:32:48Z</time>
      </trkpt>
      <trkpt lat="47.28821" lon="4.93423">
        <ele>626</ele>
        <time>2012-10-07T08:32:51Z</time>
      </trkpt>
      <trkpt lat="47.28825" lon="4.93416">
        <ele>624</ele>
        <time>2012-10-07T08:32:54Z</time>
      </trkpt>
      <trkpt lat="47.28827" lon="4.9341">
        <ele>624</ele>
        <time>2012-10-07T08:32:56Z</time>
      </trkpt>
      <trkpt lat="47.28828" lon="4.93403">
        <ele>623</ele>
        <time>2012-10-07T08:32:59Z</time>
      </trkpt>
      <trkpt lat="47.2883" lon="4.93397">
        <ele>622</ele>
        <time>2012-10-07T08:33:02Z</time>
      </trkpt>
      <trkpt lat="47.28831" lon="4.9339">
        <ele>622</ele>
        <time>2012-10-07T08:33:05Z</time>
      </trkpt>
      <trkpt lat="47.28831" lon="4.93383">
        <ele>623</ele>
        <time>2012-10-07T08:33:08Z</time>
      </trkpt>
      <trkpt lat="47.28833" lon="4.93374">
        <ele>621</ele>
        <time>2012-10-07T08:33:12Z</time>
      </trkpt>
      <trkpt lat="47.28833" lon="4.93367">
        <ele>620</ele>
        <time>2012-10-07T08:33:15Z</time>
      </trkpt>
      <trkpt lat="47.28832" lon="4.93356">
        <ele>623</ele>
        <time>2012-10-07T08:33:20Z</time>
      </trkpt>
      <trkpt lat="47.28829" lon="4.93349">
        <ele>623</ele>
        <time>2012-10-07T08:33:24Z</time>
      </trkpt>
      <trkpt lat="47.2883" lon="4.93338">
        <ele>624</ele>
        <time>2012-10-07T08:33:28Z</time>
      </trkpt>
      <trkpt lat="47.2883" lon="4.93329">
        <ele>624</ele>
        <time>2012-10-07T08:33:31Z</time>
      </trkpt>
      <trkpt lat="47.28829" lon="4.9332">
        <ele>624</ele>
        <time>2012-10-07T08:33:35Z</time>
      </trkpt>
      <trkpt lat="47.28828" lon="4.93312">
        <ele>624</ele>
        <time>2012-10-07T08:33:39Z</time>
      </trkpt>
      <trkpt lat="47.2883" lon="4.93306">
        <ele>624</ele>
        <time>2012-10-07T08:33:41Z</time>
      </trkpt>
      <trkpt lat="47.28831" lon="4.93297">
        <ele>624</ele>
        <time>2012-10-07T08:33:45Z</time>
      </trkpt>
      <trkpt lat="47.2883" lon="4.9329">
        <ele>624</ele>
        <time>2012-10-07T08:33:49Z</time>
      </trkpt>
      <trkpt lat="47.28831" lon="4.93281">
        <ele>622</ele>
        <time>2012-10-07T08:33:52Z</time>
      </trkpt>
      <trkpt lat="47.2883" lon="4.93274">
        <ele>623</ele>
        <time>2012-10-07T08:33:55Z</time>
      </trkpt>
      <trkpt lat="47.28832" lon="4.93266">
        <ele>624</ele>
        <time>2012-10-07T08:33:58Z</time>
      </trkpt>
      <trkpt lat="47.28833" lon="4.93258">
        <ele>625</ele>
        <time>2012-10-07T08:34:02Z</time>
      </trkpt>
      <trkpt lat="47.28834" lon="4.93251">
        <ele>624</ele>
        <time>2012-10-07T08:34:05Z</time>
      </trkpt>
      <trkpt lat="47.28834" lon="4.93244">
        <ele>623</ele>
        <time>2012-10-07T08:34:08Z</time>
      </trkpt>
      <trkpt lat="47.28833" lon="4.93237">
        <ele>622</ele>
        <time>2012-10-07T08:34:11Z</time>
      </trkpt>
      <trkpt lat="47.28833" lon="4.93228">
        <ele>622</ele>
        <time>2012-10-07T08:34:14Z</time>
      </trkpt>
      <trkpt lat="47.28833" lon="4.9322">
        <ele>622</ele>
        <time>2012-10-07T08:34:17Z</time>
      </trkpt>
      <trkpt lat="47.28832" lon="4.93212">
        <ele>621</ele>
        <time>2012-10-07T08:34:20Z</time>
      </trkpt>
      <trkpt lat="47.28831" lon="4.93202">
        <ele>620</ele>
        <time>2012-10-07T08:34:24Z</time>
      </trkpt>
      <trkpt lat="47.28833" lon="4.93195">
        <ele>620</ele>
        <time>2012-10-07T08:34:26Z</time>
      </trkpt>
      <trkpt lat="47.28835" lon="4.93189">
        <ele>622</ele>
        <time>2012-10-07T08:34:29Z</time>
      </trkpt>
      <trkpt lat="47.28833" lon="4.93181">
        <ele>620</ele>
        <time>2012-10-07T08:34:33Z</time>
      </trkpt>
      <trkpt lat="47.28833" lon="4.93171">
        <ele>619</ele>
        <time>2012-10-07T08:34:37Z</time>
      </trkpt>
      <trkpt lat="47.28834" lon="4.93163">
        <ele>619</ele>
        <time>2012-10-07T08:34:39Z</time>
      </trkpt>
      <trkpt lat="47.28835" lon="4.93154">
        <ele>620</ele>
        <time>2012-10-07T08:34:42Z</time>
      </trkpt>
      <trkpt lat="47.28838" lon="4.93148">
        <ele>621</ele>
        <time>2012-10-07T08:34:44Z</time>
      </trkpt>
      <trkpt lat="47.28836" lon="4.93141">
        <ele>623</ele>
        <time>2012-10-07T08:34:47Z</time>
      </trkpt>
      <trkpt lat="47.2884" lon="4.93132">
        <ele>623</ele>
        <time>2012-10-07T08:34:50Z</time>
      </trkpt>
      <trkpt lat="47.2884" lon="4.93124">
        <ele>620</ele>
        <time>2012-10-07T08:34:54Z</time>
      </trkpt>
      <trkpt lat="47.28839" lon="4.93116">
        <ele>619</ele>
        <time>2012-10-07T08:34:58Z</time>
      </trkpt>
      <trkpt lat="47.28838" lon="4.93107">
        <ele>620</ele>
        <time>2012-10-07T08:35:02Z</time>
      </trkpt>
      <trkpt lat="47.28837" lon="4.93099">
        <ele>621</ele>
        <time>2012-10-07T08:35:05Z</time>
      </trkpt>
      <trkpt lat="47.28837" lon="4.93092">
        <ele>622</ele>
        <time>2012-10-07T08:35:08Z</time>
      </trkpt>
      <trkpt lat="47.28838" lon="4.93083">
        <ele>624</ele>
        <time>2012-10-07T08:35:11Z</time>
      </trkpt>
      <trkpt lat="47.28837" lon="4.93077">
        <ele>626</ele>
        <time>2012-10-07T08:35:14Z</time>
      </trkpt>
      <trkpt lat="47.28838" lon="4.93066">
        <ele>630</ele>
        <time>2012-10-07T08:35:20Z</time>
      </trkpt>
      <trkpt lat="47.28836" lon="4.93058">
        <ele>632</ele>
        <time>2012-10-07T08:35:24Z</time>
      </trkpt>
      <trkpt lat="47.28834" lon="4.9305">
        <ele>635</ele>
        <time>2012-10-07T08:35:28Z</time>
      </trkpt>
      <trkpt lat="47.28832" lon="4.93044">
        <ele>637</ele>
        <time>2012-10-07T08:35:32Z</time>
      </trkpt>
      <trkpt lat="47.2883" lon="4.93034">
        <ele>638</ele>
        <time>2012-10-07T08:35:36Z</time>
      </trkpt>
      <trkpt lat="47.28829" lon="4.93028">
        <ele>637</ele>
        <time>2012-10-07T08:35:39Z</time>
      </trkpt>
      <trkpt lat="47.28828" lon="4.9302">
        <ele>638</ele>
        <time>2012-10-07T08:35:42Z</time>
      </trkpt>
      <trkpt lat="47.28827" lon="4.93012">
        <ele>641</ele>
        <time>2012-10-07T08:35:47Z</time>
      </trkpt>
      <trkpt lat="47.28828" lon="4.93003">
        <ele>642</ele>
        <time>2012-10-07T08:35:50Z</time>
      </trkpt>
      <trkpt lat="47.28832" lon="4.92999">
        <ele>645</ele>
        <time>2012-10-07T08:35:52Z</time>
      </trkpt>
      <trkpt lat="47.28832" lon="4.92992">
        <ele>645</ele>
        <time>2012-10-07T08:35:55Z</time>
      </trkpt>
      <trkpt lat="47.28829" lon="4.92985">
        <ele>645</ele>
        <time>2012-10-07T08:35:58Z</time>
      </trkpt>
      <trkpt lat="47.28827" lon="4.92977">
        <ele>645</ele>
        <time>2012-10-07T08:36:01Z</time>
      </trkpt>
      <trkpt lat="47.28827" lon="4.92968">
        <ele>646</ele>
        <time>2012-10-07T08:36:04Z</time>
      </trkpt>
      <trkpt lat="47.28824" lon="4.92962">
        <ele>646</ele>
        <time>2012-10-07T08:36:08Z</time>
      </trkpt>
      <trkpt lat="47.28827" lon="4.92955">
        <ele>648</ele>
        <time>2012-10-07T08:36:11Z</time>
      </trkpt>
      <trkpt lat="47.28827" lon="4.92947">
        <ele>650</ele>
        <time>2012-10-07T08:36:14Z</time>
      </trkpt>
      <trkpt lat="47.28827" lon="4.9294">
        <ele>650</ele>
        <time>2012-10-07T08:36:17Z</time>
      </trkpt>
      <trkpt lat="47.28829" lon="4.92932">
        <ele>651</ele>
        <time>2012-10-07T08:36:21Z</time>
      </trkpt>
      <trkpt lat="47.28828" lon="4.92924">
        <ele>654</ele>
        <time>2012-10-07T08:36:24Z</time>
      </trkpt>
      <trkpt lat="47.28825" lon="4.92917">
        <ele>656</ele>
        <time>2012-10-07T08:36:28Z</time>
      </trkpt>
      <trkpt lat="47.2882" lon="4.92911">
        <ele>655</ele>
        <time>2012-10-07T08:36:31Z</time>
      </trkpt>
      <trkpt lat="47.28818" lon="4.92905">
        <ele>654</ele>
        <time>2012-10-07T08:36:34Z</time>
      </trkpt>
      <trkpt lat="47.28815" lon="4.92898">
        <ele>653</ele>
        <time>2012-10-07T08:36:37Z</time>
      </trkpt>
      <trkpt lat="47.28817" lon="4.92891">
        <ele>655</ele>
        <time>2012-10-07T08:36:40Z</time>
      </trkpt>
      <trkpt lat="47.28815" lon="4.92881">
        <ele>655</ele>
        <time>2012-10-07T08:36:45Z</time>
      </trkpt>
      <trkpt lat="47.2881" lon="4.92875">
        <ele>656</ele>
        <time>2012-10-07T08:36:48Z</time>
      </trkpt>
      <trkpt lat="47.28805" lon="4.92871">
        <ele>656</ele>
        <time>2012-10-07T08:36:50Z</time>
      </trkpt>
      <trkpt lat="47.28799" lon="4.92866">
        <ele>655</ele>
        <time>2012-10-07T08:36:56Z</time>
      </trkpt>
      <trkpt lat="47.28797" lon="4.92858">
        <ele>653</ele>
        <time>2012-10-07T08:37:00Z</time>
      </trkpt>
      <trkpt lat="47.28794" lon="4.92849">
        <ele>653</ele>
        <time>2012-10-07T08:37:03Z</time>
      </trkpt>
      <trkpt lat="47.28789" lon="4.92846">
        <ele>654</ele>
        <time>2012-10-07T08:37:05Z</time>
      </trkpt>
      <trkpt lat="47.28782" lon="4.9284">
        <ele>656</ele>
        <time>2012-10-07T08:37:08Z</time>
      </trkpt>
      <trkpt lat="47.28778" lon="4.92833">
        <ele>656</ele>
        <time>2012-10-07T08:37:10Z</time>
      </trkpt>
      <trkpt lat="47.28776" lon="4.92822">
        <ele>655</ele>
        <time>2012-10-07T08:37:13Z</time>
      </trkpt>
      <trkpt lat="47.28775" lon="4.92814">
        <ele>654</ele>
        <time>2012-10-07T08:37:15Z</time>
      </trkpt>
      <trkpt lat="47.28774" lon="4.92801">
        <ele>653</ele>
        <time>2012-10-07T08:37:20Z</time>
      </trkpt>
      <trkpt lat="47.28772" lon="4.92792">
        <ele>650</ele>
        <time>2012-10-07T08:37:23Z</time>
      </trkpt>
      <trkpt lat="47.28773" lon="4.92785">
        <ele>649</ele>
        <time>2012-10-07T08:37:25Z</time>
      </trkpt>
      <trkpt lat="47.28773" lon="4.92778">
        <ele>649</ele>
        <time>2012-10-07T08:37:28Z</time>
      </trkpt>
      <trkpt lat="47.28775" lon="4.92771">
        <ele>648</ele>
        <time>2012-10-07T08:37:31Z</time>
      </trkpt>
      <trkpt lat="47.28778" lon="4.92765">
        <ele>646</ele>
        <time>2012-10-07T08:37:33Z</time>
      </trkpt>
      <trkpt lat="47.28777" lon="4.92758">
        <ele>644</ele>
        <time>2012-10-07T08:37:40Z</time>
      </trkpt>
      <trkpt lat="47.28777" lon="4.92758">
        <ele>644</ele>
        <time>2012-10-07T08:37:40Z</time>
      </trkpt>
      <trkpt lat="47.28777" lon="4.92758">
        <ele>644</ele>
        <time>2012-10-07T08:37:41Z</time>
      </trkpt>
      <trkpt lat="47.28782" lon="4.92754">
        <ele>643</ele>
        <time>2012-10-07T08:37:43Z</time>
      </trkpt>
      <trkpt lat="47.28787" lon="4.9275">
        <ele>643</ele>
        <time>2012-10-07T08:37:44Z</time>
      </trkpt>
      <trkpt lat="47.28791" lon="4.92746">
        <ele>643</ele>
        <time>2012-10-07T08:37:46Z</time>
      </trkpt>
      <trkpt lat="47.28796" lon="4.92744">
        <ele>643</ele>
        <time>2012-10-07T08:37:49Z</time>
      </trkpt>
      <trkpt lat="47.288" lon="4.92742">
        <ele>644</ele>
        <time>2012-10-07T08:37:53Z</time>
      </trkpt>
      <trkpt lat="47.28805" lon="4.92739">
        <ele>644</ele>
        <time>2012-10-07T08:37:55Z</time>
      </trkpt>
      <trkpt lat="47.2881" lon="4.92736">
        <ele>643</ele>
        <time>2012-10-07T08:37:57Z</time>
      </trkpt>
      <trkpt lat="47.28815" lon="4.92736">
        <ele>642</ele>
        <time>2012-10-07T08:38:03Z</time>
      </trkpt>
      <trkpt lat="47.2882" lon="4.92734">
        <ele>642</ele>
        <time>2012-10-07T08:38:05Z</time>
      </trkpt>
      <trkpt lat="47.28825" lon="4.92731">
        <ele>641</ele>
        <time>2012-10-07T08:38:08Z</time>
      </trkpt>
      <trkpt lat="47.28831" lon="4.92726">
        <ele>641</ele>
        <time>2012-10-07T08:38:11Z</time>
      </trkpt>
      <trkpt lat="47.28836" lon="4.92724">
        <ele>642</ele>
        <time>2012-10-07T08:38:13Z</time>
      </trkpt>
      <trkpt lat="47.28841" lon="4.92722">
        <ele>640</ele>
        <time>2012-10-07T08:38:18Z</time>
      </trkpt>
      <trkpt lat="47.28847" lon="4.92721">
        <ele>638</ele>
        <time>2012-10-07T08:38:24Z</time>
      </trkpt>
      <trkpt lat="47.28854" lon="4.92721">
        <ele>636</ele>
        <time>2012-10-07T08:38:28Z</time>
      </trkpt>
      <trkpt lat="47.28858" lon="4.92722">
        <ele>635</ele>
        <time>2012-10-07T08:38:30Z</time>
      </trkpt>
      <trkpt lat="47.28863" lon="4.92721">
        <ele>634</ele>
        <time>2012-10-07T08:38:32Z</time>
      </trkpt>
      <trkpt lat="47.2887" lon="4.92721">
        <ele>635</ele>
        <time>2012-10-07T08:38:36Z</time>
      </trkpt>
      <trkpt lat="47.28876" lon="4.9272">
        <ele>634</ele>
        <time>2012-10-07T08:38:38Z</time>
      </trkpt>
      <trkpt lat="47.2888" lon="4.9272">
        <ele>635</ele>
        <time>2012-10-07T08:38:40Z</time>
      </trkpt>
      <trkpt lat="47.28885" lon="4.9272">
        <ele>637</ele>
        <time>2012-10-07T08:38:42Z</time>
      </trkpt>
      <trkpt lat="47.28893" lon="4.92717">
        <ele>636</ele>
        <time>2012-10-07T08:38:44Z</time>
      </trkpt>
      <trkpt lat="47.28898" lon="4.92717">
        <ele>636</ele>
        <time>2012-10-07T08:38:45Z</time>
      </trkpt>
      <trkpt lat="47.28904" lon="4.92718">
        <ele>636</ele>
        <time>2012-10-07T08:38:46Z</time>
      </trkpt>
      <trkpt lat="47.28909" lon="4.92719">
        <ele>636</ele>
        <time>2012-10-07T08:38:48Z</time>
      </trkpt>
      <trkpt lat="47.28914" lon="4.92719">
        <ele>635</ele>
        <time>2012-10-07T08:38:50Z</time>
      </trkpt>
      <trkpt lat="47.2892" lon="4.92721">
        <ele>635</ele>
        <time>2012-10-07T08:38:53Z</time>
      </trkpt>
      <trkpt lat="47.28925" lon="4.92723">
        <ele>635</ele>
        <time>2012-10-07T08:38:56Z</time>
      </trkpt>
      <trkpt lat="47.2893" lon="4.92724">
        <ele>635</ele>
        <time>2012-10-07T08:38:59Z</time>
      </trkpt>
      <trkpt lat="47.28936" lon="4.92725">
        <ele>636</ele>
        <time>2012-10-07T08:39:03Z</time>
      </trkpt>
      <trkpt lat="47.28943" lon="4.92726">
        <ele>635</ele>
        <time>2012-10-07T08:39:06Z</time>
      </trkpt>
      <trkpt lat="47.2895" lon="4.92727">
        <ele>636</ele>
        <time>2012-10-07T08:39:09Z</time>
      </trkpt>
      <trkpt lat="47.28956" lon="4.9273">
        <ele>638</ele>
        <time>2012-10-07T08:39:12Z</time>
      </trkpt>
      <trkpt lat="47.28959" lon="4.92735">
        <ele>637</ele>
        <time>2012-10-07T08:39:15Z</time>
      </trkpt>
      <trkpt lat="47.28965" lon="4.92737">
        <ele>637</ele>
        <time>2012-10-07T08:39:18Z</time>
      </trkpt>
      <trkpt lat="47.28969" lon="4.92741">
        <ele>636</ele>
        <time>2012-10-07T08:39:21Z</time>
      </trkpt>
      <trkpt lat="47.28973" lon="4.92745">
        <ele>636</ele>
        <time>2012-10-07T08:39:24Z</time>
      </trkpt>
      <trkpt lat="47.28978" lon="4.92749">
        <ele>635</ele>
        <time>2012-10-07T08:39:27Z</time>
      </trkpt>
      <trkpt lat="47.28984" lon="4.9275">
        <ele>636</ele>
        <time>2012-10-07T08:39:30Z</time>
      </trkpt>
      <trkpt lat="47.28989" lon="4.92753">
        <ele>637</ele>
        <time>2012-10-07T08:39:33Z</time>
      </trkpt>
      <trkpt lat="47.28994" lon="4.92756">
        <ele>636</ele>
        <time>2012-10-07T08:39:35Z</time>
      </trkpt>
      <trkpt lat="47.28998" lon="4.92761">
        <ele>634</ele>
        <time>2012-10-07T08:39:38Z</time>
      </trkpt>
      <trkpt lat="47.29002" lon="4.92767">
        <ele>633</ele>
        <time>2012-10-07T08:39:41Z</time>
      </trkpt>
      <trkpt lat="47.29007" lon="4.92772">
        <ele>631</ele>
        <time>2012-10-07T08:39:44Z</time>
      </trkpt>
      <trkpt lat="47.29012" lon="4.92776">
        <ele>630</ele>
        <time>2012-10-07T08:39:47Z</time>
      </trkpt>
      <trkpt lat="47.29018" lon="4.92778">
        <ele>631</ele>
        <time>2012-10-07T08:39:50Z</time>
      </trkpt>
      <trkpt lat="47.29022" lon="4.92781">
        <ele>632</ele>
        <time>2012-10-07T08:39:53Z</time>
      </trkpt>
      <trkpt lat="47.29027" lon="4.92783">
        <ele>633</ele>
        <time>2012-10-07T08:39:56Z</time>
      </trkpt>
      <trkpt lat="47.29032" lon="4.92787">
        <ele>633</ele>
        <time>2012-10-07T08:39:59Z</time>
      </trkpt>
      <trkpt lat="47.29036" lon="4.92791">
        <ele>634</ele>
        <time>2012-10-07T08:40:03Z</time>
      </trkpt>
      <trkpt lat="47.29041" lon="4.92795">
        <ele>634</ele>
        <time>2012-10-07T08:40:06Z</time>
      </trkpt>
      <trkpt lat="47.29046" lon="4.928">
        <ele>632</ele>
        <time>2012-10-07T08:40:09Z</time>
      </trkpt>
      <trkpt lat="47.29051" lon="4.92804">
        <ele>631</ele>
        <time>2012-10-07T08:40:12Z</time>
      </trkpt>
      <trkpt lat="47.29056" lon="4.92806">
        <ele>632</ele>
        <time>2012-10-07T08:40:15Z</time>
      </trkpt>
      <trkpt lat="47.29061" lon="4.92809">
        <ele>631</ele>
        <time>2012-10-07T08:40:18Z</time>
      </trkpt>
      <trkpt lat="47.29065" lon="4.92811">
        <ele>631</ele>
        <time>2012-10-07T08:40:20Z</time>
      </trkpt>
      <trkpt lat="47.2907" lon="4.92815">
        <ele>631</ele>
        <time>2012-10-07T08:40:23Z</time>
      </trkpt>
      <trkpt lat="47.29075" lon="4.92818">
        <ele>630</ele>
        <time>2012-10-07T08:40:27Z</time>
      </trkpt>
      <trkpt lat="47.29081" lon="4.92823">
        <ele>629</ele>
        <time>2012-10-07T08:40:30Z</time>
      </trkpt>
      <trkpt lat="47.29085" lon="4.92827">
        <ele>630</ele>
        <time>2012-10-07T08:40:33Z</time>
      </trkpt>
      <trkpt lat="47.2909" lon="4.92831">
        <ele>629</ele>
        <time>2012-10-07T08:40:36Z</time>
      </trkpt>
      <trkpt lat="47.29094" lon="4.92835">
        <ele>631</ele>
        <time>2012-10-07T08:40:39Z</time>
      </trkpt>
      <trkpt lat="47.29098" lon="4.9284">
        <ele>632</ele>
        <time>2012-10-07T08:40:42Z</time>
      </trkpt>
      <trkpt lat="47.29102" lon="4.92843">
        <ele>632</ele>
        <time>2012-10-07T08:40:44Z</time>
      </trkpt>
      <trkpt lat="47.29106" lon="4.92849">
        <ele>632</ele>
        <time>2012-10-07T08:40:47Z</time>
      </trkpt>
      <trkpt lat="47.29111" lon="4.92853">
        <ele>635</ele>
        <time>2012-10-07T08:40:51Z</time>
      </trkpt>
      <trkpt lat="47.29115" lon="4.92858">
        <ele>635</ele>
        <time>2012-10-07T08:40:54Z</time>
      </trkpt>
      <trkpt lat="47.29118" lon="4.92864">
        <ele>634</ele>
        <time>2012-10-07T08:40:57Z</time>
      </trkpt>
      <trkpt lat="47.29122" lon="4.92871">
        <ele>633</ele>
        <time>2012-10-07T08:41:00Z</time>
      </trkpt>
      <trkpt lat="47.29127" lon="4.92877">
        <ele>633</ele>
        <time>2012-10-07T08:41:03Z</time>
      </trkpt>
      <trkpt lat="47.29129" lon="4.92883">
        <ele>633</ele>
        <time>2012-10-07T08:41:05Z</time>
      </trkpt>
      <trkpt lat="47.29133" lon="4.92889">
        <ele>632</ele>
        <time>2012-10-07T08:41:08Z</time>
      </trkpt>
      <trkpt lat="47.29137" lon="4.92896">
        <ele>632</ele>
        <time>2012-10-07T08:41:11Z</time>
      </trkpt>
      <trkpt lat="47.2914" lon="4.92902">
        <ele>631</ele>
        <time>2012-10-07T08:41:13Z</time>
      </trkpt>
      <trkpt lat="47.29143" lon="4.92909">
        <ele>630</ele>
        <time>2012-10-07T08:41:16Z</time>
      </trkpt>
      <trkpt lat="47.29148" lon="4.92916">
        <ele>630</ele>
        <time>2012-10-07T08:41:20Z</time>
      </trkpt>
      <trkpt lat="47.29151" lon="4.92922">
        <ele>629</ele>
        <time>2012-10-07T08:41:24Z</time>
      </trkpt>
      <trkpt lat="47.29152" lon="4.9293">
        <ele>629</ele>
        <time>2012-10-07T08:41:28Z</time>
      </trkpt>
      <trkpt lat="47.29156" lon="4.92937">
        <ele>629</ele>
        <time>2012-10-07T08:41:31Z</time>
      </trkpt>
      <trkpt lat="47.29158" lon="4.92944">
        <ele>628</ele>
        <time>2012-10-07T08:41:34Z</time>
      </trkpt>
      <trkpt lat="47.29161" lon="4.92954">
        <ele>627</ele>
        <time>2012-10-07T08:41:37Z</time>
      </trkpt>
      <trkpt lat="47.29165" lon="4.92959">
        <ele>627</ele>
        <time>2012-10-07T08:41:40Z</time>
      </trkpt>
      <trkpt lat="47.29168" lon="4.92964">
        <ele>628</ele>
        <time>2012-10-07T08:41:43Z</time>
      </trkpt>
      <trkpt lat="47.2917" lon="4.9297">
        <ele>628</ele>
        <time>2012-10-07T08:41:46Z</time>
      </trkpt>
      <trkpt lat="47.29174" lon="4.92975">
        <ele>628</ele>
        <time>2012-10-07T08:41:49Z</time>
      </trkpt>
      <trkpt lat="47.29176" lon="4.92981">
        <ele>628</ele>
        <time>2012-10-07T08:41:51Z</time>
      </trkpt>
      <trkpt lat="47.29178" lon="4.9299">
        <ele>627</ele>
        <time>2012-10-07T08:41:54Z</time>
      </trkpt>
      <trkpt lat="47.29182" lon="4.92995">
        <ele>627</ele>
        <time>2012-10-07T08:41:57Z</time>
      </trkpt>
      <trkpt lat="47.29185" lon="4.93003">
        <ele>627</ele>
        <time>2012-10-07T08:42:00Z</time>
      </trkpt>
      <trkpt lat="47.29187" lon="4.9301">
        <ele>626</ele>
        <time>2012-10-07T08:42:03Z</time>
      </trkpt>
      <trkpt lat="47.2919" lon="4.93016">
        <ele>628</ele>
        <time>2012-10-07T08:42:07Z</time>
      </trkpt>
      <trkpt lat="47.29193" lon="4.93022">
        <ele>628</ele>
        <time>2012-10-07T08:42:09Z</time>
      </trkpt>
      <trkpt lat="47.29197" lon="4.93029">
        <ele>628</ele>
        <time>2012-10-07T08:42:13Z</time>
      </trkpt>
      <trkpt lat="47.292" lon="4.93036">
        <ele>628</ele>
        <time>2012-10-07T08:42:16Z</time>
      </trkpt>
      <trkpt lat="47.29204" lon="4.93046">
        <ele>628</ele>
        <time>2012-10-07T08:42:20Z</time>
      </trkpt>
      <trkpt lat="47.29206" lon="4.93054">
        <ele>628</ele>
        <time>2012-10-07T08:42:23Z</time>
      </trkpt>
      <trkpt lat="47.29209" lon="4.93059">
        <ele>627</ele>
        <time>2012-10-07T08:42:25Z</time>
      </trkpt>
      <trkpt lat="47.29212" lon="4.93064">
        <ele>629</ele>
        <time>2012-10-07T08:42:28Z</time>
      </trkpt>
      <trkpt lat="47.29215" lon="4.93071">
        <ele>629</ele>
        <time>2012-10-07T08:42:31Z</time>
      </trkpt>
      <trkpt lat="47.29217" lon="4.9308">
        <ele>629</ele>
        <time>2012-10-07T08:42:34Z</time>
      </trkpt>
      <trkpt lat="47.29221" lon="4.93082">
        <ele>628</ele>
        <time>2012-10-07T08:42:36Z</time>
      </trkpt>
      <trkpt lat="47.29225" lon="4.9309">
        <ele>627</ele>
        <time>2012-10-07T08:42:39Z</time>
      </trkpt>
      <trkpt lat="47.29228" lon="4.93097">
        <ele>626</ele>
        <time>2012-10-07T08:42:42Z</time>
      </trkpt>
      <trkpt lat="47.29232" lon="4.93103">
        <ele>626</ele>
        <time>2012-10-07T08:42:45Z</time>
      </trkpt>
      <trkpt lat="47.29237" lon="4.93105">
        <ele>626</ele>
        <time>2012-10-07T08:42:48Z</time>
      </trkpt>
      <trkpt lat="47.29239" lon="4.93112">
        <ele>626</ele>
        <time>2012-10-07T08:42:51Z</time>
      </trkpt>
      <trkpt lat="47.29242" lon="4.93117">
        <ele>626</ele>
        <time>2012-10-07T08:42:54Z</time>
      </trkpt>
      <trkpt lat="47.29246" lon="4.93122">
        <ele>627</ele>
        <time>2012-10-07T08:42:57Z</time>
      </trkpt>
      <trkpt lat="47.2925" lon="4.93127">
        <ele>627</ele>
        <time>2012-10-07T08:43:00Z</time>
      </trkpt>
      <trkpt lat="47.29255" lon="4.93133">
        <ele>625</ele>
        <time>2012-10-07T08:43:03Z</time>
      </trkpt>
      <trkpt lat="47.2926" lon="4.93139">
        <ele>625</ele>
        <time>2012-10-07T08:43:06Z</time>
      </trkpt>
      <trkpt lat="47.29262" lon="4.93145">
        <ele>626</ele>
        <time>2012-10-07T08:43:09Z</time>
      </trkpt>
      <trkpt lat="47.29265" lon="4.93151">
        <ele>626</ele>
        <time>2012-10-07T08:43:12Z</time>
      </trkpt>
      <trkpt lat="47.2927" lon="4.93158">
        <ele>625</ele>
        <time>2012-10-07T08:43:15Z</time>
      </trkpt>
      <trkpt lat="47.29274" lon="4.93165">
        <ele>625</ele>
        <time>2012-10-07T08:43:18Z</time>
      </trkpt>
      <trkpt lat="47.29277" lon="4.9317">
        <ele>625</ele>
        <time>2012-10-07T08:43:20Z</time>
      </trkpt>
      <trkpt lat="47.29282" lon="4.93176">
        <ele>625</ele>
        <time>2012-10-07T08:43:23Z</time>
      </trkpt>
      <trkpt lat="47.29285" lon="4.93183">
        <ele>625</ele>
        <time>2012-10-07T08:43:26Z</time>
      </trkpt>
      <trkpt lat="47.29289" lon="4.9319">
        <ele>625</ele>
        <time>2012-10-07T08:43:29Z</time>
      </trkpt>
      <trkpt lat="47.29293" lon="4.93192">
        <ele>627</ele>
        <time>2012-10-07T08:43:32Z</time>
      </trkpt>
      <trkpt lat="47.29298" lon="4.93196">
        <ele>629</ele>
        <time>2012-10-07T08:43:35Z</time>
      </trkpt>
      <trkpt lat="47.293" lon="4.93204">
        <ele>630</ele>
        <time>2012-10-07T08:43:39Z</time>
      </trkpt>
      <trkpt lat="47.29304" lon="4.9321">
        <ele>629</ele>
        <time>2012-10-07T08:43:41Z</time>
      </trkpt>
      <trkpt lat="47.29308" lon="4.93216">
        <ele>628</ele>
        <time>2012-10-07T08:43:44Z</time>
      </trkpt>
      <trkpt lat="47.29313" lon="4.93221">
        <ele>626</ele>
        <time>2012-10-07T08:43:47Z</time>
      </trkpt>
      <trkpt lat="47.29316" lon="4.93227">
        <ele>625</ele>
        <time>2012-10-07T08:43:50Z</time>
      </trkpt>
      <trkpt lat="47.29321" lon="4.93232">
        <ele>625</ele>
        <time>2012-10-07T08:43:54Z</time>
      </trkpt>
      <trkpt lat="47.29327" lon="4.93236">
        <ele>624</ele>
        <time>2012-10-07T08:43:57Z</time>
      </trkpt>
      <trkpt lat="47.29332" lon="4.93239">
        <ele>624</ele>
        <time>2012-10-07T08:44:01Z</time>
      </trkpt>
      <trkpt lat="47.29336" lon="4.93241">
        <ele>626</ele>
        <time>2012-10-07T08:44:05Z</time>
      </trkpt>
      <trkpt lat="47.29342" lon="4.93243">
        <ele>625</ele>
        <time>2012-10-07T08:44:09Z</time>
      </trkpt>
      <trkpt lat="47.29342" lon="4.93243">
        <ele>625</ele>
        <time>2012-10-07T08:44:09Z</time>
      </trkpt>
      <trkpt lat="47.29342" lon="4.93243">
        <ele>625</ele>
        <time>2012-10-07T08:44:10Z</time>
      </trkpt>
      <trkpt lat="47.29349" lon="4.93245">
        <ele>626</ele>
        <time>2012-10-07T08:44:13Z</time>
      </trkpt>
      <trkpt lat="47.29352" lon="4.9325">
        <ele>626</ele>
        <time>2012-10-07T08:44:16Z</time>
      </trkpt>
      <trkpt lat="47.29358" lon="4.93257">
        <ele>627</ele>
        <time>2012-10-07T08:44:20Z</time>
      </trkpt>
      <trkpt lat="47.29363" lon="4.93261">
        <ele>626</ele>
        <time>2012-10-07T08:44:27Z</time>
      </trkpt>
      <trkpt lat="47.2937" lon="4.93269">
        <ele>626</ele>
        <time>2012-10-07T08:44:33Z</time>
      </trkpt>
      <trkpt lat="47.29377" lon="4.93276">
        <ele>626</ele>
        <time>2012-10-07T08:44:35Z</time>
      </trkpt>
      <trkpt lat="47.29381" lon="4.93281">
        <ele>626</ele>
        <time>2012-10-07T08:44:37Z</time>
      </trkpt>
      <trkpt lat="47.29386" lon="4.93286">
        <ele>622</ele>
        <time>2012-10-07T08:44:40Z</time>
      </trkpt>
      <trkpt lat="47.2939" lon="4.93291">
        <ele>623</ele>
        <time>2012-10-07T08:44:42Z</time>
      </trkpt>
      <trkpt lat="47.29393" lon="4.93297">
        <ele>623</ele>
        <time>2012-10-07T08:44:44Z</time>
      </trkpt>
      <trkpt lat="47.29398" lon="4.93301">
        <ele>621</ele>
        <time>2012-10-07T08:44:48Z</time>
      </trkpt>
      <trkpt lat="47.29403" lon="4.93309">
        <ele>621</ele>
        <time>2012-10-07T08:44:51Z</time>
      </trkpt>
      <trkpt lat="47.29407" lon="4.93313">
        <ele>621</ele>
        <time>2012-10-07T08:44:54Z</time>
      </trkpt>
      <trkpt lat="47.29411" lon="4.93317">
        <ele>620</ele>
        <time>2012-10-07T08:44:58Z</time>
      </trkpt>
      <trkpt lat="47.29416" lon="4.93322">
        <ele>619</ele>
        <time>2012-10-07T08:45:01Z</time>
      </trkpt>
      <trkpt lat="47.29418" lon="4.93328">
        <ele>618</ele>
        <time>2012-10-07T08:45:04Z</time>
      </trkpt>
      <trkpt lat="47.29422" lon="4.93333">
        <ele>616</ele>
        <time>2012-10-07T08:45:06Z</time>
      </trkpt>
      <trkpt lat="47.29426" lon="4.93338">
        <ele>616</ele>
        <time>2012-10-07T08:45:13Z</time>
      </trkpt>
      <trkpt lat="47.29434" lon="4.93347">
        <ele>616</ele>
        <time>2012-10-07T08:45:20Z</time>
      </trkpt>
      <trkpt lat="47.2944" lon="4.93352">
        <ele>613</ele>
        <time>2012-10-07T08:45:23Z</time>
      </trkpt>
      <trkpt lat="47.29446" lon="4.93358">
        <ele>611</ele>
        <time>2012-10-07T08:45:25Z</time>
      </trkpt>
      <trkpt lat="47.29451" lon="4.93362">
        <ele>608</ele>
        <time>2012-10-07T08:45:28Z</time>
      </trkpt>
      <trkpt lat="47.29455" lon="4.93366">
        <ele>606</ele>
        <time>2012-10-07T08:45:30Z</time>
      </trkpt>
      <trkpt lat="47.29462" lon="4.93371">
        <ele>603</ele>
        <time>2012-10-07T08:45:33Z</time>
      </trkpt>
      <trkpt lat="47.29466" lon="4.93378">
        <ele>603</ele>
        <time>2012-10-07T08:45:36Z</time>
      </trkpt>
      <trkpt lat="47.29469" lon="4.93384">
        <ele>603</ele>
        <time>2012-10-07T08:45:39Z</time>
      </trkpt>
      <trkpt lat="47.29474" lon="4.9339">
        <ele>602</ele>
        <time>2012-10-07T08:45:42Z</time>
      </trkpt>
      <trkpt lat="47.29481" lon="4.93397">
        <ele>599</ele>
        <time>2012-10-07T08:45:45Z</time>
      </trkpt>
      <trkpt lat="47.29486" lon="4.93403">
        <ele>597</ele>
        <time>2012-10-07T08:45:47Z</time>
      </trkpt>
      <trkpt lat="47.29489" lon="4.9341">
        <ele>596</ele>
        <time>2012-10-07T08:45:50Z</time>
      </trkpt>
      <trkpt lat="47.29492" lon="4.93415">
        <ele>594</ele>
        <time>2012-10-07T08:45:53Z</time>
      </trkpt>
      <trkpt lat="47.29496" lon="4.93419">
        <ele>593</ele>
        <time>2012-10-07T08:45:57Z</time>
      </trkpt>
      <trkpt lat="47.29499" lon="4.93424">
        <ele>591</ele>
        <time>2012-10-07T08:46:00Z</time>
      </trkpt>
      <trkpt lat="47.29504" lon="4.93429">
        <ele>586</ele>
        <time>2012-10-07T08:46:03Z</time>
      </trkpt>
      <trkpt lat="47.29508" lon="4.93433">
        <ele>584</ele>
        <time>2012-10-07T08:46:05Z</time>
      </trkpt>
      <trkpt lat="47.29514" lon="4.93439">
        <ele>581</ele>
        <time>2012-10-07T08:46:06Z</time>
      </trkpt>
      <trkpt lat="47.2952" lon="4.93445">
        <ele>578</ele>
        <time>2012-10-07T08:46:08Z</time>
      </trkpt>
      <trkpt lat="47.29522" lon="4.93452">
        <ele>577</ele>
        <time>2012-10-07T08:46:11Z</time>
      </trkpt>
      <trkpt lat="47.29523" lon="4.93459">
        <ele>578</ele>
        <time>2012-10-07T08:46:14Z</time>
      </trkpt>
      <trkpt lat="47.29521" lon="4.93467">
        <ele>575</ele>
        <time>2012-10-07T08:46:16Z</time>
      </trkpt>
      <trkpt lat="47.29519" lon="4.93474">
        <ele>573</ele>
        <time>2012-10-07T08:46:18Z</time>
      </trkpt>
      <trkpt lat="47.29518" lon="4.93482">
        <ele>572</ele>
        <time>2012-10-07T08:46:21Z</time>
      </trkpt>
      <trkpt lat="47.29519" lon="4.93489">
        <ele>572</ele>
        <time>2012-10-07T08:46:23Z</time>
      </trkpt>
      <trkpt lat="47.29521" lon="4.93496">
        <ele>571</ele>
        <time>2012-10-07T08:46:26Z</time>
      </trkpt>
      <trkpt lat="47.29524" lon="4.93502">
        <ele>570</ele>
        <time>2012-10-07T08:46:29Z</time>
      </trkpt>
      <trkpt lat="47.29527" lon="4.93508">
        <ele>569</ele>
        <time>2012-10-07T08:46:32Z</time>
      </trkpt>
      <trkpt lat="47.29529" lon="4.93515">
        <ele>569</ele>
        <time>2012-10-07T08:46:34Z</time>
      </trkpt>
      <trkpt lat="47.2953" lon="4.93522">
        <ele>569</ele>
        <time>2012-10-07T08:46:36Z</time>
      </trkpt>
      <trkpt lat="47.29532" lon="4.93529">
        <ele>567</ele>
        <time>2012-10-07T08:46:38Z</time>
      </trkpt>
      <trkpt lat="47.29531" lon="4.93538">
        <ele>566</ele>
        <time>2012-10-07T08:46:40Z</time>
      </trkpt>
      <trkpt lat="47.29533" lon="4.93546">
        <ele>564</ele>
        <time>2012-10-07T08:46:42Z</time>
      </trkpt>
      <trkpt lat="47.29535" lon="4.93553">
        <ele>563</ele>
        <time>2012-10-07T08:46:44Z</time>
      </trkpt>
      <trkpt lat="47.29536" lon="4.93562">
        <ele>563</ele>
        <time>2012-10-07T08:46:46Z</time>
      </trkpt>
      <trkpt lat="47.29539" lon="4.93568">
        <ele>562</ele>
        <time>2012-10-07T08:46:48Z</time>
      </trkpt>
      <trkpt lat="47.2954" lon="4.93577">
        <ele>561</ele>
        <time>2012-10-07T08:46:51Z</time>
      </trkpt>
      <trkpt lat="47.29542" lon="4.93583">
        <ele>561</ele>
        <time>2012-10-07T08:46:53Z</time>
      </trkpt>
      <trkpt lat="47.29544" lon="4.9359">
        <ele>560</ele>
        <time>2012-10-07T08:46:55Z</time>
      </trkpt>
      <trkpt lat="47.29546" lon="4.93597">
        <ele>559</ele>
        <time>2012-10-07T08:46:57Z</time>
      </trkpt>
      <trkpt lat="47.29548" lon="4.93606">
        <ele>556</ele>
        <time>2012-10-07T08:47:00Z</time>
      </trkpt>
      <trkpt lat="47.2955" lon="4.93612">
        <ele>554</ele>
        <time>2012-10-07T08:47:02Z</time>
      </trkpt>
      <trkpt lat="47.29552" lon="4.93618">
        <ele>554</ele>
        <time>2012-10-07T08:47:04Z</time>
      </trkpt>
      <trkpt lat="47.29555" lon="4.93627">
        <ele>553</ele>
        <time>2012-10-07T08:47:07Z</time>
      </trkpt>
      <trkpt lat="47.29558" lon="4.93634">
        <ele>550</ele>
        <time>2012-10-07T08:47:10Z</time>
      </trkpt>
      <trkpt lat="47.29562" lon="4.9364">
        <ele>550</ele>
        <time>2012-10-07T08:47:13Z</time>
      </trkpt>
      <trkpt lat="47.29566" lon="4.93646">
        <ele>549</ele>
        <time>2012-10-07T08:47:15Z</time>
      </trkpt>
      <trkpt lat="47.2957" lon="4.9365">
        <ele>549</ele>
        <time>2012-10-07T08:47:17Z</time>
      </trkpt>
      <trkpt lat="47.29573" lon="4.93658">
        <ele>549</ele>
        <time>2012-10-07T08:47:20Z</time>
      </trkpt>
      <trkpt lat="47.29576" lon="4.93667">
        <ele>548</ele>
        <time>2012-10-07T08:47:23Z</time>
      </trkpt>
      <trkpt lat="47.2958" lon="4.93673">
        <ele>547</ele>
        <time>2012-10-07T08:47:26Z</time>
      </trkpt>
      <trkpt lat="47.29586" lon="4.93678">
        <ele>543</ele>
        <time>2012-10-07T08:47:29Z</time>
      </trkpt>
      <trkpt lat="47.29591" lon="4.93682">
        <ele>542</ele>
        <time>2012-10-07T08:47:32Z</time>
      </trkpt>
      <trkpt lat="47.29595" lon="4.9369">
        <ele>540</ele>
        <time>2012-10-07T08:47:36Z</time>
      </trkpt>
      <trkpt lat="47.296" lon="4.93692">
        <ele>540</ele>
        <time>2012-10-07T08:47:38Z</time>
      </trkpt>
      <trkpt lat="47.29604" lon="4.93699">
        <ele>540</ele>
        <time>2012-10-07T08:47:41Z</time>
      </trkpt>
      <trkpt lat="47.29607" lon="4.93705">
        <ele>541</ele>
        <time>2012-10-07T08:47:44Z</time>
      </trkpt>
      <trkpt lat="47.29613" lon="4.9371">
        <ele>542</ele>
        <time>2012-10-07T08:47:47Z</time>
      </trkpt>
      <trkpt lat="47.29615" lon="4.93716">
        <ele>541</ele>
        <time>2012-10-07T08:47:49Z</time>
      </trkpt>
      <trkpt lat="47.29618" lon="4.93725">
        <ele>540</ele>
        <time>2012-10-07T08:47:52Z</time>
      </trkpt>
      <trkpt lat="47.2962" lon="4.93734">
        <ele>536</ele>
        <time>2012-10-07T08:47:54Z</time>
      </trkpt>
      <trkpt lat="47.29622" lon="4.93739">
        <ele>534</ele>
        <time>2012-10-07T08:47:56Z</time>
      </trkpt>
      <trkpt lat="47.29623" lon="4.93748">
        <ele>533</ele>
        <time>2012-10-07T08:47:59Z</time>
      </trkpt>
      <trkpt lat="47.29622" lon="4.93757">
        <ele>531</ele>
        <time>2012-10-07T08:48:02Z</time>
      </trkpt>
      <trkpt lat="47.29621" lon="4.93764">
        <ele>531</ele>
        <time>2012-10-07T08:48:04Z</time>
      </trkpt>
      <trkpt lat="47.29617" lon="4.93772">
        <ele>531</ele>
        <time>2012-10-07T08:48:07Z</time>
      </trkpt>
      <trkpt lat="47.29615" lon="4.93779">
        <ele>530</ele>
        <time>2012-10-07T08:48:10Z</time>
      </trkpt>
      <trkpt lat="47.29613" lon="4.93787">
        <ele>529</ele>
        <time>2012-10-07T08:48:13Z</time>
      </trkpt>
      <trkpt lat="47.29611" lon="4.93793">
        <ele>529</ele>
        <time>2012-10-07T08:48:15Z</time>
      </trkpt>
      <trkpt lat="47.29611" lon="4.938">
        <ele>529</ele>
        <time>2012-10-07T08:48:18Z</time>
      </trkpt>
      <trkpt lat="47.29614" lon="4.93806">
        <ele>534</ele>
        <time>2012-10-07T08:48:26Z</time>
      </trkpt>
      <trkpt lat="47.2962" lon="4.93806">
        <ele>535</ele>
        <time>2012-10-07T08:48:30Z</time>
      </trkpt>
      <trkpt lat="47.29624" lon="4.93805">
        <ele>536</ele>
        <time>2012-10-07T08:48:33Z</time>
      </trkpt>
      <trkpt lat="47.29631" lon="4.93803">
        <ele>535</ele>
        <time>2012-10-07T08:48:36Z</time>
      </trkpt>
      <trkpt lat="47.29636" lon="4.93803">
        <ele>533</ele>
        <time>2012-10-07T08:48:39Z</time>
      </trkpt>
      <trkpt lat="47.29639" lon="4.93798">
        <ele>532</ele>
        <time>2012-10-07T08:48:42Z</time>
      </trkpt>
      <trkpt lat="47.29645" lon="4.93798">
        <ele>532</ele>
        <time>2012-10-07T08:48:47Z</time>
      </trkpt>
      <trkpt lat="47.2965" lon="4.93803">
        <ele>527</ele>
        <time>2012-10-07T08:48:50Z</time>
      </trkpt>
      <trkpt lat="47.29654" lon="4.93808">
        <ele>526</ele>
        <time>2012-10-07T08:51:37Z</time>
      </trkpt>
      <trkpt lat="47.29654" lon="4.93808">
        <ele>526</ele>
        <time>2012-10-07T08:51:37Z</time>
      </trkpt>
      <trkpt lat="47.29654" lon="4.93808">
        <ele>527</ele>
        <time>2012-10-07T08:51:42Z</time>
      </trkpt>
      <trkpt lat="47.2965" lon="4.93811">
        <ele>532</ele>
        <time>2012-10-07T08:55:52Z</time>
      </trkpt>
      <trkpt lat="47.2965" lon="4.93811">
        <ele>532</ele>
        <time>2012-10-07T08:55:52Z</time>
      </trkpt>
      <trkpt lat="47.2965" lon="4.93811">
        <ele>532</ele>
        <time>2012-10-07T08:55:56Z</time>
      </trkpt>
      <trkpt lat="47.29645" lon="4.93808">
        <ele>529</ele>
        <time>2012-10-07T08:56:24Z</time>
      </trkpt>
      <trkpt lat="47.29642" lon="4.93803">
        <ele>530</ele>
        <time>2012-10-07T08:56:31Z</time>
      </trkpt>
      <trkpt lat="47.29643" lon="4.93795">
        <ele>529</ele>
        <time>2012-10-07T08:56:38Z</time>
      </trkpt>
      <trkpt lat="47.29642" lon="4.93787">
        <ele>531</ele>
        <time>2012-10-07T08:56:43Z</time>
      </trkpt>
      <trkpt lat="47.2964" lon="4.93781">
        <ele>533</ele>
        <time>2012-10-07T08:56:49Z</time>
      </trkpt>
      <trkpt lat="47.29637" lon="4.93773">
        <ele>532</ele>
        <time>2012-10-07T08:56:53Z</time>
      </trkpt>
      <trkpt lat="47.29636" lon="4.93765">
        <ele>531</ele>
        <time>2012-10-07T08:56:58Z</time>
      </trkpt>
      <trkpt lat="47.29634" lon="4.93758">
        <ele>530</ele>
        <time>2012-10-07T08:57:02Z</time>
      </trkpt>
      <trkpt lat="47.29634" lon="4.9375">
        <ele>529</ele>
        <time>2012-10-07T08:57:05Z</time>
      </trkpt>
      <trkpt lat="47.29632" lon="4.93743">
        <ele>529</ele>
        <time>2012-10-07T08:57:08Z</time>
      </trkpt>
      <trkpt lat="47.29627" lon="4.93739">
        <ele>531</ele>
        <time>2012-10-07T08:57:15Z</time>
      </trkpt>
      <trkpt lat="47.2963" lon="4.93732">
        <ele>530</ele>
        <time>2012-10-07T08:57:18Z</time>
      </trkpt>
      <trkpt lat="47.29634" lon="4.93724">
        <ele>530</ele>
        <time>2012-10-07T08:57:20Z</time>
      </trkpt>
      <trkpt lat="47.29638" lon="4.93721">
        <ele>529</ele>
        <time>2012-10-07T08:57:24Z</time>
      </trkpt>
      <trkpt lat="47.2964" lon="4.93715">
        <ele>531</ele>
        <time>2012-10-07T08:57:29Z</time>
      </trkpt>
      <trkpt lat="47.29643" lon="4.93707">
        <ele>534</ele>
        <time>2012-10-07T08:57:32Z</time>
      </trkpt>
      <trkpt lat="47.2965" lon="4.93706">
        <ele>535</ele>
        <time>2012-10-07T08:57:35Z</time>
      </trkpt>
      <trkpt lat="47.29654" lon="4.93702">
        <ele>537</ele>
        <time>2012-10-07T08:57:41Z</time>
      </trkpt>
      <trkpt lat="47.29659" lon="4.93699">
        <ele>539</ele>
        <time>2012-10-07T08:57:45Z</time>
      </trkpt>
      <trkpt lat="47.29663" lon="4.93693">
        <ele>539</ele>
        <time>2012-10-07T08:57:48Z</time>
      </trkpt>
      <trkpt lat="47.29669" lon="4.93692">
        <ele>539</ele>
        <time>2012-10-07T08:57:51Z</time>
      </trkpt>
      <trkpt lat="47.29674" lon="4.93697">
        <ele>543</ele>
        <time>2012-10-07T08:57:57Z</time>
      </trkpt>
      <trkpt lat="47.29678" lon="4.93694">
        <ele>544</ele>
        <time>2012-10-07T08:58:00Z</time>
      </trkpt>
      <trkpt lat="47.29682" lon="4.9369">
        <ele>544</ele>
        <time>2012-10-07T08:58:03Z</time>
      </trkpt>
      <trkpt lat="47.29685" lon="4.93685">
        <ele>544</ele>
        <time>2012-10-07T08:58:07Z</time>
      </trkpt>
      <trkpt lat="47.29691" lon="4.93685">
        <ele>544</ele>
        <time>2012-10-07T08:58:09Z</time>
      </trkpt>
      <trkpt lat="47.29696" lon="4.93684">
        <ele>542</ele>
        <time>2012-10-07T08:58:12Z</time>
      </trkpt>
      <trkpt lat="47.29702" lon="4.93683">
        <ele>541</ele>
        <time>2012-10-07T08:58:16Z</time>
      </trkpt>
      <trkpt lat="47.29707" lon="4.93683">
        <ele>540</ele>
        <time>2012-10-07T08:58:19Z</time>
      </trkpt>
      <trkpt lat="47.29712" lon="4.93684">
        <ele>541</ele>
        <time>2012-10-07T08:58:22Z</time>
      </trkpt>
      <trkpt lat="47.29717" lon="4.93681">
        <ele>540</ele>
        <time>2012-10-07T08:58:25Z</time>
      </trkpt>
      <trkpt lat="47.29723" lon="4.9368">
        <ele>541</ele>
        <time>2012-10-07T08:58:30Z</time>
      </trkpt>
      <trkpt lat="47.29728" lon="4.93678">
        <ele>543</ele>
        <time>2012-10-07T08:58:34Z</time>
      </trkpt>
      <trkpt lat="47.29733" lon="4.93674">
        <ele>543</ele>
        <time>2012-10-07T08:58:38Z</time>
      </trkpt>
      <trkpt lat="47.29736" lon="4.9367">
        <ele>544</ele>
        <time>2012-10-07T08:58:43Z</time>
      </trkpt>
      <trkpt lat="47.29741" lon="4.93665">
        <ele>544</ele>
        <time>2012-10-07T08:58:48Z</time>
      </trkpt>
      <trkpt lat="47.29744" lon="4.93659">
        <ele>543</ele>
        <time>2012-10-07T08:58:51Z</time>
      </trkpt>
      <trkpt lat="47.2975" lon="4.93659">
        <ele>543</ele>
        <time>2012-10-07T08:58:54Z</time>
      </trkpt>
      <trkpt lat="47.29755" lon="4.93659">
        <ele>544</ele>
        <time>2012-10-07T08:58:55Z</time>
      </trkpt>
      <trkpt lat="47.2976" lon="4.93656">
        <ele>545</ele>
        <time>2012-10-07T08:58:59Z</time>
      </trkpt>
      <trkpt lat="47.29764" lon="4.93652">
        <ele>546</ele>
        <time>2012-10-07T08:59:03Z</time>
      </trkpt>
      <trkpt lat="47.2977" lon="4.93652">
        <ele>546</ele>
        <time>2012-10-07T08:59:06Z</time>
      </trkpt>
      <trkpt lat="47.29775" lon="4.93646">
        <ele>547</ele>
        <time>2012-10-07T08:59:09Z</time>
      </trkpt>
      <trkpt lat="47.2978" lon="4.93643">
        <ele>547</ele>
        <time>2012-10-07T08:59:11Z</time>
      </trkpt>
      <trkpt lat="47.29785" lon="4.93639">
        <ele>547</ele>
        <time>2012-10-07T08:59:14Z</time>
      </trkpt>
      <trkpt lat="47.29789" lon="4.93636">
        <ele>548</ele>
        <time>2012-10-07T08:59:17Z</time>
      </trkpt>
      <trkpt lat="47.29791" lon="4.9363">
        <ele>548</ele>
        <time>2012-10-07T08:59:20Z</time>
      </trkpt>
      <trkpt lat="47.29794" lon="4.93625">
        <ele>549</ele>
        <time>2012-10-07T08:59:23Z</time>
      </trkpt>
      <trkpt lat="47.298" lon="4.93619">
        <ele>551</ele>
        <time>2012-10-07T08:59:26Z</time>
      </trkpt>
      <trkpt lat="47.29801" lon="4.93611">
        <ele>549</ele>
        <time>2012-10-07T08:59:28Z</time>
      </trkpt>
      <trkpt lat="47.29803" lon="4.93604">
        <ele>548</ele>
        <time>2012-10-07T08:59:31Z</time>
      </trkpt>
      <trkpt lat="47.29806" lon="4.93598">
        <ele>547</ele>
        <time>2012-10-07T08:59:35Z</time>
      </trkpt>
      <trkpt lat="47.29808" lon="4.93591">
        <ele>546</ele>
        <time>2012-10-07T08:59:40Z</time>
      </trkpt>
      <trkpt lat="47.29812" lon="4.93586">
        <ele>547</ele>
        <time>2012-10-07T08:59:46Z</time>
      </trkpt>
      <trkpt lat="47.29815" lon="4.9358">
        <ele>547</ele>
        <time>2012-10-07T08:59:50Z</time>
      </trkpt>
      <trkpt lat="47.29819" lon="4.93573">
        <ele>547</ele>
        <time>2012-10-07T08:59:54Z</time>
      </trkpt>
      <trkpt lat="47.29817" lon="4.93567">
        <ele>548</ele>
        <time>2012-10-07T08:59:58Z</time>
      </trkpt>
      <trkpt lat="47.29821" lon="4.93563">
        <ele>549</ele>
        <time>2012-10-07T09:00:01Z</time>
      </trkpt>
      <trkpt lat="47.29824" lon="4.93558">
        <ele>552</ele>
        <time>2012-10-07T09:00:06Z</time>
      </trkpt>
      <trkpt lat="47.29827" lon="4.93553">
        <ele>553</ele>
        <time>2012-10-07T09:00:10Z</time>
      </trkpt>
      <trkpt lat="47.29832" lon="4.9355">
        <ele>553</ele>
        <time>2012-10-07T09:00:13Z</time>
      </trkpt>
      <trkpt lat="47.29838" lon="4.93547">
        <ele>553</ele>
        <time>2012-10-07T09:00:16Z</time>
      </trkpt>
      <trkpt lat="47.29844" lon="4.93542">
        <ele>553</ele>
        <time>2012-10-07T09:00:19Z</time>
      </trkpt>
      <trkpt lat="47.29848" lon="4.93537">
        <ele>553</ele>
        <time>2012-10-07T09:00:22Z</time>
      </trkpt>
      <trkpt lat="47.29852" lon="4.93533">
        <ele>552</ele>
        <time>2012-10-07T09:00:25Z</time>
      </trkpt>
      <trkpt lat="47.29856" lon="4.9353">
        <ele>553</ele>
        <time>2012-10-07T09:00:28Z</time>
      </trkpt>
      <trkpt lat="47.29861" lon="4.93525">
        <ele>554</ele>
        <time>2012-10-07T09:00:31Z</time>
      </trkpt>
      <trkpt lat="47.29867" lon="4.93523">
        <ele>555</ele>
        <time>2012-10-07T09:00:33Z</time>
      </trkpt>
      <trkpt lat="47.29871" lon="4.93519">
        <ele>559</ele>
        <time>2012-10-07T09:00:36Z</time>
      </trkpt>
      <trkpt lat="47.29875" lon="4.93515">
        <ele>560</ele>
        <time>2012-10-07T09:00:38Z</time>
      </trkpt>
      <trkpt lat="47.2988" lon="4.93515">
        <ele>561</ele>
        <time>2012-10-07T09:00:41Z</time>
      </trkpt>
      <trkpt lat="47.29885" lon="4.93512">
        <ele>561</ele>
        <time>2012-10-07T09:00:44Z</time>
      </trkpt>
      <trkpt lat="47.2989" lon="4.9351">
        <ele>561</ele>
        <time>2012-10-07T09:00:46Z</time>
      </trkpt>
      <trkpt lat="47.29894" lon="4.93507">
        <ele>562</ele>
        <time>2012-10-07T09:00:48Z</time>
      </trkpt>
      <trkpt lat="47.299" lon="4.93506">
        <ele>563</ele>
        <time>2012-10-07T09:00:50Z</time>
      </trkpt>
      <trkpt lat="47.29904" lon="4.93502">
        <ele>564</ele>
        <time>2012-10-07T09:00:52Z</time>
      </trkpt>
      <trkpt lat="47.29907" lon="4.93497">
        <ele>564</ele>
        <time>2012-10-07T09:00:55Z</time>
      </trkpt>
      <trkpt lat="47.29911" lon="4.93495">
        <ele>567</ele>
        <time>2012-10-07T09:00:58Z</time>
      </trkpt>
      <trkpt lat="47.29915" lon="4.93487">
        <ele>566</ele>
        <time>2012-10-07T09:01:03Z</time>
      </trkpt>
      <trkpt lat="47.29919" lon="4.93484">
        <ele>567</ele>
        <time>2012-10-07T09:01:05Z</time>
      </trkpt>
      <trkpt lat="47.29924" lon="4.93481">
        <ele>567</ele>
        <time>2012-10-07T09:01:07Z</time>
      </trkpt>
      <trkpt lat="47.29928" lon="4.93476">
        <ele>568</ele>
        <time>2012-10-07T09:01:10Z</time>
      </trkpt>
      <trkpt lat="47.29933" lon="4.93472">
        <ele>567</ele>
        <time>2012-10-07T09:01:14Z</time>
      </trkpt>
      <trkpt lat="47.29938" lon="4.93468">
        <ele>568</ele>
        <time>2012-10-07T09:01:17Z</time>
      </trkpt>
      <trkpt lat="47.29939" lon="4.9346">
        <ele>568</ele>
        <time>2012-10-07T09:01:20Z</time>
      </trkpt>
      <trkpt lat="47.29941" lon="4.93454">
        <ele>568</ele>
        <time>2012-10-07T09:01:24Z</time>
      </trkpt>
      <trkpt lat="47.29944" lon="4.93446">
        <ele>567</ele>
        <time>2012-10-07T09:01:27Z</time>
      </trkpt>
      <trkpt lat="47.29946" lon="4.93438">
        <ele>566</ele>
        <time>2012-10-07T09:01:31Z</time>
      </trkpt>
      <trkpt lat="47.29946" lon="4.93429">
        <ele>563</ele>
        <time>2012-10-07T09:01:35Z</time>
      </trkpt>
      <trkpt lat="47.2995" lon="4.9342">
        <ele>561</ele>
        <time>2012-10-07T09:01:38Z</time>
      </trkpt>
      <trkpt lat="47.29952" lon="4.93413">
        <ele>561</ele>
        <time>2012-10-07T09:01:42Z</time>
      </trkpt>
      <trkpt lat="47.29954" lon="4.93404">
        <ele>562</ele>
        <time>2012-10-07T09:01:45Z</time>
      </trkpt>
      <trkpt lat="47.29956" lon="4.93397">
        <ele>562</ele>
        <time>2012-10-07T09:01:48Z</time>
      </trkpt>
      <trkpt lat="47.29958" lon="4.93388">
        <ele>564</ele>
        <time>2012-10-07T09:01:51Z</time>
      </trkpt>
      <trkpt lat="47.2996" lon="4.93381">
        <ele>564</ele>
        <time>2012-10-07T09:01:54Z</time>
      </trkpt>
      <trkpt lat="47.29961" lon="4.93374">
        <ele>565</ele>
        <time>2012-10-07T09:01:59Z</time>
      </trkpt>
      <trkpt lat="47.29963" lon="4.93365">
        <ele>563</ele>
        <time>2012-10-07T09:02:02Z</time>
      </trkpt>
      <trkpt lat="47.29966" lon="4.93357">
        <ele>562</ele>
        <time>2012-10-07T09:02:05Z</time>
      </trkpt>
      <trkpt lat="47.2997" lon="4.9335">
        <ele>564</ele>
        <time>2012-10-07T09:02:08Z</time>
      </trkpt>
      <trkpt lat="47.29973" lon="4.93344">
        <ele>565</ele>
        <time>2012-10-07T09:02:11Z</time>
      </trkpt>
      <trkpt lat="47.29975" lon="4.93336">
        <ele>565</ele>
        <time>2012-10-07T09:02:15Z</time>
      </trkpt>
      <trkpt lat="47.29977" lon="4.9333">
        <ele>566</ele>
        <time>2012-10-07T09:02:19Z</time>
      </trkpt>
      <trkpt lat="47.29978" lon="4.93322">
        <ele>566</ele>
        <time>2012-10-07T09:02:21Z</time>
      </trkpt>
      <trkpt lat="47.29979" lon="4.93312">
        <ele>566</ele>
        <time>2012-10-07T09:02:23Z</time>
      </trkpt>
      <trkpt lat="47.29977" lon="4.93305">
        <ele>565</ele>
        <time>2012-10-07T09:02:26Z</time>
      </trkpt>
      <trkpt lat="47.29977" lon="4.93296">
        <ele>565</ele>
        <time>2012-10-07T09:02:29Z</time>
      </trkpt>
      <trkpt lat="47.29975" lon="4.9329">
        <ele>565</ele>
        <time>2012-10-07T09:02:32Z</time>
      </trkpt>
      <trkpt lat="47.29977" lon="4.93282">
        <ele>566</ele>
        <time>2012-10-07T09:02:35Z</time>
      </trkpt>
      <trkpt lat="47.29981" lon="4.93276">
        <ele>565</ele>
        <time>2012-10-07T09:02:37Z</time>
      </trkpt>
      <trkpt lat="47.29983" lon="4.93269">
        <ele>566</ele>
        <time>2012-10-07T09:02:40Z</time>
      </trkpt>
      <trkpt lat="47.29982" lon="4.9326">
        <ele>565</ele>
        <time>2012-10-07T09:02:43Z</time>
      </trkpt>
      <trkpt lat="47.29981" lon="4.93253">
        <ele>565</ele>
        <time>2012-10-07T09:02:46Z</time>
      </trkpt>
      <trkpt lat="47.29981" lon="4.93245">
        <ele>564</ele>
        <time>2012-10-07T09:02:49Z</time>
      </trkpt>
      <trkpt lat="47.29981" lon="4.93238">
        <ele>563</ele>
        <time>2012-10-07T09:02:52Z</time>
      </trkpt>
      <trkpt lat="47.29982" lon="4.93231">
        <ele>564</ele>
        <time>2012-10-07T09:02:56Z</time>
      </trkpt>
      <trkpt lat="47.29981" lon="4.93222">
        <ele>563</ele>
        <time>2012-10-07T09:02:59Z</time>
      </trkpt>
      <trkpt lat="47.29978" lon="4.93215">
        <ele>563</ele>
        <time>2012-10-07T09:03:03Z</time>
      </trkpt>
      <trkpt lat="47.2998" lon="4.93202">
        <ele>563</ele>
        <time>2012-10-07T09:03:08Z</time>
      </trkpt>
      <trkpt lat="47.29982" lon="4.93193">
        <ele>563</ele>
        <time>2012-10-07T09:03:10Z</time>
      </trkpt>
      <trkpt lat="47.29985" lon="4.93183">
        <ele>565</ele>
        <time>2012-10-07T09:03:13Z</time>
      </trkpt>
      <trkpt lat="47.29989" lon="4.93177">
        <ele>565</ele>
        <time>2012-10-07T09:03:15Z</time>
      </trkpt>
      <trkpt lat="47.29992" lon="4.93172">
        <ele>565</ele>
        <time>2012-10-07T09:03:17Z</time>
      </trkpt>
      <trkpt lat="47.29996" lon="4.93168">
        <ele>565</ele>
        <time>2012-10-07T09:03:20Z</time>
      </trkpt>
      <trkpt lat="47.29999" lon="4.93161">
        <ele>565</ele>
        <time>2012-10-07T09:03:23Z</time>
      </trkpt>
      <trkpt lat="47.3" lon="4.93151">
        <ele>565</ele>
        <time>2012-10-07T09:03:25Z</time>
      </trkpt>
      <trkpt lat="47.30002" lon="4.93145">
        <ele>566</ele>
        <time>2012-10-07T09:03:27Z</time>
      </trkpt>
      <trkpt lat="47.30004" lon="4.93138">
        <ele>566</ele>
        <time>2012-10-07T09:03:30Z</time>
      </trkpt>
      <trkpt lat="47.30006" lon="4.93132">
        <ele>566</ele>
        <time>2012-10-07T09:03:34Z</time>
      </trkpt>
      <trkpt lat="47.3001" lon="4.93124">
        <ele>566</ele>
        <time>2012-10-07T09:03:39Z</time>
      </trkpt>
      <trkpt lat="47.3001" lon="4.93114">
        <ele>567</ele>
        <time>2012-10-07T09:03:43Z</time>
      </trkpt>
      <trkpt lat="47.3001" lon="4.93106">
        <ele>565</ele>
        <time>2012-10-07T09:03:46Z</time>
      </trkpt>
      <trkpt lat="47.30013" lon="4.93098">
        <ele>562</ele>
        <time>2012-10-07T09:03:49Z</time>
      </trkpt>
      <trkpt lat="47.30013" lon="4.93091">
        <ele>563</ele>
        <time>2012-10-07T09:03:53Z</time>
      </trkpt>
      <trkpt lat="47.30014" lon="4.93084">
        <ele>563</ele>
        <time>2012-10-07T09:03:57Z</time>
      </trkpt>
      <trkpt lat="47.30014" lon="4.93084">
        <ele>563</ele>
        <time>2012-10-07T09:03:57Z</time>
      </trkpt>
      <trkpt lat="47.30014" lon="4.93084">
        <ele>563</ele>
        <time>2012-10-07T09:03:58Z</time>
      </trkpt>
      <trkpt lat="47.30018" lon="4.93076">
        <ele>565</ele>
        <time>2012-10-07T09:04:01Z</time>
      </trkpt>
      <trkpt lat="47.30019" lon="4.93068">
        <ele>563</ele>
        <time>2012-10-07T09:04:04Z</time>
      </trkpt>
      <trkpt lat="47.30024" lon="4.93063">
        <ele>562</ele>
        <time>2012-10-07T09:04:06Z</time>
      </trkpt>
      <trkpt lat="47.30028" lon="4.93058">
        <ele>565</ele>
        <time>2012-10-07T09:04:09Z</time>
      </trkpt>
      <trkpt lat="47.30034" lon="4.93054">
        <ele>565</ele>
        <time>2012-10-07T09:04:11Z</time>
      </trkpt>
      <trkpt lat="47.30038" lon="4.9305">
        <ele>567</ele>
        <time>2012-10-07T09:04:13Z</time>
      </trkpt>
      <trkpt lat="47.30039" lon="4.93043">
        <ele>566</ele>
        <time>2012-10-07T09:04:16Z</time>
      </trkpt>
      <trkpt lat="47.30047" lon="4.93038">
        <ele>566</ele>
        <time>2012-10-07T09:04:19Z</time>
      </trkpt>
      <trkpt lat="47.30049" lon="4.93032">
        <ele>566</ele>
        <time>2012-10-07T09:04:21Z</time>
      </trkpt>
      <trkpt lat="47.30052" lon="4.93025">
        <ele>566</ele>
        <time>2012-10-07T09:04:23Z</time>
      </trkpt>
      <trkpt lat="47.30056" lon="4.9302">
        <ele>568</ele>
        <time>2012-10-07T09:04:26Z</time>
      </trkpt>
      <trkpt lat="47.30055" lon="4.93011">
        <ele>567</ele>
        <time>2012-10-07T09:04:29Z</time>
      </trkpt>
      <trkpt lat="47.30058" lon="4.93006">
        <ele>566</ele>
        <time>2012-10-07T09:04:36Z</time>
      </trkpt>
      <trkpt lat="47.3006" lon="4.92999">
        <ele>565</ele>
        <time>2012-10-07T09:04:39Z</time>
      </trkpt>
      <trkpt lat="47.3006" lon="4.9299">
        <ele>563</ele>
        <time>2012-10-07T09:04:41Z</time>
      </trkpt>
      <trkpt lat="47.3006" lon="4.92979">
        <ele>562</ele>
        <time>2012-10-07T09:04:44Z</time>
      </trkpt>
      <trkpt lat="47.30062" lon="4.92972">
        <ele>561</ele>
        <time>2012-10-07T09:04:46Z</time>
      </trkpt>
      <trkpt lat="47.30063" lon="4.92964">
        <ele>562</ele>
        <time>2012-10-07T09:04:49Z</time>
      </trkpt>
      <trkpt lat="47.30066" lon="4.92957">
        <ele>562</ele>
        <time>2012-10-07T09:04:52Z</time>
      </trkpt>
      <trkpt lat="47.30066" lon="4.92949">
        <ele>559</ele>
        <time>2012-10-07T09:04:54Z</time>
      </trkpt>
      <trkpt lat="47.30066" lon="4.92942">
        <ele>557</ele>
        <time>2012-10-07T09:04:56Z</time>
      </trkpt>
      <trkpt lat="47.30068" lon="4.92935">
        <ele>558</ele>
        <time>2012-10-07T09:05:00Z</time>
      </trkpt>
      <trkpt lat="47.30068" lon="4.92925">
        <ele>559</ele>
        <time>2012-10-07T09:05:02Z</time>
      </trkpt>
      <trkpt lat="47.30065" lon="4.92916">
        <ele>558</ele>
        <time>2012-10-07T09:05:05Z</time>
      </trkpt>
      <trkpt lat="47.30064" lon="4.9291">
        <ele>558</ele>
        <time>2012-10-07T09:05:07Z</time>
      </trkpt>
      <trkpt lat="47.30065" lon="4.92901">
        <ele>557</ele>
        <time>2012-10-07T09:05:10Z</time>
      </trkpt>
      <trkpt lat="47.30064" lon="4.92892">
        <ele>554</ele>
        <time>2012-10-07T09:05:13Z</time>
      </trkpt>
      <trkpt lat="47.3006" lon="4.9289">
        <ele>555</ele>
        <time>2012-10-07T09:05:15Z</time>
      </trkpt>
      <trkpt lat="47.30055" lon="4.92882">
        <ele>555</ele>
        <time>2012-10-07T09:05:20Z</time>
      </trkpt>
      <trkpt lat="47.30053" lon="4.92874">
        <ele>553</ele>
        <time>2012-10-07T09:05:23Z</time>
      </trkpt>
      <trkpt lat="47.30054" lon="4.92866">
        <ele>552</ele>
        <time>2012-10-07T09:05:26Z</time>
      </trkpt>
      <trkpt lat="47.30054" lon="4.92858">
        <ele>551</ele>
        <time>2012-10-07T09:05:30Z</time>
      </trkpt>
      <trkpt lat="47.30054" lon="4.92848">
        <ele>551</ele>
        <time>2012-10-07T09:05:33Z</time>
      </trkpt>
      <trkpt lat="47.30057" lon="4.92841">
        <ele>552</ele>
        <time>2012-10-07T09:05:35Z</time>
      </trkpt>
      <trkpt lat="47.30057" lon="4.92834">
        <ele>553</ele>
        <time>2012-10-07T09:05:37Z</time>
      </trkpt>
      <trkpt lat="47.30057" lon="4.92824">
        <ele>553</ele>
        <time>2012-10-07T09:05:40Z</time>
      </trkpt>
      <trkpt lat="47.30056" lon="4.92816">
        <ele>555</ele>
        <time>2012-10-07T09:05:44Z</time>
      </trkpt>
      <trkpt lat="47.30055" lon="4.92809">
        <ele>554</ele>
        <time>2012-10-07T09:05:48Z</time>
      </trkpt>
      <trkpt lat="47.30052" lon="4.92801">
        <ele>555</ele>
        <time>2012-10-07T09:05:52Z</time>
      </trkpt>
      <trkpt lat="47.3005" lon="4.92794">
        <ele>554</ele>
        <time>2012-10-07T09:05:55Z</time>
      </trkpt>
      <trkpt lat="47.3005" lon="4.92784">
        <ele>553</ele>
        <time>2012-10-07T09:05:58Z</time>
      </trkpt>
      <trkpt lat="47.3005" lon="4.92776">
        <ele>553</ele>
        <time>2012-10-07T09:06:01Z</time>
      </trkpt>
      <trkpt lat="47.30047" lon="4.92769">
        <ele>553</ele>
        <time>2012-10-07T09:06:04Z</time>
      </trkpt>
      <trkpt lat="47.30043" lon="4.9276">
        <ele>551</ele>
        <time>2012-10-07T09:06:07Z</time>
      </trkpt>
      <trkpt lat="47.3004" lon="4.92754">
        <ele>549</ele>
        <time>2012-10-07T09:06:10Z</time>
      </trkpt>
      <trkpt lat="47.30037" lon="4.92747">
        <ele>549</ele>
        <time>2012-10-07T09:06:13Z</time>
      </trkpt>
      <trkpt lat="47.30032" lon="4.92743">
        <ele>549</ele>
        <time>2012-10-07T09:06:15Z</time>
      </trkpt>
      <trkpt lat="47.30028" lon="4.92738">
        <ele>549</ele>
        <time>2012-10-07T09:06:17Z</time>
      </trkpt>
      <trkpt lat="47.30027" lon="4.9273">
        <ele>548</ele>
        <time>2012-10-07T09:06:21Z</time>
      </trkpt>
      <trkpt lat="47.30025" lon="4.92724">
        <ele>548</ele>
        <time>2012-10-07T09:06:24Z</time>
      </trkpt>
      <trkpt lat="47.30023" lon="4.92718">
        <ele>547</ele>
        <time>2012-10-07T09:06:27Z</time>
      </trkpt>
      <trkpt lat="47.30021" lon="4.92711">
        <ele>546</ele>
        <time>2012-10-07T09:06:29Z</time>
      </trkpt>
      <trkpt lat="47.30021" lon="4.92703">
        <ele>546</ele>
        <time>2012-10-07T09:06:32Z</time>
      </trkpt>
      <trkpt lat="47.30019" lon="4.92695">
        <ele>546</ele>
        <time>2012-10-07T09:06:35Z</time>
      </trkpt>
      <trkpt lat="47.30017" lon="4.92688">
        <ele>545</ele>
        <time>2012-10-07T09:06:37Z</time>
      </trkpt>
      <trkpt lat="47.30014" lon="4.92683">
        <ele>546</ele>
        <time>2012-10-07T09:06:41Z</time>
      </trkpt>
      <trkpt lat="47.30016" lon="4.92674">
        <ele>546</ele>
        <time>2012-10-07T09:06:45Z</time>
      </trkpt>
      <trkpt lat="47.30016" lon="4.92666">
        <ele>546</ele>
        <time>2012-10-07T09:06:47Z</time>
      </trkpt>
      <trkpt lat="47.30018" lon="4.9266">
        <ele>548</ele>
        <time>2012-10-07T09:06:51Z</time>
      </trkpt>
      <trkpt lat="47.30018" lon="4.9266">
        <ele>548</ele>
        <time>2012-10-07T09:06:51Z</time>
      </trkpt>
      <trkpt lat="47.30018" lon="4.9266">
        <ele>548</ele>
        <time>2012-10-07T09:06:52Z</time>
      </trkpt>
      <trkpt lat="47.30023" lon="4.92656">
        <ele>550</ele>
        <time>2012-10-07T09:06:54Z</time>
      </trkpt>
      <trkpt lat="47.3003" lon="4.92652">
        <ele>551</ele>
        <time>2012-10-07T09:06:58Z</time>
      </trkpt>
      <trkpt lat="47.30036" lon="4.92649">
        <ele>547</ele>
        <time>2012-10-07T09:07:24Z</time>
      </trkpt>
      <trkpt lat="47.30042" lon="4.92647">
        <ele>548</ele>
        <time>2012-10-07T09:07:26Z</time>
      </trkpt>
      <trkpt lat="47.30048" lon="4.92644">
        <ele>550</ele>
        <time>2012-10-07T09:07:28Z</time>
      </trkpt>
      <trkpt lat="47.30053" lon="4.92641">
        <ele>550</ele>
        <time>2012-10-07T09:07:31Z</time>
      </trkpt>
      <trkpt lat="47.30057" lon="4.92638">
        <ele>550</ele>
        <time>2012-10-07T09:07:34Z</time>
      </trkpt>
      <trkpt lat="47.30062" lon="4.92634">
        <ele>549</ele>
        <time>2012-10-07T09:07:37Z</time>
      </trkpt>
      <trkpt lat="47.30068" lon="4.92633">
        <ele>547</ele>
        <time>2012-10-07T09:07:40Z</time>
      </trkpt>
      <trkpt lat="47.30074" lon="4.9263">
        <ele>546</ele>
        <time>2012-10-07T09:07:43Z</time>
      </trkpt>
      <trkpt lat="47.30079" lon="4.92634">
        <ele>543</ele>
        <time>2012-10-07T09:07:47Z</time>
      </trkpt>
      <trkpt lat="47.30086" lon="4.92633">
        <ele>543</ele>
        <time>2012-10-07T09:07:49Z</time>
      </trkpt>
      <trkpt lat="47.30091" lon="4.9263">
        <ele>543</ele>
        <time>2012-10-07T09:07:52Z</time>
      </trkpt>
      <trkpt lat="47.30095" lon="4.92626">
        <ele>541</ele>
        <time>2012-10-07T09:07:56Z</time>
      </trkpt>
      <trkpt lat="47.30096" lon="4.92619">
        <ele>540</ele>
        <time>2012-10-07T09:08:00Z</time>
      </trkpt>
      <trkpt lat="47.30101" lon="4.92619">
        <ele>536</ele>
        <time>2012-10-07T09:08:05Z</time>
      </trkpt>
      <trkpt lat="47.30113" lon="4.92621">
        <ele>534</ele>
        <time>2012-10-07T09:08:07Z</time>
      </trkpt>
      <trkpt lat="47.30124" lon="4.92622">
        <ele>533</ele>
        <time>2012-10-07T09:08:08Z</time>
      </trkpt>
      <trkpt lat="47.3013" lon="4.92621">
        <ele>532</ele>
        <time>2012-10-07T09:08:09Z</time>
      </trkpt>
      <trkpt lat="47.30134" lon="4.92618">
        <ele>530</ele>
        <time>2012-10-07T09:08:11Z</time>
      </trkpt>
      <trkpt lat="47.30136" lon="4.92611">
        <ele>529</ele>
        <time>2012-10-07T09:08:13Z</time>
      </trkpt>
      <trkpt lat="47.30135" lon="4.92603">
        <ele>527</ele>
        <time>2012-10-07T09:08:16Z</time>
      </trkpt>
      <trkpt lat="47.30133" lon="4.92596">
        <ele>524</ele>
        <time>2012-10-07T09:08:20Z</time>
      </trkpt>
      <trkpt lat="47.30135" lon="4.9259">
        <ele>523</ele>
        <time>2012-10-07T09:08:23Z</time>
      </trkpt>
      <trkpt lat="47.30138" lon="4.92585">
        <ele>522</ele>
        <time>2012-10-07T09:08:26Z</time>
      </trkpt>
      <trkpt lat="47.30145" lon="4.92586">
        <ele>521</ele>
        <time>2012-10-07T09:08:38Z</time>
      </trkpt>
      <trkpt lat="47.30151" lon="4.92586">
        <ele>519</ele>
        <time>2012-10-07T09:08:41Z</time>
      </trkpt>
      <trkpt lat="47.30156" lon="4.92587">
        <ele>519</ele>
        <time>2012-10-07T09:08:44Z</time>
      </trkpt>
      <trkpt lat="47.30161" lon="4.9259">
        <ele>519</ele>
        <time>2012-10-07T09:08:46Z</time>
      </trkpt>
      <trkpt lat="47.30167" lon="4.92595">
        <ele>521</ele>
        <time>2012-10-07T09:08:50Z</time>
      </trkpt>
      <trkpt lat="47.30172" lon="4.92592">
        <ele>520</ele>
        <time>2012-10-07T09:09:02Z</time>
      </trkpt>
      <trkpt lat="47.30176" lon="4.92595">
        <ele>520</ele>
        <time>2012-10-07T09:09:05Z</time>
      </trkpt>
      <trkpt lat="47.30184" lon="4.92596">
        <ele>522</ele>
        <time>2012-10-07T09:09:07Z</time>
      </trkpt>
      <trkpt lat="47.3019" lon="4.92597">
        <ele>521</ele>
        <time>2012-10-07T09:09:09Z</time>
      </trkpt>
      <trkpt lat="47.30196" lon="4.92598">
        <ele>521</ele>
        <time>2012-10-07T09:09:14Z</time>
      </trkpt>
      <trkpt lat="47.30205" lon="4.92599">
        <ele>520</ele>
        <time>2012-10-07T09:09:25Z</time>
      </trkpt>
      <trkpt lat="47.30214" lon="4.92601">
        <ele>524</ele>
        <time>2012-10-07T09:09:26Z</time>
      </trkpt>
      <trkpt lat="47.3022" lon="4.92599">
        <ele>525</ele>
        <time>2012-10-07T09:09:28Z</time>
      </trkpt>
      <trkpt lat="47.30226" lon="4.92596">
        <ele>525</ele>
        <time>2012-10-07T09:09:31Z</time>
      </trkpt>
      <trkpt lat="47.30231" lon="4.9259">
        <ele>525</ele>
        <time>2012-10-07T09:09:34Z</time>
      </trkpt>
      <trkpt lat="47.30235" lon="4.92585">
        <ele>524</ele>
        <time>2012-10-07T09:09:36Z</time>
      </trkpt>
      <trkpt lat="47.30239" lon="4.92581">
        <ele>524</ele>
        <time>2012-10-07T09:09:38Z</time>
      </trkpt>
      <trkpt lat="47.30245" lon="4.92587">
        <ele>520</ele>
        <time>2012-10-07T09:09:41Z</time>
      </trkpt>
      <trkpt lat="47.3025" lon="4.92592">
        <ele>517</ele>
        <time>2012-10-07T09:09:44Z</time>
      </trkpt>
      <trkpt lat="47.30256" lon="4.9259">
        <ele>514</ele>
        <time>2012-10-07T09:09:46Z</time>
      </trkpt>
      <trkpt lat="47.3026" lon="4.92586">
        <ele>511</ele>
        <time>2012-10-07T09:09:49Z</time>
      </trkpt>
      <trkpt lat="47.30263" lon="4.92581">
        <ele>510</ele>
        <time>2012-10-07T09:09:51Z</time>
      </trkpt>
      <trkpt lat="47.30268" lon="4.92577">
        <ele>507</ele>
        <time>2012-10-07T09:09:54Z</time>
      </trkpt>
      <trkpt lat="47.30272" lon="4.92572">
        <ele>507</ele>
        <time>2012-10-07T09:09:58Z</time>
      </trkpt>
      <trkpt lat="47.30277" lon="4.92567">
        <ele>505</ele>
        <time>2012-10-07T09:10:02Z</time>
      </trkpt>
      <trkpt lat="47.30282" lon="4.92562">
        <ele>504</ele>
        <time>2012-10-07T09:10:05Z</time>
      </trkpt>
      <trkpt lat="47.30285" lon="4.92558">
        <ele>504</ele>
        <time>2012-10-07T09:10:08Z</time>
      </trkpt>
      <trkpt lat="47.30289" lon="4.92554">
        <ele>504</ele>
        <time>2012-10-07T09:10:10Z</time>
      </trkpt>
      <trkpt lat="47.30294" lon="4.92549">
        <ele>504</ele>
        <time>2012-10-07T09:10:13Z</time>
      </trkpt>
      <trkpt lat="47.30298" lon="4.92542">
        <ele>502</ele>
        <time>2012-10-07T09:10:17Z</time>
      </trkpt>
      <trkpt lat="47.30302" lon="4.92538">
        <ele>500</ele>
        <time>2012-10-07T09:10:20Z</time>
      </trkpt>
      <trkpt lat="47.30306" lon="4.92534">
        <ele>500</ele>
        <time>2012-10-07T09:10:22Z</time>
      </trkpt>
      <trkpt lat="47.3031" lon="4.92528">
        <ele>499</ele>
        <time>2012-10-07T09:10:25Z</time>
      </trkpt>
      <trkpt lat="47.30314" lon="4.92524">
        <ele>498</ele>
        <time>2012-10-07T09:10:28Z</time>
      </trkpt>
      <trkpt lat="47.30318" lon="4.92518">
        <ele>496</ele>
        <time>2012-10-07T09:10:31Z</time>
      </trkpt>
      <trkpt lat="47.30321" lon="4.92513">
        <ele>495</ele>
        <time>2012-10-07T09:10:34Z</time>
      </trkpt>
      <trkpt lat="47.30327" lon="4.92507">
        <ele>496</ele>
        <time>2012-10-07T09:10:37Z</time>
      </trkpt>
      <trkpt lat="47.3033" lon="4.925">
        <ele>496</ele>
        <time>2012-10-07T09:10:40Z</time>
      </trkpt>
      <trkpt lat="47.30334" lon="4.92494">
        <ele>496</ele>
        <time>2012-10-07T09:10:43Z</time>
      </trkpt>
      <trkpt lat="47.30338" lon="4.92488">
        <ele>496</ele>
        <time>2012-10-07T09:10:46Z</time>
      </trkpt>
      <trkpt lat="47.30341" lon="4.92482">
        <ele>495</ele>
        <time>2012-10-07T09:10:49Z</time>
      </trkpt>
      <trkpt lat="47.30344" lon="4.92476">
        <ele>494</ele>
        <time>2012-10-07T09:10:53Z</time>
      </trkpt>
      <trkpt lat="47.30348" lon="4.92471">
        <ele>495</ele>
        <time>2012-10-07T09:10:55Z</time>
      </trkpt>
      <trkpt lat="47.30352" lon="4.92465">
        <ele>493</ele>
        <time>2012-10-07T09:10:58Z</time>
      </trkpt>
      <trkpt lat="47.30355" lon="4.92457">
        <ele>492</ele>
        <time>2012-10-07T09:11:01Z</time>
      </trkpt>
      <trkpt lat="47.30358" lon="4.9245">
        <ele>490</ele>
        <time>2012-10-07T09:11:04Z</time>
      </trkpt>
      <trkpt lat="47.3036" lon="4.92443">
        <ele>489</ele>
        <time>2012-10-07T09:11:06Z</time>
      </trkpt>
      <trkpt lat="47.30364" lon="4.92437">
        <ele>488</ele>
        <time>2012-10-07T09:11:09Z</time>
      </trkpt>
      <trkpt lat="47.30364" lon="4.92429">
        <ele>492</ele>
        <time>2012-10-07T09:11:16Z</time>
      </trkpt>
      <trkpt lat="47.30366" lon="4.92424">
        <ele>492</ele>
        <time>2012-10-07T09:11:20Z</time>
      </trkpt>
      <trkpt lat="47.30365" lon="4.92415">
        <ele>496</ele>
        <time>2012-10-07T09:11:25Z</time>
      </trkpt>
      <trkpt lat="47.30366" lon="4.92406">
        <ele>498</ele>
        <time>2012-10-07T09:11:29Z</time>
      </trkpt>
      <trkpt lat="47.30367" lon="4.92399">
        <ele>498</ele>
        <time>2012-10-07T09:11:32Z</time>
      </trkpt>
      <trkpt lat="47.30368" lon="4.9239">
        <ele>498</ele>
        <time>2012-10-07T09:11:37Z</time>
      </trkpt>
      <trkpt lat="47.3037" lon="4.92383">
        <ele>498</ele>
        <time>2012-10-07T09:11:39Z</time>
      </trkpt>
      <trkpt lat="47.30373" lon="4.92378">
        <ele>495</ele>
        <time>2012-10-07T09:11:41Z</time>
      </trkpt>
      <trkpt lat="47.30376" lon="4.92371">
        <ele>494</ele>
        <time>2012-10-07T09:11:43Z</time>
      </trkpt>
      <trkpt lat="47.30381" lon="4.92364">
        <ele>492</ele>
        <time>2012-10-07T09:11:45Z</time>
      </trkpt>
      <trkpt lat="47.30386" lon="4.92359">
        <ele>490</ele>
        <time>2012-10-07T09:11:47Z</time>
      </trkpt>
      <trkpt lat="47.30388" lon="4.92352">
        <ele>489</ele>
        <time>2012-10-07T09:11:52Z</time>
      </trkpt>
      <trkpt lat="47.30389" lon="4.92344">
        <ele>488</ele>
        <time>2012-10-07T09:11:56Z</time>
      </trkpt>
      <trkpt lat="47.3039" lon="4.92337">
        <ele>489</ele>
        <time>2012-10-07T09:11:58Z</time>
      </trkpt>
      <trkpt lat="47.30394" lon="4.92328">
        <ele>488</ele>
        <time>2012-10-07T09:12:01Z</time>
      </trkpt>
      <trkpt lat="47.30397" lon="4.92323">
        <ele>486</ele>
        <time>2012-10-07T09:12:03Z</time>
      </trkpt>
      <trkpt lat="47.30399" lon="4.92316">
        <ele>486</ele>
        <time>2012-10-07T09:12:06Z</time>
      </trkpt>
      <trkpt lat="47.30401" lon="4.9231">
        <ele>486</ele>
        <time>2012-10-07T09:12:09Z</time>
      </trkpt>
      <trkpt lat="47.30404" lon="4.92301">
        <ele>486</ele>
        <time>2012-10-07T09:12:12Z</time>
      </trkpt>
      <trkpt lat="47.30408" lon="4.92293">
        <ele>485</ele>
        <time>2012-10-07T09:12:14Z</time>
      </trkpt>
      <trkpt lat="47.30414" lon="4.92289">
        <ele>485</ele>
        <time>2012-10-07T09:12:17Z</time>
      </trkpt>
      <trkpt lat="47.30418" lon="4.92286">
        <ele>484</ele>
        <time>2012-10-07T09:12:20Z</time>
      </trkpt>
      <trkpt lat="47.30424" lon="4.92287">
        <ele>483</ele>
        <time>2012-10-07T09:12:24Z</time>
      </trkpt>
      <trkpt lat="47.30431" lon="4.92289">
        <ele>483</ele>
        <time>2012-10-07T09:12:28Z</time>
      </trkpt>
      <trkpt lat="47.30435" lon="4.92294">
        <ele>484</ele>
        <time>2012-10-07T09:12:33Z</time>
      </trkpt>
      <trkpt lat="47.3044" lon="4.92296">
        <ele>482</ele>
        <time>2012-10-07T09:12:35Z</time>
      </trkpt>
      <trkpt lat="47.30445" lon="4.923">
        <ele>482</ele>
        <time>2012-10-07T09:12:37Z</time>
      </trkpt>
      <trkpt lat="47.30449" lon="4.92303">
        <ele>482</ele>
        <time>2012-10-07T09:12:41Z</time>
      </trkpt>
      <trkpt lat="47.30454" lon="4.92309">
        <ele>483</ele>
        <time>2012-10-07T09:12:44Z</time>
      </trkpt>
      <trkpt lat="47.30459" lon="4.92312">
        <ele>482</ele>
        <time>2012-10-07T09:12:47Z</time>
      </trkpt>
      <trkpt lat="47.30464" lon="4.92316">
        <ele>482</ele>
        <time>2012-10-07T09:12:51Z</time>
      </trkpt>
      <trkpt lat="47.30471" lon="4.92321">
        <ele>483</ele>
        <time>2012-10-07T09:12:54Z</time>
      </trkpt>
      <trkpt lat="47.30475" lon="4.92324">
        <ele>482</ele>
        <time>2012-10-07T09:12:57Z</time>
      </trkpt>
      <trkpt lat="47.30481" lon="4.92325">
        <ele>482</ele>
        <time>2012-10-07T09:13:00Z</time>
      </trkpt>
      <trkpt lat="47.30485" lon="4.9233">
        <ele>479</ele>
        <time>2012-10-07T09:13:02Z</time>
      </trkpt>
      <trkpt lat="47.30489" lon="4.92335">
        <ele>478</ele>
        <time>2012-10-07T09:13:04Z</time>
      </trkpt>
      <trkpt lat="47.30493" lon="4.92338">
        <ele>480</ele>
        <time>2012-10-07T09:13:10Z</time>
      </trkpt>
      <trkpt lat="47.30497" lon="4.92344">
        <ele>482</ele>
        <time>2012-10-07T09:13:14Z</time>
      </trkpt>
      <trkpt lat="47.30501" lon="4.9235">
        <ele>482</ele>
        <time>2012-10-07T09:13:18Z</time>
      </trkpt>
      <trkpt lat="47.30506" lon="4.92354">
        <ele>480</ele>
        <time>2012-10-07T09:13:21Z</time>
      </trkpt>
      <trkpt lat="47.3051" lon="4.9236">
        <ele>480</ele>
        <time>2012-10-07T09:13:24Z</time>
      </trkpt>
      <trkpt lat="47.30518" lon="4.92364">
        <ele>478</ele>
        <time>2012-10-07T09:13:27Z</time>
      </trkpt>
      <trkpt lat="47.30522" lon="4.92367">
        <ele>476</ele>
        <time>2012-10-07T09:13:29Z</time>
      </trkpt>
      <trkpt lat="47.30525" lon="4.92372">
        <ele>477</ele>
        <time>2012-10-07T09:13:32Z</time>
      </trkpt>
      <trkpt lat="47.30526" lon="4.9238">
        <ele>478</ele>
        <time>2012-10-07T09:13:36Z</time>
      </trkpt>
      <trkpt lat="47.3053" lon="4.92384">
        <ele>479</ele>
        <time>2012-10-07T09:13:39Z</time>
      </trkpt>
      <trkpt lat="47.30538" lon="4.92391">
        <ele>478</ele>
        <time>2012-10-07T09:13:43Z</time>
      </trkpt>
      <trkpt lat="47.30541" lon="4.92397">
        <ele>476</ele>
        <time>2012-10-07T09:13:46Z</time>
      </trkpt>
      <trkpt lat="47.30544" lon="4.92402">
        <ele>478</ele>
        <time>2012-10-07T09:13:49Z</time>
      </trkpt>
      <trkpt lat="47.30548" lon="4.92408">
        <ele>480</ele>
        <time>2012-10-07T09:13:52Z</time>
      </trkpt>
      <trkpt lat="47.30551" lon="4.92414">
        <ele>481</ele>
        <time>2012-10-07T09:13:56Z</time>
      </trkpt>
      <trkpt lat="47.30554" lon="4.9242">
        <ele>480</ele>
        <time>2012-10-07T09:13:59Z</time>
      </trkpt>
      <trkpt lat="47.30557" lon="4.92428">
        <ele>479</ele>
        <time>2012-10-07T09:14:02Z</time>
      </trkpt>
      <trkpt lat="47.3056" lon="4.92436">
        <ele>481</ele>
        <time>2012-10-07T09:14:06Z</time>
      </trkpt>
      <trkpt lat="47.30565" lon="4.9244">
        <ele>478</ele>
        <time>2012-10-07T09:14:07Z</time>
      </trkpt>
      <trkpt lat="47.30568" lon="4.92446">
        <ele>475</ele>
        <time>2012-10-07T09:14:10Z</time>
      </trkpt>
      <trkpt lat="47.30571" lon="4.92452">
        <ele>475</ele>
        <time>2012-10-07T09:14:12Z</time>
      </trkpt>
      <trkpt lat="47.30572" lon="4.92459">
        <ele>474</ele>
        <time>2012-10-07T09:14:16Z</time>
      </trkpt>
      <trkpt lat="47.30576" lon="4.92466">
        <ele>475</ele>
        <time>2012-10-07T09:14:20Z</time>
      </trkpt>
      <trkpt lat="47.30578" lon="4.92472">
        <ele>475</ele>
        <time>2012-10-07T09:14:23Z</time>
      </trkpt>
      <trkpt lat="47.30582" lon="4.92479">
        <ele>476</ele>
        <time>2012-10-07T09:14:26Z</time>
      </trkpt>
      <trkpt lat="47.30585" lon="4.92487">
        <ele>475</ele>
        <time>2012-10-07T09:14:30Z</time>
      </trkpt>
      <trkpt lat="47.30588" lon="4.92493">
        <ele>474</ele>
        <time>2012-10-07T09:14:32Z</time>
      </trkpt>
      <trkpt lat="47.30592" lon="4.92498">
        <ele>473</ele>
        <time>2012-10-07T09:14:35Z</time>
      </trkpt>
      <trkpt lat="47.30595" lon="4.92503">
        <ele>472</ele>
        <time>2012-10-07T09:14:37Z</time>
      </trkpt>
      <trkpt lat="47.306" lon="4.92508">
        <ele>471</ele>
        <time>2012-10-07T09:14:40Z</time>
      </trkpt>
      <trkpt lat="47.30605" lon="4.92512">
        <ele>473</ele>
        <time>2012-10-07T09:14:45Z</time>
      </trkpt>
      <trkpt lat="47.30607" lon="4.92519">
        <ele>476</ele>
        <time>2012-10-07T09:14:49Z</time>
      </trkpt>
      <trkpt lat="47.3061" lon="4.92524">
        <ele>476</ele>
        <time>2012-10-07T09:14:52Z</time>
      </trkpt>
      <trkpt lat="47.30615" lon="4.92529">
        <ele>475</ele>
        <time>2012-10-07T09:14:56Z</time>
      </trkpt>
      <trkpt lat="47.30619" lon="4.92532">
        <ele>473</ele>
        <time>2012-10-07T09:14:59Z</time>
      </trkpt>
      <trkpt lat="47.30623" lon="4.92536">
        <ele>471</ele>
        <time>2012-10-07T09:15:01Z</time>
      </trkpt>
      <trkpt lat="47.30627" lon="4.92542">
        <ele>471</ele>
        <time>2012-10-07T09:15:02Z</time>
      </trkpt>
      <trkpt lat="47.30631" lon="4.92546">
        <ele>471</ele>
        <time>2012-10-07T09:15:04Z</time>
      </trkpt>
      <trkpt lat="47.30634" lon="4.92551">
        <ele>471</ele>
        <time>2012-10-07T09:15:07Z</time>
      </trkpt>
      <trkpt lat="47.30634" lon="4.92559">
        <ele>474</ele>
        <time>2012-10-07T09:15:12Z</time>
      </trkpt>
      <trkpt lat="47.30638" lon="4.92563">
        <ele>473</ele>
        <time>2012-10-07T09:15:17Z</time>
      </trkpt>
      <trkpt lat="47.30643" lon="4.92571">
        <ele>472</ele>
        <time>2012-10-07T09:15:20Z</time>
      </trkpt>
      <trkpt lat="47.30646" lon="4.9258">
        <ele>470</ele>
        <time>2012-10-07T09:15:23Z</time>
      </trkpt>
      <trkpt lat="47.30652" lon="4.92587">
        <ele>468</ele>
        <time>2012-10-07T09:15:25Z</time>
      </trkpt>
      <trkpt lat="47.30658" lon="4.92592">
        <ele>465</ele>
        <time>2012-10-07T09:15:27Z</time>
      </trkpt>
      <trkpt lat="47.30661" lon="4.92599">
        <ele>464</ele>
        <time>2012-10-07T09:15:29Z</time>
      </trkpt>
      <trkpt lat="47.30664" lon="4.92607">
        <ele>462</ele>
        <time>2012-10-07T09:15:32Z</time>
      </trkpt>
      <trkpt lat="47.30667" lon="4.92612">
        <ele>461</ele>
        <time>2012-10-07T09:15:34Z</time>
      </trkpt>
      <trkpt lat="47.30672" lon="4.92619">
        <ele>460</ele>
        <time>2012-10-07T09:15:37Z</time>
      </trkpt>
      <trkpt lat="47.30676" lon="4.92625">
        <ele>459</ele>
        <time>2012-10-07T09:15:39Z</time>
      </trkpt>
      <trkpt lat="47.30679" lon="4.92631">
        <ele>459</ele>
        <time>2012-10-07T09:15:41Z</time>
      </trkpt>
      <trkpt lat="47.30683" lon="4.92636">
        <ele>459</ele>
        <time>2012-10-07T09:15:44Z</time>
      </trkpt>
      <trkpt lat="47.30688" lon="4.92642">
        <ele>456</ele>
        <time>2012-10-07T09:15:47Z</time>
      </trkpt>
      <trkpt lat="47.30692" lon="4.92647">
        <ele>454</ele>
        <time>2012-10-07T09:15:49Z</time>
      </trkpt>
      <trkpt lat="47.30696" lon="4.92651">
        <ele>452</ele>
        <time>2012-10-07T09:15:52Z</time>
      </trkpt>
      <trkpt lat="47.30698" lon="4.92659">
        <ele>451</ele>
        <time>2012-10-07T09:15:56Z</time>
      </trkpt>
      <trkpt lat="47.307" lon="4.92667">
        <ele>451</ele>
        <time>2012-10-07T09:15:59Z</time>
      </trkpt>
      <trkpt lat="47.30699" lon="4.92677">
        <ele>449</ele>
        <time>2012-10-07T09:16:02Z</time>
      </trkpt>
      <trkpt lat="47.30699" lon="4.92684">
        <ele>445</ele>
        <time>2012-10-07T09:16:04Z</time>
      </trkpt>
      <trkpt lat="47.30705" lon="4.92683">
        <ele>445</ele>
        <time>2012-10-07T09:16:08Z</time>
      </trkpt>
      <trkpt lat="47.3071" lon="4.92677">
        <ele>445</ele>
        <time>2012-10-07T09:16:12Z</time>
      </trkpt>
      <trkpt lat="47.30712" lon="4.92669">
        <ele>445</ele>
        <time>2012-10-07T09:16:15Z</time>
      </trkpt>
      <trkpt lat="47.30716" lon="4.92662">
        <ele>445</ele>
        <time>2012-10-07T09:16:18Z</time>
      </trkpt>
      <trkpt lat="47.30721" lon="4.9266">
        <ele>447</ele>
        <time>2012-10-07T09:16:21Z</time>
      </trkpt>
      <trkpt lat="47.30726" lon="4.92658">
        <ele>447</ele>
        <time>2012-10-07T09:16:23Z</time>
      </trkpt>
      <trkpt lat="47.30731" lon="4.92654">
        <ele>448</ele>
        <time>2012-10-07T09:16:26Z</time>
      </trkpt>
      <trkpt lat="47.30734" lon="4.92649">
        <ele>448</ele>
        <time>2012-10-07T09:16:29Z</time>
      </trkpt>
      <trkpt lat="47.3074" lon="4.92648">
        <ele>450</ele>
        <time>2012-10-07T09:16:33Z</time>
      </trkpt>
      <trkpt lat="47.30746" lon="4.92645">
        <ele>450</ele>
        <time>2012-10-07T09:16:36Z</time>
      </trkpt>
      <trkpt lat="47.3075" lon="4.92643">
        <ele>452</ele>
        <time>2012-10-07T09:16:38Z</time>
      </trkpt>
      <trkpt lat="47.30755" lon="4.92639">
        <ele>451</ele>
        <time>2012-10-07T09:16:41Z</time>
      </trkpt>
      <trkpt lat="47.30758" lon="4.92632">
        <ele>451</ele>
        <time>2012-10-07T09:16:44Z</time>
      </trkpt>
      <trkpt lat="47.30764" lon="4.92627">
        <ele>450</ele>
        <time>2012-10-07T09:16:47Z</time>
      </trkpt>
      <trkpt lat="47.30768" lon="4.92623">
        <ele>449</ele>
        <time>2012-10-07T09:16:49Z</time>
      </trkpt>
      <trkpt lat="47.30774" lon="4.9262">
        <ele>451</ele>
        <time>2012-10-07T09:16:52Z</time>
      </trkpt>
      <trkpt lat="47.30779" lon="4.92614">
        <ele>451</ele>
        <time>2012-10-07T09:16:58Z</time>
      </trkpt>
      <trkpt lat="47.30783" lon="4.92611">
        <ele>450</ele>
        <time>2012-10-07T09:17:00Z</time>
      </trkpt>
      <trkpt lat="47.30788" lon="4.9261">
        <ele>450</ele>
        <time>2012-10-07T09:17:02Z</time>
      </trkpt>
      <trkpt lat="47.30792" lon="4.92608">
        <ele>449</ele>
        <time>2012-10-07T09:17:04Z</time>
      </trkpt>
      <trkpt lat="47.30796" lon="4.926">
        <ele>449</ele>
        <time>2012-10-07T09:17:07Z</time>
      </trkpt>
      <trkpt lat="47.30803" lon="4.92596">
        <ele>447</ele>
        <time>2012-10-07T09:17:10Z</time>
      </trkpt>
      <trkpt lat="47.30809" lon="4.92594">
        <ele>446</ele>
        <time>2012-10-07T09:17:14Z</time>
      </trkpt>
      <trkpt lat="47.30814" lon="4.9259">
        <ele>445</ele>
        <time>2012-10-07T09:17:17Z</time>
      </trkpt>
      <trkpt lat="47.30819" lon="4.92588">
        <ele>443</ele>
        <time>2012-10-07T09:17:20Z</time>
      </trkpt>
      <trkpt lat="47.30824" lon="4.92584">
        <ele>443</ele>
        <time>2012-10-07T09:17:24Z</time>
      </trkpt>
      <trkpt lat="47.30829" lon="4.9258">
        <ele>442</ele>
        <time>2012-10-07T09:17:26Z</time>
      </trkpt>
      <trkpt lat="47.30834" lon="4.92578">
        <ele>441</ele>
        <time>2012-10-07T09:17:31Z</time>
      </trkpt>
      <trkpt lat="47.3084" lon="4.92577">
        <ele>441</ele>
        <time>2012-10-07T09:17:33Z</time>
      </trkpt>
      <trkpt lat="47.30844" lon="4.92573">
        <ele>441</ele>
        <time>2012-10-07T09:17:36Z</time>
      </trkpt>
      <trkpt lat="47.30846" lon="4.92565">
        <ele>439</ele>
        <time>2012-10-07T09:17:40Z</time>
      </trkpt>
      <trkpt lat="47.30851" lon="4.92561">
        <ele>439</ele>
        <time>2012-10-07T09:17:47Z</time>
      </trkpt>
      <trkpt lat="47.30856" lon="4.92558">
        <ele>438</ele>
        <time>2012-10-07T09:17:49Z</time>
      </trkpt>
      <trkpt lat="47.30859" lon="4.92553">
        <ele>436</ele>
        <time>2012-10-07T09:17:52Z</time>
      </trkpt>
      <trkpt lat="47.30865" lon="4.92547">
        <ele>431</ele>
        <time>2012-10-07T09:17:53Z</time>
      </trkpt>
      <trkpt lat="47.30872" lon="4.92542">
        <ele>428</ele>
        <time>2012-10-07T09:17:55Z</time>
      </trkpt>
      <trkpt lat="47.30876" lon="4.9254">
        <ele>428</ele>
        <time>2012-10-07T09:17:56Z</time>
      </trkpt>
      <trkpt lat="47.30882" lon="4.92537">
        <ele>426</ele>
        <time>2012-10-07T09:17:58Z</time>
      </trkpt>
      <trkpt lat="47.30888" lon="4.92537">
        <ele>422</ele>
        <time>2012-10-07T09:18:01Z</time>
      </trkpt>
      <trkpt lat="47.30888" lon="4.92537">
        <ele>422</ele>
        <time>2012-10-07T09:18:01Z</time>
      </trkpt>
      <trkpt lat="47.30888" lon="4.92537">
        <ele>422</ele>
        <time>2012-10-07T09:18:02Z</time>
      </trkpt>
      <trkpt lat="47.30892" lon="4.92537">
        <ele>420</ele>
        <time>2012-10-07T09:18:05Z</time>
      </trkpt>
      <trkpt lat="47.30897" lon="4.92533">
        <ele>416</ele>
        <time>2012-10-07T09:18:08Z</time>
      </trkpt>
      <trkpt lat="47.30901" lon="4.92535">
        <ele>414</ele>
        <time>2012-10-07T09:18:11Z</time>
      </trkpt>
      <trkpt lat="47.30904" lon="4.92541">
        <ele>415</ele>
        <time>2012-10-07T09:18:14Z</time>
      </trkpt>
      <trkpt lat="47.30905" lon="4.92549">
        <ele>416</ele>
        <time>2012-10-07T09:18:17Z</time>
      </trkpt>
      <trkpt lat="47.30908" lon="4.92554">
        <ele>417</ele>
        <time>2012-10-07T09:18:20Z</time>
      </trkpt>
      <trkpt lat="47.3091" lon="4.92561">
        <ele>418</ele>
        <time>2012-10-07T09:18:25Z</time>
      </trkpt>
      <trkpt lat="47.3091" lon="4.92561">
        <ele>418</ele>
        <time>2012-10-07T09:18:25Z</time>
      </trkpt>
      <trkpt lat="47.3091" lon="4.92561">
        <ele>418</ele>
        <time>2012-10-07T09:18:26Z</time>
      </trkpt>
      <trkpt lat="47.30912" lon="4.92567">
        <ele>419</ele>
        <time>2012-10-07T09:18:29Z</time>
      </trkpt>
      <trkpt lat="47.30914" lon="4.92572">
        <ele>419</ele>
        <time>2012-10-07T09:18:33Z</time>
      </trkpt>
      <trkpt lat="47.30916" lon="4.92578">
        <ele>420</ele>
        <time>2012-10-07T09:18:35Z</time>
      </trkpt>
      <trkpt lat="47.30918" lon="4.92585">
        <ele>420</ele>
        <time>2012-10-07T09:18:38Z</time>
      </trkpt>
      <trkpt lat="47.3092" lon="4.92592">
        <ele>419</ele>
        <time>2012-10-07T09:18:41Z</time>
      </trkpt>
      <trkpt lat="47.30926" lon="4.92599">
        <ele>418</ele>
        <time>2012-10-07T09:18:44Z</time>
      </trkpt>
      <trkpt lat="47.30929" lon="4.92604">
        <ele>417</ele>
        <time>2012-10-07T09:18:47Z</time>
      </trkpt>
      <trkpt lat="47.3093" lon="4.92611">
        <ele>418</ele>
        <time>2012-10-07T09:18:50Z</time>
      </trkpt>
      <trkpt lat="47.30933" lon="4.92619">
        <ele>419</ele>
        <time>2012-10-07T09:18:54Z</time>
      </trkpt>
      <trkpt lat="47.30936" lon="4.92626">
        <ele>422</ele>
        <time>2012-10-07T09:18:58Z</time>
      </trkpt>
      <trkpt lat="47.30938" lon="4.92633">
        <ele>423</ele>
        <time>2012-10-07T09:19:01Z</time>
      </trkpt>
      <trkpt lat="47.30937" lon="4.92642">
        <ele>423</ele>
        <time>2012-10-07T09:19:05Z</time>
      </trkpt>
      <trkpt lat="47.30939" lon="4.92648">
        <ele>423</ele>
        <time>2012-10-07T09:19:10Z</time>
      </trkpt>
      <trkpt lat="47.3094" lon="4.92656">
        <ele>423</ele>
        <time>2012-10-07T09:19:16Z</time>
      </trkpt>
      <trkpt lat="47.30939" lon="4.92665">
        <ele>423</ele>
        <time>2012-10-07T09:19:20Z</time>
      </trkpt>
      <trkpt lat="47.30939" lon="4.92672">
        <ele>423</ele>
        <time>2012-10-07T09:19:23Z</time>
      </trkpt>
      <trkpt lat="47.30939" lon="4.92672">
        <ele>423</ele>
        <time>2012-10-07T09:19:23Z</time>
      </trkpt>
      <trkpt lat="47.30939" lon="4.92672">
        <ele>423</ele>
        <time>2012-10-07T09:19:24Z</time>
      </trkpt>
      <trkpt lat="47.30939" lon="4.92681">
        <ele>423</ele>
        <time>2012-10-07T09:19:27Z</time>
      </trkpt>
      <trkpt lat="47.30941" lon="4.92688">
        <ele>425</ele>
        <time>2012-10-07T09:19:30Z</time>
      </trkpt>
      <trkpt lat="47.30944" lon="4.92694">
        <ele>425</ele>
        <time>2012-10-07T09:19:32Z</time>
      </trkpt>
      <trkpt lat="47.30947" lon="4.927">
        <ele>424</ele>
        <time>2012-10-07T09:19:34Z</time>
      </trkpt>
      <trkpt lat="47.30949" lon="4.92706">
        <ele>424</ele>
        <time>2012-10-07T09:19:36Z</time>
      </trkpt>
      <trkpt lat="47.30952" lon="4.92713">
        <ele>425</ele>
        <time>2012-10-07T09:19:39Z</time>
      </trkpt>
      <trkpt lat="47.30952" lon="4.92721">
        <ele>426</ele>
        <time>2012-10-07T09:19:42Z</time>
      </trkpt>
      <trkpt lat="47.30952" lon="4.92728">
        <ele>427</ele>
        <time>2012-10-07T09:19:45Z</time>
      </trkpt>
      <trkpt lat="47.3095" lon="4.92734">
        <ele>427</ele>
        <time>2012-10-07T09:19:48Z</time>
      </trkpt>
      <trkpt lat="47.30952" lon="4.92742">
        <ele>427</ele>
        <time>2012-10-07T09:19:51Z</time>
      </trkpt>
      <trkpt lat="47.30953" lon="4.92751">
        <ele>428</ele>
        <time>2012-10-07T09:19:55Z</time>
      </trkpt>
      <trkpt lat="47.30953" lon="4.92758">
        <ele>428</ele>
        <time>2012-10-07T09:19:58Z</time>
      </trkpt>
      <trkpt lat="47.3095" lon="4.92764">
        <ele>427</ele>
        <time>2012-10-07T09:20:03Z</time>
      </trkpt>
      <trkpt lat="47.30952" lon="4.92771">
        <ele>428</ele>
        <time>2012-10-07T09:20:06Z</time>
      </trkpt>
      <trkpt lat="47.3095" lon="4.92777">
        <ele>429</ele>
        <time>2012-10-07T09:20:09Z</time>
      </trkpt>
      <trkpt lat="47.30949" lon="4.92784">
        <ele>430</ele>
        <time>2012-10-07T09:20:13Z</time>
      </trkpt>
      <trkpt lat="47.3095" lon="4.92794">
        <ele>431</ele>
        <time>2012-10-07T09:20:18Z</time>
      </trkpt>
      <trkpt lat="47.30953" lon="4.928">
        <ele>430</ele>
        <time>2012-10-07T09:20:21Z</time>
      </trkpt>
      <trkpt lat="47.30954" lon="4.92806">
        <ele>430</ele>
        <time>2012-10-07T09:20:25Z</time>
      </trkpt>
      <trkpt lat="47.30954" lon="4.92816">
        <ele>431</ele>
        <time>2012-10-07T09:20:31Z</time>
      </trkpt>
      <trkpt lat="47.30956" lon="4.92822">
        <ele>432</ele>
        <time>2012-10-07T09:20:35Z</time>
      </trkpt>
      <trkpt lat="47.30958" lon="4.9283">
        <ele>432</ele>
        <time>2012-10-07T09:20:45Z</time>
      </trkpt>
      <trkpt lat="47.30958" lon="4.92838">
        <ele>434</ele>
        <time>2012-10-07T09:20:47Z</time>
      </trkpt>
      <trkpt lat="47.30956" lon="4.92846">
        <ele>436</ele>
        <time>2012-10-07T09:20:52Z</time>
      </trkpt>
      <trkpt lat="47.3096" lon="4.92853">
        <ele>436</ele>
        <time>2012-10-07T09:20:55Z</time>
      </trkpt>
      <trkpt lat="47.30963" lon="4.92858">
        <ele>437</ele>
        <time>2012-10-07T09:20:57Z</time>
      </trkpt>
      <trkpt lat="47.30962" lon="4.92864">
        <ele>436</ele>
        <time>2012-10-07T09:21:02Z</time>
      </trkpt>
      <trkpt lat="47.30963" lon="4.92871">
        <ele>438</ele>
        <time>2012-10-07T09:21:04Z</time>
      </trkpt>
      <trkpt lat="47.30966" lon="4.92877">
        <ele>437</ele>
        <time>2012-10-07T09:21:06Z</time>
      </trkpt>
      <trkpt lat="47.30968" lon="4.92883">
        <ele>437</ele>
        <time>2012-10-07T09:21:08Z</time>
      </trkpt>
      <trkpt lat="47.3097" lon="4.92891">
        <ele>438</ele>
        <time>2012-10-07T09:21:10Z</time>
      </trkpt>
      <trkpt lat="47.30971" lon="4.92898">
        <ele>440</ele>
        <time>2012-10-07T09:21:13Z</time>
      </trkpt>
      <trkpt lat="47.30973" lon="4.92904">
        <ele>441</ele>
        <time>2012-10-07T09:21:16Z</time>
      </trkpt>
      <trkpt lat="47.30975" lon="4.92912">
        <ele>443</ele>
        <time>2012-10-07T09:21:20Z</time>
      </trkpt>
      <trkpt lat="47.30974" lon="4.92919">
        <ele>443</ele>
        <time>2012-10-07T09:21:25Z</time>
      </trkpt>
      <trkpt lat="47.30974" lon="4.92928">
        <ele>443</ele>
        <time>2012-10-07T09:21:29Z</time>
      </trkpt>
      <trkpt lat="47.30976" lon="4.92934">
        <ele>444</ele>
        <time>2012-10-07T09:21:33Z</time>
      </trkpt>
      <trkpt lat="47.30976" lon="4.92942">
        <ele>446</ele>
        <time>2012-10-07T09:21:37Z</time>
      </trkpt>
      <trkpt lat="47.30975" lon="4.92948">
        <ele>448</ele>
        <time>2012-10-07T09:21:43Z</time>
      </trkpt>
      <trkpt lat="47.30971" lon="4.92952">
        <ele>449</ele>
        <time>2012-10-07T09:21:52Z</time>
      </trkpt>
      <trkpt lat="47.30971" lon="4.92961">
        <ele>449</ele>
        <time>2012-10-07T09:22:10Z</time>
      </trkpt>
      <trkpt lat="47.30972" lon="4.92968">
        <ele>448</ele>
        <time>2012-10-07T09:22:29Z</time>
      </trkpt>
      <trkpt lat="47.30972" lon="4.92968">
        <ele>448</ele>
        <time>2012-10-07T09:22:29Z</time>
      </trkpt>
      <trkpt lat="47.30972" lon="4.92968">
        <ele>448</ele>
        <time>2012-10-07T09:22:30Z</time>
      </trkpt>
      <trkpt lat="47.30975" lon="4.92974">
        <ele>452</ele>
        <time>2012-10-07T09:22:46Z</time>
      </trkpt>
      <trkpt lat="47.30975" lon="4.92974">
        <ele>452</ele>
        <time>2012-10-07T09:22:46Z</time>
      </trkpt>
      <trkpt lat="47.30975" lon="4.92974">
        <ele>452</ele>
        <time>2012-10-07T09:22:47Z</time>
      </trkpt>
      <trkpt lat="47.3098" lon="4.92978">
        <ele>452</ele>
        <time>2012-10-07T09:23:13Z</time>
      </trkpt>
      <trkpt lat="47.30983" lon="4.92982">
        <ele>449</ele>
        <time>2012-10-07T09:23:23Z</time>
      </trkpt>
      <trkpt lat="47.30987" lon="4.92986">
        <ele>451</ele>
        <time>2012-10-07T09:23:32Z</time>
      </trkpt>
      <trkpt lat="47.30987" lon="4.92986">
        <ele>451</ele>
        <time>2012-10-07T09:23:32Z</time>
      </trkpt>
      <trkpt lat="47.30987" lon="4.92986">
        <ele>451</ele>
        <time>2012-10-07T09:23:33Z</time>
      </trkpt>
      <trkpt lat="47.30991" lon="4.92988">
        <ele>453</ele>
        <time>2012-10-07T09:23:37Z</time>
      </trkpt>
      <trkpt lat="47.30995" lon="4.92992">
        <ele>455</ele>
        <time>2012-10-07T09:23:41Z</time>
      </trkpt>
      <trkpt lat="47.30999" lon="4.92996">
        <ele>457</ele>
        <time>2012-10-07T09:23:47Z</time>
      </trkpt>
      <trkpt lat="47.31004" lon="4.93001">
        <ele>456</ele>
        <time>2012-10-07T09:23:50Z</time>
      </trkpt>
      <trkpt lat="47.31008" lon="4.93006">
        <ele>454</ele>
        <time>2012-10-07T09:23:53Z</time>
      </trkpt>
      <trkpt lat="47.3101" lon="4.92999">
        <ele>459</ele>
        <time>2012-10-07T09:24:17Z</time>
      </trkpt>
      <trkpt lat="47.31014" lon="4.92994">
        <ele>461</ele>
        <time>2012-10-07T09:24:23Z</time>
      </trkpt>
      <trkpt lat="47.3102" lon="4.92992">
        <ele>460</ele>
        <time>2012-10-07T09:24:25Z</time>
      </trkpt>
      <trkpt lat="47.31025" lon="4.92991">
        <ele>460</ele>
        <time>2012-10-07T09:24:29Z</time>
      </trkpt>
      <trkpt lat="47.31031" lon="4.92992">
        <ele>459</ele>
        <time>2012-10-07T09:24:33Z</time>
      </trkpt>
      <trkpt lat="47.31035" lon="4.92994">
        <ele>460</ele>
        <time>2012-10-07T09:24:35Z</time>
      </trkpt>
      <trkpt lat="47.31038" lon="4.93">
        <ele>460</ele>
        <time>2012-10-07T09:24:37Z</time>
      </trkpt>
      <trkpt lat="47.31043" lon="4.93006">
        <ele>459</ele>
        <time>2012-10-07T09:24:41Z</time>
      </trkpt>
      <trkpt lat="47.31049" lon="4.93009">
        <ele>460</ele>
        <time>2012-10-07T09:24:45Z</time>
      </trkpt>
      <trkpt lat="47.31053" lon="4.93011">
        <ele>460</ele>
        <time>2012-10-07T09:24:49Z</time>
      </trkpt>
      <trkpt lat="47.31057" lon="4.93016">
        <ele>462</ele>
        <time>2012-10-07T09:24:53Z</time>
      </trkpt>
      <trkpt lat="47.3106" lon="4.93023">
        <ele>463</ele>
        <time>2012-10-07T09:24:56Z</time>
      </trkpt>
      <trkpt lat="47.31059" lon="4.93031">
        <ele>461</ele>
        <time>2012-10-07T09:24:58Z</time>
      </trkpt>
      <trkpt lat="47.3106" lon="4.9304">
        <ele>459</ele>
        <time>2012-10-07T09:25:00Z</time>
      </trkpt>
      <trkpt lat="47.31062" lon="4.93047">
        <ele>459</ele>
        <time>2012-10-07T09:25:02Z</time>
      </trkpt>
      <trkpt lat="47.31065" lon="4.93053">
        <ele>460</ele>
        <time>2012-10-07T09:25:08Z</time>
      </trkpt>
      <trkpt lat="47.31066" lon="4.93061">
        <ele>460</ele>
        <time>2012-10-07T09:25:11Z</time>
      </trkpt>
      <trkpt lat="47.3107" lon="4.93066">
        <ele>461</ele>
        <time>2012-10-07T09:25:13Z</time>
      </trkpt>
      <trkpt lat="47.31072" lon="4.93072">
        <ele>462</ele>
        <time>2012-10-07T09:25:17Z</time>
      </trkpt>
      <trkpt lat="47.31076" lon="4.93079">
        <ele>462</ele>
        <time>2012-10-07T09:25:20Z</time>
      </trkpt>
      <trkpt lat="47.31079" lon="4.93087">
        <ele>462</ele>
        <time>2012-10-07T09:25:23Z</time>
      </trkpt>
      <trkpt lat="47.31083" lon="4.93089">
        <ele>463</ele>
        <time>2012-10-07T09:25:29Z</time>
      </trkpt>
      <trkpt lat="47.31086" lon="4.93096">
        <ele>463</ele>
        <time>2012-10-07T09:25:32Z</time>
      </trkpt>
      <trkpt lat="47.31089" lon="4.931">
        <ele>464</ele>
        <time>2012-10-07T09:25:35Z</time>
      </trkpt>
      <trkpt lat="47.31093" lon="4.93106">
        <ele>465</ele>
        <time>2012-10-07T09:25:39Z</time>
      </trkpt>
      <trkpt lat="47.31096" lon="4.93112">
        <ele>466</ele>
        <time>2012-10-07T09:25:42Z</time>
      </trkpt>
      <trkpt lat="47.31098" lon="4.93119">
        <ele>467</ele>
        <time>2012-10-07T09:25:45Z</time>
      </trkpt>
      <trkpt lat="47.311" lon="4.93127">
        <ele>465</ele>
        <time>2012-10-07T09:25:49Z</time>
      </trkpt>
      <trkpt lat="47.31103" lon="4.93133">
        <ele>466</ele>
        <time>2012-10-07T09:25:52Z</time>
      </trkpt>
      <trkpt lat="47.31105" lon="4.93141">
        <ele>461</ele>
        <time>2012-10-07T09:25:57Z</time>
      </trkpt>
      <trkpt lat="47.31109" lon="4.93147">
        <ele>460</ele>
        <time>2012-10-07T09:26:00Z</time>
      </trkpt>
      <trkpt lat="47.31112" lon="4.93153">
        <ele>459</ele>
        <time>2012-10-07T09:26:04Z</time>
      </trkpt>
      <trkpt lat="47.31116" lon="4.93158">
        <ele>460</ele>
        <time>2012-10-07T09:26:10Z</time>
      </trkpt>
      <trkpt lat="47.31121" lon="4.93162">
        <ele>459</ele>
        <time>2012-10-07T09:26:16Z</time>
      </trkpt>
      <trkpt lat="47.31126" lon="4.93169">
        <ele>461</ele>
        <time>2012-10-07T09:26:20Z</time>
      </trkpt>
      <trkpt lat="47.3113" lon="4.93173">
        <ele>463</ele>
        <time>2012-10-07T09:26:23Z</time>
      </trkpt>
      <trkpt lat="47.31134" lon="4.93178">
        <ele>463</ele>
        <time>2012-10-07T09:26:26Z</time>
      </trkpt>
      <trkpt lat="47.31139" lon="4.93181">
        <ele>465</ele>
        <time>2012-10-07T09:26:29Z</time>
      </trkpt>
      <trkpt lat="47.31144" lon="4.93186">
        <ele>465</ele>
        <time>2012-10-07T09:26:33Z</time>
      </trkpt>
      <trkpt lat="47.31148" lon="4.93195">
        <ele>465</ele>
        <time>2012-10-07T09:26:36Z</time>
      </trkpt>
      <trkpt lat="47.31153" lon="4.93201">
        <ele>465</ele>
        <time>2012-10-07T09:26:39Z</time>
      </trkpt>
      <trkpt lat="47.31157" lon="4.93205">
        <ele>463</ele>
        <time>2012-10-07T09:26:44Z</time>
      </trkpt>
      <trkpt lat="47.31162" lon="4.93212">
        <ele>463</ele>
        <time>2012-10-07T09:26:47Z</time>
      </trkpt>
      <trkpt lat="47.31164" lon="4.93218">
        <ele>464</ele>
        <time>2012-10-07T09:26:49Z</time>
      </trkpt>
      <trkpt lat="47.31168" lon="4.93224">
        <ele>464</ele>
        <time>2012-10-07T09:26:53Z</time>
      </trkpt>
      <trkpt lat="47.31171" lon="4.9323">
        <ele>464</ele>
        <time>2012-10-07T09:26:57Z</time>
      </trkpt>
      <trkpt lat="47.31174" lon="4.93237">
        <ele>463</ele>
        <time>2012-10-07T09:27:00Z</time>
      </trkpt>
      <trkpt lat="47.31176" lon="4.93244">
        <ele>464</ele>
        <time>2012-10-07T09:27:03Z</time>
      </trkpt>
      <trkpt lat="47.31178" lon="4.93255">
        <ele>463</ele>
        <time>2012-10-07T09:27:07Z</time>
      </trkpt>
      <trkpt lat="47.3118" lon="4.93262">
        <ele>465</ele>
        <time>2012-10-07T09:27:10Z</time>
      </trkpt>
      <trkpt lat="47.31183" lon="4.93269">
        <ele>465</ele>
        <time>2012-10-07T09:27:14Z</time>
      </trkpt>
      <trkpt lat="47.31183" lon="4.93276">
        <ele>465</ele>
        <time>2012-10-07T09:27:18Z</time>
      </trkpt>
      <trkpt lat="47.31183" lon="4.93283">
        <ele>467</ele>
        <time>2012-10-07T09:27:22Z</time>
      </trkpt>
      <trkpt lat="47.31185" lon="4.9329">
        <ele>466</ele>
        <time>2012-10-07T09:27:26Z</time>
      </trkpt>
      <trkpt lat="47.31186" lon="4.93297">
        <ele>467</ele>
        <time>2012-10-07T09:27:31Z</time>
      </trkpt>
      <trkpt lat="47.31188" lon="4.93306">
        <ele>467</ele>
        <time>2012-10-07T09:27:35Z</time>
      </trkpt>
      <trkpt lat="47.31192" lon="4.93313">
        <ele>467</ele>
        <time>2012-10-07T09:27:37Z</time>
      </trkpt>
      <trkpt lat="47.31195" lon="4.9332">
        <ele>467</ele>
        <time>2012-10-07T09:27:40Z</time>
      </trkpt>
      <trkpt lat="47.31197" lon="4.93328">
        <ele>468</ele>
        <time>2012-10-07T09:27:43Z</time>
      </trkpt>
      <trkpt lat="47.31198" lon="4.93336">
        <ele>469</ele>
        <time>2012-10-07T09:27:46Z</time>
      </trkpt>
      <trkpt lat="47.312" lon="4.93344">
        <ele>469</ele>
        <time>2012-10-07T09:27:48Z</time>
      </trkpt>
      <trkpt lat="47.31203" lon="4.93351">
        <ele>469</ele>
        <time>2012-10-07T09:27:51Z</time>
      </trkpt>
      <trkpt lat="47.31202" lon="4.93358">
        <ele>469</ele>
        <time>2012-10-07T09:27:55Z</time>
      </trkpt>
      <trkpt lat="47.31203" lon="4.93368">
        <ele>467</ele>
        <time>2012-10-07T09:27:59Z</time>
      </trkpt>
      <trkpt lat="47.31206" lon="4.93376">
        <ele>468</ele>
        <time>2012-10-07T09:28:02Z</time>
      </trkpt>
      <trkpt lat="47.31208" lon="4.93383">
        <ele>469</ele>
        <time>2012-10-07T09:28:05Z</time>
      </trkpt>
      <trkpt lat="47.31211" lon="4.93388">
        <ele>470</ele>
        <time>2012-10-07T09:28:08Z</time>
      </trkpt>
      <trkpt lat="47.31212" lon="4.93396">
        <ele>471</ele>
        <time>2012-10-07T09:28:11Z</time>
      </trkpt>
      <trkpt lat="47.31214" lon="4.93403">
        <ele>472</ele>
        <time>2012-10-07T09:28:15Z</time>
      </trkpt>
      <trkpt lat="47.31217" lon="4.9341">
        <ele>470</ele>
        <time>2012-10-07T09:28:17Z</time>
      </trkpt>
      <trkpt lat="47.31219" lon="4.93415">
        <ele>469</ele>
        <time>2012-10-07T09:28:18Z</time>
      </trkpt>
      <trkpt lat="47.31224" lon="4.93424">
        <ele>468</ele>
        <time>2012-10-07T09:28:21Z</time>
      </trkpt>
      <trkpt lat="47.31228" lon="4.9343">
        <ele>469</ele>
        <time>2012-10-07T09:28:25Z</time>
      </trkpt>
      <trkpt lat="47.31232" lon="4.93434">
        <ele>470</ele>
        <time>2012-10-07T09:28:29Z</time>
      </trkpt>
      <trkpt lat="47.31237" lon="4.93437">
        <ele>470</ele>
        <time>2012-10-07T09:28:34Z</time>
      </trkpt>
      <trkpt lat="47.31241" lon="4.93441">
        <ele>471</ele>
        <time>2012-10-07T09:28:38Z</time>
      </trkpt>
      <trkpt lat="47.31247" lon="4.93444">
        <ele>471</ele>
        <time>2012-10-07T09:28:41Z</time>
      </trkpt>
      <trkpt lat="47.31251" lon="4.93447">
        <ele>471</ele>
        <time>2012-10-07T09:28:43Z</time>
      </trkpt>
      <trkpt lat="47.31255" lon="4.93451">
        <ele>471</ele>
        <time>2012-10-07T09:28:45Z</time>
      </trkpt>
      <trkpt lat="47.31259" lon="4.93454">
        <ele>471</ele>
        <time>2012-10-07T09:28:48Z</time>
      </trkpt>
      <trkpt lat="47.31263" lon="4.93456">
        <ele>471</ele>
        <time>2012-10-07T09:28:51Z</time>
      </trkpt>
      <trkpt lat="47.31268" lon="4.93459">
        <ele>471</ele>
        <time>2012-10-07T09:28:53Z</time>
      </trkpt>
      <trkpt lat="47.31272" lon="4.93462">
        <ele>470</ele>
        <time>2012-10-07T09:28:55Z</time>
      </trkpt>
      <trkpt lat="47.31278" lon="4.93469">
        <ele>471</ele>
        <time>2012-10-07T09:28:58Z</time>
      </trkpt>
      <trkpt lat="47.31282" lon="4.93472">
        <ele>469</ele>
        <time>2012-10-07T09:29:04Z</time>
      </trkpt>
      <trkpt lat="47.31287" lon="4.93475">
        <ele>469</ele>
        <time>2012-10-07T09:29:07Z</time>
      </trkpt>
      <trkpt lat="47.31292" lon="4.9348">
        <ele>470</ele>
        <time>2012-10-07T09:29:11Z</time>
      </trkpt>
      <trkpt lat="47.31295" lon="4.93485">
        <ele>471</ele>
        <time>2012-10-07T09:29:14Z</time>
      </trkpt>
      <trkpt lat="47.31299" lon="4.9349">
        <ele>472</ele>
        <time>2012-10-07T09:29:17Z</time>
      </trkpt>
      <trkpt lat="47.31302" lon="4.93496">
        <ele>473</ele>
        <time>2012-10-07T09:29:20Z</time>
      </trkpt>
      <trkpt lat="47.31307" lon="4.93501">
        <ele>472</ele>
        <time>2012-10-07T09:29:22Z</time>
      </trkpt>
      <trkpt lat="47.31311" lon="4.93506">
        <ele>473</ele>
        <time>2012-10-07T09:29:25Z</time>
      </trkpt>
      <trkpt lat="47.31316" lon="4.93511">
        <ele>472</ele>
        <time>2012-10-07T09:29:30Z</time>
      </trkpt>
      <trkpt lat="47.3132" lon="4.93515">
        <ele>472</ele>
        <time>2012-10-07T09:29:33Z</time>
      </trkpt>
      <trkpt lat="47.31324" lon="4.9352">
        <ele>471</ele>
        <time>2012-10-07T09:29:35Z</time>
      </trkpt>
      <trkpt lat="47.31328" lon="4.93524">
        <ele>469</ele>
        <time>2012-10-07T09:29:37Z</time>
      </trkpt>
      <trkpt lat="47.31332" lon="4.93529">
        <ele>469</ele>
        <time>2012-10-07T09:29:40Z</time>
      </trkpt>
      <trkpt lat="47.31338" lon="4.93534">
        <ele>468</ele>
        <time>2012-10-07T09:29:42Z</time>
      </trkpt>
      <trkpt lat="47.31342" lon="4.93542">
        <ele>468</ele>
        <time>2012-10-07T09:29:46Z</time>
      </trkpt>
      <trkpt lat="47.31346" lon="4.93546">
        <ele>469</ele>
        <time>2012-10-07T09:29:49Z</time>
      </trkpt>
      <trkpt lat="47.31351" lon="4.93549">
        <ele>471</ele>
        <time>2012-10-07T09:29:51Z</time>
      </trkpt>
      <trkpt lat="47.31356" lon="4.93553">
        <ele>472</ele>
        <time>2012-10-07T09:29:54Z</time>
      </trkpt>
      <trkpt lat="47.31361" lon="4.93555">
        <ele>471</ele>
        <time>2012-10-07T09:29:57Z</time>
      </trkpt>
      <trkpt lat="47.31367" lon="4.93561">
        <ele>471</ele>
        <time>2012-10-07T09:30:01Z</time>
      </trkpt>
      <trkpt lat="47.31371" lon="4.93566">
        <ele>471</ele>
        <time>2012-10-07T09:30:04Z</time>
      </trkpt>
      <trkpt lat="47.31375" lon="4.93571">
        <ele>471</ele>
        <time>2012-10-07T09:30:07Z</time>
      </trkpt>
      <trkpt lat="47.31379" lon="4.93574">
        <ele>471</ele>
        <time>2012-10-07T09:30:09Z</time>
      </trkpt>
      <trkpt lat="47.31383" lon="4.93576">
        <ele>470</ele>
        <time>2012-10-07T09:30:11Z</time>
      </trkpt>
      <trkpt lat="47.31386" lon="4.93584">
        <ele>469</ele>
        <time>2012-10-07T09:30:15Z</time>
      </trkpt>
      <trkpt lat="47.31389" lon="4.93589">
        <ele>468</ele>
        <time>2012-10-07T09:30:17Z</time>
      </trkpt>
      <trkpt lat="47.31394" lon="4.93591">
        <ele>468</ele>
        <time>2012-10-07T09:30:20Z</time>
      </trkpt>
      <trkpt lat="47.31397" lon="4.93596">
        <ele>469</ele>
        <time>2012-10-07T09:30:23Z</time>
      </trkpt>
      <trkpt lat="47.31401" lon="4.93602">
        <ele>470</ele>
        <time>2012-10-07T09:30:26Z</time>
      </trkpt>
      <trkpt lat="47.31406" lon="4.93605">
        <ele>471</ele>
        <time>2012-10-07T09:30:28Z</time>
      </trkpt>
      <trkpt lat="47.31411" lon="4.9361">
        <ele>468</ele>
        <time>2012-10-07T09:30:31Z</time>
      </trkpt>
      <trkpt lat="47.31415" lon="4.93614">
        <ele>467</ele>
        <time>2012-10-07T09:30:35Z</time>
      </trkpt>
      <trkpt lat="47.31419" lon="4.93618">
        <ele>467</ele>
        <time>2012-10-07T09:30:37Z</time>
      </trkpt>
      <trkpt lat="47.31423" lon="4.93622">
        <ele>466</ele>
        <time>2012-10-07T09:30:39Z</time>
      </trkpt>
      <trkpt lat="47.31428" lon="4.93625">
        <ele>465</ele>
        <time>2012-10-07T09:30:42Z</time>
      </trkpt>
      <trkpt lat="47.31433" lon="4.93632">
        <ele>464</ele>
        <time>2012-10-07T09:30:45Z</time>
      </trkpt>
      <trkpt lat="47.31435" lon="4.93637">
        <ele>464</ele>
        <time>2012-10-07T09:30:47Z</time>
      </trkpt>
      <trkpt lat="47.31438" lon="4.93644">
        <ele>464</ele>
        <time>2012-10-07T09:30:48Z</time>
      </trkpt>
      <trkpt lat="47.31441" lon="4.9365">
        <ele>464</ele>
        <time>2012-10-07T09:30:51Z</time>
      </trkpt>
      <trkpt lat="47.31446" lon="4.93655">
        <ele>465</ele>
        <time>2012-10-07T09:30:56Z</time>
      </trkpt>
      <trkpt lat="47.31448" lon="4.93662">
        <ele>464</ele>
        <time>2012-10-07T09:30:59Z</time>
      </trkpt>
      <trkpt lat="47.31451" lon="4.93668">
        <ele>464</ele>
        <time>2012-10-07T09:31:02Z</time>
      </trkpt>
      <trkpt lat="47.31455" lon="4.93672">
        <ele>466</ele>
        <time>2012-10-07T09:31:05Z</time>
      </trkpt>
      <trkpt lat="47.31459" lon="4.93677">
        <ele>466</ele>
        <time>2012-10-07T09:31:09Z</time>
      </trkpt>
      <trkpt lat="47.31462" lon="4.93682">
        <ele>466</ele>
        <time>2012-10-07T09:31:11Z</time>
      </trkpt>
      <trkpt lat="47.31465" lon="4.93688">
        <ele>466</ele>
        <time>2012-10-07T09:31:14Z</time>
      </trkpt>
      <trkpt lat="47.31468" lon="4.93693">
        <ele>465</ele>
        <time>2012-10-07T09:31:16Z</time>
      </trkpt>
      <trkpt lat="47.31472" lon="4.937">
        <ele>464</ele>
        <time>2012-10-07T09:31:20Z</time>
      </trkpt>
      <trkpt lat="47.31475" lon="4.93707">
        <ele>465</ele>
        <time>2012-10-07T09:31:23Z</time>
      </trkpt>
      <trkpt lat="47.31479" lon="4.93714">
        <ele>463</ele>
        <time>2012-10-07T09:31:26Z</time>
      </trkpt>
      <trkpt lat="47.31484" lon="4.9372">
        <ele>464</ele>
        <time>2012-10-07T09:31:31Z</time>
      </trkpt>
      <trkpt lat="47.31488" lon="4.93725">
        <ele>465</ele>
        <time>2012-10-07T09:31:33Z</time>
      </trkpt>
      <trkpt lat="47.31492" lon="4.93731">
        <ele>466</ele>
        <time>2012-10-07T09:31:35Z</time>
      </trkpt>
      <trkpt lat="47.31494" lon="4.93738">
        <ele>466</ele>
        <time>2012-10-07T09:31:39Z</time>
      </trkpt>
      <trkpt lat="47.31499" lon="4.93742">
        <ele>467</ele>
        <time>2012-10-07T09:31:43Z</time>
      </trkpt>
      <trkpt lat="47.31502" lon="4.93746">
        <ele>466</ele>
        <time>2012-10-07T09:31:47Z</time>
      </trkpt>
      <trkpt lat="47.31507" lon="4.93751">
        <ele>466</ele>
        <time>2012-10-07T09:31:50Z</time>
      </trkpt>
      <trkpt lat="47.31512" lon="4.9376">
        <ele>467</ele>
        <time>2012-10-07T09:31:55Z</time>
      </trkpt>
      <trkpt lat="47.31517" lon="4.93767">
        <ele>466</ele>
        <time>2012-10-07T09:31:58Z</time>
      </trkpt>
      <trkpt lat="47.3152" lon="4.93773">
        <ele>466</ele>
        <time>2012-10-07T09:32:01Z</time>
      </trkpt>
      <trkpt lat="47.31526" lon="4.93779">
        <ele>466</ele>
        <time>2012-10-07T09:32:05Z</time>
      </trkpt>
      <trkpt lat="47.3153" lon="4.93785">
        <ele>466</ele>
        <time>2012-10-07T09:32:08Z</time>
      </trkpt>
      <trkpt lat="47.31534" lon="4.93791">
        <ele>465</ele>
        <time>2012-10-07T09:32:10Z</time>
      </trkpt>
      <trkpt lat="47.31538" lon="4.93795">
        <ele>465</ele>
        <time>2012-10-07T09:32:12Z</time>
      </trkpt>
      <trkpt lat="47.31542" lon="4.938">
        <ele>465</ele>
        <time>2012-10-07T09:32:17Z</time>
      </trkpt>
      <trkpt lat="47.31548" lon="4.93806">
        <ele>465</ele>
        <time>2012-10-07T09:32:20Z</time>
      </trkpt>
      <trkpt lat="47.31552" lon="4.93815">
        <ele>464</ele>
        <time>2012-10-07T09:32:23Z</time>
      </trkpt>
      <trkpt lat="47.31555" lon="4.9382">
        <ele>464</ele>
        <time>2012-10-07T09:32:26Z</time>
      </trkpt>
      <trkpt lat="47.31559" lon="4.93826">
        <ele>463</ele>
        <time>2012-10-07T09:32:30Z</time>
      </trkpt>
      <trkpt lat="47.31562" lon="4.93832">
        <ele>463</ele>
        <time>2012-10-07T09:32:33Z</time>
      </trkpt>
      <trkpt lat="47.31565" lon="4.93839">
        <ele>463</ele>
        <time>2012-10-07T09:32:36Z</time>
      </trkpt>
      <trkpt lat="47.31567" lon="4.93846">
        <ele>464</ele>
        <time>2012-10-07T09:32:39Z</time>
      </trkpt>
      <trkpt lat="47.31571" lon="4.93853">
        <ele>464</ele>
        <time>2012-10-07T09:32:41Z</time>
      </trkpt>
      <trkpt lat="47.31574" lon="4.93858">
        <ele>464</ele>
        <time>2012-10-07T09:32:44Z</time>
      </trkpt>
      <trkpt lat="47.31576" lon="4.93864">
        <ele>463</ele>
        <time>2012-10-07T09:32:48Z</time>
      </trkpt>
      <trkpt lat="47.31579" lon="4.9387">
        <ele>465</ele>
        <time>2012-10-07T09:32:53Z</time>
      </trkpt>
      <trkpt lat="47.31583" lon="4.93875">
        <ele>466</ele>
        <time>2012-10-07T09:32:57Z</time>
      </trkpt>
      <trkpt lat="47.31586" lon="4.93882">
        <ele>468</ele>
        <time>2012-10-07T09:33:02Z</time>
      </trkpt>
      <trkpt lat="47.31589" lon="4.93887">
        <ele>468</ele>
        <time>2012-10-07T09:33:04Z</time>
      </trkpt>
      <trkpt lat="47.31593" lon="4.93893">
        <ele>468</ele>
        <time>2012-10-07T09:33:07Z</time>
      </trkpt>
      <trkpt lat="47.31597" lon="4.93898">
        <ele>470</ele>
        <time>2012-10-07T09:33:10Z</time>
      </trkpt>
      <trkpt lat="47.31602" lon="4.93902">
        <ele>470</ele>
        <time>2012-10-07T09:33:14Z</time>
      </trkpt>
      <trkpt lat="47.31604" lon="4.93909">
        <ele>468</ele>
        <time>2012-10-07T09:33:17Z</time>
      </trkpt>
      <trkpt lat="47.31608" lon="4.93915">
        <ele>467</ele>
        <time>2012-10-07T09:33:18Z</time>
      </trkpt>
      <trkpt lat="47.31611" lon="4.93921">
        <ele>467</ele>
        <time>2012-10-07T09:33:20Z</time>
      </trkpt>
      <trkpt lat="47.31614" lon="4.93928">
        <ele>467</ele>
        <time>2012-10-07T09:33:22Z</time>
      </trkpt>
      <trkpt lat="47.31616" lon="4.93936">
        <ele>467</ele>
        <time>2012-10-07T09:33:25Z</time>
      </trkpt>
      <trkpt lat="47.31614" lon="4.93943">
        <ele>467</ele>
        <time>2012-10-07T09:33:28Z</time>
      </trkpt>
      <trkpt lat="47.31612" lon="4.9395">
        <ele>467</ele>
        <time>2012-10-07T09:33:31Z</time>
      </trkpt>
      <trkpt lat="47.31609" lon="4.93955">
        <ele>466</ele>
        <time>2012-10-07T09:33:37Z</time>
      </trkpt>
      <trkpt lat="47.31609" lon="4.93955">
        <ele>466</ele>
        <time>2012-10-07T09:33:37Z</time>
      </trkpt>
      <trkpt lat="47.31609" lon="4.93955">
        <ele>466</ele>
        <time>2012-10-07T09:33:39Z</time>
      </trkpt>
      <trkpt lat="47.31615" lon="4.93958">
        <ele>465</ele>
        <time>2012-10-07T09:33:52Z</time>
      </trkpt>
      <trkpt lat="47.31619" lon="4.93958">
        <ele>465</ele>
        <time>2012-10-07T09:33:55Z</time>
      </trkpt>
      <trkpt lat="47.31624" lon="4.93956">
        <ele>461</ele>
        <time>2012-10-07T09:33:59Z</time>
      </trkpt>
      <trkpt lat="47.31629" lon="4.93956">
        <ele>456</ele>
        <time>2012-10-07T09:34:09Z</time>
      </trkpt>
      <trkpt lat="47.31634" lon="4.9396">
        <ele>454</ele>
        <time>2012-10-07T09:34:12Z</time>
      </trkpt>
      <trkpt lat="47.31637" lon="4.93965">
        <ele>452</ele>
        <time>2012-10-07T09:34:23Z</time>
      </trkpt>
      <trkpt lat="47.31637" lon="4.93965">
        <ele>452</ele>
        <time>2012-10-07T09:34:23Z</time>
      </trkpt>
      <trkpt lat="47.31637" lon="4.93965">
        <ele>452</ele>
        <time>2012-10-07T09:34:24Z</time>
      </trkpt>
      <trkpt lat="47.3164" lon="4.93972">
        <ele>451</ele>
        <time>2012-10-07T09:34:29Z</time>
      </trkpt>
      <trkpt lat="47.31645" lon="4.93977">
        <ele>450</ele>
        <time>2012-10-07T09:34:32Z</time>
      </trkpt>
      <trkpt lat="47.3165" lon="4.93982">
        <ele>450</ele>
        <time>2012-10-07T09:34:35Z</time>
      </trkpt>
      <trkpt lat="47.31654" lon="4.93988">
        <ele>452</ele>
        <time>2012-10-07T09:34:39Z</time>
      </trkpt>
      <trkpt lat="47.3166" lon="4.93991">
        <ele>452</ele>
        <time>2012-10-07T09:34:44Z</time>
      </trkpt>
      <trkpt lat="47.31664" lon="4.93998">
        <ele>453</ele>
        <time>2012-10-07T09:34:48Z</time>
      </trkpt>
      <trkpt lat="47.31669" lon="4.94002">
        <ele>453</ele>
        <time>2012-10-07T09:34:51Z</time>
      </trkpt>
      <trkpt lat="47.31669" lon="4.94002">
        <ele>453</ele>
        <time>2012-10-07T09:34:51Z</time>
      </trkpt>
      <trkpt lat="47.31669" lon="4.94002">
        <ele>453</ele>
        <time>2012-10-07T09:34:52Z</time>
      </trkpt>
      <trkpt lat="47.31674" lon="4.94007">
        <ele>452</ele>
        <time>2012-10-07T09:34:55Z</time>
      </trkpt>
      <trkpt lat="47.31678" lon="4.94012">
        <ele>452</ele>
        <time>2012-10-07T09:34:59Z</time>
      </trkpt>
      <trkpt lat="47.31682" lon="4.94016">
        <ele>454</ele>
        <time>2012-10-07T09:35:07Z</time>
      </trkpt>
      <trkpt lat="47.31685" lon="4.94022">
        <ele>454</ele>
        <time>2012-10-07T09:35:18Z</time>
      </trkpt>
      <trkpt lat="47.31689" lon="4.94027">
        <ele>456</ele>
        <time>2012-10-07T09:35:23Z</time>
      </trkpt>
      <trkpt lat="47.31695" lon="4.94029">
        <ele>457</ele>
        <time>2012-10-07T09:35:27Z</time>
      </trkpt>
      <trkpt lat="47.31699" lon="4.94033">
        <ele>456</ele>
        <time>2012-10-07T09:35:31Z</time>
      </trkpt>
      <trkpt lat="47.31703" lon="4.94037">
        <ele>456</ele>
        <time>2012-10-07T09:35:35Z</time>
      </trkpt>
      <trkpt lat="47.31707" lon="4.94042">
        <ele>457</ele>
        <time>2012-10-07T09:35:38Z</time>
      </trkpt>
      <trkpt lat="47.3171" lon="4.94048">
        <ele>456</ele>
        <time>2012-10-07T09:35:42Z</time>
      </trkpt>
      <trkpt lat="47.31714" lon="4.94051">
        <ele>456</ele>
        <time>2012-10-07T09:35:45Z</time>
      </trkpt>
      <trkpt lat="47.31719" lon="4.94053">
        <ele>456</ele>
        <time>2012-10-07T09:35:49Z</time>
      </trkpt>
      <trkpt lat="47.31723" lon="4.94057">
        <ele>455</ele>
        <time>2012-10-07T09:35:52Z</time>
      </trkpt>
      <trkpt lat="47.31728" lon="4.9406">
        <ele>456</ele>
        <time>2012-10-07T09:35:55Z</time>
      </trkpt>
      <trkpt lat="47.31733" lon="4.94063">
        <ele>456</ele>
        <time>2012-10-07T09:35:58Z</time>
      </trkpt>
      <trkpt lat="47.31737" lon="4.94067">
        <ele>456</ele>
        <time>2012-10-07T09:36:02Z</time>
      </trkpt>
      <trkpt lat="47.31743" lon="4.94071">
        <ele>455</ele>
        <time>2012-10-07T09:36:06Z</time>
      </trkpt>
      <trkpt lat="47.31748" lon="4.94074">
        <ele>455</ele>
        <time>2012-10-07T09:36:09Z</time>
      </trkpt>
      <trkpt lat="47.31752" lon="4.94077">
        <ele>455</ele>
        <time>2012-10-07T09:36:13Z</time>
      </trkpt>
      <trkpt lat="47.31756" lon="4.94082">
        <ele>456</ele>
        <time>2012-10-07T09:36:16Z</time>
      </trkpt>
      <trkpt lat="47.31762" lon="4.94084">
        <ele>456</ele>
        <time>2012-10-07T09:36:20Z</time>
      </trkpt>
      <trkpt lat="47.31766" lon="4.94086">
        <ele>456</ele>
        <time>2012-10-07T09:36:23Z</time>
      </trkpt>
      <trkpt lat="47.31772" lon="4.94091">
        <ele>455</ele>
        <time>2012-10-07T09:36:27Z</time>
      </trkpt>
      <trkpt lat="47.31776" lon="4.94094">
        <ele>454</ele>
        <time>2012-10-07T09:36:30Z</time>
      </trkpt>
      <trkpt lat="47.3178" lon="4.94098">
        <ele>453</ele>
        <time>2012-10-07T09:36:33Z</time>
      </trkpt>
      <trkpt lat="47.31786" lon="4.94101">
        <ele>455</ele>
        <time>2012-10-07T09:36:37Z</time>
      </trkpt>
      <trkpt lat="47.31789" lon="4.94106">
        <ele>455</ele>
        <time>2012-10-07T09:36:42Z</time>
      </trkpt>
      <trkpt lat="47.31793" lon="4.9411">
        <ele>454</ele>
        <time>2012-10-07T09:36:45Z</time>
      </trkpt>
      <trkpt lat="47.31798" lon="4.94113">
        <ele>455</ele>
        <time>2012-10-07T09:36:48Z</time>
      </trkpt>
      <trkpt lat="47.31802" lon="4.94116">
        <ele>455</ele>
        <time>2012-10-07T09:36:51Z</time>
      </trkpt>
      <trkpt lat="47.31807" lon="4.94122">
        <ele>455</ele>
        <time>2012-10-07T09:36:53Z</time>
      </trkpt>
      <trkpt lat="47.31812" lon="4.94127">
        <ele>456</ele>
        <time>2012-10-07T09:36:56Z</time>
      </trkpt>
      <trkpt lat="47.31816" lon="4.9413">
        <ele>456</ele>
        <time>2012-10-07T09:36:59Z</time>
      </trkpt>
      <trkpt lat="47.31821" lon="4.94135">
        <ele>455</ele>
        <time>2012-10-07T09:37:02Z</time>
      </trkpt>
      <trkpt lat="47.31821" lon="4.94135">
        <ele>455</ele>
        <time>2012-10-07T09:37:02Z</time>
      </trkpt>
      <trkpt lat="47.31821" lon="4.94135">
        <ele>455</ele>
        <time>2012-10-07T09:37:03Z</time>
      </trkpt>
      <trkpt lat="47.31826" lon="4.94141">
        <ele>455</ele>
        <time>2012-10-07T09:37:08Z</time>
      </trkpt>
      <trkpt lat="47.3183" lon="4.94145">
        <ele>456</ele>
        <time>2012-10-07T09:37:11Z</time>
      </trkpt>
      <trkpt lat="47.31834" lon="4.94149">
        <ele>455</ele>
        <time>2012-10-07T09:37:14Z</time>
      </trkpt>
      <trkpt lat="47.31839" lon="4.94154">
        <ele>455</ele>
        <time>2012-10-07T09:37:17Z</time>
      </trkpt>
      <trkpt lat="47.31844" lon="4.94161">
        <ele>455</ele>
        <time>2012-10-07T09:37:20Z</time>
      </trkpt>
      <trkpt lat="47.31848" lon="4.94166">
        <ele>454</ele>
        <time>2012-10-07T09:37:24Z</time>
      </trkpt>
      <trkpt lat="47.31852" lon="4.9417">
        <ele>453</ele>
        <time>2012-10-07T09:37:27Z</time>
      </trkpt>
      <trkpt lat="47.31856" lon="4.94177">
        <ele>454</ele>
        <time>2012-10-07T09:37:31Z</time>
      </trkpt>
      <trkpt lat="47.3186" lon="4.9418">
        <ele>455</ele>
        <time>2012-10-07T09:37:34Z</time>
      </trkpt>
      <trkpt lat="47.31864" lon="4.94186">
        <ele>454</ele>
        <time>2012-10-07T09:37:36Z</time>
      </trkpt>
      <trkpt lat="47.31867" lon="4.9419">
        <ele>454</ele>
        <time>2012-10-07T09:37:39Z</time>
      </trkpt>
      <trkpt lat="47.31872" lon="4.94198">
        <ele>455</ele>
        <time>2012-10-07T09:37:43Z</time>
      </trkpt>
      <trkpt lat="47.31878" lon="4.94204">
        <ele>457</ele>
        <time>2012-10-07T09:37:47Z</time>
      </trkpt>
      <trkpt lat="47.31882" lon="4.9421">
        <ele>458</ele>
        <time>2012-10-07T09:37:50Z</time>
      </trkpt>
      <trkpt lat="47.31887" lon="4.94215">
        <ele>457</ele>
        <time>2012-10-07T09:37:54Z</time>
      </trkpt>
      <trkpt lat="47.3189" lon="4.94221">
        <ele>456</ele>
        <time>2012-10-07T09:37:57Z</time>
      </trkpt>
      <trkpt lat="47.31895" lon="4.94224">
        <ele>456</ele>
        <time>2012-10-07T09:38:00Z</time>
      </trkpt>
      <trkpt lat="47.31898" lon="4.94229">
        <ele>456</ele>
        <time>2012-10-07T09:38:03Z</time>
      </trkpt>
      <trkpt lat="47.31904" lon="4.94229">
        <ele>455</ele>
        <time>2012-10-07T09:38:06Z</time>
      </trkpt>
      <trkpt lat="47.3191" lon="4.94233">
        <ele>456</ele>
        <time>2012-10-07T09:38:09Z</time>
      </trkpt>
      <trkpt lat="47.31915" lon="4.94233">
        <ele>458</ele>
        <time>2012-10-07T09:38:13Z</time>
      </trkpt>
      <trkpt lat="47.31919" lon="4.9423">
        <ele>457</ele>
        <time>2012-10-07T09:38:17Z</time>
      </trkpt>
      <trkpt lat="47.31925" lon="4.94225">
        <ele>455</ele>
        <time>2012-10-07T09:38:20Z</time>
      </trkpt>
      <trkpt lat="47.31929" lon="4.94222">
        <ele>453</ele>
        <time>2012-10-07T09:38:24Z</time>
      </trkpt>
      <trkpt lat="47.31933" lon="4.94224">
        <ele>455</ele>
        <time>2012-10-07T09:38:26Z</time>
      </trkpt>
      <trkpt lat="47.31939" lon="4.94225">
        <ele>454</ele>
        <time>2012-10-07T09:38:29Z</time>
      </trkpt>
      <trkpt lat="47.31948" lon="4.94224">
        <ele>454</ele>
        <time>2012-10-07T09:38:33Z</time>
      </trkpt>
      <trkpt lat="47.31952" lon="4.94219">
        <ele>454</ele>
        <time>2012-10-07T09:38:35Z</time>
      </trkpt>
      <trkpt lat="47.31957" lon="4.94217">
        <ele>455</ele>
        <time>2012-10-07T09:38:38Z</time>
      </trkpt>
      <trkpt lat="47.31962" lon="4.94217">
        <ele>457</ele>
        <time>2012-10-07T09:38:41Z</time>
      </trkpt>
      <trkpt lat="47.31967" lon="4.94218">
        <ele>458</ele>
        <time>2012-10-07T09:38:45Z</time>
      </trkpt>
      <trkpt lat="47.31974" lon="4.94217">
        <ele>460</ele>
        <time>2012-10-07T09:38:50Z</time>
      </trkpt>
      <trkpt lat="47.31979" lon="4.94215">
        <ele>460</ele>
        <time>2012-10-07T09:38:54Z</time>
      </trkpt>
      <trkpt lat="47.31985" lon="4.94213">
        <ele>461</ele>
        <time>2012-10-07T09:38:57Z</time>
      </trkpt>
      <trkpt lat="47.31989" lon="4.94209">
        <ele>461</ele>
        <time>2012-10-07T09:39:01Z</time>
      </trkpt>
      <trkpt lat="47.31992" lon="4.94203">
        <ele>465</ele>
        <time>2012-10-07T09:39:03Z</time>
      </trkpt>
      <trkpt lat="47.31996" lon="4.94199">
        <ele>466</ele>
        <time>2012-10-07T09:39:07Z</time>
      </trkpt>
      <trkpt lat="47.32" lon="4.94193">
        <ele>467</ele>
        <time>2012-10-07T09:39:10Z</time>
      </trkpt>
      <trkpt lat="47.32004" lon="4.94188">
        <ele>465</ele>
        <time>2012-10-07T09:39:13Z</time>
      </trkpt>
      <trkpt lat="47.32008" lon="4.94184">
        <ele>464</ele>
        <time>2012-10-07T09:39:15Z</time>
      </trkpt>
      <trkpt lat="47.32012" lon="4.94177">
        <ele>463</ele>
        <time>2012-10-07T09:39:20Z</time>
      </trkpt>
      <trkpt lat="47.32015" lon="4.94171">
        <ele>462</ele>
        <time>2012-10-07T09:39:23Z</time>
      </trkpt>
      <trkpt lat="47.32017" lon="4.94165">
        <ele>461</ele>
        <time>2012-10-07T09:39:26Z</time>
      </trkpt>
      <trkpt lat="47.3202" lon="4.9416">
        <ele>460</ele>
        <time>2012-10-07T09:39:28Z</time>
      </trkpt>
      <trkpt lat="47.32023" lon="4.94155">
        <ele>459</ele>
        <time>2012-10-07T09:39:31Z</time>
      </trkpt>
      <trkpt lat="47.32027" lon="4.94148">
        <ele>458</ele>
        <time>2012-10-07T09:39:35Z</time>
      </trkpt>
      <trkpt lat="47.32029" lon="4.94143">
        <ele>457</ele>
        <time>2012-10-07T09:39:38Z</time>
      </trkpt>
      <trkpt lat="47.32034" lon="4.94137">
        <ele>457</ele>
        <time>2012-10-07T09:39:41Z</time>
      </trkpt>
      <trkpt lat="47.32036" lon="4.9413">
        <ele>457</ele>
        <time>2012-10-07T09:39:44Z</time>
      </trkpt>
      <trkpt lat="47.3204" lon="4.94127">
        <ele>458</ele>
        <time>2012-10-07T09:39:47Z</time>
      </trkpt>
      <trkpt lat="47.32043" lon="4.9412">
        <ele>459</ele>
        <time>2012-10-07T09:39:50Z</time>
      </trkpt>
      <trkpt lat="47.32046" lon="4.94114">
        <ele>459</ele>
        <time>2012-10-07T09:39:53Z</time>
      </trkpt>
      <trkpt lat="47.32051" lon="4.94112">
        <ele>460</ele>
        <time>2012-10-07T09:39:57Z</time>
      </trkpt>
      <trkpt lat="47.32056" lon="4.94107">
        <ele>461</ele>
        <time>2012-10-07T09:40:00Z</time>
      </trkpt>
      <trkpt lat="47.3206" lon="4.94104">
        <ele>461</ele>
        <time>2012-10-07T09:40:03Z</time>
      </trkpt>
      <trkpt lat="47.32066" lon="4.94102">
        <ele>463</ele>
        <time>2012-10-07T09:40:06Z</time>
      </trkpt>
      <trkpt lat="47.32071" lon="4.94102">
        <ele>464</ele>
        <time>2012-10-07T09:40:09Z</time>
      </trkpt>
      <trkpt lat="47.32078" lon="4.941">
        <ele>463</ele>
        <time>2012-10-07T09:40:12Z</time>
      </trkpt>
      <trkpt lat="47.32083" lon="4.941">
        <ele>462</ele>
        <time>2012-10-07T09:40:15Z</time>
      </trkpt>
      <trkpt lat="47.32089" lon="4.941">
        <ele>460</ele>
        <time>2012-10-07T09:40:18Z</time>
      </trkpt>
      <trkpt lat="47.32094" lon="4.94101">
        <ele>459</ele>
        <time>2012-10-07T09:40:21Z</time>
      </trkpt>
      <trkpt lat="47.32098" lon="4.94103">
        <ele>458</ele>
        <time>2012-10-07T09:40:23Z</time>
      </trkpt>
      <trkpt lat="47.32102" lon="4.94107">
        <ele>457</ele>
        <time>2012-10-07T09:40:26Z</time>
      </trkpt>
      <trkpt lat="47.32105" lon="4.94112">
        <ele>454</ele>
        <time>2012-10-07T09:40:28Z</time>
      </trkpt>
      <trkpt lat="47.32111" lon="4.94111">
        <ele>453</ele>
        <time>2012-10-07T09:40:31Z</time>
      </trkpt>
      <trkpt lat="47.32115" lon="4.94106">
        <ele>452</ele>
        <time>2012-10-07T09:40:34Z</time>
      </trkpt>
      <trkpt lat="47.32119" lon="4.94102">
        <ele>452</ele>
        <time>2012-10-07T09:40:38Z</time>
      </trkpt>
      <trkpt lat="47.32124" lon="4.94098">
        <ele>453</ele>
        <time>2012-10-07T09:40:41Z</time>
      </trkpt>
      <trkpt lat="47.32126" lon="4.94091">
        <ele>454</ele>
        <time>2012-10-07T09:40:45Z</time>
      </trkpt>
      <trkpt lat="47.32131" lon="4.94084">
        <ele>452</ele>
        <time>2012-10-07T09:40:49Z</time>
      </trkpt>
      <trkpt lat="47.32137" lon="4.9408">
        <ele>452</ele>
        <time>2012-10-07T09:40:52Z</time>
      </trkpt>
      <trkpt lat="47.32141" lon="4.94077">
        <ele>453</ele>
        <time>2012-10-07T09:40:56Z</time>
      </trkpt>
      <trkpt lat="47.32145" lon="4.94072">
        <ele>453</ele>
        <time>2012-10-07T09:40:58Z</time>
      </trkpt>
      <trkpt lat="47.32147" lon="4.94067">
        <ele>453</ele>
        <time>2012-10-07T09:41:01Z</time>
      </trkpt>
      <trkpt lat="47.32152" lon="4.94061">
        <ele>452</ele>
        <time>2012-10-07T09:41:04Z</time>
      </trkpt>
      <trkpt lat="47.32156" lon="4.94055">
        <ele>453</ele>
        <time>2012-10-07T09:41:07Z</time>
      </trkpt>
      <trkpt lat="47.3216" lon="4.9405">
        <ele>453</ele>
        <time>2012-10-07T09:41:11Z</time>
      </trkpt>
      <trkpt lat="47.32162" lon="4.94044">
        <ele>453</ele>
        <time>2012-10-07T09:41:14Z</time>
      </trkpt>
      <trkpt lat="47.32167" lon="4.94038">
        <ele>455</ele>
        <time>2012-10-07T09:41:17Z</time>
      </trkpt>
      <trkpt lat="47.32171" lon="4.94035">
        <ele>458</ele>
        <time>2012-10-07T09:41:21Z</time>
      </trkpt>
      <trkpt lat="47.32176" lon="4.9403">
        <ele>458</ele>
        <time>2012-10-07T09:41:25Z</time>
      </trkpt>
      <trkpt lat="47.3218" lon="4.94026">
        <ele>457</ele>
        <time>2012-10-07T09:41:28Z</time>
      </trkpt>
      <trkpt lat="47.32184" lon="4.94022">
        <ele>455</ele>
        <time>2012-10-07T09:41:31Z</time>
      </trkpt>
      <trkpt lat="47.32188" lon="4.94015">
        <ele>454</ele>
        <time>2012-10-07T09:41:34Z</time>
      </trkpt>
      <trkpt lat="47.32191" lon="4.94009">
        <ele>453</ele>
        <time>2012-10-07T09:41:37Z</time>
      </trkpt>
      <trkpt lat="47.32193" lon="4.94004">
        <ele>454</ele>
        <time>2012-10-07T09:41:40Z</time>
      </trkpt>
      <trkpt lat="47.32197" lon="4.93998">
        <ele>453</ele>
        <time>2012-10-07T09:41:43Z</time>
      </trkpt>
      <trkpt lat="47.32199" lon="4.93993">
        <ele>453</ele>
        <time>2012-10-07T09:41:46Z</time>
      </trkpt>
      <trkpt lat="47.32205" lon="4.93987">
        <ele>455</ele>
        <time>2012-10-07T09:41:50Z</time>
      </trkpt>
      <trkpt lat="47.32211" lon="4.93984">
        <ele>455</ele>
        <time>2012-10-07T09:41:53Z</time>
      </trkpt>
      <trkpt lat="47.32215" lon="4.93979">
        <ele>456</ele>
        <time>2012-10-07T09:41:57Z</time>
      </trkpt>
      <trkpt lat="47.32219" lon="4.93973">
        <ele>456</ele>
        <time>2012-10-07T09:42:01Z</time>
      </trkpt>
      <trkpt lat="47.32222" lon="4.93965">
        <ele>456</ele>
        <time>2012-10-07T09:42:05Z</time>
      </trkpt>
      <trkpt lat="47.32226" lon="4.93959">
        <ele>458</ele>
        <time>2012-10-07T09:42:08Z</time>
      </trkpt>
      <trkpt lat="47.3223" lon="4.93954">
        <ele>459</ele>
        <time>2012-10-07T09:42:11Z</time>
      </trkpt>
      <trkpt lat="47.32234" lon="4.93949">
        <ele>459</ele>
        <time>2012-10-07T09:42:15Z</time>
      </trkpt>
      <trkpt lat="47.32236" lon="4.93943">
        <ele>459</ele>
        <time>2012-10-07T09:42:18Z</time>
      </trkpt>
      <trkpt lat="47.32242" lon="4.93939">
        <ele>457</ele>
        <time>2012-10-07T09:42:21Z</time>
      </trkpt>
      <trkpt lat="47.32246" lon="4.93934">
        <ele>458</ele>
        <time>2012-10-07T09:42:24Z</time>
      </trkpt>
      <trkpt lat="47.3225" lon="4.93931">
        <ele>457</ele>
        <time>2012-10-07T09:42:27Z</time>
      </trkpt>
      <trkpt lat="47.32254" lon="4.93926">
        <ele>457</ele>
        <time>2012-10-07T09:42:30Z</time>
      </trkpt>
      <trkpt lat="47.32258" lon="4.93919">
        <ele>458</ele>
        <time>2012-10-07T09:42:33Z</time>
      </trkpt>
      <trkpt lat="47.32262" lon="4.93911">
        <ele>458</ele>
        <time>2012-10-07T09:42:36Z</time>
      </trkpt>
      <trkpt lat="47.32265" lon="4.93907">
        <ele>459</ele>
        <time>2012-10-07T09:42:39Z</time>
      </trkpt>
      <trkpt lat="47.3227" lon="4.93903">
        <ele>459</ele>
        <time>2012-10-07T09:42:43Z</time>
      </trkpt>
      <trkpt lat="47.32276" lon="4.93898">
        <ele>458</ele>
        <time>2012-10-07T09:42:47Z</time>
      </trkpt>
      <trkpt lat="47.3228" lon="4.9389">
        <ele>456</ele>
        <time>2012-10-07T09:42:50Z</time>
      </trkpt>
      <trkpt lat="47.32284" lon="4.93884">
        <ele>456</ele>
        <time>2012-10-07T09:42:53Z</time>
      </trkpt>
      <trkpt lat="47.32292" lon="4.93877">
        <ele>452</ele>
        <time>2012-10-07T09:42:55Z</time>
      </trkpt>
      <trkpt lat="47.32298" lon="4.93874">
        <ele>447</ele>
        <time>2012-10-07T09:42:57Z</time>
      </trkpt>
      <trkpt lat="47.32303" lon="4.93874">
        <ele>446</ele>
        <time>2012-10-07T09:43:00Z</time>
      </trkpt>
      <trkpt lat="47.32303" lon="4.93874">
        <ele>446</ele>
        <time>2012-10-07T09:43:00Z</time>
      </trkpt>
      <trkpt lat="47.32303" lon="4.93874">
        <ele>446</ele>
        <time>2012-10-07T09:43:01Z</time>
      </trkpt>
      <trkpt lat="47.32307" lon="4.93878">
        <ele>445</ele>
        <time>2012-10-07T09:43:03Z</time>
      </trkpt>
      <trkpt lat="47.32311" lon="4.93882">
        <ele>443</ele>
        <time>2012-10-07T09:43:08Z</time>
      </trkpt>
      <trkpt lat="47.32314" lon="4.93887">
        <ele>441</ele>
        <time>2012-10-07T09:43:11Z</time>
      </trkpt>
      <trkpt lat="47.32317" lon="4.93893">
        <ele>441</ele>
        <time>2012-10-07T09:43:14Z</time>
      </trkpt>
      <trkpt lat="47.32321" lon="4.939">
        <ele>441</ele>
        <time>2012-10-07T09:43:18Z</time>
      </trkpt>
      <trkpt lat="47.32325" lon="4.93906">
        <ele>442</ele>
        <time>2012-10-07T09:43:21Z</time>
      </trkpt>
      <trkpt lat="47.32328" lon="4.93912">
        <ele>441</ele>
        <time>2012-10-07T09:43:26Z</time>
      </trkpt>
      <trkpt lat="47.3233" lon="4.93918">
        <ele>440</ele>
        <time>2012-10-07T09:43:34Z</time>
      </trkpt>
      <trkpt lat="47.3233" lon="4.93918">
        <ele>440</ele>
        <time>2012-10-07T09:43:34Z</time>
      </trkpt>
      <trkpt lat="47.3233" lon="4.93918">
        <ele>440</ele>
        <time>2012-10-07T09:43:35Z</time>
      </trkpt>
      <trkpt lat="47.32331" lon="4.93924">
        <ele>438</ele>
        <time>2012-10-07T09:43:38Z</time>
      </trkpt>
      <trkpt lat="47.32334" lon="4.9393">
        <ele>439</ele>
        <time>2012-10-07T09:43:42Z</time>
      </trkpt>
      <trkpt lat="47.32339" lon="4.93934">
        <ele>437</ele>
        <time>2012-10-07T09:43:45Z</time>
      </trkpt>
      <trkpt lat="47.32343" lon="4.93938">
        <ele>437</ele>
        <time>2012-10-07T09:43:47Z</time>
      </trkpt>
      <trkpt lat="47.32346" lon="4.93945">
        <ele>436</ele>
        <time>2012-10-07T09:43:53Z</time>
      </trkpt>
      <trkpt lat="47.3235" lon="4.93951">
        <ele>436</ele>
        <time>2012-10-07T09:43:56Z</time>
      </trkpt>
      <trkpt lat="47.32353" lon="4.93959">
        <ele>436</ele>
        <time>2012-10-07T09:43:58Z</time>
      </trkpt>
      <trkpt lat="47.32358" lon="4.93966">
        <ele>435</ele>
        <time>2012-10-07T09:44:01Z</time>
      </trkpt>
      <trkpt lat="47.32363" lon="4.93971">
        <ele>432</ele>
        <time>2012-10-07T09:44:04Z</time>
      </trkpt>
      <trkpt lat="47.32366" lon="4.93978">
        <ele>432</ele>
        <time>2012-10-07T09:44:07Z</time>
      </trkpt>
      <trkpt lat="47.3237" lon="4.93984">
        <ele>430</ele>
        <time>2012-10-07T09:44:11Z</time>
      </trkpt>
      <trkpt lat="47.32374" lon="4.9399">
        <ele>432</ele>
        <time>2012-10-07T09:44:13Z</time>
      </trkpt>
      <trkpt lat="47.32376" lon="4.93997">
        <ele>431</ele>
        <time>2012-10-07T09:44:16Z</time>
      </trkpt>
      <trkpt lat="47.32378" lon="4.94004">
        <ele>429</ele>
        <time>2012-10-07T09:44:17Z</time>
      </trkpt>
      <trkpt lat="47.32383" lon="4.94005">
        <ele>430</ele>
        <time>2012-10-07T09:44:22Z</time>
      </trkpt>
      <trkpt lat="47.32383" lon="4.94012">
        <ele>429</ele>
        <time>2012-10-07T09:44:24Z</time>
      </trkpt>
      <trkpt lat="47.32386" lon="4.9402">
        <ele>428</ele>
        <time>2012-10-07T09:44:26Z</time>
      </trkpt>
      <trkpt lat="47.32386" lon="4.94013">
        <ele>427</ele>
        <time>2012-10-07T09:44:34Z</time>
      </trkpt>
      <trkpt lat="47.32386" lon="4.94006">
        <ele>426</ele>
        <time>2012-10-07T09:44:39Z</time>
      </trkpt>
      <trkpt lat="47.32385" lon="4.93997">
        <ele>425</ele>
        <time>2012-10-07T09:44:44Z</time>
      </trkpt>
      <trkpt lat="47.32385" lon="4.9399">
        <ele>426</ele>
        <time>2012-10-07T09:44:49Z</time>
      </trkpt>
      <trkpt lat="47.32383" lon="4.93984">
        <ele>424</ele>
        <time>2012-10-07T09:44:53Z</time>
      </trkpt>
      <trkpt lat="47.32382" lon="4.93975">
        <ele>424</ele>
        <time>2012-10-07T09:44:57Z</time>
      </trkpt>
      <trkpt lat="47.32383" lon="4.93966">
        <ele>425</ele>
        <time>2012-10-07T09:45:01Z</time>
      </trkpt>
      <trkpt lat="47.32386" lon="4.9396">
        <ele>424</ele>
        <time>2012-10-07T09:45:05Z</time>
      </trkpt>
      <trkpt lat="47.32389" lon="4.93953">
        <ele>421</ele>
        <time>2012-10-07T09:45:08Z</time>
      </trkpt>
      <trkpt lat="47.32389" lon="4.93945">
        <ele>419</ele>
        <time>2012-10-07T09:45:11Z</time>
      </trkpt>
      <trkpt lat="47.32389" lon="4.93937">
        <ele>417</ele>
        <time>2012-10-07T09:45:15Z</time>
      </trkpt>
      <trkpt lat="47.32389" lon="4.93929">
        <ele>416</ele>
        <time>2012-10-07T09:45:18Z</time>
      </trkpt>
      <trkpt lat="47.3239" lon="4.93922">
        <ele>415</ele>
        <time>2012-10-07T09:45:21Z</time>
      </trkpt>
      <trkpt lat="47.32389" lon="4.93914">
        <ele>415</ele>
        <time>2012-10-07T09:45:25Z</time>
      </trkpt>
      <trkpt lat="47.32389" lon="4.93906">
        <ele>415</ele>
        <time>2012-10-07T09:45:28Z</time>
      </trkpt>
      <trkpt lat="47.32388" lon="4.93898">
        <ele>415</ele>
        <time>2012-10-07T09:45:32Z</time>
      </trkpt>
      <trkpt lat="47.32388" lon="4.93889">
        <ele>415</ele>
        <time>2012-10-07T09:45:35Z</time>
      </trkpt>
      <trkpt lat="47.32388" lon="4.93881">
        <ele>416</ele>
        <time>2012-10-07T09:45:39Z</time>
      </trkpt>
      <trkpt lat="47.32389" lon="4.93872">
        <ele>415</ele>
        <time>2012-10-07T09:45:45Z</time>
      </trkpt>
      <trkpt lat="47.32389" lon="4.93864">
        <ele>415</ele>
        <time>2012-10-07T09:45:49Z</time>
      </trkpt>
      <trkpt lat="47.32388" lon="4.93857">
        <ele>414</ele>
        <time>2012-10-07T09:45:52Z</time>
      </trkpt>
      <trkpt lat="47.32391" lon="4.9385">
        <ele>411</ele>
        <time>2012-10-07T09:45:55Z</time>
      </trkpt>
      <trkpt lat="47.32391" lon="4.93843">
        <ele>409</ele>
        <time>2012-10-07T09:45:59Z</time>
      </trkpt>
      <trkpt lat="47.32391" lon="4.93836">
        <ele>408</ele>
        <time>2012-10-07T09:46:02Z</time>
      </trkpt>
      <trkpt lat="47.32391" lon="4.9383">
        <ele>406</ele>
        <time>2012-10-07T09:46:06Z</time>
      </trkpt>
      <trkpt lat="47.32392" lon="4.93822">
        <ele>407</ele>
        <time>2012-10-07T09:46:08Z</time>
      </trkpt>
      <trkpt lat="47.32394" lon="4.93815">
        <ele>407</ele>
        <time>2012-10-07T09:46:14Z</time>
      </trkpt>
      <trkpt lat="47.32395" lon="4.93805">
        <ele>406</ele>
        <time>2012-10-07T09:46:20Z</time>
      </trkpt>
      <trkpt lat="47.32394" lon="4.93798">
        <ele>406</ele>
        <time>2012-10-07T09:46:26Z</time>
      </trkpt>
      <trkpt lat="47.32392" lon="4.93791">
        <ele>405</ele>
        <time>2012-10-07T09:46:29Z</time>
      </trkpt>
      <trkpt lat="47.32394" lon="4.93784">
        <ele>407</ele>
        <time>2012-10-07T09:46:33Z</time>
      </trkpt>
      <trkpt lat="47.32395" lon="4.93778">
        <ele>406</ele>
        <time>2012-10-07T09:46:38Z</time>
      </trkpt>
      <trkpt lat="47.32396" lon="4.93771">
        <ele>406</ele>
        <time>2012-10-07T09:46:42Z</time>
      </trkpt>
      <trkpt lat="47.32396" lon="4.93764">
        <ele>402</ele>
        <time>2012-10-07T09:46:47Z</time>
      </trkpt>
      <trkpt lat="47.32395" lon="4.93756">
        <ele>401</ele>
        <time>2012-10-07T09:46:51Z</time>
      </trkpt>
      <trkpt lat="47.32396" lon="4.9375">
        <ele>401</ele>
        <time>2012-10-07T09:46:55Z</time>
      </trkpt>
      <trkpt lat="47.32397" lon="4.93742">
        <ele>401</ele>
        <time>2012-10-07T09:47:01Z</time>
      </trkpt>
      <trkpt lat="47.324" lon="4.93737">
        <ele>400</ele>
        <time>2012-10-07T09:47:06Z</time>
      </trkpt>
      <trkpt lat="47.324" lon="4.9373">
        <ele>401</ele>
        <time>2012-10-07T09:47:15Z</time>
      </trkpt>
      <trkpt lat="47.324" lon="4.9373">
        <ele>401</ele>
        <time>2012-10-07T09:47:15Z</time>
      </trkpt>
      <trkpt lat="47.324" lon="4.9373">
        <ele>401</ele>
        <time>2012-10-07T09:47:17Z</time>
      </trkpt>
      <trkpt lat="47.32405" lon="4.93724">
        <ele>399</ele>
        <time>2012-10-07T09:47:21Z</time>
      </trkpt>
      <trkpt lat="47.3241" lon="4.93721">
        <ele>394</ele>
        <time>2012-10-07T09:47:26Z</time>
      </trkpt>
      <trkpt lat="47.32415" lon="4.93719">
        <ele>395</ele>
        <time>2012-10-07T09:47:32Z</time>
      </trkpt>
      <trkpt lat="47.32419" lon="4.93713">
        <ele>394</ele>
        <time>2012-10-07T09:47:36Z</time>
      </trkpt>
      <trkpt lat="47.32421" lon="4.93707">
        <ele>391</ele>
        <time>2012-10-07T09:47:38Z</time>
      </trkpt>
      <trkpt lat="47.32426" lon="4.93702">
        <ele>385</ele>
        <time>2012-10-07T09:47:40Z</time>
      </trkpt>
      <trkpt lat="47.32432" lon="4.93701">
        <ele>382</ele>
        <time>2012-10-07T09:47:43Z</time>
      </trkpt>
      <trkpt lat="47.32438" lon="4.937">
        <ele>381</ele>
        <time>2012-10-07T09:47:45Z</time>
      </trkpt>
      <trkpt lat="47.32444" lon="4.937">
        <ele>380</ele>
        <time>2012-10-07T09:47:48Z</time>
      </trkpt>
      <trkpt lat="47.3245" lon="4.93703">
        <ele>380</ele>
        <time>2012-10-07T09:47:51Z</time>
      </trkpt>
      <trkpt lat="47.32454" lon="4.93705">
        <ele>380</ele>
        <time>2012-10-07T09:47:53Z</time>
      </trkpt>
      <trkpt lat="47.32458" lon="4.93707">
        <ele>379</ele>
        <time>2012-10-07T09:47:55Z</time>
      </trkpt>
      <trkpt lat="47.32463" lon="4.93707">
        <ele>378</ele>
        <time>2012-10-07T09:47:57Z</time>
      </trkpt>
      <trkpt lat="47.3247" lon="4.93709">
        <ele>379</ele>
        <time>2012-10-07T09:47:59Z</time>
      </trkpt>
      <trkpt lat="47.32476" lon="4.93715">
        <ele>378</ele>
        <time>2012-10-07T09:48:02Z</time>
      </trkpt>
      <trkpt lat="47.32482" lon="4.93719">
        <ele>377</ele>
        <time>2012-10-07T09:48:05Z</time>
      </trkpt>
      <trkpt lat="47.32486" lon="4.93725">
        <ele>374</ele>
        <time>2012-10-07T09:48:09Z</time>
      </trkpt>
      <trkpt lat="47.3249" lon="4.9373">
        <ele>372</ele>
        <time>2012-10-07T09:48:13Z</time>
      </trkpt>
      <trkpt lat="47.32495" lon="4.93736">
        <ele>370</ele>
        <time>2012-10-07T09:48:16Z</time>
      </trkpt>
      <trkpt lat="47.325" lon="4.93739">
        <ele>370</ele>
        <time>2012-10-07T09:48:20Z</time>
      </trkpt>
      <trkpt lat="47.32505" lon="4.93742">
        <ele>370</ele>
        <time>2012-10-07T09:48:23Z</time>
      </trkpt>
      <trkpt lat="47.32509" lon="4.93742">
        <ele>371</ele>
        <time>2012-10-07T09:48:25Z</time>
      </trkpt>
      <trkpt lat="47.32513" lon="4.93746">
        <ele>371</ele>
        <time>2012-10-07T09:48:28Z</time>
      </trkpt>
      <trkpt lat="47.32518" lon="4.93747">
        <ele>369</ele>
        <time>2012-10-07T09:48:30Z</time>
      </trkpt>
      <trkpt lat="47.32523" lon="4.9375">
        <ele>368</ele>
        <time>2012-10-07T09:48:32Z</time>
      </trkpt>
      <trkpt lat="47.32529" lon="4.93752">
        <ele>367</ele>
        <time>2012-10-07T09:48:35Z</time>
      </trkpt>
      <trkpt lat="47.32534" lon="4.93753">
        <ele>368</ele>
        <time>2012-10-07T09:48:39Z</time>
      </trkpt>
      <trkpt lat="47.32539" lon="4.93756">
        <ele>365</ele>
        <time>2012-10-07T09:48:43Z</time>
      </trkpt>
      <trkpt lat="47.32545" lon="4.93756">
        <ele>365</ele>
        <time>2012-10-07T09:48:46Z</time>
      </trkpt>
      <trkpt lat="47.32551" lon="4.93759">
        <ele>364</ele>
        <time>2012-10-07T09:48:49Z</time>
      </trkpt>
      <trkpt lat="47.32556" lon="4.93761">
        <ele>364</ele>
        <time>2012-10-07T09:48:51Z</time>
      </trkpt>
      <trkpt lat="47.32561" lon="4.93765">
        <ele>364</ele>
        <time>2012-10-07T09:48:53Z</time>
      </trkpt>
      <trkpt lat="47.32567" lon="4.93769">
        <ele>363</ele>
        <time>2012-10-07T09:48:55Z</time>
      </trkpt>
      <trkpt lat="47.32572" lon="4.93774">
        <ele>362</ele>
        <time>2012-10-07T09:48:58Z</time>
      </trkpt>
      <trkpt lat="47.32576" lon="4.93776">
        <ele>362</ele>
        <time>2012-10-07T09:49:00Z</time>
      </trkpt>
      <trkpt lat="47.32582" lon="4.93774">
        <ele>362</ele>
        <time>2012-10-07T09:49:04Z</time>
      </trkpt>
      <trkpt lat="47.32587" lon="4.93778">
        <ele>360</ele>
        <time>2012-10-07T09:49:07Z</time>
      </trkpt>
      <trkpt lat="47.32591" lon="4.93781">
        <ele>357</ele>
        <time>2012-10-07T09:49:10Z</time>
      </trkpt>
      <trkpt lat="47.32595" lon="4.93786">
        <ele>356</ele>
        <time>2012-10-07T09:49:13Z</time>
      </trkpt>
      <trkpt lat="47.326" lon="4.93789">
        <ele>356</ele>
        <time>2012-10-07T09:49:16Z</time>
      </trkpt>
      <trkpt lat="47.32607" lon="4.93797">
        <ele>356</ele>
        <time>2012-10-07T09:49:20Z</time>
      </trkpt>
      <trkpt lat="47.3261" lon="4.93803">
        <ele>356</ele>
        <time>2012-10-07T09:49:25Z</time>
      </trkpt>
      <trkpt lat="47.32615" lon="4.93806">
        <ele>356</ele>
        <time>2012-10-07T09:49:27Z</time>
      </trkpt>
      <trkpt lat="47.32619" lon="4.9381">
        <ele>356</ele>
        <time>2012-10-07T09:49:30Z</time>
      </trkpt>
      <trkpt lat="47.32623" lon="4.93814">
        <ele>356</ele>
        <time>2012-10-07T09:49:32Z</time>
      </trkpt>
      <trkpt lat="47.32626" lon="4.9382">
        <ele>355</ele>
        <time>2012-10-07T09:49:35Z</time>
      </trkpt>
      <trkpt lat="47.32628" lon="4.93825">
        <ele>354</ele>
        <time>2012-10-07T09:49:39Z</time>
      </trkpt>
      <trkpt lat="47.32634" lon="4.93831">
        <ele>354</ele>
        <time>2012-10-07T09:49:43Z</time>
      </trkpt>
      <trkpt lat="47.32638" lon="4.93835">
        <ele>354</ele>
        <time>2012-10-07T09:49:46Z</time>
      </trkpt>
      <trkpt lat="47.32642" lon="4.93841">
        <ele>352</ele>
        <time>2012-10-07T09:49:49Z</time>
      </trkpt>
      <trkpt lat="47.32647" lon="4.93846">
        <ele>352</ele>
        <time>2012-10-07T09:49:51Z</time>
      </trkpt>
      <trkpt lat="47.3265" lon="4.9385">
        <ele>351</ele>
        <time>2012-10-07T09:49:54Z</time>
      </trkpt>
      <trkpt lat="47.32655" lon="4.93855">
        <ele>351</ele>
        <time>2012-10-07T09:49:56Z</time>
      </trkpt>
      <trkpt lat="47.32659" lon="4.93861">
        <ele>351</ele>
        <time>2012-10-07T09:49:58Z</time>
      </trkpt>
      <trkpt lat="47.32663" lon="4.93864">
        <ele>350</ele>
        <time>2012-10-07T09:50:01Z</time>
      </trkpt>
      <trkpt lat="47.32664" lon="4.93871">
        <ele>350</ele>
        <time>2012-10-07T09:50:02Z</time>
      </trkpt>
      <trkpt lat="47.32667" lon="4.93878">
        <ele>350</ele>
        <time>2012-10-07T09:50:09Z</time>
      </trkpt>
      <trkpt lat="47.32671" lon="4.93882">
        <ele>350</ele>
        <time>2012-10-07T09:50:11Z</time>
      </trkpt>
      <trkpt lat="47.32674" lon="4.93888">
        <ele>348</ele>
        <time>2012-10-07T09:50:14Z</time>
      </trkpt>
      <trkpt lat="47.32679" lon="4.93894">
        <ele>348</ele>
        <time>2012-10-07T09:50:17Z</time>
      </trkpt>
      <trkpt lat="47.32683" lon="4.93901">
        <ele>349</ele>
        <time>2012-10-07T09:50:20Z</time>
      </trkpt>
      <trkpt lat="47.32688" lon="4.93906">
        <ele>349</ele>
        <time>2012-10-07T09:50:23Z</time>
      </trkpt>
      <trkpt lat="47.32692" lon="4.93908">
        <ele>350</ele>
        <time>2012-10-07T09:50:25Z</time>
      </trkpt>
      <trkpt lat="47.32697" lon="4.93916">
        <ele>350</ele>
        <time>2012-10-07T09:50:28Z</time>
      </trkpt>
      <trkpt lat="47.327" lon="4.93923">
        <ele>348</ele>
        <time>2012-10-07T09:50:31Z</time>
      </trkpt>
      <trkpt lat="47.32705" lon="4.93926">
        <ele>347</ele>
        <time>2012-10-07T09:50:35Z</time>
      </trkpt>
      <trkpt lat="47.32708" lon="4.93931">
        <ele>344</ele>
        <time>2012-10-07T09:50:40Z</time>
      </trkpt>
      <trkpt lat="47.32713" lon="4.93934">
        <ele>343</ele>
        <time>2012-10-07T09:50:43Z</time>
      </trkpt>
      <trkpt lat="47.32718" lon="4.93938">
        <ele>343</ele>
        <time>2012-10-07T09:50:46Z</time>
      </trkpt>
      <trkpt lat="47.32723" lon="4.9394">
        <ele>342</ele>
        <time>2012-10-07T09:50:50Z</time>
      </trkpt>
      <trkpt lat="47.32728" lon="4.93944">
        <ele>340</ele>
        <time>2012-10-07T09:50:54Z</time>
      </trkpt>
      <trkpt lat="47.32732" lon="4.93949">
        <ele>340</ele>
        <time>2012-10-07T09:50:57Z</time>
      </trkpt>
      <trkpt lat="47.32736" lon="4.93953">
        <ele>340</ele>
        <time>2012-10-07T09:51:00Z</time>
      </trkpt>
      <trkpt lat="47.32736" lon="4.93953">
        <ele>340</ele>
        <time>2012-10-07T09:51:00Z</time>
      </trkpt>
      <trkpt lat="47.32736" lon="4.93953">
        <ele>340</ele>
        <time>2012-10-07T09:51:01Z</time>
      </trkpt>
      <trkpt lat="47.32741" lon="4.93956">
        <ele>341</ele>
        <time>2012-10-07T09:51:05Z</time>
      </trkpt>
      <trkpt lat="47.32746" lon="4.93958">
        <ele>340</ele>
        <time>2012-10-07T09:51:08Z</time>
      </trkpt>
      <trkpt lat="47.32751" lon="4.93962">
        <ele>340</ele>
        <time>2012-10-07T09:51:10Z</time>
      </trkpt>
      <trkpt lat="47.32756" lon="4.93967">
        <ele>338</ele>
        <time>2012-10-07T09:51:14Z</time>
      </trkpt>
      <trkpt lat="47.32763" lon="4.93972">
        <ele>335</ele>
        <time>2012-10-07T09:51:18Z</time>
      </trkpt>
      <trkpt lat="47.32773" lon="4.93984">
        <ele>332</ele>
        <time>2012-10-07T09:51:26Z</time>
      </trkpt>
      <trkpt lat="47.32778" lon="4.93984">
        <ele>332</ele>
        <time>2012-10-07T09:51:28Z</time>
      </trkpt>
      <trkpt lat="47.32784" lon="4.93994">
        <ele>333</ele>
        <time>2012-10-07T09:51:32Z</time>
      </trkpt>
      <trkpt lat="47.32788" lon="4.93999">
        <ele>333</ele>
        <time>2012-10-07T09:51:34Z</time>
      </trkpt>
      <trkpt lat="47.32792" lon="4.94005">
        <ele>333</ele>
        <time>2012-10-07T09:51:37Z</time>
      </trkpt>
      <trkpt lat="47.32795" lon="4.94012">
        <ele>333</ele>
        <time>2012-10-07T09:51:39Z</time>
      </trkpt>
      <trkpt lat="47.32801" lon="4.94016">
        <ele>334</ele>
        <time>2012-10-07T09:51:44Z</time>
      </trkpt>
      <trkpt lat="47.32807" lon="4.94017">
        <ele>333</ele>
        <time>2012-10-07T09:51:47Z</time>
      </trkpt>
      <trkpt lat="47.32812" lon="4.94019">
        <ele>331</ele>
        <time>2012-10-07T09:51:51Z</time>
      </trkpt>
      <trkpt lat="47.32817" lon="4.94019">
        <ele>330</ele>
        <time>2012-10-07T09:51:54Z</time>
      </trkpt>
      <trkpt lat="47.32823" lon="4.9402">
        <ele>326</ele>
        <time>2012-10-07T09:51:58Z</time>
      </trkpt>
      <trkpt lat="47.32828" lon="4.94025">
        <ele>325</ele>
        <time>2012-10-07T09:52:02Z</time>
      </trkpt>
      <trkpt lat="47.32831" lon="4.9403">
        <ele>324</ele>
        <time>2012-10-07T09:52:05Z</time>
      </trkpt>
      <trkpt lat="47.32834" lon="4.94034">
        <ele>324</ele>
        <time>2012-10-07T09:52:08Z</time>
      </trkpt>
      <trkpt lat="47.32837" lon="4.9404">
        <ele>323</ele>
        <time>2012-10-07T09:52:11Z</time>
      </trkpt>
      <trkpt lat="47.3284" lon="4.94046">
        <ele>322</ele>
        <time>2012-10-07T09:52:14Z</time>
      </trkpt>
      <trkpt lat="47.32843" lon="4.94052">
        <ele>321</ele>
        <time>2012-10-07T09:52:17Z</time>
      </trkpt>
      <trkpt lat="47.32846" lon="4.94059">
        <ele>321</ele>
        <time>2012-10-07T09:52:20Z</time>
      </trkpt>
      <trkpt lat="47.32849" lon="4.94064">
        <ele>321</ele>
        <time>2012-10-07T09:52:23Z</time>
      </trkpt>
      <trkpt lat="47.32852" lon="4.9407">
        <ele>320</ele>
        <time>2012-10-07T09:52:26Z</time>
      </trkpt>
      <trkpt lat="47.32856" lon="4.94075">
        <ele>320</ele>
        <time>2012-10-07T09:52:30Z</time>
      </trkpt>
      <trkpt lat="47.32859" lon="4.9408">
        <ele>320</ele>
        <time>2012-10-07T09:52:33Z</time>
      </trkpt>
      <trkpt lat="47.32863" lon="4.94088">
        <ele>320</ele>
        <time>2012-10-07T09:52:37Z</time>
      </trkpt>
      <trkpt lat="47.32865" lon="4.94093">
        <ele>321</ele>
        <time>2012-10-07T09:52:40Z</time>
      </trkpt>
      <trkpt lat="47.32866" lon="4.94102">
        <ele>321</ele>
        <time>2012-10-07T09:52:43Z</time>
      </trkpt>
      <trkpt lat="47.32867" lon="4.94111">
        <ele>320</ele>
        <time>2012-10-07T09:52:46Z</time>
      </trkpt>
      <trkpt lat="47.32868" lon="4.94119">
        <ele>321</ele>
        <time>2012-10-07T09:52:49Z</time>
      </trkpt>
      <trkpt lat="47.3287" lon="4.94125">
        <ele>321</ele>
        <time>2012-10-07T09:52:52Z</time>
      </trkpt>
      <trkpt lat="47.32871" lon="4.94132">
        <ele>322</ele>
        <time>2012-10-07T09:52:55Z</time>
      </trkpt>
      <trkpt lat="47.32873" lon="4.94141">
        <ele>321</ele>
        <time>2012-10-07T09:52:58Z</time>
      </trkpt>
      <trkpt lat="47.32874" lon="4.94149">
        <ele>322</ele>
        <time>2012-10-07T09:53:01Z</time>
      </trkpt>
      <trkpt lat="47.32877" lon="4.94157">
        <ele>323</ele>
        <time>2012-10-07T09:53:04Z</time>
      </trkpt>
      <trkpt lat="47.32881" lon="4.94166">
        <ele>326</ele>
        <time>2012-10-07T09:53:07Z</time>
      </trkpt>
      <trkpt lat="47.32881" lon="4.94177">
        <ele>330</ele>
        <time>2012-10-07T09:53:10Z</time>
      </trkpt>
      <trkpt lat="47.32877" lon="4.94182">
        <ele>329</ele>
        <time>2012-10-07T09:53:13Z</time>
      </trkpt>
      <trkpt lat="47.32873" lon="4.94187">
        <ele>328</ele>
        <time>2012-10-07T09:53:16Z</time>
      </trkpt>
      <trkpt lat="47.32869" lon="4.94192">
        <ele>327</ele>
        <time>2012-10-07T09:53:19Z</time>
      </trkpt>
      <trkpt lat="47.32865" lon="4.94199">
        <ele>329</ele>
        <time>2012-10-07T09:53:23Z</time>
      </trkpt>
      <trkpt lat="47.3286" lon="4.94202">
        <ele>328</ele>
        <time>2012-10-07T09:53:26Z</time>
      </trkpt>
      <trkpt lat="47.32856" lon="4.94206">
        <ele>325</ele>
        <time>2012-10-07T09:53:32Z</time>
      </trkpt>
      <trkpt lat="47.32856" lon="4.94206">
        <ele>325</ele>
        <time>2012-10-07T09:53:32Z</time>
      </trkpt>
      <trkpt lat="47.32856" lon="4.94206">
        <ele>325</ele>
        <time>2012-10-07T09:53:33Z</time>
      </trkpt>
      <trkpt lat="47.32853" lon="4.94212">
        <ele>322</ele>
        <time>2012-10-07T09:53:39Z</time>
      </trkpt>
      <trkpt lat="47.3285" lon="4.94216">
        <ele>322</ele>
        <time>2012-10-07T09:53:42Z</time>
      </trkpt>
      <trkpt lat="47.32844" lon="4.94219">
        <ele>321</ele>
        <time>2012-10-07T09:53:44Z</time>
      </trkpt>
      <trkpt lat="47.32838" lon="4.94221">
        <ele>321</ele>
        <time>2012-10-07T09:53:46Z</time>
      </trkpt>
      <trkpt lat="47.32835" lon="4.94227">
        <ele>319</ele>
        <time>2012-10-07T09:53:48Z</time>
      </trkpt>
      <trkpt lat="47.3283" lon="4.94228">
        <ele>319</ele>
        <time>2012-10-07T09:53:50Z</time>
      </trkpt>
      <trkpt lat="47.32823" lon="4.94231">
        <ele>322</ele>
        <time>2012-10-07T09:53:53Z</time>
      </trkpt>
      <trkpt lat="47.32817" lon="4.9423">
        <ele>324</ele>
        <time>2012-10-07T09:53:56Z</time>
      </trkpt>
      <trkpt lat="47.32812" lon="4.94236">
        <ele>324</ele>
        <time>2012-10-07T09:54:00Z</time>
      </trkpt>
      <trkpt lat="47.32808" lon="4.9424">
        <ele>321</ele>
        <time>2012-10-07T09:54:03Z</time>
      </trkpt>
      <trkpt lat="47.32802" lon="4.9424">
        <ele>321</ele>
        <time>2012-10-07T09:54:08Z</time>
      </trkpt>
      <trkpt lat="47.32799" lon="4.94246">
        <ele>326</ele>
        <time>2012-10-07T09:54:14Z</time>
      </trkpt>
      <trkpt lat="47.32796" lon="4.94253">
        <ele>329</ele>
        <time>2012-10-07T09:54:18Z</time>
      </trkpt>
      <trkpt lat="47.32792" lon="4.94258">
        <ele>331</ele>
        <time>2012-10-07T09:54:23Z</time>
      </trkpt>
      <trkpt lat="47.32789" lon="4.94263">
        <ele>332</ele>
        <time>2012-10-07T09:54:26Z</time>
      </trkpt>
      <trkpt lat="47.32785" lon="4.94268">
        <ele>333</ele>
        <time>2012-10-07T09:54:29Z</time>
      </trkpt>
      <trkpt lat="47.32781" lon="4.94276">
        <ele>333</ele>
        <time>2012-10-07T09:54:32Z</time>
      </trkpt>
      <trkpt lat="47.32778" lon="4.94281">
        <ele>335</ele>
        <time>2012-10-07T09:54:36Z</time>
      </trkpt>
      <trkpt lat="47.32772" lon="4.94284">
        <ele>336</ele>
        <time>2012-10-07T09:54:39Z</time>
      </trkpt>
      <trkpt lat="47.32767" lon="4.94284">
        <ele>337</ele>
        <time>2012-10-07T09:54:42Z</time>
      </trkpt>
      <trkpt lat="47.32762" lon="4.94288">
        <ele>338</ele>
        <time>2012-10-07T09:54:46Z</time>
      </trkpt>
      <trkpt lat="47.32757" lon="4.94292">
        <ele>339</ele>
        <time>2012-10-07T09:54:49Z</time>
      </trkpt>
      <trkpt lat="47.32754" lon="4.94298">
        <ele>340</ele>
        <time>2012-10-07T09:54:53Z</time>
      </trkpt>
      <trkpt lat="47.3275" lon="4.94301">
        <ele>338</ele>
        <time>2012-10-07T09:54:56Z</time>
      </trkpt>
      <trkpt lat="47.32745" lon="4.94305">
        <ele>337</ele>
        <time>2012-10-07T09:54:59Z</time>
      </trkpt>
      <trkpt lat="47.32742" lon="4.9431">
        <ele>333</ele>
        <time>2012-10-07T09:55:02Z</time>
      </trkpt>
      <trkpt lat="47.32739" lon="4.94316">
        <ele>326</ele>
        <time>2012-10-07T09:55:06Z</time>
      </trkpt>
      <trkpt lat="47.32734" lon="4.94319">
        <ele>323</ele>
        <time>2012-10-07T09:55:12Z</time>
      </trkpt>
      <trkpt lat="47.32728" lon="4.9432">
        <ele>323</ele>
        <time>2012-10-07T09:55:16Z</time>
      </trkpt>
      <trkpt lat="47.32722" lon="4.94324">
        <ele>323</ele>
        <time>2012-10-07T09:55:19Z</time>
      </trkpt>
      <trkpt lat="47.32716" lon="4.94327">
        <ele>325</ele>
        <time>2012-10-07T09:55:23Z</time>
      </trkpt>
      <trkpt lat="47.32711" lon="4.9433">
        <ele>323</ele>
        <time>2012-10-07T09:55:27Z</time>
      </trkpt>
      <trkpt lat="47.32706" lon="4.9433">
        <ele>324</ele>
        <time>2012-10-07T09:55:31Z</time>
      </trkpt>
      <trkpt lat="47.327" lon="4.9433">
        <ele>325</ele>
        <time>2012-10-07T09:55:33Z</time>
      </trkpt>
      <trkpt lat="47.32695" lon="4.94335">
        <ele>324</ele>
        <time>2012-10-07T09:55:36Z</time>
      </trkpt>
      <trkpt lat="47.3269" lon="4.94337">
        <ele>324</ele>
        <time>2012-10-07T09:55:40Z</time>
      </trkpt>
      <trkpt lat="47.32685" lon="4.94341">
        <ele>324</ele>
        <time>2012-10-07T09:55:45Z</time>
      </trkpt>
      <trkpt lat="47.32679" lon="4.94341">
        <ele>323</ele>
        <time>2012-10-07T09:55:48Z</time>
      </trkpt>
      <trkpt lat="47.32675" lon="4.94346">
        <ele>322</ele>
        <time>2012-10-07T09:55:51Z</time>
      </trkpt>
      <trkpt lat="47.3267" lon="4.94346">
        <ele>322</ele>
        <time>2012-10-07T09:55:53Z</time>
      </trkpt>
      <trkpt lat="47.32665" lon="4.94348">
        <ele>322</ele>
        <time>2012-10-07T09:55:57Z</time>
      </trkpt>
      <trkpt lat="47.32661" lon="4.94351">
        <ele>322</ele>
        <time>2012-10-07T09:56:00Z</time>
      </trkpt>
      <trkpt lat="47.32655" lon="4.94352">
        <ele>323</ele>
        <time>2012-10-07T09:56:03Z</time>
      </trkpt>
      <trkpt lat="47.3265" lon="4.94352">
        <ele>323</ele>
        <time>2012-10-07T09:56:07Z</time>
      </trkpt>
      <trkpt lat="47.32644" lon="4.94355">
        <ele>327</ele>
        <time>2012-10-07T09:56:13Z</time>
      </trkpt>
      <trkpt lat="47.32638" lon="4.94356">
        <ele>329</ele>
        <time>2012-10-07T09:56:17Z</time>
      </trkpt>
      <trkpt lat="47.32634" lon="4.94362">
        <ele>331</ele>
        <time>2012-10-07T09:56:21Z</time>
      </trkpt>
      <trkpt lat="47.3263" lon="4.94364">
        <ele>333</ele>
        <time>2012-10-07T09:56:25Z</time>
      </trkpt>
      <trkpt lat="47.32624" lon="4.94366">
        <ele>333</ele>
        <time>2012-10-07T09:56:29Z</time>
      </trkpt>
      <trkpt lat="47.32618" lon="4.94367">
        <ele>333</ele>
        <time>2012-10-07T09:56:32Z</time>
      </trkpt>
      <trkpt lat="47.32614" lon="4.94365">
        <ele>334</ele>
        <time>2012-10-07T09:56:34Z</time>
      </trkpt>
      <trkpt lat="47.32608" lon="4.94366">
        <ele>333</ele>
        <time>2012-10-07T09:56:37Z</time>
      </trkpt>
      <trkpt lat="47.32603" lon="4.9437">
        <ele>333</ele>
        <time>2012-10-07T09:56:39Z</time>
      </trkpt>
      <trkpt lat="47.32596" lon="4.94371">
        <ele>333</ele>
        <time>2012-10-07T09:56:42Z</time>
      </trkpt>
      <trkpt lat="47.32591" lon="4.94371">
        <ele>334</ele>
        <time>2012-10-07T09:56:45Z</time>
      </trkpt>
      <trkpt lat="47.32586" lon="4.94372">
        <ele>336</ele>
        <time>2012-10-07T09:56:49Z</time>
      </trkpt>
      <trkpt lat="47.3258" lon="4.94371">
        <ele>336</ele>
        <time>2012-10-07T09:56:54Z</time>
      </trkpt>
      <trkpt lat="47.32574" lon="4.9437">
        <ele>338</ele>
        <time>2012-10-07T09:56:59Z</time>
      </trkpt>
      <trkpt lat="47.32574" lon="4.9437">
        <ele>338</ele>
        <time>2012-10-07T09:56:59Z</time>
      </trkpt>
      <trkpt lat="47.32574" lon="4.9437">
        <ele>339</ele>
        <time>2012-10-07T09:57:00Z</time>
      </trkpt>
      <trkpt lat="47.3257" lon="4.94372">
        <ele>340</ele>
        <time>2012-10-07T09:57:05Z</time>
      </trkpt>
      <trkpt lat="47.32565" lon="4.94373">
        <ele>341</ele>
        <time>2012-10-07T09:57:08Z</time>
      </trkpt>
      <trkpt lat="47.32565" lon="4.94373">
        <ele>341</ele>
        <time>2012-10-07T09:57:08Z</time>
      </trkpt>
      <trkpt lat="47.32565" lon="4.94373">
        <ele>341</ele>
        <time>2012-10-07T09:57:10Z</time>
      </trkpt>
      <trkpt lat="47.32559" lon="4.94374">
        <ele>340</ele>
        <time>2012-10-07T09:57:14Z</time>
      </trkpt>
      <trkpt lat="47.32553" lon="4.94376">
        <ele>340</ele>
        <time>2012-10-07T09:57:19Z</time>
      </trkpt>
      <trkpt lat="47.32548" lon="4.94377">
        <ele>342</ele>
        <time>2012-10-07T09:57:22Z</time>
      </trkpt>
      <trkpt lat="47.32543" lon="4.94378">
        <ele>342</ele>
        <time>2012-10-07T09:57:29Z</time>
      </trkpt>
      <trkpt lat="47.32543" lon="4.94378">
        <ele>342</ele>
        <time>2012-10-07T09:57:29Z</time>
      </trkpt>
      <trkpt lat="47.32543" lon="4.94378">
        <ele>342</ele>
        <time>2012-10-07T09:57:30Z</time>
      </trkpt>
      <trkpt lat="47.32538" lon="4.94377">
        <ele>343</ele>
        <time>2012-10-07T09:57:32Z</time>
      </trkpt>
      <trkpt lat="47.32532" lon="4.9438">
        <ele>341</ele>
        <time>2012-10-07T09:57:35Z</time>
      </trkpt>
      <trkpt lat="47.32527" lon="4.94383">
        <ele>337</ele>
        <time>2012-10-07T09:57:38Z</time>
      </trkpt>
      <trkpt lat="47.32523" lon="4.94387">
        <ele>335</ele>
        <time>2012-10-07T09:57:43Z</time>
      </trkpt>
      <trkpt lat="47.32515" lon="4.94387">
        <ele>336</ele>
        <time>2012-10-07T09:57:52Z</time>
      </trkpt>
      <trkpt lat="47.32508" lon="4.94386">
        <ele>337</ele>
        <time>2012-10-07T09:57:54Z</time>
      </trkpt>
      <trkpt lat="47.32504" lon="4.94387">
        <ele>337</ele>
        <time>2012-10-07T09:57:56Z</time>
      </trkpt>
      <trkpt lat="47.32499" lon="4.94386">
        <ele>338</ele>
        <time>2012-10-07T09:57:58Z</time>
      </trkpt>
      <trkpt lat="47.32494" lon="4.94388">
        <ele>337</ele>
        <time>2012-10-07T09:58:00Z</time>
      </trkpt>
      <trkpt lat="47.32489" lon="4.94388">
        <ele>337</ele>
        <time>2012-10-07T09:58:04Z</time>
      </trkpt>
      <trkpt lat="47.32484" lon="4.94387">
        <ele>340</ele>
        <time>2012-10-07T09:58:08Z</time>
      </trkpt>
      <trkpt lat="47.32479" lon="4.9439">
        <ele>341</ele>
        <time>2012-10-07T09:58:11Z</time>
      </trkpt>
      <trkpt lat="47.32475" lon="4.94394">
        <ele>341</ele>
        <time>2012-10-07T09:58:14Z</time>
      </trkpt>
      <trkpt lat="47.3247" lon="4.94392">
        <ele>342</ele>
        <time>2012-10-07T09:58:16Z</time>
      </trkpt>
      <trkpt lat="47.32465" lon="4.94393">
        <ele>346</ele>
        <time>2012-10-07T09:58:22Z</time>
      </trkpt>
      <trkpt lat="47.32461" lon="4.94398">
        <ele>347</ele>
        <time>2012-10-07T09:58:26Z</time>
      </trkpt>
      <trkpt lat="47.32456" lon="4.94398">
        <ele>349</ele>
        <time>2012-10-07T09:58:30Z</time>
      </trkpt>
      <trkpt lat="47.32451" lon="4.94401">
        <ele>350</ele>
        <time>2012-10-07T09:58:35Z</time>
      </trkpt>
      <trkpt lat="47.32445" lon="4.94404">
        <ele>352</ele>
        <time>2012-10-07T09:58:40Z</time>
      </trkpt>
      <trkpt lat="47.3244" lon="4.94407">
        <ele>351</ele>
        <time>2012-10-07T09:58:44Z</time>
      </trkpt>
      <trkpt lat="47.32435" lon="4.94408">
        <ele>350</ele>
        <time>2012-10-07T09:58:47Z</time>
      </trkpt>
      <trkpt lat="47.32431" lon="4.9441">
        <ele>354</ele>
        <time>2012-10-07T09:58:52Z</time>
      </trkpt>
      <trkpt lat="47.32426" lon="4.94413">
        <ele>356</ele>
        <time>2012-10-07T09:58:55Z</time>
      </trkpt>
      <trkpt lat="47.32421" lon="4.94414">
        <ele>358</ele>
        <time>2012-10-07T09:58:59Z</time>
      </trkpt>
      <trkpt lat="47.32417" lon="4.94417">
        <ele>358</ele>
        <time>2012-10-07T09:59:03Z</time>
      </trkpt>
      <trkpt lat="47.32412" lon="4.94418">
        <ele>359</ele>
        <time>2012-10-07T09:59:06Z</time>
      </trkpt>
      <trkpt lat="47.32404" lon="4.9442">
        <ele>363</ele>
        <time>2012-10-07T09:59:14Z</time>
      </trkpt>
      <trkpt lat="47.32397" lon="4.94421">
        <ele>363</ele>
        <time>2012-10-07T09:59:17Z</time>
      </trkpt>
      <trkpt lat="47.32391" lon="4.94421">
        <ele>365</ele>
        <time>2012-10-07T09:59:22Z</time>
      </trkpt>
      <trkpt lat="47.32384" lon="4.94422">
        <ele>366</ele>
        <time>2012-10-07T09:59:29Z</time>
      </trkpt>
      <trkpt lat="47.3238" lon="4.94424">
        <ele>366</ele>
        <time>2012-10-07T09:59:32Z</time>
      </trkpt>
      <trkpt lat="47.32373" lon="4.94426">
        <ele>368</ele>
        <time>2012-10-07T09:59:39Z</time>
      </trkpt>
      <trkpt lat="47.32368" lon="4.94428">
        <ele>371</ele>
        <time>2012-10-07T09:59:42Z</time>
      </trkpt>
      <trkpt lat="47.32362" lon="4.94429">
        <ele>376</ele>
        <time>2012-10-07T09:59:46Z</time>
      </trkpt>
      <trkpt lat="47.32356" lon="4.94429">
        <ele>381</ele>
        <time>2012-10-07T09:59:51Z</time>
      </trkpt>
      <trkpt lat="47.32352" lon="4.94431">
        <ele>383</ele>
        <time>2012-10-07T09:59:59Z</time>
      </trkpt>
      <trkpt lat="47.32345" lon="4.94434">
        <ele>383</ele>
        <time>2012-10-07T10:00:02Z</time>
      </trkpt>
      <trkpt lat="47.32339" lon="4.94438">
        <ele>383</ele>
        <time>2012-10-07T10:00:10Z</time>
      </trkpt>
      <trkpt lat="47.32333" lon="4.94439">
        <ele>383</ele>
        <time>2012-10-07T10:00:12Z</time>
      </trkpt>
      <trkpt lat="47.32329" lon="4.94442">
        <ele>382</ele>
        <time>2012-10-07T10:00:14Z</time>
      </trkpt>
      <trkpt lat="47.32323" lon="4.9444">
        <ele>382</ele>
        <time>2012-10-07T10:00:17Z</time>
      </trkpt>
      <trkpt lat="47.32318" lon="4.9444">
        <ele>383</ele>
        <time>2012-10-07T10:00:27Z</time>
      </trkpt>
      <trkpt lat="47.32318" lon="4.9444">
        <ele>383</ele>
        <time>2012-10-07T10:00:27Z</time>
      </trkpt>
      <trkpt lat="47.32318" lon="4.9444">
        <ele>383</ele>
        <time>2012-10-07T10:00:29Z</time>
      </trkpt>
      <trkpt lat="47.32312" lon="4.94442">
        <ele>383</ele>
        <time>2012-10-07T10:00:31Z</time>
      </trkpt>
      <trkpt lat="47.32308" lon="4.94446">
        <ele>383</ele>
        <time>2012-10-07T10:00:33Z</time>
      </trkpt>
      <trkpt lat="47.32303" lon="4.94447">
        <ele>385</ele>
        <time>2012-10-07T10:00:36Z</time>
      </trkpt>
      <trkpt lat="47.32299" lon="4.9445">
        <ele>386</ele>
        <time>2012-10-07T10:00:40Z</time>
      </trkpt>
      <trkpt lat="47.32299" lon="4.9445">
        <ele>386</ele>
        <time>2012-10-07T10:00:40Z</time>
      </trkpt>
      <trkpt lat="47.32299" lon="4.9445">
        <ele>386</ele>
        <time>2012-10-07T10:00:42Z</time>
      </trkpt>
      <trkpt lat="47.32294" lon="4.94454">
        <ele>385</ele>
        <time>2012-10-07T10:00:47Z</time>
      </trkpt>
      <trkpt lat="47.32289" lon="4.94458">
        <ele>385</ele>
        <time>2012-10-07T10:00:50Z</time>
      </trkpt>
      <trkpt lat="47.32286" lon="4.94462">
        <ele>385</ele>
        <time>2012-10-07T10:00:54Z</time>
      </trkpt>
      <trkpt lat="47.32281" lon="4.94467">
        <ele>385</ele>
        <time>2012-10-07T10:00:57Z</time>
      </trkpt>
      <trkpt lat="47.32278" lon="4.94474">
        <ele>385</ele>
        <time>2012-10-07T10:01:00Z</time>
      </trkpt>
      <trkpt lat="47.32273" lon="4.94476">
        <ele>385</ele>
        <time>2012-10-07T10:01:04Z</time>
      </trkpt>
      <trkpt lat="47.32268" lon="4.94478">
        <ele>388</ele>
        <time>2012-10-07T10:01:13Z</time>
      </trkpt>
      <trkpt lat="47.32264" lon="4.94481">
        <ele>390</ele>
        <time>2012-10-07T10:01:17Z</time>
      </trkpt>
      <trkpt lat="47.3226" lon="4.94486">
        <ele>392</ele>
        <time>2012-10-07T10:01:21Z</time>
      </trkpt>
      <trkpt lat="47.32255" lon="4.9449">
        <ele>396</ele>
        <time>2012-10-07T10:01:26Z</time>
      </trkpt>
      <trkpt lat="47.32252" lon="4.94496">
        <ele>394</ele>
        <time>2012-10-07T10:01:31Z</time>
      </trkpt>
      <trkpt lat="47.32248" lon="4.94499">
        <ele>394</ele>
        <time>2012-10-07T10:01:35Z</time>
      </trkpt>
      <trkpt lat="47.32246" lon="4.94506">
        <ele>394</ele>
        <time>2012-10-07T10:01:39Z</time>
      </trkpt>
      <trkpt lat="47.32242" lon="4.9451">
        <ele>394</ele>
        <time>2012-10-07T10:01:42Z</time>
      </trkpt>
      <trkpt lat="47.32239" lon="4.94516">
        <ele>393</ele>
        <time>2012-10-07T10:01:46Z</time>
      </trkpt>
      <trkpt lat="47.32234" lon="4.94519">
        <ele>393</ele>
        <time>2012-10-07T10:01:50Z</time>
      </trkpt>
      <trkpt lat="47.32232" lon="4.94525">
        <ele>392</ele>
        <time>2012-10-07T10:01:56Z</time>
      </trkpt>
      <trkpt lat="47.3223" lon="4.94532">
        <ele>394</ele>
        <time>2012-10-07T10:02:02Z</time>
      </trkpt>
      <trkpt lat="47.32226" lon="4.94536">
        <ele>398</ele>
        <time>2012-10-07T10:02:08Z</time>
      </trkpt>
      <trkpt lat="47.32222" lon="4.94541">
        <ele>399</ele>
        <time>2012-10-07T10:02:13Z</time>
      </trkpt>
      <trkpt lat="47.32219" lon="4.94546">
        <ele>398</ele>
        <time>2012-10-07T10:02:17Z</time>
      </trkpt>
      <trkpt lat="47.32215" lon="4.94549">
        <ele>398</ele>
        <time>2012-10-07T10:02:22Z</time>
      </trkpt>
      <trkpt lat="47.3221" lon="4.9455">
        <ele>397</ele>
        <time>2012-10-07T10:02:26Z</time>
      </trkpt>
      <trkpt lat="47.32206" lon="4.94555">
        <ele>397</ele>
        <time>2012-10-07T10:02:31Z</time>
      </trkpt>
      <trkpt lat="47.32203" lon="4.9456">
        <ele>398</ele>
        <time>2012-10-07T10:02:35Z</time>
      </trkpt>
      <trkpt lat="47.32201" lon="4.94566">
        <ele>403</ele>
        <time>2012-10-07T10:02:41Z</time>
      </trkpt>
      <trkpt lat="47.32198" lon="4.94571">
        <ele>404</ele>
        <time>2012-10-07T10:02:49Z</time>
      </trkpt>
      <trkpt lat="47.32192" lon="4.94575">
        <ele>406</ele>
        <time>2012-10-07T10:02:54Z</time>
      </trkpt>
      <trkpt lat="47.32188" lon="4.9458">
        <ele>408</ele>
        <time>2012-10-07T10:02:59Z</time>
      </trkpt>
      <trkpt lat="47.32184" lon="4.94584">
        <ele>407</ele>
        <time>2012-10-07T10:03:03Z</time>
      </trkpt>
      <trkpt lat="47.3218" lon="4.9459">
        <ele>412</ele>
        <time>2012-10-07T10:03:12Z</time>
      </trkpt>
      <trkpt lat="47.32176" lon="4.94592">
        <ele>411</ele>
        <time>2012-10-07T10:03:16Z</time>
      </trkpt>
      <trkpt lat="47.32174" lon="4.94598">
        <ele>412</ele>
        <time>2012-10-07T10:03:21Z</time>
      </trkpt>
      <trkpt lat="47.3217" lon="4.94602">
        <ele>412</ele>
        <time>2012-10-07T10:03:24Z</time>
      </trkpt>
      <trkpt lat="47.32166" lon="4.94606">
        <ele>412</ele>
        <time>2012-10-07T10:03:28Z</time>
      </trkpt>
      <trkpt lat="47.32166" lon="4.94606">
        <ele>412</ele>
        <time>2012-10-07T10:03:28Z</time>
      </trkpt>
      <trkpt lat="47.32166" lon="4.94606">
        <ele>412</ele>
        <time>2012-10-07T10:03:30Z</time>
      </trkpt>
      <trkpt lat="47.32162" lon="4.94612">
        <ele>414</ele>
        <time>2012-10-07T10:03:37Z</time>
      </trkpt>
      <trkpt lat="47.32157" lon="4.94615">
        <ele>416</ele>
        <time>2012-10-07T10:03:42Z</time>
      </trkpt>
      <trkpt lat="47.32153" lon="4.9462">
        <ele>416</ele>
        <time>2012-10-07T10:03:46Z</time>
      </trkpt>
      <trkpt lat="47.32149" lon="4.94623">
        <ele>415</ele>
        <time>2012-10-07T10:03:49Z</time>
      </trkpt>
      <trkpt lat="47.32145" lon="4.94626">
        <ele>415</ele>
        <time>2012-10-07T10:03:52Z</time>
      </trkpt>
      <trkpt lat="47.32143" lon="4.94632">
        <ele>416</ele>
        <time>2012-10-07T10:03:57Z</time>
      </trkpt>
      <trkpt lat="47.32139" lon="4.94637">
        <ele>418</ele>
        <time>2012-10-07T10:04:04Z</time>
      </trkpt>
      <trkpt lat="47.32134" lon="4.94641">
        <ele>419</ele>
        <time>2012-10-07T10:04:08Z</time>
      </trkpt>
      <trkpt lat="47.32131" lon="4.94645">
        <ele>419</ele>
        <time>2012-10-07T10:04:15Z</time>
      </trkpt>
      <trkpt lat="47.32125" lon="4.94651">
        <ele>422</ele>
        <time>2012-10-07T10:04:21Z</time>
      </trkpt>
      <trkpt lat="47.32122" lon="4.94657">
        <ele>422</ele>
        <time>2012-10-07T10:04:30Z</time>
      </trkpt>
      <trkpt lat="47.32118" lon="4.94663">
        <ele>422</ele>
        <time>2012-10-07T10:04:34Z</time>
      </trkpt>
      <trkpt lat="47.32114" lon="4.94668">
        <ele>421</ele>
        <time>2012-10-07T10:04:37Z</time>
      </trkpt>
      <trkpt lat="47.32109" lon="4.94672">
        <ele>419</ele>
        <time>2012-10-07T10:04:40Z</time>
      </trkpt>
      <trkpt lat="47.32105" lon="4.94676">
        <ele>420</ele>
        <time>2012-10-07T10:04:44Z</time>
      </trkpt>
      <trkpt lat="47.32102" lon="4.94681">
        <ele>420</ele>
        <time>2012-10-07T10:04:48Z</time>
      </trkpt>
      <trkpt lat="47.32097" lon="4.94687">
        <ele>422</ele>
        <time>2012-10-07T10:04:55Z</time>
      </trkpt>
      <trkpt lat="47.32094" lon="4.9469">
        <ele>422</ele>
        <time>2012-10-07T10:05:00Z</time>
      </trkpt>
      <trkpt lat="47.32089" lon="4.94695">
        <ele>424</ele>
        <time>2012-10-07T10:05:04Z</time>
      </trkpt>
      <trkpt lat="47.32084" lon="4.94697">
        <ele>427</ele>
        <time>2012-10-07T10:05:11Z</time>
      </trkpt>
      <trkpt lat="47.32079" lon="4.94698">
        <ele>427</ele>
        <time>2012-10-07T10:05:13Z</time>
      </trkpt>
      <trkpt lat="47.32073" lon="4.94701">
        <ele>426</ele>
        <time>2012-10-07T10:05:16Z</time>
      </trkpt>
      <trkpt lat="47.32068" lon="4.94701">
        <ele>425</ele>
        <time>2012-10-07T10:05:17Z</time>
      </trkpt>
      <trkpt lat="47.32065" lon="4.94706">
        <ele>428</ele>
        <time>2012-10-07T10:05:20Z</time>
      </trkpt>
      <trkpt lat="47.32062" lon="4.94711">
        <ele>429</ele>
        <time>2012-10-07T10:05:24Z</time>
      </trkpt>
      <trkpt lat="47.32057" lon="4.94716">
        <ele>428</ele>
        <time>2012-10-07T10:05:27Z</time>
      </trkpt>
      <trkpt lat="47.32051" lon="4.94717">
        <ele>429</ele>
        <time>2012-10-07T10:05:32Z</time>
      </trkpt>
      <trkpt lat="47.32045" lon="4.94718">
        <ele>431</ele>
        <time>2012-10-07T10:05:38Z</time>
      </trkpt>
      <trkpt lat="47.32042" lon="4.94722">
        <ele>437</ele>
        <time>2012-10-07T10:05:51Z</time>
      </trkpt>
      <trkpt lat="47.32042" lon="4.94722">
        <ele>437</ele>
        <time>2012-10-07T10:05:51Z</time>
      </trkpt>
      <trkpt lat="47.32042" lon="4.94722">
        <ele>437</ele>
        <time>2012-10-07T10:05:52Z</time>
      </trkpt>
      <trkpt lat="47.32038" lon="4.94727">
        <ele>437</ele>
        <time>2012-10-07T10:05:55Z</time>
      </trkpt>
      <trkpt lat="47.32033" lon="4.9473">
        <ele>440</ele>
        <time>2012-10-07T10:06:02Z</time>
      </trkpt>
      <trkpt lat="47.32029" lon="4.94734">
        <ele>440</ele>
        <time>2012-10-07T10:06:04Z</time>
      </trkpt>
      <trkpt lat="47.32024" lon="4.9474">
        <ele>441</ele>
        <time>2012-10-07T10:06:08Z</time>
      </trkpt>
      <trkpt lat="47.3202" lon="4.94744">
        <ele>444</ele>
        <time>2012-10-07T10:06:22Z</time>
      </trkpt>
      <trkpt lat="47.32016" lon="4.94748">
        <ele>445</ele>
        <time>2012-10-07T10:06:30Z</time>
      </trkpt>
      <trkpt lat="47.32015" lon="4.94755">
        <ele>445</ele>
        <time>2012-10-07T10:06:32Z</time>
      </trkpt>
      <trkpt lat="47.32014" lon="4.94762">
        <ele>450</ele>
        <time>2012-10-07T10:06:37Z</time>
      </trkpt>
      <trkpt lat="47.3201" lon="4.9477">
        <ele>451</ele>
        <time>2012-10-07T10:06:45Z</time>
      </trkpt>
      <trkpt lat="47.32007" lon="4.94778">
        <ele>453</ele>
        <time>2012-10-07T10:06:51Z</time>
      </trkpt>
      <trkpt lat="47.32005" lon="4.94784">
        <ele>453</ele>
        <time>2012-10-07T10:07:03Z</time>
      </trkpt>
      <trkpt lat="47.32005" lon="4.94784">
        <ele>453</ele>
        <time>2012-10-07T10:07:03Z</time>
      </trkpt>
      <trkpt lat="47.32005" lon="4.94784">
        <ele>453</ele>
        <time>2012-10-07T10:07:13Z</time>
      </trkpt>
      <trkpt lat="47.32004" lon="4.94791">
        <ele>454</ele>
        <time>2012-10-07T10:07:18Z</time>
      </trkpt>
      <trkpt lat="47.32005" lon="4.94799">
        <ele>452</ele>
        <time>2012-10-07T10:07:25Z</time>
      </trkpt>
      <trkpt lat="47.32005" lon="4.94799">
        <ele>452</ele>
        <time>2012-10-07T10:07:25Z</time>
      </trkpt>
      <trkpt lat="47.32005" lon="4.94799">
        <ele>452</ele>
        <time>2012-10-07T10:07:26Z</time>
      </trkpt>
      <trkpt lat="47.32005" lon="4.94808">
        <ele>450</ele>
        <time>2012-10-07T10:07:30Z</time>
      </trkpt>
      <trkpt lat="47.32004" lon="4.94814">
        <ele>452</ele>
        <time>2012-10-07T10:07:36Z</time>
      </trkpt>
      <trkpt lat="47.32004" lon="4.94814">
        <ele>452</ele>
        <time>2012-10-07T10:07:36Z</time>
      </trkpt>
      <trkpt lat="47.32004" lon="4.94814">
        <ele>452</ele>
        <time>2012-10-07T10:07:37Z</time>
      </trkpt>
      <trkpt lat="47.32006" lon="4.94821">
        <ele>453</ele>
        <time>2012-10-07T10:07:40Z</time>
      </trkpt>
      <trkpt lat="47.32007" lon="4.94829">
        <ele>454</ele>
        <time>2012-10-07T10:07:45Z</time>
      </trkpt>
      <trkpt lat="47.32007" lon="4.94836">
        <ele>456</ele>
        <time>2012-10-07T10:07:50Z</time>
      </trkpt>
      <trkpt lat="47.32008" lon="4.94843">
        <ele>458</ele>
        <time>2012-10-07T10:08:01Z</time>
      </trkpt>
      <trkpt lat="47.32009" lon="4.94849">
        <ele>458</ele>
        <time>2012-10-07T10:08:10Z</time>
      </trkpt>
      <trkpt lat="47.32009" lon="4.94849">
        <ele>458</ele>
        <time>2012-10-07T10:08:10Z</time>
      </trkpt>
      <trkpt lat="47.32009" lon="4.94849">
        <ele>458</ele>
        <time>2012-10-07T10:08:11Z</time>
      </trkpt>
      <trkpt lat="47.32011" lon="4.94858">
        <ele>458</ele>
        <time>2012-10-07T10:08:16Z</time>
      </trkpt>
      <trkpt lat="47.32014" lon="4.94865">
        <ele>459</ele>
        <time>2012-10-07T10:08:19Z</time>
      </trkpt>
      <trkpt lat="47.32017" lon="4.94872">
        <ele>461</ele>
        <time>2012-10-07T10:08:25Z</time>
      </trkpt>
      <trkpt lat="47.32022" lon="4.94885">
        <ele>455</ele>
        <time>2012-10-07T10:08:28Z</time>
      </trkpt>
      <trkpt lat="47.32024" lon="4.94893">
        <ele>457</ele>
        <time>2012-10-07T10:08:42Z</time>
      </trkpt>
      <trkpt lat="47.32027" lon="4.94898">
        <ele>458</ele>
        <time>2012-10-07T10:08:46Z</time>
      </trkpt>
      <trkpt lat="47.32028" lon="4.94904">
        <ele>456</ele>
        <time>2012-10-07T10:08:55Z</time>
      </trkpt>
      <trkpt lat="47.32031" lon="4.9491">
        <ele>457</ele>
        <time>2012-10-07T10:08:58Z</time>
      </trkpt>
      <trkpt lat="47.32032" lon="4.94918">
        <ele>460</ele>
        <time>2012-10-07T10:09:02Z</time>
      </trkpt>
      <trkpt lat="47.32034" lon="4.9493">
        <ele>459</ele>
        <time>2012-10-07T10:09:05Z</time>
      </trkpt>
      <trkpt lat="47.32035" lon="4.94939">
        <ele>457</ele>
        <time>2012-10-07T10:09:07Z</time>
      </trkpt>
      <trkpt lat="47.32035" lon="4.94947">
        <ele>458</ele>
        <time>2012-10-07T10:09:10Z</time>
      </trkpt>
      <trkpt lat="47.32031" lon="4.94952">
        <ele>458</ele>
        <time>2012-10-07T10:09:13Z</time>
      </trkpt>
      <trkpt lat="47.32026" lon="4.94956">
        <ele>459</ele>
        <time>2012-10-07T10:09:16Z</time>
      </trkpt>
      <trkpt lat="47.32023" lon="4.94961">
        <ele>461</ele>
        <time>2012-10-07T10:09:20Z</time>
      </trkpt>
      <trkpt lat="47.32018" lon="4.94962">
        <ele>461</ele>
        <time>2012-10-07T10:09:25Z</time>
      </trkpt>
      <trkpt lat="47.32013" lon="4.94965">
        <ele>461</ele>
        <time>2012-10-07T10:09:29Z</time>
      </trkpt>
      <trkpt lat="47.32009" lon="4.94969">
        <ele>463</ele>
        <time>2012-10-07T10:09:34Z</time>
      </trkpt>
      <trkpt lat="47.32004" lon="4.94972">
        <ele>463</ele>
        <time>2012-10-07T10:09:38Z</time>
      </trkpt>
      <trkpt lat="47.31999" lon="4.94973">
        <ele>463</ele>
        <time>2012-10-07T10:09:41Z</time>
      </trkpt>
      <trkpt lat="47.31994" lon="4.94976">
        <ele>463</ele>
        <time>2012-10-07T10:09:45Z</time>
      </trkpt>
      <trkpt lat="47.3199" lon="4.9498">
        <ele>463</ele>
        <time>2012-10-07T10:09:49Z</time>
      </trkpt>
      <trkpt lat="47.31985" lon="4.94984">
        <ele>463</ele>
        <time>2012-10-07T10:09:53Z</time>
      </trkpt>
      <trkpt lat="47.3198" lon="4.94989">
        <ele>464</ele>
        <time>2012-10-07T10:09:57Z</time>
      </trkpt>
      <trkpt lat="47.31976" lon="4.94992">
        <ele>464</ele>
        <time>2012-10-07T10:10:00Z</time>
      </trkpt>
      <trkpt lat="47.31971" lon="4.94996">
        <ele>464</ele>
        <time>2012-10-07T10:10:04Z</time>
      </trkpt>
      <trkpt lat="47.31966" lon="4.95001">
        <ele>464</ele>
        <time>2012-10-07T10:10:07Z</time>
      </trkpt>
      <trkpt lat="47.31962" lon="4.95005">
        <ele>464</ele>
        <time>2012-10-07T10:10:10Z</time>
      </trkpt>
      <trkpt lat="47.31958" lon="4.9501">
        <ele>464</ele>
        <time>2012-10-07T10:10:13Z</time>
      </trkpt>
      <trkpt lat="47.31954" lon="4.95016">
        <ele>465</ele>
        <time>2012-10-07T10:10:17Z</time>
      </trkpt>
      <trkpt lat="47.3195" lon="4.95021">
        <ele>465</ele>
        <time>2012-10-07T10:10:21Z</time>
      </trkpt>
      <trkpt lat="47.31946" lon="4.95027">
        <ele>465</ele>
        <time>2012-10-07T10:10:25Z</time>
      </trkpt>
      <trkpt lat="47.31943" lon="4.95032">
        <ele>465</ele>
        <time>2012-10-07T10:10:28Z</time>
      </trkpt>
      <trkpt lat="47.3194" lon="4.95037">
        <ele>466</ele>
        <time>2012-10-07T10:10:31Z</time>
      </trkpt>
      <trkpt lat="47.31936" lon="4.95044">
        <ele>466</ele>
        <time>2012-10-07T10:10:35Z</time>
      </trkpt>
      <trkpt lat="47.31932" lon="4.9505">
        <ele>466</ele>
        <time>2012-10-07T10:10:39Z</time>
      </trkpt>
      <trkpt lat="47.31928" lon="4.95057">
        <ele>466</ele>
        <time>2012-10-07T10:10:43Z</time>
      </trkpt>
      <trkpt lat="47.31926" lon="4.95062">
        <ele>466</ele>
        <time>2012-10-07T10:10:46Z</time>
      </trkpt>
      <trkpt lat="47.31922" lon="4.95067">
        <ele>466</ele>
        <time>2012-10-07T10:10:49Z</time>
      </trkpt>
      <trkpt lat="47.31919" lon="4.95072">
        <ele>466</ele>
        <time>2012-10-07T10:10:52Z</time>
      </trkpt>
      <trkpt lat="47.31916" lon="4.95078">
        <ele>466</ele>
        <time>2012-10-07T10:10:56Z</time>
      </trkpt>
      <trkpt lat="47.31913" lon="4.95085">
        <ele>466</ele>
        <time>2012-10-07T10:11:00Z</time>
      </trkpt>
      <trkpt lat="47.3191" lon="4.95091">
        <ele>466</ele>
        <time>2012-10-07T10:11:04Z</time>
      </trkpt>
      <trkpt lat="47.31908" lon="4.95097">
        <ele>466</ele>
        <time>2012-10-07T10:11:56Z</time>
      </trkpt>
      <trkpt lat="47.31908" lon="4.95097">
        <ele>466</ele>
        <time>2012-10-07T10:11:56Z</time>
      </trkpt>
      <trkpt lat="47.31908" lon="4.95097">
        <ele>465</ele>
        <time>2012-10-07T10:12:55Z</time>
      </trkpt>
      <trkpt lat="47.31905" lon="4.95103">
        <ele>467</ele>
        <time>2012-10-07T10:18:11Z</time>
      </trkpt>
      <trkpt lat="47.31902" lon="4.95108">
        <ele>467</ele>
        <time>2012-10-07T10:18:14Z</time>
      </trkpt>
      <trkpt lat="47.31898" lon="4.95113">
        <ele>467</ele>
        <time>2012-10-07T10:18:17Z</time>
      </trkpt>
      <trkpt lat="47.31894" lon="4.95119">
        <ele>467</ele>
        <time>2012-10-07T10:18:20Z</time>
      </trkpt>
      <trkpt lat="47.3189" lon="4.95124">
        <ele>467</ele>
        <time>2012-10-07T10:18:23Z</time>
      </trkpt>
      <trkpt lat="47.31887" lon="4.95129">
        <ele>467</ele>
        <time>2012-10-07T10:18:26Z</time>
      </trkpt>
      <trkpt lat="47.31884" lon="4.95134">
        <ele>467</ele>
        <time>2012-10-07T10:18:29Z</time>
      </trkpt>
      <trkpt lat="47.3188" lon="4.95139">
        <ele>467</ele>
        <time>2012-10-07T10:18:32Z</time>
      </trkpt>
      <trkpt lat="47.31876" lon="4.95144">
        <ele>467</ele>
        <time>2012-10-07T10:18:35Z</time>
      </trkpt>
      <trkpt lat="47.31874" lon="4.9515">
        <ele>467</ele>
        <time>2012-10-07T10:18:38Z</time>
      </trkpt>
      <trkpt lat="47.31872" lon="4.95157">
        <ele>466</ele>
        <time>2012-10-07T10:18:41Z</time>
      </trkpt>
      <trkpt lat="47.3187" lon="4.95164">
        <ele>466</ele>
        <time>2012-10-07T10:18:44Z</time>
      </trkpt>
      <trkpt lat="47.31868" lon="4.95172">
        <ele>466</ele>
        <time>2012-10-07T10:18:47Z</time>
      </trkpt>
      <trkpt lat="47.31867" lon="4.95179">
        <ele>466</ele>
        <time>2012-10-07T10:18:50Z</time>
      </trkpt>
      <trkpt lat="47.31865" lon="4.95186">
        <ele>466</ele>
        <time>2012-10-07T10:18:53Z</time>
      </trkpt>
      <trkpt lat="47.31864" lon="4.95193">
        <ele>466</ele>
        <time>2012-10-07T10:18:56Z</time>
      </trkpt>
      <trkpt lat="47.31862" lon="4.952">
        <ele>466</ele>
        <time>2012-10-07T10:18:59Z</time>
      </trkpt>
      <trkpt lat="47.31861" lon="4.95206">
        <ele>466</ele>
        <time>2012-10-07T10:19:02Z</time>
      </trkpt>
      <trkpt lat="47.31859" lon="4.95213">
        <ele>466</ele>
        <time>2012-10-07T10:19:05Z</time>
      </trkpt>
      <trkpt lat="47.31857" lon="4.9522">
        <ele>466</ele>
        <time>2012-10-07T10:19:08Z</time>
      </trkpt>
      <trkpt lat="47.31856" lon="4.95228">
        <ele>465</ele>
        <time>2012-10-07T10:19:11Z</time>
      </trkpt>
      <trkpt lat="47.31854" lon="4.95235">
        <ele>465</ele>
        <time>2012-10-07T10:19:14Z</time>
      </trkpt>
      <trkpt lat="47.31852" lon="4.95242">
        <ele>465</ele>
        <time>2012-10-07T10:19:17Z</time>
      </trkpt>
      <trkpt lat="47.3185" lon="4.95248">
        <ele>465</ele>
        <time>2012-10-07T10:19:20Z</time>
      </trkpt>
      <trkpt lat="47.31848" lon="4.95255">
        <ele>465</ele>
        <time>2012-10-07T10:19:23Z</time>
      </trkpt>
      <trkpt lat="47.31846" lon="4.95263">
        <ele>464</ele>
        <time>2012-10-07T10:19:27Z</time>
      </trkpt>
      <trkpt lat="47.31845" lon="4.9527">
        <ele>464</ele>
        <time>2012-10-07T10:19:30Z</time>
      </trkpt>
      <trkpt lat="47.31844" lon="4.95278">
        <ele>465</ele>
        <time>2012-10-07T10:19:34Z</time>
      </trkpt>
      <trkpt lat="47.31843" lon="4.95286">
        <ele>466</ele>
        <time>2012-10-07T10:19:38Z</time>
      </trkpt>
      <trkpt lat="47.31842" lon="4.95293">
        <ele>467</ele>
        <time>2012-10-07T10:19:42Z</time>
      </trkpt>
      <trkpt lat="47.31842" lon="4.95302">
        <ele>467</ele>
        <time>2012-10-07T10:19:46Z</time>
      </trkpt>
      <trkpt lat="47.31844" lon="4.95308">
        <ele>466</ele>
        <time>2012-10-07T10:19:49Z</time>
      </trkpt>
      <trkpt lat="47.31842" lon="4.95315">
        <ele>467</ele>
        <time>2012-10-07T10:19:52Z</time>
      </trkpt>
      <trkpt lat="47.31842" lon="4.95323">
        <ele>466</ele>
        <time>2012-10-07T10:19:55Z</time>
      </trkpt>
      <trkpt lat="47.3184" lon="4.9533">
        <ele>465</ele>
        <time>2012-10-07T10:19:58Z</time>
      </trkpt>
      <trkpt lat="47.3184" lon="4.95338">
        <ele>465</ele>
        <time>2012-10-07T10:20:01Z</time>
      </trkpt>
      <trkpt lat="47.3184" lon="4.95345">
        <ele>463</ele>
        <time>2012-10-07T10:20:04Z</time>
      </trkpt>
      <trkpt lat="47.3184" lon="4.95352">
        <ele>465</ele>
        <time>2012-10-07T10:20:08Z</time>
      </trkpt>
      <trkpt lat="47.3184" lon="4.95361">
        <ele>464</ele>
        <time>2012-10-07T10:20:12Z</time>
      </trkpt>
      <trkpt lat="47.3184" lon="4.9537">
        <ele>464</ele>
        <time>2012-10-07T10:20:16Z</time>
      </trkpt>
      <trkpt lat="47.3184" lon="4.95378">
        <ele>465</ele>
        <time>2012-10-07T10:20:20Z</time>
      </trkpt>
      <trkpt lat="47.3184" lon="4.95385">
        <ele>466</ele>
        <time>2012-10-07T10:20:23Z</time>
      </trkpt>
      <trkpt lat="47.3184" lon="4.95393">
        <ele>466</ele>
        <time>2012-10-07T10:20:27Z</time>
      </trkpt>
      <trkpt lat="47.31842" lon="4.95401">
        <ele>466</ele>
        <time>2012-10-07T10:20:30Z</time>
      </trkpt>
      <trkpt lat="47.31843" lon="4.95408">
        <ele>463</ele>
        <time>2012-10-07T10:20:32Z</time>
      </trkpt>
      <trkpt lat="47.31843" lon="4.95415">
        <ele>460</ele>
        <time>2012-10-07T10:20:34Z</time>
      </trkpt>
      <trkpt lat="47.31842" lon="4.95423">
        <ele>459</ele>
        <time>2012-10-07T10:20:36Z</time>
      </trkpt>
      <trkpt lat="47.31843" lon="4.95432">
        <ele>460</ele>
        <time>2012-10-07T10:20:40Z</time>
      </trkpt>
      <trkpt lat="47.31844" lon="4.95439">
        <ele>459</ele>
        <time>2012-10-07T10:20:43Z</time>
      </trkpt>
      <trkpt lat="47.31846" lon="4.95446">
        <ele>459</ele>
        <time>2012-10-07T10:20:46Z</time>
      </trkpt>
      <trkpt lat="47.31847" lon="4.95455">
        <ele>457</ele>
        <time>2012-10-07T10:20:50Z</time>
      </trkpt>
      <trkpt lat="47.31847" lon="4.95462">
        <ele>456</ele>
        <time>2012-10-07T10:20:53Z</time>
      </trkpt>
      <trkpt lat="47.31845" lon="4.95472">
        <ele>458</ele>
        <time>2012-10-07T10:20:56Z</time>
      </trkpt>
      <trkpt lat="47.31843" lon="4.95479">
        <ele>458</ele>
        <time>2012-10-07T10:20:59Z</time>
      </trkpt>
      <trkpt lat="47.31843" lon="4.95489">
        <ele>457</ele>
        <time>2012-10-07T10:21:03Z</time>
      </trkpt>
      <trkpt lat="47.31846" lon="4.95495">
        <ele>457</ele>
        <time>2012-10-07T10:21:06Z</time>
      </trkpt>
      <trkpt lat="47.31844" lon="4.95503">
        <ele>460</ele>
        <time>2012-10-07T10:21:10Z</time>
      </trkpt>
      <trkpt lat="47.31845" lon="4.95512">
        <ele>460</ele>
        <time>2012-10-07T10:21:12Z</time>
      </trkpt>
      <trkpt lat="47.31845" lon="4.95519">
        <ele>459</ele>
        <time>2012-10-07T10:21:15Z</time>
      </trkpt>
      <trkpt lat="47.31845" lon="4.95527">
        <ele>460</ele>
        <time>2012-10-07T10:21:18Z</time>
      </trkpt>
      <trkpt lat="47.31845" lon="4.95534">
        <ele>460</ele>
        <time>2012-10-07T10:21:21Z</time>
      </trkpt>
      <trkpt lat="47.31844" lon="4.95541">
        <ele>459</ele>
        <time>2012-10-07T10:21:23Z</time>
      </trkpt>
      <trkpt lat="47.31844" lon="4.95549">
        <ele>459</ele>
        <time>2012-10-07T10:21:27Z</time>
      </trkpt>
      <trkpt lat="47.31844" lon="4.95557">
        <ele>459</ele>
        <time>2012-10-07T10:21:30Z</time>
      </trkpt>
      <trkpt lat="47.31844" lon="4.95564">
        <ele>459</ele>
        <time>2012-10-07T10:21:33Z</time>
      </trkpt>
      <trkpt lat="47.31843" lon="4.95572">
        <ele>459</ele>
        <time>2012-10-07T10:21:36Z</time>
      </trkpt>
      <trkpt lat="47.31843" lon="4.95579">
        <ele>459</ele>
        <time>2012-10-07T10:21:39Z</time>
      </trkpt>
      <trkpt lat="47.31843" lon="4.95587">
        <ele>459</ele>
        <time>2012-10-07T10:21:42Z</time>
      </trkpt>
      <trkpt lat="47.31843" lon="4.95596">
        <ele>461</ele>
        <time>2012-10-07T10:21:46Z</time>
      </trkpt>
      <trkpt lat="47.31843" lon="4.95605">
        <ele>461</ele>
        <time>2012-10-07T10:21:49Z</time>
      </trkpt>
      <trkpt lat="47.31844" lon="4.95614">
        <ele>460</ele>
        <time>2012-10-07T10:21:52Z</time>
      </trkpt>
      <trkpt lat="47.31844" lon="4.95621">
        <ele>461</ele>
        <time>2012-10-07T10:21:55Z</time>
      </trkpt>
      <trkpt lat="47.31844" lon="4.9563">
        <ele>459</ele>
        <time>2012-10-07T10:21:58Z</time>
      </trkpt>
      <trkpt lat="47.31843" lon="4.95638">
        <ele>459</ele>
        <time>2012-10-07T10:22:01Z</time>
      </trkpt>
      <trkpt lat="47.3184" lon="4.95645">
        <ele>458</ele>
        <time>2012-10-07T10:22:04Z</time>
      </trkpt>
      <trkpt lat="47.31839" lon="4.95652">
        <ele>457</ele>
        <time>2012-10-07T10:22:06Z</time>
      </trkpt>
      <trkpt lat="47.31837" lon="4.95659">
        <ele>457</ele>
        <time>2012-10-07T10:22:09Z</time>
      </trkpt>
      <trkpt lat="47.31833" lon="4.95665">
        <ele>458</ele>
        <time>2012-10-07T10:22:12Z</time>
      </trkpt>
      <trkpt lat="47.3183" lon="4.95672">
        <ele>458</ele>
        <time>2012-10-07T10:22:15Z</time>
      </trkpt>
      <trkpt lat="47.31826" lon="4.95677">
        <ele>458</ele>
        <time>2012-10-07T10:22:18Z</time>
      </trkpt>
      <trkpt lat="47.31822" lon="4.95682">
        <ele>458</ele>
        <time>2012-10-07T10:22:21Z</time>
      </trkpt>
      <trkpt lat="47.31818" lon="4.95688">
        <ele>459</ele>
        <time>2012-10-07T10:22:24Z</time>
      </trkpt>
      <trkpt lat="47.31814" lon="4.95692">
        <ele>460</ele>
        <time>2012-10-07T10:22:27Z</time>
      </trkpt>
      <trkpt lat="47.31809" lon="4.95697">
        <ele>460</ele>
        <time>2012-10-07T10:22:30Z</time>
      </trkpt>
      <trkpt lat="47.31805" lon="4.95701">
        <ele>460</ele>
        <time>2012-10-07T10:22:33Z</time>
      </trkpt>
      <trkpt lat="47.31801" lon="4.95704">
        <ele>461</ele>
        <time>2012-10-07T10:22:36Z</time>
      </trkpt>
      <trkpt lat="47.31795" lon="4.95706">
        <ele>462</ele>
        <time>2012-10-07T10:22:40Z</time>
      </trkpt>
      <trkpt lat="47.3179" lon="4.95709">
        <ele>463</ele>
        <time>2012-10-07T10:22:44Z</time>
      </trkpt>
      <trkpt lat="47.31785" lon="4.9571">
        <ele>463</ele>
        <time>2012-10-07T10:22:47Z</time>
      </trkpt>
      <trkpt lat="47.31779" lon="4.95711">
        <ele>464</ele>
        <time>2012-10-07T10:22:51Z</time>
      </trkpt>
      <trkpt lat="47.31773" lon="4.95712">
        <ele>464</ele>
        <time>2012-10-07T10:22:55Z</time>
      </trkpt>
      <trkpt lat="47.31769" lon="4.95712">
        <ele>465</ele>
        <time>2012-10-07T10:22:58Z</time>
      </trkpt>
      <trkpt lat="47.31763" lon="4.95713">
        <ele>465</ele>
        <time>2012-10-07T10:23:02Z</time>
      </trkpt>
      <trkpt lat="47.31758" lon="4.95713">
        <ele>466</ele>
        <time>2012-10-07T10:23:05Z</time>
      </trkpt>
      <trkpt lat="47.31752" lon="4.95713">
        <ele>466</ele>
        <time>2012-10-07T10:23:09Z</time>
      </trkpt>
      <trkpt lat="47.31746" lon="4.95713">
        <ele>467</ele>
        <time>2012-10-07T10:23:13Z</time>
      </trkpt>
      <trkpt lat="47.31741" lon="4.95713">
        <ele>467</ele>
        <time>2012-10-07T10:23:16Z</time>
      </trkpt>
      <trkpt lat="47.31735" lon="4.95713">
        <ele>468</ele>
        <time>2012-10-07T10:23:20Z</time>
      </trkpt>
      <trkpt lat="47.31729" lon="4.95713">
        <ele>469</ele>
        <time>2012-10-07T10:23:24Z</time>
      </trkpt>
      <trkpt lat="47.31725" lon="4.95713">
        <ele>469</ele>
        <time>2012-10-07T10:23:27Z</time>
      </trkpt>
      <trkpt lat="47.31719" lon="4.95713">
        <ele>470</ele>
        <time>2012-10-07T10:23:31Z</time>
      </trkpt>
      <trkpt lat="47.31714" lon="4.95713">
        <ele>471</ele>
        <time>2012-10-07T10:23:36Z</time>
      </trkpt>
      <trkpt lat="47.31708" lon="4.95712">
        <ele>472</ele>
        <time>2012-10-07T10:23:40Z</time>
      </trkpt>
      <trkpt lat="47.31704" lon="4.95711">
        <ele>473</ele>
        <time>2012-10-07T10:23:44Z</time>
      </trkpt>
      <trkpt lat="47.31699" lon="4.95711">
        <ele>475</ele>
        <time>2012-10-07T10:23:49Z</time>
      </trkpt>
      <trkpt lat="47.31694" lon="4.95711">
        <ele>475</ele>
        <time>2012-10-07T10:23:52Z</time>
      </trkpt>
      <trkpt lat="47.31688" lon="4.95712">
        <ele>478</ele>
        <time>2012-10-07T10:23:57Z</time>
      </trkpt>
      <trkpt lat="47.31683" lon="4.95712">
        <ele>480</ele>
        <time>2012-10-07T10:24:01Z</time>
      </trkpt>
      <trkpt lat="47.31678" lon="4.95714">
        <ele>482</ele>
        <time>2012-10-07T10:24:07Z</time>
      </trkpt>
      <trkpt lat="47.31674" lon="4.95718">
        <ele>483</ele>
        <time>2012-10-07T10:24:10Z</time>
      </trkpt>
      <trkpt lat="47.3167" lon="4.95723">
        <ele>484</ele>
        <time>2012-10-07T10:24:14Z</time>
      </trkpt>
      <trkpt lat="47.31668" lon="4.95731">
        <ele>484</ele>
        <time>2012-10-07T10:24:17Z</time>
      </trkpt>
      <trkpt lat="47.31667" lon="4.95738">
        <ele>483</ele>
        <time>2012-10-07T10:24:20Z</time>
      </trkpt>
      <trkpt lat="47.31663" lon="4.95742">
        <ele>483</ele>
        <time>2012-10-07T10:24:27Z</time>
      </trkpt>
      <trkpt lat="47.31663" lon="4.9575">
        <ele>484</ele>
        <time>2012-10-07T10:24:32Z</time>
      </trkpt>
      <trkpt lat="47.31664" lon="4.95758">
        <ele>486</ele>
        <time>2012-10-07T10:24:37Z</time>
      </trkpt>
      <trkpt lat="47.31663" lon="4.95769">
        <ele>485</ele>
        <time>2012-10-07T10:24:40Z</time>
      </trkpt>
      <trkpt lat="47.31663" lon="4.95776">
        <ele>483</ele>
        <time>2012-10-07T10:24:42Z</time>
      </trkpt>
      <trkpt lat="47.31664" lon="4.95785">
        <ele>483</ele>
        <time>2012-10-07T10:24:45Z</time>
      </trkpt>
      <trkpt lat="47.31665" lon="4.95793">
        <ele>484</ele>
        <time>2012-10-07T10:24:48Z</time>
      </trkpt>
      <trkpt lat="47.31662" lon="4.95799">
        <ele>483</ele>
        <time>2012-10-07T10:24:51Z</time>
      </trkpt>
      <trkpt lat="47.31661" lon="4.95807">
        <ele>482</ele>
        <time>2012-10-07T10:24:54Z</time>
      </trkpt>
      <trkpt lat="47.31659" lon="4.95817">
        <ele>480</ele>
        <time>2012-10-07T10:24:57Z</time>
      </trkpt>
      <trkpt lat="47.31658" lon="4.95827">
        <ele>480</ele>
        <time>2012-10-07T10:25:00Z</time>
      </trkpt>
      <trkpt lat="47.31659" lon="4.95837">
        <ele>479</ele>
        <time>2012-10-07T10:25:03Z</time>
      </trkpt>
      <trkpt lat="47.3166" lon="4.95844">
        <ele>477</ele>
        <time>2012-10-07T10:25:07Z</time>
      </trkpt>
      <trkpt lat="47.31658" lon="4.95853">
        <ele>476</ele>
        <time>2012-10-07T10:25:11Z</time>
      </trkpt>
      <trkpt lat="47.31659" lon="4.95859">
        <ele>475</ele>
        <time>2012-10-07T10:25:13Z</time>
      </trkpt>
      <trkpt lat="47.3166" lon="4.95867">
        <ele>474</ele>
        <time>2012-10-07T10:25:15Z</time>
      </trkpt>
      <trkpt lat="47.31658" lon="4.95877">
        <ele>474</ele>
        <time>2012-10-07T10:25:20Z</time>
      </trkpt>
      <trkpt lat="47.31658" lon="4.95884">
        <ele>473</ele>
        <time>2012-10-07T10:25:24Z</time>
      </trkpt>
      <trkpt lat="47.31655" lon="4.9589">
        <ele>473</ele>
        <time>2012-10-07T10:25:26Z</time>
      </trkpt>
      <trkpt lat="47.31653" lon="4.95898">
        <ele>473</ele>
        <time>2012-10-07T10:25:30Z</time>
      </trkpt>
      <trkpt lat="47.31654" lon="4.95907">
        <ele>472</ele>
        <time>2012-10-07T10:25:33Z</time>
      </trkpt>
      <trkpt lat="47.31654" lon="4.95914">
        <ele>472</ele>
        <time>2012-10-07T10:25:36Z</time>
      </trkpt>
      <trkpt lat="47.31654" lon="4.95924">
        <ele>472</ele>
        <time>2012-10-07T10:25:38Z</time>
      </trkpt>
      <trkpt lat="47.31655" lon="4.95931">
        <ele>472</ele>
        <time>2012-10-07T10:25:40Z</time>
      </trkpt>
      <trkpt lat="47.31652" lon="4.95938">
        <ele>470</ele>
        <time>2012-10-07T10:25:43Z</time>
      </trkpt>
      <trkpt lat="47.3165" lon="4.95946">
        <ele>469</ele>
        <time>2012-10-07T10:25:46Z</time>
      </trkpt>
      <trkpt lat="47.3165" lon="4.95955">
        <ele>471</ele>
        <time>2012-10-07T10:25:49Z</time>
      </trkpt>
      <trkpt lat="47.31649" lon="4.95964">
        <ele>471</ele>
        <time>2012-10-07T10:25:53Z</time>
      </trkpt>
      <trkpt lat="47.3165" lon="4.95971">
        <ele>470</ele>
        <time>2012-10-07T10:25:55Z</time>
      </trkpt>
      <trkpt lat="47.3165" lon="4.95981">
        <ele>470</ele>
        <time>2012-10-07T10:25:59Z</time>
      </trkpt>
      <trkpt lat="47.31651" lon="4.9599">
        <ele>471</ele>
        <time>2012-10-07T10:26:02Z</time>
      </trkpt>
      <trkpt lat="47.3165" lon="4.95999">
        <ele>473</ele>
        <time>2012-10-07T10:26:05Z</time>
      </trkpt>
      <trkpt lat="47.31647" lon="4.96006">
        <ele>474</ele>
        <time>2012-10-07T10:26:07Z</time>
      </trkpt>
      <trkpt lat="47.31645" lon="4.96013">
        <ele>472</ele>
        <time>2012-10-07T10:26:11Z</time>
      </trkpt>
      <trkpt lat="47.31645" lon="4.9602">
        <ele>472</ele>
        <time>2012-10-07T10:26:14Z</time>
      </trkpt>
      <trkpt lat="47.31642" lon="4.9603">
        <ele>472</ele>
        <time>2012-10-07T10:26:17Z</time>
      </trkpt>
      <trkpt lat="47.31639" lon="4.96039">
        <ele>473</ele>
        <time>2012-10-07T10:26:20Z</time>
      </trkpt>
      <trkpt lat="47.31638" lon="4.96046">
        <ele>472</ele>
        <time>2012-10-07T10:26:22Z</time>
      </trkpt>
      <trkpt lat="47.31633" lon="4.9605">
        <ele>473</ele>
        <time>2012-10-07T10:26:24Z</time>
      </trkpt>
      <trkpt lat="47.3163" lon="4.96055">
        <ele>472</ele>
        <time>2012-10-07T10:26:27Z</time>
      </trkpt>
      <trkpt lat="47.31629" lon="4.96062">
        <ele>473</ele>
        <time>2012-10-07T10:26:29Z</time>
      </trkpt>
      <trkpt lat="47.31628" lon="4.96068">
        <ele>475</ele>
        <time>2012-10-07T10:26:31Z</time>
      </trkpt>
      <trkpt lat="47.31625" lon="4.96073">
        <ele>474</ele>
        <time>2012-10-07T10:26:33Z</time>
      </trkpt>
      <trkpt lat="47.3162" lon="4.96078">
        <ele>474</ele>
        <time>2012-10-07T10:26:36Z</time>
      </trkpt>
      <trkpt lat="47.31618" lon="4.96084">
        <ele>475</ele>
        <time>2012-10-07T10:26:39Z</time>
      </trkpt>
      <trkpt lat="47.31615" lon="4.96088">
        <ele>475</ele>
        <time>2012-10-07T10:26:42Z</time>
      </trkpt>
      <trkpt lat="47.31613" lon="4.96096">
        <ele>475</ele>
        <time>2012-10-07T10:26:45Z</time>
      </trkpt>
      <trkpt lat="47.31613" lon="4.96104">
        <ele>475</ele>
        <time>2012-10-07T10:26:47Z</time>
      </trkpt>
      <trkpt lat="47.3161" lon="4.96112">
        <ele>474</ele>
        <time>2012-10-07T10:26:50Z</time>
      </trkpt>
      <trkpt lat="47.31606" lon="4.96117">
        <ele>474</ele>
        <time>2012-10-07T10:26:54Z</time>
      </trkpt>
      <trkpt lat="47.31605" lon="4.96126">
        <ele>473</ele>
        <time>2012-10-07T10:26:57Z</time>
      </trkpt>
      <trkpt lat="47.31602" lon="4.96132">
        <ele>472</ele>
        <time>2012-10-07T10:27:00Z</time>
      </trkpt>
      <trkpt lat="47.31596" lon="4.96137">
        <ele>472</ele>
        <time>2012-10-07T10:27:03Z</time>
      </trkpt>
      <trkpt lat="47.31591" lon="4.96142">
        <ele>469</ele>
        <time>2012-10-07T10:27:05Z</time>
      </trkpt>
      <trkpt lat="47.31585" lon="4.96145">
        <ele>466</ele>
        <time>2012-10-07T10:27:08Z</time>
      </trkpt>
      <trkpt lat="47.31578" lon="4.96148">
        <ele>464</ele>
        <time>2012-10-07T10:27:10Z</time>
      </trkpt>
      <trkpt lat="47.31573" lon="4.96148">
        <ele>463</ele>
        <time>2012-10-07T10:27:11Z</time>
      </trkpt>
      <trkpt lat="47.31567" lon="4.96148">
        <ele>465</ele>
        <time>2012-10-07T10:27:13Z</time>
      </trkpt>
      <trkpt lat="47.31562" lon="4.96145">
        <ele>465</ele>
        <time>2012-10-07T10:27:15Z</time>
      </trkpt>
      <trkpt lat="47.31556" lon="4.9614">
        <ele>469</ele>
        <time>2012-10-07T10:27:18Z</time>
      </trkpt>
      <trkpt lat="47.31552" lon="4.96137">
        <ele>470</ele>
        <time>2012-10-07T10:27:21Z</time>
      </trkpt>
      <trkpt lat="47.31548" lon="4.96134">
        <ele>472</ele>
        <time>2012-10-07T10:27:24Z</time>
      </trkpt>
      <trkpt lat="47.31544" lon="4.96128">
        <ele>478</ele>
        <time>2012-10-07T10:27:28Z</time>
      </trkpt>
      <trkpt lat="47.31541" lon="4.96123">
        <ele>480</ele>
        <time>2012-10-07T10:27:31Z</time>
      </trkpt>
      <trkpt lat="47.31537" lon="4.96117">
        <ele>479</ele>
        <time>2012-10-07T10:27:34Z</time>
      </trkpt>
      <trkpt lat="47.31533" lon="4.96109">
        <ele>478</ele>
        <time>2012-10-07T10:27:38Z</time>
      </trkpt>
      <trkpt lat="47.31527" lon="4.96106">
        <ele>479</ele>
        <time>2012-10-07T10:27:41Z</time>
      </trkpt>
      <trkpt lat="47.31523" lon="4.96102">
        <ele>478</ele>
        <time>2012-10-07T10:27:45Z</time>
      </trkpt>
      <trkpt lat="47.31519" lon="4.96098">
        <ele>478</ele>
        <time>2012-10-07T10:27:48Z</time>
      </trkpt>
      <trkpt lat="47.31513" lon="4.96093">
        <ele>478</ele>
        <time>2012-10-07T10:27:52Z</time>
      </trkpt>
      <trkpt lat="47.31508" lon="4.96088">
        <ele>479</ele>
        <time>2012-10-07T10:27:55Z</time>
      </trkpt>
      <trkpt lat="47.31505" lon="4.96083">
        <ele>482</ele>
        <time>2012-10-07T10:27:58Z</time>
      </trkpt>
      <trkpt lat="47.31501" lon="4.96077">
        <ele>481</ele>
        <time>2012-10-07T10:28:01Z</time>
      </trkpt>
      <trkpt lat="47.31499" lon="4.9607">
        <ele>482</ele>
        <time>2012-10-07T10:28:04Z</time>
      </trkpt>
      <trkpt lat="47.31495" lon="4.96065">
        <ele>484</ele>
        <time>2012-10-07T10:28:07Z</time>
      </trkpt>
      <trkpt lat="47.31494" lon="4.96058">
        <ele>484</ele>
        <time>2012-10-07T10:28:10Z</time>
      </trkpt>
      <trkpt lat="47.31492" lon="4.96052">
        <ele>486</ele>
        <time>2012-10-07T10:28:13Z</time>
      </trkpt>
      <trkpt lat="47.31491" lon="4.96045">
        <ele>489</ele>
        <time>2012-10-07T10:28:16Z</time>
      </trkpt>
      <trkpt lat="47.31488" lon="4.96034">
        <ele>489</ele>
        <time>2012-10-07T10:28:20Z</time>
      </trkpt>
      <trkpt lat="47.31486" lon="4.96025">
        <ele>490</ele>
        <time>2012-10-07T10:28:23Z</time>
      </trkpt>
      <trkpt lat="47.31484" lon="4.96018">
        <ele>489</ele>
        <time>2012-10-07T10:28:26Z</time>
      </trkpt>
      <trkpt lat="47.3148" lon="4.96012">
        <ele>489</ele>
        <time>2012-10-07T10:28:29Z</time>
      </trkpt>
      <trkpt lat="47.31477" lon="4.96008">
        <ele>490</ele>
        <time>2012-10-07T10:28:33Z</time>
      </trkpt>
      <trkpt lat="47.31472" lon="4.96002">
        <ele>490</ele>
        <time>2012-10-07T10:28:36Z</time>
      </trkpt>
      <trkpt lat="47.31469" lon="4.95997">
        <ele>490</ele>
        <time>2012-10-07T10:28:39Z</time>
      </trkpt>
      <trkpt lat="47.31465" lon="4.95992">
        <ele>490</ele>
        <time>2012-10-07T10:28:42Z</time>
      </trkpt>
      <trkpt lat="47.31462" lon="4.95984">
        <ele>491</ele>
        <time>2012-10-07T10:28:46Z</time>
      </trkpt>
      <trkpt lat="47.3146" lon="4.95977">
        <ele>491</ele>
        <time>2012-10-07T10:28:50Z</time>
      </trkpt>
      <trkpt lat="47.31461" lon="4.95969">
        <ele>485</ele>
        <time>2012-10-07T10:28:54Z</time>
      </trkpt>
      <trkpt lat="47.31456" lon="4.95973">
        <ele>488</ele>
        <time>2012-10-07T10:29:06Z</time>
      </trkpt>
      <trkpt lat="47.31453" lon="4.95979">
        <ele>488</ele>
        <time>2012-10-07T10:29:10Z</time>
      </trkpt>
      <trkpt lat="47.3145" lon="4.95986">
        <ele>487</ele>
        <time>2012-10-07T10:29:15Z</time>
      </trkpt>
      <trkpt lat="47.31452" lon="4.95994">
        <ele>485</ele>
        <time>2012-10-07T10:29:20Z</time>
      </trkpt>
      <trkpt lat="47.31454" lon="4.96002">
        <ele>484</ele>
        <time>2012-10-07T10:29:23Z</time>
      </trkpt>
      <trkpt lat="47.31455" lon="4.9601">
        <ele>482</ele>
        <time>2012-10-07T10:29:26Z</time>
      </trkpt>
      <trkpt lat="47.31454" lon="4.96019">
        <ele>483</ele>
        <time>2012-10-07T10:29:30Z</time>
      </trkpt>
      <trkpt lat="47.31455" lon="4.96026">
        <ele>483</ele>
        <time>2012-10-07T10:29:32Z</time>
      </trkpt>
      <trkpt lat="47.31455" lon="4.96034">
        <ele>483</ele>
        <time>2012-10-07T10:29:34Z</time>
      </trkpt>
      <trkpt lat="47.31455" lon="4.96043">
        <ele>482</ele>
        <time>2012-10-07T10:29:37Z</time>
      </trkpt>
      <trkpt lat="47.31454" lon="4.96052">
        <ele>480</ele>
        <time>2012-10-07T10:29:40Z</time>
      </trkpt>
      <trkpt lat="47.31454" lon="4.9606">
        <ele>478</ele>
        <time>2012-10-07T10:29:42Z</time>
      </trkpt>
      <trkpt lat="47.3145" lon="4.96064">
        <ele>479</ele>
        <time>2012-10-07T10:29:45Z</time>
      </trkpt>
      <trkpt lat="47.31447" lon="4.96069">
        <ele>480</ele>
        <time>2012-10-07T10:29:47Z</time>
      </trkpt>
      <trkpt lat="47.3144" lon="4.96073">
        <ele>479</ele>
        <time>2012-10-07T10:29:49Z</time>
      </trkpt>
      <trkpt lat="47.31435" lon="4.96074">
        <ele>479</ele>
        <time>2012-10-07T10:29:51Z</time>
      </trkpt>
      <trkpt lat="47.31429" lon="4.96074">
        <ele>479</ele>
        <time>2012-10-07T10:29:54Z</time>
      </trkpt>
      <trkpt lat="47.31424" lon="4.96076">
        <ele>477</ele>
        <time>2012-10-07T10:29:56Z</time>
      </trkpt>
      <trkpt lat="47.31418" lon="4.96075">
        <ele>478</ele>
        <time>2012-10-07T10:29:59Z</time>
      </trkpt>
      <trkpt lat="47.31414" lon="4.96072">
        <ele>475</ele>
        <time>2012-10-07T10:30:03Z</time>
      </trkpt>
      <trkpt lat="47.31408" lon="4.96072">
        <ele>474</ele>
        <time>2012-10-07T10:30:06Z</time>
      </trkpt>
      <trkpt lat="47.31402" lon="4.96071">
        <ele>476</ele>
        <time>2012-10-07T10:30:09Z</time>
      </trkpt>
      <trkpt lat="47.31396" lon="4.96069">
        <ele>479</ele>
        <time>2012-10-07T10:30:12Z</time>
      </trkpt>
      <trkpt lat="47.3139" lon="4.96064">
        <ele>477</ele>
        <time>2012-10-07T10:30:15Z</time>
      </trkpt>
      <trkpt lat="47.31386" lon="4.96062">
        <ele>475</ele>
        <time>2012-10-07T10:30:18Z</time>
      </trkpt>
      <trkpt lat="47.31381" lon="4.96061">
        <ele>474</ele>
        <time>2012-10-07T10:30:21Z</time>
      </trkpt>
      <trkpt lat="47.31376" lon="4.96058">
        <ele>474</ele>
        <time>2012-10-07T10:30:23Z</time>
      </trkpt>
      <trkpt lat="47.31372" lon="4.96052">
        <ele>473</ele>
        <time>2012-10-07T10:30:28Z</time>
      </trkpt>
      <trkpt lat="47.31367" lon="4.96049">
        <ele>470</ele>
        <time>2012-10-07T10:30:30Z</time>
      </trkpt>
      <trkpt lat="47.31363" lon="4.96044">
        <ele>469</ele>
        <time>2012-10-07T10:30:33Z</time>
      </trkpt>
      <trkpt lat="47.31358" lon="4.96039">
        <ele>469</ele>
        <time>2012-10-07T10:30:35Z</time>
      </trkpt>
      <trkpt lat="47.31354" lon="4.96035">
        <ele>470</ele>
        <time>2012-10-07T10:30:38Z</time>
      </trkpt>
      <trkpt lat="47.3135" lon="4.9603">
        <ele>470</ele>
        <time>2012-10-07T10:30:41Z</time>
      </trkpt>
      <trkpt lat="47.31345" lon="4.96026">
        <ele>472</ele>
        <time>2012-10-07T10:30:44Z</time>
      </trkpt>
      <trkpt lat="47.3134" lon="4.96021">
        <ele>473</ele>
        <time>2012-10-07T10:30:46Z</time>
      </trkpt>
      <trkpt lat="47.31335" lon="4.96014">
        <ele>476</ele>
        <time>2012-10-07T10:30:49Z</time>
      </trkpt>
      <trkpt lat="47.31331" lon="4.96009">
        <ele>477</ele>
        <time>2012-10-07T10:30:52Z</time>
      </trkpt>
      <trkpt lat="47.31329" lon="4.96004">
        <ele>477</ele>
        <time>2012-10-07T10:30:54Z</time>
      </trkpt>
      <trkpt lat="47.31327" lon="4.95995">
        <ele>476</ele>
        <time>2012-10-07T10:30:57Z</time>
      </trkpt>
      <trkpt lat="47.31324" lon="4.95989">
        <ele>476</ele>
        <time>2012-10-07T10:31:00Z</time>
      </trkpt>
      <trkpt lat="47.31321" lon="4.95983">
        <ele>477</ele>
        <time>2012-10-07T10:31:03Z</time>
      </trkpt>
      <trkpt lat="47.3132" lon="4.95976">
        <ele>477</ele>
        <time>2012-10-07T10:31:08Z</time>
      </trkpt>
      <trkpt lat="47.31314" lon="4.9597">
        <ele>479</ele>
        <time>2012-10-07T10:31:12Z</time>
      </trkpt>
      <trkpt lat="47.3131" lon="4.95964">
        <ele>480</ele>
        <time>2012-10-07T10:31:15Z</time>
      </trkpt>
      <trkpt lat="47.31306" lon="4.95959">
        <ele>481</ele>
        <time>2012-10-07T10:31:17Z</time>
      </trkpt>
      <trkpt lat="47.31302" lon="4.95954">
        <ele>481</ele>
        <time>2012-10-07T10:31:20Z</time>
      </trkpt>
      <trkpt lat="47.31299" lon="4.95949">
        <ele>481</ele>
        <time>2012-10-07T10:31:25Z</time>
      </trkpt>
      <trkpt lat="47.31295" lon="4.95943">
        <ele>480</ele>
        <time>2012-10-07T10:31:27Z</time>
      </trkpt>
      <trkpt lat="47.31292" lon="4.95938">
        <ele>480</ele>
        <time>2012-10-07T10:31:29Z</time>
      </trkpt>
      <trkpt lat="47.31287" lon="4.95932">
        <ele>481</ele>
        <time>2012-10-07T10:31:31Z</time>
      </trkpt>
      <trkpt lat="47.31282" lon="4.95925">
        <ele>480</ele>
        <time>2012-10-07T10:31:34Z</time>
      </trkpt>
      <trkpt lat="47.3128" lon="4.95916">
        <ele>481</ele>
        <time>2012-10-07T10:31:37Z</time>
      </trkpt>
      <trkpt lat="47.31276" lon="4.95909">
        <ele>482</ele>
        <time>2012-10-07T10:31:39Z</time>
      </trkpt>
      <trkpt lat="47.31272" lon="4.95902">
        <ele>481</ele>
        <time>2012-10-07T10:31:42Z</time>
      </trkpt>
      <trkpt lat="47.31269" lon="4.95896">
        <ele>481</ele>
        <time>2012-10-07T10:31:46Z</time>
      </trkpt>
      <trkpt lat="47.31267" lon="4.95888">
        <ele>479</ele>
        <time>2012-10-07T10:31:51Z</time>
      </trkpt>
      <trkpt lat="47.31263" lon="4.95882">
        <ele>478</ele>
        <time>2012-10-07T10:31:53Z</time>
      </trkpt>
      <trkpt lat="47.3126" lon="4.95876">
        <ele>479</ele>
        <time>2012-10-07T10:31:56Z</time>
      </trkpt>
      <trkpt lat="47.31255" lon="4.95869">
        <ele>478</ele>
        <time>2012-10-07T10:31:59Z</time>
      </trkpt>
      <trkpt lat="47.31252" lon="4.95863">
        <ele>482</ele>
        <time>2012-10-07T10:32:01Z</time>
      </trkpt>
      <trkpt lat="47.31248" lon="4.95857">
        <ele>482</ele>
        <time>2012-10-07T10:32:04Z</time>
      </trkpt>
      <trkpt lat="47.31244" lon="4.95852">
        <ele>480</ele>
        <time>2012-10-07T10:32:06Z</time>
      </trkpt>
      <trkpt lat="47.31241" lon="4.95848">
        <ele>478</ele>
        <time>2012-10-07T10:32:08Z</time>
      </trkpt>
      <trkpt lat="47.3124" lon="4.9584">
        <ele>473</ele>
        <time>2012-10-07T10:32:10Z</time>
      </trkpt>
      <trkpt lat="47.31239" lon="4.95833">
        <ele>468</ele>
        <time>2012-10-07T10:32:15Z</time>
      </trkpt>
      <trkpt lat="47.31234" lon="4.95835">
        <ele>468</ele>
        <time>2012-10-07T10:32:18Z</time>
      </trkpt>
      <trkpt lat="47.3123" lon="4.95839">
        <ele>466</ele>
        <time>2012-10-07T10:32:23Z</time>
      </trkpt>
      <trkpt lat="47.31226" lon="4.95843">
        <ele>466</ele>
        <time>2012-10-07T10:32:25Z</time>
      </trkpt>
      <trkpt lat="47.3122" lon="4.95845">
        <ele>464</ele>
        <time>2012-10-07T10:32:27Z</time>
      </trkpt>
      <trkpt lat="47.31216" lon="4.95848">
        <ele>463</ele>
        <time>2012-10-07T10:32:28Z</time>
      </trkpt>
      <trkpt lat="47.31208" lon="4.95851">
        <ele>462</ele>
        <time>2012-10-07T10:32:30Z</time>
      </trkpt>
      <trkpt lat="47.31203" lon="4.95857">
        <ele>461</ele>
        <time>2012-10-07T10:32:32Z</time>
      </trkpt>
      <trkpt lat="47.31204" lon="4.95866">
        <ele>461</ele>
        <time>2012-10-07T10:32:35Z</time>
      </trkpt>
      <trkpt lat="47.31199" lon="4.95872">
        <ele>459</ele>
        <time>2012-10-07T10:32:37Z</time>
      </trkpt>
      <trkpt lat="47.31192" lon="4.95877">
        <ele>456</ele>
        <time>2012-10-07T10:32:39Z</time>
      </trkpt>
      <trkpt lat="47.31185" lon="4.95876">
        <ele>454</ele>
        <time>2012-10-07T10:32:41Z</time>
      </trkpt>
      <trkpt lat="47.31181" lon="4.95874">
        <ele>455</ele>
        <time>2012-10-07T10:32:43Z</time>
      </trkpt>
      <trkpt lat="47.31177" lon="4.95869">
        <ele>458</ele>
        <time>2012-10-07T10:32:46Z</time>
      </trkpt>
      <trkpt lat="47.31174" lon="4.95862">
        <ele>457</ele>
        <time>2012-10-07T10:32:49Z</time>
      </trkpt>
      <trkpt lat="47.31172" lon="4.95852">
        <ele>458</ele>
        <time>2012-10-07T10:32:53Z</time>
      </trkpt>
      <trkpt lat="47.31171" lon="4.95844">
        <ele>458</ele>
        <time>2012-10-07T10:32:57Z</time>
      </trkpt>
      <trkpt lat="47.31168" lon="4.95837">
        <ele>458</ele>
        <time>2012-10-07T10:33:02Z</time>
      </trkpt>
      <trkpt lat="47.31164" lon="4.9583">
        <ele>458</ele>
        <time>2012-10-07T10:33:05Z</time>
      </trkpt>
      <trkpt lat="47.31161" lon="4.95826">
        <ele>458</ele>
        <time>2012-10-07T10:33:08Z</time>
      </trkpt>
      <trkpt lat="47.31157" lon="4.95819">
        <ele>454</ele>
        <time>2012-10-07T10:33:11Z</time>
      </trkpt>
      <trkpt lat="47.31155" lon="4.95812">
        <ele>449</ele>
        <time>2012-10-07T10:33:14Z</time>
      </trkpt>
      <trkpt lat="47.31148" lon="4.95813">
        <ele>444</ele>
        <time>2012-10-07T10:33:20Z</time>
      </trkpt>
      <trkpt lat="47.31145" lon="4.95819">
        <ele>442</ele>
        <time>2012-10-07T10:33:24Z</time>
      </trkpt>
      <trkpt lat="47.31139" lon="4.95823">
        <ele>442</ele>
        <time>2012-10-07T10:33:27Z</time>
      </trkpt>
      <trkpt lat="47.31136" lon="4.95829">
        <ele>443</ele>
        <time>2012-10-07T10:33:31Z</time>
      </trkpt>
      <trkpt lat="47.31134" lon="4.95836">
        <ele>443</ele>
        <time>2012-10-07T10:33:35Z</time>
      </trkpt>
      <trkpt lat="47.31133" lon="4.95842">
        <ele>440</ele>
        <time>2012-10-07T10:33:38Z</time>
      </trkpt>
      <trkpt lat="47.31131" lon="4.95849">
        <ele>438</ele>
        <time>2012-10-07T10:33:42Z</time>
      </trkpt>
      <trkpt lat="47.31129" lon="4.95856">
        <ele>437</ele>
        <time>2012-10-07T10:33:46Z</time>
      </trkpt>
      <trkpt lat="47.31129" lon="4.95865">
        <ele>438</ele>
        <time>2012-10-07T10:33:50Z</time>
      </trkpt>
      <trkpt lat="47.31131" lon="4.95873">
        <ele>435</ele>
        <time>2012-10-07T10:33:55Z</time>
      </trkpt>
      <trkpt lat="47.31133" lon="4.95879">
        <ele>433</ele>
        <time>2012-10-07T10:33:59Z</time>
      </trkpt>
      <trkpt lat="47.31136" lon="4.95886">
        <ele>433</ele>
        <time>2012-10-07T10:34:03Z</time>
      </trkpt>
      <trkpt lat="47.31133" lon="4.95894">
        <ele>433</ele>
        <time>2012-10-07T10:34:05Z</time>
      </trkpt>
      <trkpt lat="47.31134" lon="4.95901">
        <ele>433</ele>
        <time>2012-10-07T10:34:07Z</time>
      </trkpt>
      <trkpt lat="47.31133" lon="4.95908">
        <ele>430</ele>
        <time>2012-10-07T10:34:09Z</time>
      </trkpt>
      <trkpt lat="47.31133" lon="4.95915">
        <ele>431</ele>
        <time>2012-10-07T10:34:12Z</time>
      </trkpt>
      <trkpt lat="47.31134" lon="4.95922">
        <ele>430</ele>
        <time>2012-10-07T10:34:15Z</time>
      </trkpt>
      <trkpt lat="47.31134" lon="4.95929">
        <ele>432</ele>
        <time>2012-10-07T10:34:18Z</time>
      </trkpt>
      <trkpt lat="47.31134" lon="4.9594">
        <ele>431</ele>
        <time>2012-10-07T10:34:24Z</time>
      </trkpt>
      <trkpt lat="47.31132" lon="4.95946">
        <ele>425</ele>
        <time>2012-10-07T10:34:28Z</time>
      </trkpt>
      <trkpt lat="47.31128" lon="4.95947">
        <ele>422</ele>
        <time>2012-10-07T10:34:36Z</time>
      </trkpt>
      <trkpt lat="47.31123" lon="4.95945">
        <ele>423</ele>
        <time>2012-10-07T10:34:43Z</time>
      </trkpt>
      <trkpt lat="47.31118" lon="4.95942">
        <ele>423</ele>
        <time>2012-10-07T10:34:49Z</time>
      </trkpt>
      <trkpt lat="47.31114" lon="4.95938">
        <ele>426</ele>
        <time>2012-10-07T10:34:54Z</time>
      </trkpt>
      <trkpt lat="47.31109" lon="4.95934">
        <ele>423</ele>
        <time>2012-10-07T10:34:59Z</time>
      </trkpt>
      <trkpt lat="47.31106" lon="4.9593">
        <ele>425</ele>
        <time>2012-10-07T10:35:02Z</time>
      </trkpt>
      <trkpt lat="47.31103" lon="4.95922">
        <ele>426</ele>
        <time>2012-10-07T10:35:05Z</time>
      </trkpt>
      <trkpt lat="47.311" lon="4.95914">
        <ele>427</ele>
        <time>2012-10-07T10:35:07Z</time>
      </trkpt>
      <trkpt lat="47.31097" lon="4.95907">
        <ele>428</ele>
        <time>2012-10-07T10:35:10Z</time>
      </trkpt>
      <trkpt lat="47.31094" lon="4.959">
        <ele>428</ele>
        <time>2012-10-07T10:35:14Z</time>
      </trkpt>
      <trkpt lat="47.3109" lon="4.95896">
        <ele>427</ele>
        <time>2012-10-07T10:35:17Z</time>
      </trkpt>
      <trkpt lat="47.31086" lon="4.9589">
        <ele>430</ele>
        <time>2012-10-07T10:35:20Z</time>
      </trkpt>
      <trkpt lat="47.31082" lon="4.95886">
        <ele>431</ele>
        <time>2012-10-07T10:35:22Z</time>
      </trkpt>
      <trkpt lat="47.3108" lon="4.9588">
        <ele>431</ele>
        <time>2012-10-07T10:35:24Z</time>
      </trkpt>
      <trkpt lat="47.31077" lon="4.95873">
        <ele>433</ele>
        <time>2012-10-07T10:35:27Z</time>
      </trkpt>
      <trkpt lat="47.31076" lon="4.95865">
        <ele>432</ele>
        <time>2012-10-07T10:35:30Z</time>
      </trkpt>
      <trkpt lat="47.31073" lon="4.95858">
        <ele>432</ele>
        <time>2012-10-07T10:35:32Z</time>
      </trkpt>
      <trkpt lat="47.31071" lon="4.95852">
        <ele>432</ele>
        <time>2012-10-07T10:35:34Z</time>
      </trkpt>
      <trkpt lat="47.3107" lon="4.95845">
        <ele>432</ele>
        <time>2012-10-07T10:35:36Z</time>
      </trkpt>
      <trkpt lat="47.31067" lon="4.95836">
        <ele>431</ele>
        <time>2012-10-07T10:35:39Z</time>
      </trkpt>
      <trkpt lat="47.31066" lon="4.9583">
        <ele>430</ele>
        <time>2012-10-07T10:35:41Z</time>
      </trkpt>
      <trkpt lat="47.31064" lon="4.95822">
        <ele>429</ele>
        <time>2012-10-07T10:35:43Z</time>
      </trkpt>
      <trkpt lat="47.31062" lon="4.95815">
        <ele>428</ele>
        <time>2012-10-07T10:35:45Z</time>
      </trkpt>
      <trkpt lat="47.31065" lon="4.95806">
        <ele>427</ele>
        <time>2012-10-07T10:35:48Z</time>
      </trkpt>
      <trkpt lat="47.31065" lon="4.95797">
        <ele>425</ele>
        <time>2012-10-07T10:35:51Z</time>
      </trkpt>
      <trkpt lat="47.31066" lon="4.9579">
        <ele>423</ele>
        <time>2012-10-07T10:35:53Z</time>
      </trkpt>
      <trkpt lat="47.31068" lon="4.95783">
        <ele>422</ele>
        <time>2012-10-07T10:35:56Z</time>
      </trkpt>
      <trkpt lat="47.3107" lon="4.95776">
        <ele>421</ele>
        <time>2012-10-07T10:35:59Z</time>
      </trkpt>
      <trkpt lat="47.31071" lon="4.95769">
        <ele>422</ele>
        <time>2012-10-07T10:36:02Z</time>
      </trkpt>
      <trkpt lat="47.31071" lon="4.95761">
        <ele>424</ele>
        <time>2012-10-07T10:36:05Z</time>
      </trkpt>
      <trkpt lat="47.31071" lon="4.95753">
        <ele>423</ele>
        <time>2012-10-07T10:36:09Z</time>
      </trkpt>
      <trkpt lat="47.31071" lon="4.95753">
        <ele>423</ele>
        <time>2012-10-07T10:36:09Z</time>
      </trkpt>
      <trkpt lat="47.31071" lon="4.95753">
        <ele>422</ele>
        <time>2012-10-07T10:36:15Z</time>
      </trkpt>
      <trkpt lat="47.31066" lon="4.95758">
        <ele>422</ele>
        <time>2012-10-07T10:36:21Z</time>
      </trkpt>
      <trkpt lat="47.31065" lon="4.95764">
        <ele>422</ele>
        <time>2012-10-07T10:36:24Z</time>
      </trkpt>
      <trkpt lat="47.31063" lon="4.95771">
        <ele>422</ele>
        <time>2012-10-07T10:36:27Z</time>
      </trkpt>
      <trkpt lat="47.3106" lon="4.95779">
        <ele>422</ele>
        <time>2012-10-07T10:36:30Z</time>
      </trkpt>
      <trkpt lat="47.31058" lon="4.95785">
        <ele>420</ele>
        <time>2012-10-07T10:36:37Z</time>
      </trkpt>
      <trkpt lat="47.31054" lon="4.95786">
        <ele>420</ele>
        <time>2012-10-07T10:36:39Z</time>
      </trkpt>
      <trkpt lat="47.3105" lon="4.9579">
        <ele>419</ele>
        <time>2012-10-07T10:36:42Z</time>
      </trkpt>
      <trkpt lat="47.31046" lon="4.95798">
        <ele>417</ele>
        <time>2012-10-07T10:36:45Z</time>
      </trkpt>
      <trkpt lat="47.31046" lon="4.95807">
        <ele>419</ele>
        <time>2012-10-07T10:36:48Z</time>
      </trkpt>
      <trkpt lat="47.31047" lon="4.95815">
        <ele>419</ele>
        <time>2012-10-07T10:36:51Z</time>
      </trkpt>
      <trkpt lat="47.31048" lon="4.95822">
        <ele>417</ele>
        <time>2012-10-07T10:36:54Z</time>
      </trkpt>
      <trkpt lat="47.31049" lon="4.95831">
        <ele>415</ele>
        <time>2012-10-07T10:36:58Z</time>
      </trkpt>
      <trkpt lat="47.31049" lon="4.95839">
        <ele>415</ele>
        <time>2012-10-07T10:37:02Z</time>
      </trkpt>
      <trkpt lat="47.3105" lon="4.95848">
        <ele>413</ele>
        <time>2012-10-07T10:37:06Z</time>
      </trkpt>
      <trkpt lat="47.31051" lon="4.95856">
        <ele>412</ele>
        <time>2012-10-07T10:37:09Z</time>
      </trkpt>
      <trkpt lat="47.31052" lon="4.95863">
        <ele>414</ele>
        <time>2012-10-07T10:37:13Z</time>
      </trkpt>
      <trkpt lat="47.31054" lon="4.95871">
        <ele>413</ele>
        <time>2012-10-07T10:37:16Z</time>
      </trkpt>
      <trkpt lat="47.31055" lon="4.95881">
        <ele>412</ele>
        <time>2012-10-07T10:37:20Z</time>
      </trkpt>
      <trkpt lat="47.31056" lon="4.95887">
        <ele>411</ele>
        <time>2012-10-07T10:37:22Z</time>
      </trkpt>
      <trkpt lat="47.31058" lon="4.95894">
        <ele>410</ele>
        <time>2012-10-07T10:37:24Z</time>
      </trkpt>
      <trkpt lat="47.31062" lon="4.95902">
        <ele>409</ele>
        <time>2012-10-07T10:37:27Z</time>
      </trkpt>
      <trkpt lat="47.31064" lon="4.9591">
        <ele>409</ele>
        <time>2012-10-07T10:37:29Z</time>
      </trkpt>
      <trkpt lat="47.31064" lon="4.9592">
        <ele>408</ele>
        <time>2012-10-07T10:37:32Z</time>
      </trkpt>
      <trkpt lat="47.31065" lon="4.95926">
        <ele>409</ele>
        <time>2012-10-07T10:37:35Z</time>
      </trkpt>
      <trkpt lat="47.31067" lon="4.95933">
        <ele>410</ele>
        <time>2012-10-07T10:37:38Z</time>
      </trkpt>
      <trkpt lat="47.31069" lon="4.9594">
        <ele>409</ele>
        <time>2012-10-07T10:37:41Z</time>
      </trkpt>
      <trkpt lat="47.31072" lon="4.95949">
        <ele>407</ele>
        <time>2012-10-07T10:37:44Z</time>
      </trkpt>
      <trkpt lat="47.31073" lon="4.95957">
        <ele>406</ele>
        <time>2012-10-07T10:37:47Z</time>
      </trkpt>
      <trkpt lat="47.31073" lon="4.95967">
        <ele>406</ele>
        <time>2012-10-07T10:37:50Z</time>
      </trkpt>
      <trkpt lat="47.31075" lon="4.95978">
        <ele>405</ele>
        <time>2012-10-07T10:37:53Z</time>
      </trkpt>
      <trkpt lat="47.31076" lon="4.95988">
        <ele>405</ele>
        <time>2012-10-07T10:37:56Z</time>
      </trkpt>
      <trkpt lat="47.31074" lon="4.95995">
        <ele>403</ele>
        <time>2012-10-07T10:37:58Z</time>
      </trkpt>
      <trkpt lat="47.31075" lon="4.96002">
        <ele>403</ele>
        <time>2012-10-07T10:38:02Z</time>
      </trkpt>
      <trkpt lat="47.31074" lon="4.96008">
        <ele>403</ele>
        <time>2012-10-07T10:38:06Z</time>
      </trkpt>
      <trkpt lat="47.31074" lon="4.96016">
        <ele>403</ele>
        <time>2012-10-07T10:38:09Z</time>
      </trkpt>
      <trkpt lat="47.31073" lon="4.96025">
        <ele>404</ele>
        <time>2012-10-07T10:38:12Z</time>
      </trkpt>
      <trkpt lat="47.31074" lon="4.96035">
        <ele>404</ele>
        <time>2012-10-07T10:38:14Z</time>
      </trkpt>
      <trkpt lat="47.31075" lon="4.96046">
        <ele>405</ele>
        <time>2012-10-07T10:38:16Z</time>
      </trkpt>
      <trkpt lat="47.31078" lon="4.96055">
        <ele>404</ele>
        <time>2012-10-07T10:38:18Z</time>
      </trkpt>
      <trkpt lat="47.31076" lon="4.96063">
        <ele>403</ele>
        <time>2012-10-07T10:38:20Z</time>
      </trkpt>
      <trkpt lat="47.31076" lon="4.9607">
        <ele>403</ele>
        <time>2012-10-07T10:38:22Z</time>
      </trkpt>
      <trkpt lat="47.31073" lon="4.96078">
        <ele>402</ele>
        <time>2012-10-07T10:38:26Z</time>
      </trkpt>
      <trkpt lat="47.31072" lon="4.96086">
        <ele>400</ele>
        <time>2012-10-07T10:38:29Z</time>
      </trkpt>
      <trkpt lat="47.31071" lon="4.96093">
        <ele>397</ele>
        <time>2012-10-07T10:38:31Z</time>
      </trkpt>
      <trkpt lat="47.3107" lon="4.96101">
        <ele>394</ele>
        <time>2012-10-07T10:38:33Z</time>
      </trkpt>
      <trkpt lat="47.3107" lon="4.96108">
        <ele>393</ele>
        <time>2012-10-07T10:38:35Z</time>
      </trkpt>
      <trkpt lat="47.31069" lon="4.96117">
        <ele>394</ele>
        <time>2012-10-07T10:38:39Z</time>
      </trkpt>
      <trkpt lat="47.31071" lon="4.96127">
        <ele>397</ele>
        <time>2012-10-07T10:38:41Z</time>
      </trkpt>
      <trkpt lat="47.31072" lon="4.96134">
        <ele>397</ele>
        <time>2012-10-07T10:38:43Z</time>
      </trkpt>
      <trkpt lat="47.31068" lon="4.96142">
        <ele>396</ele>
        <time>2012-10-07T10:38:46Z</time>
      </trkpt>
      <trkpt lat="47.31065" lon="4.96151">
        <ele>395</ele>
        <time>2012-10-07T10:38:49Z</time>
      </trkpt>
      <trkpt lat="47.31063" lon="4.96158">
        <ele>396</ele>
        <time>2012-10-07T10:38:52Z</time>
      </trkpt>
      <trkpt lat="47.31061" lon="4.96166">
        <ele>395</ele>
        <time>2012-10-07T10:38:56Z</time>
      </trkpt>
      <trkpt lat="47.31059" lon="4.96173">
        <ele>393</ele>
        <time>2012-10-07T10:38:59Z</time>
      </trkpt>
      <trkpt lat="47.31058" lon="4.96181">
        <ele>391</ele>
        <time>2012-10-07T10:39:02Z</time>
      </trkpt>
      <trkpt lat="47.31057" lon="4.9619">
        <ele>390</ele>
        <time>2012-10-07T10:39:06Z</time>
      </trkpt>
      <trkpt lat="47.31057" lon="4.96197">
        <ele>390</ele>
        <time>2012-10-07T10:39:09Z</time>
      </trkpt>
      <trkpt lat="47.31058" lon="4.96206">
        <ele>390</ele>
        <time>2012-10-07T10:39:13Z</time>
      </trkpt>
      <trkpt lat="47.31062" lon="4.96213">
        <ele>388</ele>
        <time>2012-10-07T10:39:17Z</time>
      </trkpt>
      <trkpt lat="47.31064" lon="4.96223">
        <ele>386</ele>
        <time>2012-10-07T10:39:20Z</time>
      </trkpt>
      <trkpt lat="47.31066" lon="4.96229">
        <ele>386</ele>
        <time>2012-10-07T10:39:22Z</time>
      </trkpt>
      <trkpt lat="47.31067" lon="4.96236">
        <ele>388</ele>
        <time>2012-10-07T10:39:26Z</time>
      </trkpt>
      <trkpt lat="47.31071" lon="4.96244">
        <ele>389</ele>
        <time>2012-10-07T10:39:29Z</time>
      </trkpt>
      <trkpt lat="47.31073" lon="4.9625">
        <ele>389</ele>
        <time>2012-10-07T10:39:32Z</time>
      </trkpt>
      <trkpt lat="47.31077" lon="4.96258">
        <ele>390</ele>
        <time>2012-10-07T10:39:36Z</time>
      </trkpt>
      <trkpt lat="47.3108" lon="4.96264">
        <ele>389</ele>
        <time>2012-10-07T10:39:38Z</time>
      </trkpt>
      <trkpt lat="47.31082" lon="4.96271">
        <ele>387</ele>
        <time>2012-10-07T10:39:40Z</time>
      </trkpt>
      <trkpt lat="47.31086" lon="4.96277">
        <ele>386</ele>
        <time>2012-10-07T10:39:42Z</time>
      </trkpt>
      <trkpt lat="47.31088" lon="4.96284">
        <ele>385</ele>
        <time>2012-10-07T10:39:44Z</time>
      </trkpt>
      <trkpt lat="47.3109" lon="4.96291">
        <ele>383</ele>
        <time>2012-10-07T10:39:47Z</time>
      </trkpt>
      <trkpt lat="47.31092" lon="4.96298">
        <ele>383</ele>
        <time>2012-10-07T10:39:50Z</time>
      </trkpt>
      <trkpt lat="47.31093" lon="4.96305">
        <ele>383</ele>
        <time>2012-10-07T10:39:53Z</time>
      </trkpt>
      <trkpt lat="47.31096" lon="4.96311">
        <ele>383</ele>
        <time>2012-10-07T10:39:56Z</time>
      </trkpt>
      <trkpt lat="47.31101" lon="4.9632">
        <ele>382</ele>
        <time>2012-10-07T10:40:00Z</time>
      </trkpt>
      <trkpt lat="47.31103" lon="4.96326">
        <ele>382</ele>
        <time>2012-10-07T10:40:02Z</time>
      </trkpt>
      <trkpt lat="47.31107" lon="4.9633">
        <ele>382</ele>
        <time>2012-10-07T10:40:05Z</time>
      </trkpt>
      <trkpt lat="47.31109" lon="4.96337">
        <ele>381</ele>
        <time>2012-10-07T10:40:07Z</time>
      </trkpt>
      <trkpt lat="47.31113" lon="4.96342">
        <ele>381</ele>
        <time>2012-10-07T10:40:09Z</time>
      </trkpt>
      <trkpt lat="47.31116" lon="4.96349">
        <ele>380</ele>
        <time>2012-10-07T10:40:11Z</time>
      </trkpt>
      <trkpt lat="47.31118" lon="4.96355">
        <ele>380</ele>
        <time>2012-10-07T10:40:14Z</time>
      </trkpt>
      <trkpt lat="47.3112" lon="4.96362">
        <ele>379</ele>
        <time>2012-10-07T10:40:17Z</time>
      </trkpt>
      <trkpt lat="47.31123" lon="4.96368">
        <ele>378</ele>
        <time>2012-10-07T10:40:20Z</time>
      </trkpt>
      <trkpt lat="47.31126" lon="4.96372">
        <ele>379</ele>
        <time>2012-10-07T10:40:23Z</time>
      </trkpt>
      <trkpt lat="47.3113" lon="4.96378">
        <ele>380</ele>
        <time>2012-10-07T10:40:27Z</time>
      </trkpt>
      <trkpt lat="47.31133" lon="4.96386">
        <ele>380</ele>
        <time>2012-10-07T10:40:31Z</time>
      </trkpt>
      <trkpt lat="47.31136" lon="4.96392">
        <ele>380</ele>
        <time>2012-10-07T10:40:34Z</time>
      </trkpt>
      <trkpt lat="47.31139" lon="4.96398">
        <ele>384</ele>
        <time>2012-10-07T10:40:38Z</time>
      </trkpt>
      <trkpt lat="47.31142" lon="4.96403">
        <ele>386</ele>
        <time>2012-10-07T10:40:40Z</time>
      </trkpt>
      <trkpt lat="47.31145" lon="4.96409">
        <ele>387</ele>
        <time>2012-10-07T10:40:43Z</time>
      </trkpt>
      <trkpt lat="47.31147" lon="4.96416">
        <ele>386</ele>
        <time>2012-10-07T10:40:45Z</time>
      </trkpt>
      <trkpt lat="47.31151" lon="4.96422">
        <ele>384</ele>
        <time>2012-10-07T10:40:47Z</time>
      </trkpt>
      <trkpt lat="47.31152" lon="4.96431">
        <ele>382</ele>
        <time>2012-10-07T10:40:50Z</time>
      </trkpt>
      <trkpt lat="47.31155" lon="4.96436">
        <ele>381</ele>
        <time>2012-10-07T10:40:52Z</time>
      </trkpt>
      <trkpt lat="47.31158" lon="4.96442">
        <ele>380</ele>
        <time>2012-10-07T10:40:55Z</time>
      </trkpt>
      <trkpt lat="47.3116" lon="4.9645">
        <ele>380</ele>
        <time>2012-10-07T10:40:59Z</time>
      </trkpt>
      <trkpt lat="47.31161" lon="4.96458">
        <ele>382</ele>
        <time>2012-10-07T10:41:02Z</time>
      </trkpt>
      <trkpt lat="47.31163" lon="4.96464">
        <ele>381</ele>
        <time>2012-10-07T10:41:05Z</time>
      </trkpt>
      <trkpt lat="47.31164" lon="4.96472">
        <ele>381</ele>
        <time>2012-10-07T10:41:08Z</time>
      </trkpt>
      <trkpt lat="47.31165" lon="4.9648">
        <ele>383</ele>
        <time>2012-10-07T10:41:13Z</time>
      </trkpt>
      <trkpt lat="47.31167" lon="4.96486">
        <ele>384</ele>
        <time>2012-10-07T10:41:15Z</time>
      </trkpt>
      <trkpt lat="47.31168" lon="4.96496">
        <ele>383</ele>
        <time>2012-10-07T10:41:18Z</time>
      </trkpt>
      <trkpt lat="47.3117" lon="4.96503">
        <ele>382</ele>
        <time>2012-10-07T10:41:20Z</time>
      </trkpt>
      <trkpt lat="47.31172" lon="4.96512">
        <ele>382</ele>
        <time>2012-10-07T10:41:22Z</time>
      </trkpt>
      <trkpt lat="47.31175" lon="4.96519">
        <ele>382</ele>
        <time>2012-10-07T10:41:24Z</time>
      </trkpt>
      <trkpt lat="47.31174" lon="4.96527">
        <ele>383</ele>
        <time>2012-10-07T10:41:27Z</time>
      </trkpt>
      <trkpt lat="47.31175" lon="4.96534">
        <ele>385</ele>
        <time>2012-10-07T10:41:30Z</time>
      </trkpt>
      <trkpt lat="47.31175" lon="4.96542">
        <ele>387</ele>
        <time>2012-10-07T10:41:34Z</time>
      </trkpt>
      <trkpt lat="47.31175" lon="4.9655">
        <ele>388</ele>
        <time>2012-10-07T10:41:37Z</time>
      </trkpt>
      <trkpt lat="47.31176" lon="4.96558">
        <ele>389</ele>
        <time>2012-10-07T10:41:40Z</time>
      </trkpt>
      <trkpt lat="47.31177" lon="4.96568">
        <ele>389</ele>
        <time>2012-10-07T10:41:43Z</time>
      </trkpt>
      <trkpt lat="47.31179" lon="4.96577">
        <ele>389</ele>
        <time>2012-10-07T10:41:46Z</time>
      </trkpt>
      <trkpt lat="47.3118" lon="4.96583">
        <ele>387</ele>
        <time>2012-10-07T10:41:48Z</time>
      </trkpt>
      <trkpt lat="47.31181" lon="4.96593">
        <ele>386</ele>
        <time>2012-10-07T10:41:51Z</time>
      </trkpt>
      <trkpt lat="47.31182" lon="4.96601">
        <ele>386</ele>
        <time>2012-10-07T10:41:53Z</time>
      </trkpt>
      <trkpt lat="47.3118" lon="4.96609">
        <ele>386</ele>
        <time>2012-10-07T10:41:57Z</time>
      </trkpt>
      <trkpt lat="47.31177" lon="4.96617">
        <ele>385</ele>
        <time>2012-10-07T10:42:00Z</time>
      </trkpt>
      <trkpt lat="47.31176" lon="4.96624">
        <ele>385</ele>
        <time>2012-10-07T10:42:03Z</time>
      </trkpt>
      <trkpt lat="47.31176" lon="4.96631">
        <ele>384</ele>
        <time>2012-10-07T10:42:05Z</time>
      </trkpt>
      <trkpt lat="47.31175" lon="4.9664">
        <ele>386</ele>
        <time>2012-10-07T10:42:07Z</time>
      </trkpt>
      <trkpt lat="47.31173" lon="4.96648">
        <ele>386</ele>
        <time>2012-10-07T10:42:09Z</time>
      </trkpt>
      <trkpt lat="47.31172" lon="4.96656">
        <ele>385</ele>
        <time>2012-10-07T10:42:13Z</time>
      </trkpt>
      <trkpt lat="47.31169" lon="4.96662">
        <ele>387</ele>
        <time>2012-10-07T10:42:18Z</time>
      </trkpt>
      <trkpt lat="47.3117" lon="4.9667">
        <ele>388</ele>
        <time>2012-10-07T10:42:22Z</time>
      </trkpt>
      <trkpt lat="47.3117" lon="4.9668">
        <ele>387</ele>
        <time>2012-10-07T10:42:26Z</time>
      </trkpt>
      <trkpt lat="47.31172" lon="4.96688">
        <ele>386</ele>
        <time>2012-10-07T10:42:29Z</time>
      </trkpt>
      <trkpt lat="47.31173" lon="4.96694">
        <ele>388</ele>
        <time>2012-10-07T10:42:32Z</time>
      </trkpt>
      <trkpt lat="47.31174" lon="4.96702">
        <ele>385</ele>
        <time>2012-10-07T10:42:36Z</time>
      </trkpt>
      <trkpt lat="47.31176" lon="4.9671">
        <ele>384</ele>
        <time>2012-10-07T10:42:39Z</time>
      </trkpt>
      <trkpt lat="47.31177" lon="4.96716">
        <ele>384</ele>
        <time>2012-10-07T10:42:41Z</time>
      </trkpt>
      <trkpt lat="47.31181" lon="4.96725">
        <ele>382</ele>
        <time>2012-10-07T10:42:44Z</time>
      </trkpt>
      <trkpt lat="47.31182" lon="4.96732">
        <ele>382</ele>
        <time>2012-10-07T10:42:46Z</time>
      </trkpt>
      <trkpt lat="47.31185" lon="4.96737">
        <ele>381</ele>
        <time>2012-10-07T10:42:49Z</time>
      </trkpt>
      <trkpt lat="47.31188" lon="4.96744">
        <ele>378</ele>
        <time>2012-10-07T10:42:51Z</time>
      </trkpt>
      <trkpt lat="47.31189" lon="4.96754">
        <ele>376</ele>
        <time>2012-10-07T10:42:54Z</time>
      </trkpt>
      <trkpt lat="47.31191" lon="4.96761">
        <ele>375</ele>
        <time>2012-10-07T10:42:57Z</time>
      </trkpt>
      <trkpt lat="47.31195" lon="4.96768">
        <ele>373</ele>
        <time>2012-10-07T10:43:01Z</time>
      </trkpt>
      <trkpt lat="47.31197" lon="4.96774">
        <ele>373</ele>
        <time>2012-10-07T10:43:04Z</time>
      </trkpt>
      <trkpt lat="47.312" lon="4.96781">
        <ele>374</ele>
        <time>2012-10-07T10:43:07Z</time>
      </trkpt>
      <trkpt lat="47.31203" lon="4.9679">
        <ele>373</ele>
        <time>2012-10-07T10:43:09Z</time>
      </trkpt>
      <trkpt lat="47.31204" lon="4.96796">
        <ele>371</ele>
        <time>2012-10-07T10:43:10Z</time>
      </trkpt>
      <trkpt lat="47.31205" lon="4.96806">
        <ele>371</ele>
        <time>2012-10-07T10:43:12Z</time>
      </trkpt>
      <trkpt lat="47.31202" lon="4.96814">
        <ele>371</ele>
        <time>2012-10-07T10:43:15Z</time>
      </trkpt>
      <trkpt lat="47.31198" lon="4.96819">
        <ele>372</ele>
        <time>2012-10-07T10:43:17Z</time>
      </trkpt>
      <trkpt lat="47.31192" lon="4.96824">
        <ele>372</ele>
        <time>2012-10-07T10:43:20Z</time>
      </trkpt>
      <trkpt lat="47.31187" lon="4.96827">
        <ele>371</ele>
        <time>2012-10-07T10:43:23Z</time>
      </trkpt>
      <trkpt lat="47.31183" lon="4.96831">
        <ele>371</ele>
        <time>2012-10-07T10:43:26Z</time>
      </trkpt>
      <trkpt lat="47.31177" lon="4.96835">
        <ele>371</ele>
        <time>2012-10-07T10:43:30Z</time>
      </trkpt>
      <trkpt lat="47.31173" lon="4.96838">
        <ele>372</ele>
        <time>2012-10-07T10:43:32Z</time>
      </trkpt>
      <trkpt lat="47.31168" lon="4.96838">
        <ele>371</ele>
        <time>2012-10-07T10:43:37Z</time>
      </trkpt>
      <trkpt lat="47.31164" lon="4.96842">
        <ele>370</ele>
        <time>2012-10-07T10:43:40Z</time>
      </trkpt>
      <trkpt lat="47.3116" lon="4.96845">
        <ele>369</ele>
        <time>2012-10-07T10:43:43Z</time>
      </trkpt>
      <trkpt lat="47.31155" lon="4.96849">
        <ele>368</ele>
        <time>2012-10-07T10:43:47Z</time>
      </trkpt>
      <trkpt lat="47.31151" lon="4.96852">
        <ele>361</ele>
        <time>2012-10-07T10:43:54Z</time>
      </trkpt>
      <trkpt lat="47.31145" lon="4.96856">
        <ele>360</ele>
        <time>2012-10-07T10:43:57Z</time>
      </trkpt>
      <trkpt lat="47.3114" lon="4.9686">
        <ele>360</ele>
        <time>2012-10-07T10:44:01Z</time>
      </trkpt>
      <trkpt lat="47.31135" lon="4.96863">
        <ele>359</ele>
        <time>2012-10-07T10:44:03Z</time>
      </trkpt>
      <trkpt lat="47.3113" lon="4.96868">
        <ele>359</ele>
        <time>2012-10-07T10:44:06Z</time>
      </trkpt>
      <trkpt lat="47.31124" lon="4.96865">
        <ele>357</ele>
        <time>2012-10-07T10:44:10Z</time>
      </trkpt>
      <trkpt lat="47.31119" lon="4.96865">
        <ele>357</ele>
        <time>2012-10-07T10:44:13Z</time>
      </trkpt>
      <trkpt lat="47.31115" lon="4.96871">
        <ele>359</ele>
        <time>2012-10-07T10:44:17Z</time>
      </trkpt>
      <trkpt lat="47.31111" lon="4.96875">
        <ele>363</ele>
        <time>2012-10-07T10:44:22Z</time>
      </trkpt>
      <trkpt lat="47.31107" lon="4.96879">
        <ele>367</ele>
        <time>2012-10-07T10:44:26Z</time>
      </trkpt>
      <trkpt lat="47.31102" lon="4.96882">
        <ele>369</ele>
        <time>2012-10-07T10:44:30Z</time>
      </trkpt>
      <trkpt lat="47.31098" lon="4.96887">
        <ele>374</ele>
        <time>2012-10-07T10:44:34Z</time>
      </trkpt>
      <trkpt lat="47.31093" lon="4.96892">
        <ele>377</ele>
        <time>2012-10-07T10:44:38Z</time>
      </trkpt>
      <trkpt lat="47.31087" lon="4.96895">
        <ele>379</ele>
        <time>2012-10-07T10:44:41Z</time>
      </trkpt>
      <trkpt lat="47.31085" lon="4.96901">
        <ele>379</ele>
        <time>2012-10-07T10:44:44Z</time>
      </trkpt>
      <trkpt lat="47.31079" lon="4.96905">
        <ele>377</ele>
        <time>2012-10-07T10:44:47Z</time>
      </trkpt>
      <trkpt lat="47.31074" lon="4.96906">
        <ele>377</ele>
        <time>2012-10-07T10:44:50Z</time>
      </trkpt>
      <trkpt lat="47.31069" lon="4.96909">
        <ele>379</ele>
        <time>2012-10-07T10:44:53Z</time>
      </trkpt>
      <trkpt lat="47.31064" lon="4.96912">
        <ele>380</ele>
        <time>2012-10-07T10:44:57Z</time>
      </trkpt>
      <trkpt lat="47.31057" lon="4.96914">
        <ele>381</ele>
        <time>2012-10-07T10:45:00Z</time>
      </trkpt>
      <trkpt lat="47.3105" lon="4.96915">
        <ele>382</ele>
        <time>2012-10-07T10:45:02Z</time>
      </trkpt>
      <trkpt lat="47.31047" lon="4.9692">
        <ele>382</ele>
        <time>2012-10-07T10:45:04Z</time>
      </trkpt>
      <trkpt lat="47.31043" lon="4.96926">
        <ele>382</ele>
        <time>2012-10-07T10:45:07Z</time>
      </trkpt>
      <trkpt lat="47.31038" lon="4.96928">
        <ele>383</ele>
        <time>2012-10-07T10:45:10Z</time>
      </trkpt>
      <trkpt lat="47.31035" lon="4.96933">
        <ele>383</ele>
        <time>2012-10-07T10:45:13Z</time>
      </trkpt>
      <trkpt lat="47.31032" lon="4.9694">
        <ele>381</ele>
        <time>2012-10-07T10:45:16Z</time>
      </trkpt>
      <trkpt lat="47.31024" lon="4.96946">
        <ele>380</ele>
        <time>2012-10-07T10:45:20Z</time>
      </trkpt>
      <trkpt lat="47.31023" lon="4.96954">
        <ele>379</ele>
        <time>2012-10-07T10:45:22Z</time>
      </trkpt>
      <trkpt lat="47.31022" lon="4.96965">
        <ele>378</ele>
        <time>2012-10-07T10:45:27Z</time>
      </trkpt>
      <trkpt lat="47.31023" lon="4.96972">
        <ele>378</ele>
        <time>2012-10-07T10:45:29Z</time>
      </trkpt>
      <trkpt lat="47.31022" lon="4.96979">
        <ele>377</ele>
        <time>2012-10-07T10:45:33Z</time>
      </trkpt>
      <trkpt lat="47.31019" lon="4.96985">
        <ele>381</ele>
        <time>2012-10-07T10:45:39Z</time>
      </trkpt>
      <trkpt lat="47.31019" lon="4.96992">
        <ele>383</ele>
        <time>2012-10-07T10:45:44Z</time>
      </trkpt>
      <trkpt lat="47.31014" lon="4.96997">
        <ele>382</ele>
        <time>2012-10-07T10:45:47Z</time>
      </trkpt>
      <trkpt lat="47.31011" lon="4.97003">
        <ele>381</ele>
        <time>2012-10-07T10:45:50Z</time>
      </trkpt>
      <trkpt lat="47.31007" lon="4.9701">
        <ele>380</ele>
        <time>2012-10-07T10:45:53Z</time>
      </trkpt>
      <trkpt lat="47.31005" lon="4.97016">
        <ele>377</ele>
        <time>2012-10-07T10:45:56Z</time>
      </trkpt>
      <trkpt lat="47.31" lon="4.97021">
        <ele>377</ele>
        <time>2012-10-07T10:46:00Z</time>
      </trkpt>
      <trkpt lat="47.30997" lon="4.97028">
        <ele>377</ele>
        <time>2012-10-07T10:46:04Z</time>
      </trkpt>
      <trkpt lat="47.30992" lon="4.97032">
        <ele>377</ele>
        <time>2012-10-07T10:46:07Z</time>
      </trkpt>
      <trkpt lat="47.3099" lon="4.97038">
        <ele>377</ele>
        <time>2012-10-07T10:46:12Z</time>
      </trkpt>
      <trkpt lat="47.30985" lon="4.97041">
        <ele>379</ele>
        <time>2012-10-07T10:46:15Z</time>
      </trkpt>
      <trkpt lat="47.30983" lon="4.97047">
        <ele>381</ele>
        <time>2012-10-07T10:46:18Z</time>
      </trkpt>
      <trkpt lat="47.30982" lon="4.97054">
        <ele>380</ele>
        <time>2012-10-07T10:46:21Z</time>
      </trkpt>
      <trkpt lat="47.30977" lon="4.9706">
        <ele>380</ele>
        <time>2012-10-07T10:46:25Z</time>
      </trkpt>
      <trkpt lat="47.30973" lon="4.97066">
        <ele>380</ele>
        <time>2012-10-07T10:46:28Z</time>
      </trkpt>
      <trkpt lat="47.30968" lon="4.97071">
        <ele>380</ele>
        <time>2012-10-07T10:46:31Z</time>
      </trkpt>
      <trkpt lat="47.30963" lon="4.97076">
        <ele>379</ele>
        <time>2012-10-07T10:46:34Z</time>
      </trkpt>
      <trkpt lat="47.30958" lon="4.9708">
        <ele>382</ele>
        <time>2012-10-07T10:46:39Z</time>
      </trkpt>
      <trkpt lat="47.30954" lon="4.97082">
        <ele>382</ele>
        <time>2012-10-07T10:46:42Z</time>
      </trkpt>
      <trkpt lat="47.30951" lon="4.97088">
        <ele>383</ele>
        <time>2012-10-07T10:46:45Z</time>
      </trkpt>
      <trkpt lat="47.30947" lon="4.97093">
        <ele>382</ele>
        <time>2012-10-07T10:46:47Z</time>
      </trkpt>
      <trkpt lat="47.30943" lon="4.97095">
        <ele>382</ele>
        <time>2012-10-07T10:46:49Z</time>
      </trkpt>
      <trkpt lat="47.30938" lon="4.97098">
        <ele>383</ele>
        <time>2012-10-07T10:46:52Z</time>
      </trkpt>
      <trkpt lat="47.30936" lon="4.97103">
        <ele>383</ele>
        <time>2012-10-07T10:46:55Z</time>
      </trkpt>
      <trkpt lat="47.30933" lon="4.97109">
        <ele>384</ele>
        <time>2012-10-07T10:46:59Z</time>
      </trkpt>
      <trkpt lat="47.30929" lon="4.97114">
        <ele>384</ele>
        <time>2012-10-07T10:47:03Z</time>
      </trkpt>
      <trkpt lat="47.30925" lon="4.97119">
        <ele>381</ele>
        <time>2012-10-07T10:47:06Z</time>
      </trkpt>
      <trkpt lat="47.30922" lon="4.97124">
        <ele>381</ele>
        <time>2012-10-07T10:47:09Z</time>
      </trkpt>
      <trkpt lat="47.30918" lon="4.97128">
        <ele>381</ele>
        <time>2012-10-07T10:47:11Z</time>
      </trkpt>
      <trkpt lat="47.30914" lon="4.97135">
        <ele>381</ele>
        <time>2012-10-07T10:47:15Z</time>
      </trkpt>
      <trkpt lat="47.3091" lon="4.97144">
        <ele>380</ele>
        <time>2012-10-07T10:47:20Z</time>
      </trkpt>
      <trkpt lat="47.30904" lon="4.97149">
        <ele>379</ele>
        <time>2012-10-07T10:47:23Z</time>
      </trkpt>
      <trkpt lat="47.30901" lon="4.97154">
        <ele>379</ele>
        <time>2012-10-07T10:47:25Z</time>
      </trkpt>
      <trkpt lat="47.30897" lon="4.97159">
        <ele>378</ele>
        <time>2012-10-07T10:47:27Z</time>
      </trkpt>
      <trkpt lat="47.30894" lon="4.97166">
        <ele>379</ele>
        <time>2012-10-07T10:47:30Z</time>
      </trkpt>
      <trkpt lat="47.3089" lon="4.97173">
        <ele>379</ele>
        <time>2012-10-07T10:47:33Z</time>
      </trkpt>
      <trkpt lat="47.30888" lon="4.97179">
        <ele>380</ele>
        <time>2012-10-07T10:47:36Z</time>
      </trkpt>
      <trkpt lat="47.3089" lon="4.97187">
        <ele>382</ele>
        <time>2012-10-07T10:47:40Z</time>
      </trkpt>
      <trkpt lat="47.30888" lon="4.97192">
        <ele>383</ele>
        <time>2012-10-07T10:47:43Z</time>
      </trkpt>
      <trkpt lat="47.30886" lon="4.97199">
        <ele>383</ele>
        <time>2012-10-07T10:47:47Z</time>
      </trkpt>
      <trkpt lat="47.30884" lon="4.97205">
        <ele>386</ele>
        <time>2012-10-07T10:47:51Z</time>
      </trkpt>
      <trkpt lat="47.3088" lon="4.97213">
        <ele>388</ele>
        <time>2012-10-07T10:47:54Z</time>
      </trkpt>
      <trkpt lat="47.30877" lon="4.97218">
        <ele>392</ele>
        <time>2012-10-07T10:47:59Z</time>
      </trkpt>
      <trkpt lat="47.30875" lon="4.97224">
        <ele>395</ele>
        <time>2012-10-07T10:48:04Z</time>
      </trkpt>
      <trkpt lat="47.30873" lon="4.9723">
        <ele>395</ele>
        <time>2012-10-07T10:48:07Z</time>
      </trkpt>
      <trkpt lat="47.30873" lon="4.97238">
        <ele>395</ele>
        <time>2012-10-07T10:48:10Z</time>
      </trkpt>
      <trkpt lat="47.30872" lon="4.97244">
        <ele>396</ele>
        <time>2012-10-07T10:48:14Z</time>
      </trkpt>
      <trkpt lat="47.30871" lon="4.97252">
        <ele>395</ele>
        <time>2012-10-07T10:48:17Z</time>
      </trkpt>
      <trkpt lat="47.3087" lon="4.9726">
        <ele>396</ele>
        <time>2012-10-07T10:48:21Z</time>
      </trkpt>
      <trkpt lat="47.30869" lon="4.97266">
        <ele>398</ele>
        <time>2012-10-07T10:48:25Z</time>
      </trkpt>
      <trkpt lat="47.30867" lon="4.97273">
        <ele>399</ele>
        <time>2012-10-07T10:48:30Z</time>
      </trkpt>
      <trkpt lat="47.30866" lon="4.97279">
        <ele>402</ele>
        <time>2012-10-07T10:48:33Z</time>
      </trkpt>
      <trkpt lat="47.30866" lon="4.97286">
        <ele>403</ele>
        <time>2012-10-07T10:48:36Z</time>
      </trkpt>
      <trkpt lat="47.30867" lon="4.97295">
        <ele>405</ele>
        <time>2012-10-07T10:48:40Z</time>
      </trkpt>
      <trkpt lat="47.30867" lon="4.97303">
        <ele>405</ele>
        <time>2012-10-07T10:48:44Z</time>
      </trkpt>
      <trkpt lat="47.30869" lon="4.9731">
        <ele>405</ele>
        <time>2012-10-07T10:48:47Z</time>
      </trkpt>
      <trkpt lat="47.30867" lon="4.97317">
        <ele>406</ele>
        <time>2012-10-07T10:48:51Z</time>
      </trkpt>
      <trkpt lat="47.30866" lon="4.97326">
        <ele>406</ele>
        <time>2012-10-07T10:48:54Z</time>
      </trkpt>
      <trkpt lat="47.30863" lon="4.97332">
        <ele>408</ele>
        <time>2012-10-07T10:48:59Z</time>
      </trkpt>
      <trkpt lat="47.30861" lon="4.97339">
        <ele>410</ele>
        <time>2012-10-07T10:49:03Z</time>
      </trkpt>
      <trkpt lat="47.3086" lon="4.97348">
        <ele>412</ele>
        <time>2012-10-07T10:49:07Z</time>
      </trkpt>
      <trkpt lat="47.3086" lon="4.97357">
        <ele>412</ele>
        <time>2012-10-07T10:49:10Z</time>
      </trkpt>
      <trkpt lat="47.30859" lon="4.97365">
        <ele>411</ele>
        <time>2012-10-07T10:49:13Z</time>
      </trkpt>
      <trkpt lat="47.30857" lon="4.97374">
        <ele>410</ele>
        <time>2012-10-07T10:49:16Z</time>
      </trkpt>
      <trkpt lat="47.30854" lon="4.9738">
        <ele>409</ele>
        <time>2012-10-07T10:49:18Z</time>
      </trkpt>
      <trkpt lat="47.30852" lon="4.97386">
        <ele>409</ele>
        <time>2012-10-07T10:49:21Z</time>
      </trkpt>
      <trkpt lat="47.30849" lon="4.97392">
        <ele>409</ele>
        <time>2012-10-07T10:49:26Z</time>
      </trkpt>
      <trkpt lat="47.30845" lon="4.97398">
        <ele>409</ele>
        <time>2012-10-07T10:49:30Z</time>
      </trkpt>
      <trkpt lat="47.30843" lon="4.97406">
        <ele>410</ele>
        <time>2012-10-07T10:49:35Z</time>
      </trkpt>
      <trkpt lat="47.30841" lon="4.97412">
        <ele>411</ele>
        <time>2012-10-07T10:49:38Z</time>
      </trkpt>
      <trkpt lat="47.3084" lon="4.9742">
        <ele>412</ele>
        <time>2012-10-07T10:49:41Z</time>
      </trkpt>
      <trkpt lat="47.30839" lon="4.97428">
        <ele>413</ele>
        <time>2012-10-07T10:49:44Z</time>
      </trkpt>
      <trkpt lat="47.30837" lon="4.97436">
        <ele>413</ele>
        <time>2012-10-07T10:49:47Z</time>
      </trkpt>
      <trkpt lat="47.30834" lon="4.97444">
        <ele>414</ele>
        <time>2012-10-07T10:49:50Z</time>
      </trkpt>
      <trkpt lat="47.3083" lon="4.9745">
        <ele>415</ele>
        <time>2012-10-07T10:49:53Z</time>
      </trkpt>
      <trkpt lat="47.30828" lon="4.97458">
        <ele>414</ele>
        <time>2012-10-07T10:49:57Z</time>
      </trkpt>
      <trkpt lat="47.30826" lon="4.97464">
        <ele>413</ele>
        <time>2012-10-07T10:50:00Z</time>
      </trkpt>
      <trkpt lat="47.30824" lon="4.97471">
        <ele>414</ele>
        <time>2012-10-07T10:50:03Z</time>
      </trkpt>
      <trkpt lat="47.30822" lon="4.97477">
        <ele>414</ele>
        <time>2012-10-07T10:50:06Z</time>
      </trkpt>
      <trkpt lat="47.3082" lon="4.97484">
        <ele>414</ele>
        <time>2012-10-07T10:50:09Z</time>
      </trkpt>
      <trkpt lat="47.30817" lon="4.9749">
        <ele>414</ele>
        <time>2012-10-07T10:50:12Z</time>
      </trkpt>
      <trkpt lat="47.30816" lon="4.97498">
        <ele>414</ele>
        <time>2012-10-07T10:50:16Z</time>
      </trkpt>
      <trkpt lat="47.30813" lon="4.97507">
        <ele>414</ele>
        <time>2012-10-07T10:50:20Z</time>
      </trkpt>
      <trkpt lat="47.30812" lon="4.97513">
        <ele>415</ele>
        <time>2012-10-07T10:50:23Z</time>
      </trkpt>
      <trkpt lat="47.30809" lon="4.97521">
        <ele>414</ele>
        <time>2012-10-07T10:50:26Z</time>
      </trkpt>
      <trkpt lat="47.30808" lon="4.97527">
        <ele>415</ele>
        <time>2012-10-07T10:50:29Z</time>
      </trkpt>
      <trkpt lat="47.30805" lon="4.97535">
        <ele>415</ele>
        <time>2012-10-07T10:50:32Z</time>
      </trkpt>
      <trkpt lat="47.30804" lon="4.97542">
        <ele>415</ele>
        <time>2012-10-07T10:50:35Z</time>
      </trkpt>
      <trkpt lat="47.30802" lon="4.97548">
        <ele>415</ele>
        <time>2012-10-07T10:50:38Z</time>
      </trkpt>
      <trkpt lat="47.30801" lon="4.97555">
        <ele>416</ele>
        <time>2012-10-07T10:50:41Z</time>
      </trkpt>
      <trkpt lat="47.308" lon="4.97563">
        <ele>416</ele>
        <time>2012-10-07T10:50:45Z</time>
      </trkpt>
      <trkpt lat="47.30797" lon="4.9757">
        <ele>416</ele>
        <time>2012-10-07T10:50:48Z</time>
      </trkpt>
      <trkpt lat="47.30795" lon="4.97576">
        <ele>416</ele>
        <time>2012-10-07T10:50:51Z</time>
      </trkpt>
      <trkpt lat="47.30793" lon="4.97584">
        <ele>416</ele>
        <time>2012-10-07T10:50:54Z</time>
      </trkpt>
      <trkpt lat="47.30791" lon="4.9759">
        <ele>416</ele>
        <time>2012-10-07T10:50:57Z</time>
      </trkpt>
      <trkpt lat="47.30788" lon="4.97598">
        <ele>416</ele>
        <time>2012-10-07T10:51:00Z</time>
      </trkpt>
      <trkpt lat="47.30786" lon="4.97605">
        <ele>416</ele>
        <time>2012-10-07T10:51:03Z</time>
      </trkpt>
      <trkpt lat="47.30785" lon="4.97614">
        <ele>417</ele>
        <time>2012-10-07T10:51:07Z</time>
      </trkpt>
      <trkpt lat="47.30783" lon="4.9762">
        <ele>417</ele>
        <time>2012-10-07T10:51:10Z</time>
      </trkpt>
      <trkpt lat="47.30782" lon="4.97627">
        <ele>418</ele>
        <time>2012-10-07T10:51:13Z</time>
      </trkpt>
      <trkpt lat="47.3078" lon="4.97633">
        <ele>418</ele>
        <time>2012-10-07T10:51:16Z</time>
      </trkpt>
      <trkpt lat="47.30778" lon="4.97642">
        <ele>418</ele>
        <time>2012-10-07T10:51:20Z</time>
      </trkpt>
      <trkpt lat="47.30776" lon="4.97648">
        <ele>418</ele>
        <time>2012-10-07T10:51:23Z</time>
      </trkpt>
      <trkpt lat="47.30774" lon="4.97655">
        <ele>418</ele>
        <time>2012-10-07T10:51:26Z</time>
      </trkpt>
      <trkpt lat="47.30772" lon="4.97662">
        <ele>418</ele>
        <time>2012-10-07T10:51:29Z</time>
      </trkpt>
      <trkpt lat="47.3077" lon="4.97669">
        <ele>418</ele>
        <time>2012-10-07T10:51:32Z</time>
      </trkpt>
      <trkpt lat="47.30768" lon="4.97676">
        <ele>418</ele>
        <time>2012-10-07T10:51:35Z</time>
      </trkpt>
      <trkpt lat="47.30766" lon="4.97682">
        <ele>418</ele>
        <time>2012-10-07T10:51:38Z</time>
      </trkpt>
      <trkpt lat="47.30764" lon="4.97689">
        <ele>418</ele>
        <time>2012-10-07T10:51:41Z</time>
      </trkpt>
      <trkpt lat="47.30762" lon="4.97696">
        <ele>418</ele>
        <time>2012-10-07T10:51:44Z</time>
      </trkpt>
      <trkpt lat="47.3076" lon="4.97703">
        <ele>418</ele>
        <time>2012-10-07T10:51:47Z</time>
      </trkpt>
      <trkpt lat="47.30757" lon="4.9771">
        <ele>418</ele>
        <time>2012-10-07T10:51:50Z</time>
      </trkpt>
      <trkpt lat="47.30755" lon="4.97717">
        <ele>418</ele>
        <time>2012-10-07T10:51:53Z</time>
      </trkpt>
      <trkpt lat="47.30753" lon="4.97724">
        <ele>418</ele>
        <time>2012-10-07T10:51:56Z</time>
      </trkpt>
      <trkpt lat="47.3075" lon="4.97732">
        <ele>419</ele>
        <time>2012-10-07T10:51:59Z</time>
      </trkpt>
      <trkpt lat="47.30749" lon="4.97738">
        <ele>418</ele>
        <time>2012-10-07T10:52:02Z</time>
      </trkpt>
      <trkpt lat="47.30747" lon="4.97746">
        <ele>419</ele>
        <time>2012-10-07T10:52:05Z</time>
      </trkpt>
      <trkpt lat="47.30744" lon="4.97752">
        <ele>419</ele>
        <time>2012-10-07T10:52:08Z</time>
      </trkpt>
      <trkpt lat="47.30743" lon="4.9776">
        <ele>418</ele>
        <time>2012-10-07T10:52:11Z</time>
      </trkpt>
      <trkpt lat="47.30741" lon="4.97766">
        <ele>419</ele>
        <time>2012-10-07T10:52:13Z</time>
      </trkpt>
      <trkpt lat="47.30739" lon="4.97773">
        <ele>418</ele>
        <time>2012-10-07T10:52:16Z</time>
      </trkpt>
      <trkpt lat="47.30738" lon="4.97784">
        <ele>418</ele>
        <time>2012-10-07T10:52:20Z</time>
      </trkpt>
      <trkpt lat="47.30737" lon="4.97792">
        <ele>418</ele>
        <time>2012-10-07T10:52:23Z</time>
      </trkpt>
      <trkpt lat="47.30737" lon="4.978">
        <ele>418</ele>
        <time>2012-10-07T10:52:26Z</time>
      </trkpt>
      <trkpt lat="47.30738" lon="4.97807">
        <ele>418</ele>
        <time>2012-10-07T10:52:29Z</time>
      </trkpt>
      <trkpt lat="47.30739" lon="4.97815">
        <ele>419</ele>
        <time>2012-10-07T10:52:32Z</time>
      </trkpt>
      <trkpt lat="47.30742" lon="4.97823">
        <ele>418</ele>
        <time>2012-10-07T10:52:35Z</time>
      </trkpt>
      <trkpt lat="47.30745" lon="4.9783">
        <ele>417</ele>
        <time>2012-10-07T10:52:38Z</time>
      </trkpt>
      <trkpt lat="47.30749" lon="4.97835">
        <ele>417</ele>
        <time>2012-10-07T10:52:41Z</time>
      </trkpt>
      <trkpt lat="47.30753" lon="4.9784">
        <ele>417</ele>
        <time>2012-10-07T10:52:44Z</time>
      </trkpt>
      <trkpt lat="47.30757" lon="4.97846">
        <ele>416</ele>
        <time>2012-10-07T10:52:47Z</time>
      </trkpt>
      <trkpt lat="47.30762" lon="4.97851">
        <ele>416</ele>
        <time>2012-10-07T10:52:50Z</time>
      </trkpt>
      <trkpt lat="47.30766" lon="4.97856">
        <ele>416</ele>
        <time>2012-10-07T10:52:53Z</time>
      </trkpt>
      <trkpt lat="47.30771" lon="4.9786">
        <ele>416</ele>
        <time>2012-10-07T10:52:56Z</time>
      </trkpt>
      <trkpt lat="47.30774" lon="4.97865">
        <ele>416</ele>
        <time>2012-10-07T10:52:59Z</time>
      </trkpt>
      <trkpt lat="47.30779" lon="4.97869">
        <ele>415</ele>
        <time>2012-10-07T10:53:02Z</time>
      </trkpt>
      <trkpt lat="47.30783" lon="4.97874">
        <ele>415</ele>
        <time>2012-10-07T10:53:05Z</time>
      </trkpt>
      <trkpt lat="47.30786" lon="4.97879">
        <ele>415</ele>
        <time>2012-10-07T10:53:08Z</time>
      </trkpt>
      <trkpt lat="47.30791" lon="4.97883">
        <ele>416</ele>
        <time>2012-10-07T10:53:11Z</time>
      </trkpt>
      <trkpt lat="47.30796" lon="4.97888">
        <ele>416</ele>
        <time>2012-10-07T10:53:14Z</time>
      </trkpt>
      <trkpt lat="47.308" lon="4.97893">
        <ele>415</ele>
        <time>2012-10-07T10:53:17Z</time>
      </trkpt>
      <trkpt lat="47.30804" lon="4.97897">
        <ele>416</ele>
        <time>2012-10-07T10:53:20Z</time>
      </trkpt>
      <trkpt lat="47.30808" lon="4.97902">
        <ele>416</ele>
        <time>2012-10-07T10:53:23Z</time>
      </trkpt>
      <trkpt lat="47.30812" lon="4.97906">
        <ele>417</ele>
        <time>2012-10-07T10:53:26Z</time>
      </trkpt>
      <trkpt lat="47.30816" lon="4.97911">
        <ele>417</ele>
        <time>2012-10-07T10:53:29Z</time>
      </trkpt>
      <trkpt lat="47.3082" lon="4.97915">
        <ele>417</ele>
        <time>2012-10-07T10:53:32Z</time>
      </trkpt>
      <trkpt lat="47.30824" lon="4.97919">
        <ele>417</ele>
        <time>2012-10-07T10:53:35Z</time>
      </trkpt>
      <trkpt lat="47.30829" lon="4.97925">
        <ele>416</ele>
        <time>2012-10-07T10:53:38Z</time>
      </trkpt>
      <trkpt lat="47.30834" lon="4.9793">
        <ele>416</ele>
        <time>2012-10-07T10:53:41Z</time>
      </trkpt>
      <trkpt lat="47.30838" lon="4.97934">
        <ele>416</ele>
        <time>2012-10-07T10:53:44Z</time>
      </trkpt>
      <trkpt lat="47.30843" lon="4.97938">
        <ele>416</ele>
        <time>2012-10-07T10:53:47Z</time>
      </trkpt>
      <trkpt lat="47.30848" lon="4.97943">
        <ele>415</ele>
        <time>2012-10-07T10:53:50Z</time>
      </trkpt>
      <trkpt lat="47.30852" lon="4.97948">
        <ele>415</ele>
        <time>2012-10-07T10:53:53Z</time>
      </trkpt>
      <trkpt lat="47.30856" lon="4.97953">
        <ele>415</ele>
        <time>2012-10-07T10:53:56Z</time>
      </trkpt>
      <trkpt lat="47.3086" lon="4.9796">
        <ele>415</ele>
        <time>2012-10-07T10:53:59Z</time>
      </trkpt>
      <trkpt lat="47.30864" lon="4.97966">
        <ele>415</ele>
        <time>2012-10-07T10:54:02Z</time>
      </trkpt>
      <trkpt lat="47.30868" lon="4.97971">
        <ele>414</ele>
        <time>2012-10-07T10:54:05Z</time>
      </trkpt>
      <trkpt lat="47.30871" lon="4.97978">
        <ele>414</ele>
        <time>2012-10-07T10:54:08Z</time>
      </trkpt>
      <trkpt lat="47.30874" lon="4.97985">
        <ele>414</ele>
        <time>2012-10-07T10:54:11Z</time>
      </trkpt>
      <trkpt lat="47.30877" lon="4.97991">
        <ele>414</ele>
        <time>2012-10-07T10:54:14Z</time>
      </trkpt>
      <trkpt lat="47.3088" lon="4.97997">
        <ele>414</ele>
        <time>2012-10-07T10:54:17Z</time>
      </trkpt>
      <trkpt lat="47.30882" lon="4.98004">
        <ele>414</ele>
        <time>2012-10-07T10:54:20Z</time>
      </trkpt>
      <trkpt lat="47.30886" lon="4.9801">
        <ele>413</ele>
        <time>2012-10-07T10:54:23Z</time>
      </trkpt>
      <trkpt lat="47.30888" lon="4.98018">
        <ele>412</ele>
        <time>2012-10-07T10:54:26Z</time>
      </trkpt>
      <trkpt lat="47.30892" lon="4.98024">
        <ele>412</ele>
        <time>2012-10-07T10:54:29Z</time>
      </trkpt>
      <trkpt lat="47.30894" lon="4.9803">
        <ele>413</ele>
        <time>2012-10-07T10:54:32Z</time>
      </trkpt>
      <trkpt lat="47.30898" lon="4.98035">
        <ele>414</ele>
        <time>2012-10-07T10:54:36Z</time>
      </trkpt>
      <trkpt lat="47.30902" lon="4.98041">
        <ele>414</ele>
        <time>2012-10-07T10:54:39Z</time>
      </trkpt>
      <trkpt lat="47.30905" lon="4.98046">
        <ele>414</ele>
        <time>2012-10-07T10:54:42Z</time>
      </trkpt>
      <trkpt lat="47.30909" lon="4.98051">
        <ele>414</ele>
        <time>2012-10-07T10:54:45Z</time>
      </trkpt>
      <trkpt lat="47.30912" lon="4.98057">
        <ele>415</ele>
        <time>2012-10-07T10:54:48Z</time>
      </trkpt>
      <trkpt lat="47.30916" lon="4.98063">
        <ele>415</ele>
        <time>2012-10-07T10:54:51Z</time>
      </trkpt>
      <trkpt lat="47.30919" lon="4.98068">
        <ele>415</ele>
        <time>2012-10-07T10:54:54Z</time>
      </trkpt>
      <trkpt lat="47.30923" lon="4.98075">
        <ele>414</ele>
        <time>2012-10-07T10:54:57Z</time>
      </trkpt>
      <trkpt lat="47.30925" lon="4.98082">
        <ele>414</ele>
        <time>2012-10-07T10:55:00Z</time>
      </trkpt>
      <trkpt lat="47.30928" lon="4.98089">
        <ele>413</ele>
        <time>2012-10-07T10:55:03Z</time>
      </trkpt>
      <trkpt lat="47.30931" lon="4.98097">
        <ele>413</ele>
        <time>2012-10-07T10:55:06Z</time>
      </trkpt>
      <trkpt lat="47.30933" lon="4.98104">
        <ele>412</ele>
        <time>2012-10-07T10:55:09Z</time>
      </trkpt>
      <trkpt lat="47.30936" lon="4.98112">
        <ele>412</ele>
        <time>2012-10-07T10:55:12Z</time>
      </trkpt>
      <trkpt lat="47.30938" lon="4.98119">
        <ele>412</ele>
        <time>2012-10-07T10:55:15Z</time>
      </trkpt>
      <trkpt lat="47.30943" lon="4.98128">
        <ele>412</ele>
        <time>2012-10-07T10:55:20Z</time>
      </trkpt>
      <trkpt lat="47.30946" lon="4.98135">
        <ele>412</ele>
        <time>2012-10-07T10:55:23Z</time>
      </trkpt>
      <trkpt lat="47.30949" lon="4.98141">
        <ele>412</ele>
        <time>2012-10-07T10:55:26Z</time>
      </trkpt>
      <trkpt lat="47.30954" lon="4.98146">
        <ele>411</ele>
        <time>2012-10-07T10:55:29Z</time>
      </trkpt>
      <trkpt lat="47.30958" lon="4.9815">
        <ele>411</ele>
        <time>2012-10-07T10:55:32Z</time>
      </trkpt>
      <trkpt lat="47.30963" lon="4.98155">
        <ele>411</ele>
        <time>2012-10-07T10:55:35Z</time>
      </trkpt>
      <trkpt lat="47.30968" lon="4.98159">
        <ele>411</ele>
        <time>2012-10-07T10:55:38Z</time>
      </trkpt>
      <trkpt lat="47.30972" lon="4.98162">
        <ele>411</ele>
        <time>2012-10-07T10:55:41Z</time>
      </trkpt>
      <trkpt lat="47.30977" lon="4.98165">
        <ele>410</ele>
        <time>2012-10-07T10:55:44Z</time>
      </trkpt>
      <trkpt lat="47.30982" lon="4.98169">
        <ele>410</ele>
        <time>2012-10-07T10:55:47Z</time>
      </trkpt>
      <trkpt lat="47.30986" lon="4.98172">
        <ele>410</ele>
        <time>2012-10-07T10:55:50Z</time>
      </trkpt>
      <trkpt lat="47.30991" lon="4.98176">
        <ele>410</ele>
        <time>2012-10-07T10:55:53Z</time>
      </trkpt>
      <trkpt lat="47.30996" lon="4.98179">
        <ele>409</ele>
        <time>2012-10-07T10:55:56Z</time>
      </trkpt>
      <trkpt lat="47.31" lon="4.98182">
        <ele>409</ele>
        <time>2012-10-07T10:55:59Z</time>
      </trkpt>
      <trkpt lat="47.31005" lon="4.98185">
        <ele>409</ele>
        <time>2012-10-07T10:56:02Z</time>
      </trkpt>
      <trkpt lat="47.3101" lon="4.98189">
        <ele>409</ele>
        <time>2012-10-07T10:56:05Z</time>
      </trkpt>
      <trkpt lat="47.31014" lon="4.98192">
        <ele>409</ele>
        <time>2012-10-07T10:56:08Z</time>
      </trkpt>
      <trkpt lat="47.31018" lon="4.98197">
        <ele>409</ele>
        <time>2012-10-07T10:56:11Z</time>
      </trkpt>
      <trkpt lat="47.31022" lon="4.982">
        <ele>410</ele>
        <time>2012-10-07T10:56:14Z</time>
      </trkpt>
      <trkpt lat="47.31027" lon="4.98204">
        <ele>410</ele>
        <time>2012-10-07T10:56:17Z</time>
      </trkpt>
      <trkpt lat="47.31032" lon="4.98208">
        <ele>410</ele>
        <time>2012-10-07T10:56:20Z</time>
      </trkpt>
      <trkpt lat="47.31036" lon="4.98212">
        <ele>410</ele>
        <time>2012-10-07T10:56:23Z</time>
      </trkpt>
      <trkpt lat="47.3104" lon="4.98216">
        <ele>410</ele>
        <time>2012-10-07T10:56:26Z</time>
      </trkpt>
      <trkpt lat="47.31044" lon="4.98221">
        <ele>409</ele>
        <time>2012-10-07T10:56:29Z</time>
      </trkpt>
      <trkpt lat="47.31049" lon="4.98225">
        <ele>409</ele>
        <time>2012-10-07T10:56:32Z</time>
      </trkpt>
      <trkpt lat="47.31052" lon="4.98229">
        <ele>409</ele>
        <time>2012-10-07T10:56:35Z</time>
      </trkpt>
      <trkpt lat="47.31057" lon="4.98233">
        <ele>410</ele>
        <time>2012-10-07T10:56:38Z</time>
      </trkpt>
      <trkpt lat="47.31061" lon="4.98237">
        <ele>411</ele>
        <time>2012-10-07T10:56:42Z</time>
      </trkpt>
      <trkpt lat="47.31064" lon="4.98243">
        <ele>410</ele>
        <time>2012-10-07T10:56:45Z</time>
      </trkpt>
      <trkpt lat="47.31066" lon="4.9825">
        <ele>409</ele>
        <time>2012-10-07T10:56:47Z</time>
      </trkpt>
      <trkpt lat="47.31067" lon="4.98256">
        <ele>408</ele>
        <time>2012-10-07T10:56:49Z</time>
      </trkpt>
      <trkpt lat="47.31069" lon="4.98263">
        <ele>406</ele>
        <time>2012-10-07T10:56:51Z</time>
      </trkpt>
      <trkpt lat="47.3107" lon="4.9827">
        <ele>406</ele>
        <time>2012-10-07T10:56:53Z</time>
      </trkpt>
      <trkpt lat="47.31073" lon="4.98278">
        <ele>406</ele>
        <time>2012-10-07T10:56:56Z</time>
      </trkpt>
      <trkpt lat="47.31076" lon="4.98286">
        <ele>405</ele>
        <time>2012-10-07T10:56:59Z</time>
      </trkpt>
      <trkpt lat="47.31078" lon="4.98292">
        <ele>408</ele>
        <time>2012-10-07T10:57:06Z</time>
      </trkpt>
      <trkpt lat="47.3108" lon="4.98299">
        <ele>408</ele>
        <time>2012-10-07T10:57:13Z</time>
      </trkpt>
      <trkpt lat="47.31083" lon="4.98306">
        <ele>408</ele>
        <time>2012-10-07T10:57:16Z</time>
      </trkpt>
      <trkpt lat="47.31087" lon="4.98316">
        <ele>408</ele>
        <time>2012-10-07T10:57:20Z</time>
      </trkpt>
      <trkpt lat="47.31089" lon="4.98323">
        <ele>408</ele>
        <time>2012-10-07T10:57:23Z</time>
      </trkpt>
      <trkpt lat="47.31091" lon="4.98331">
        <ele>409</ele>
        <time>2012-10-07T10:57:26Z</time>
      </trkpt>
      <trkpt lat="47.31094" lon="4.98339">
        <ele>409</ele>
        <time>2012-10-07T10:57:29Z</time>
      </trkpt>
      <trkpt lat="47.31096" lon="4.98347">
        <ele>410</ele>
        <time>2012-10-07T10:57:32Z</time>
      </trkpt>
      <trkpt lat="47.31098" lon="4.98355">
        <ele>410</ele>
        <time>2012-10-07T10:57:35Z</time>
      </trkpt>
      <trkpt lat="47.31101" lon="4.98364">
        <ele>410</ele>
        <time>2012-10-07T10:57:38Z</time>
      </trkpt>
      <trkpt lat="47.31102" lon="4.98372">
        <ele>409</ele>
        <time>2012-10-07T10:57:41Z</time>
      </trkpt>
      <trkpt lat="47.31105" lon="4.9838">
        <ele>409</ele>
        <time>2012-10-07T10:57:44Z</time>
      </trkpt>
      <trkpt lat="47.31107" lon="4.98389">
        <ele>408</ele>
        <time>2012-10-07T10:57:47Z</time>
      </trkpt>
      <trkpt lat="47.31108" lon="4.98397">
        <ele>408</ele>
        <time>2012-10-07T10:57:50Z</time>
      </trkpt>
      <trkpt lat="47.3111" lon="4.98404">
        <ele>407</ele>
        <time>2012-10-07T10:57:52Z</time>
      </trkpt>
      <trkpt lat="47.31111" lon="4.98412">
        <ele>407</ele>
        <time>2012-10-07T10:57:55Z</time>
      </trkpt>
      <trkpt lat="47.31113" lon="4.98419">
        <ele>408</ele>
        <time>2012-10-07T10:57:58Z</time>
      </trkpt>
      <trkpt lat="47.31115" lon="4.98427">
        <ele>408</ele>
        <time>2012-10-07T10:58:01Z</time>
      </trkpt>
      <trkpt lat="47.31116" lon="4.98435">
        <ele>408</ele>
        <time>2012-10-07T10:58:04Z</time>
      </trkpt>
      <trkpt lat="47.31118" lon="4.98443">
        <ele>407</ele>
        <time>2012-10-07T10:58:07Z</time>
      </trkpt>
      <trkpt lat="47.3112" lon="4.98451">
        <ele>408</ele>
        <time>2012-10-07T10:58:10Z</time>
      </trkpt>
      <trkpt lat="47.31121" lon="4.98458">
        <ele>407</ele>
        <time>2012-10-07T10:58:13Z</time>
      </trkpt>
      <trkpt lat="47.31123" lon="4.98466">
        <ele>407</ele>
        <time>2012-10-07T10:58:16Z</time>
      </trkpt>
      <trkpt lat="47.31126" lon="4.98476">
        <ele>407</ele>
        <time>2012-10-07T10:58:20Z</time>
      </trkpt>
      <trkpt lat="47.31129" lon="4.98483">
        <ele>407</ele>
        <time>2012-10-07T10:58:23Z</time>
      </trkpt>
      <trkpt lat="47.31132" lon="4.98488">
        <ele>407</ele>
        <time>2012-10-07T10:58:26Z</time>
      </trkpt>
      <trkpt lat="47.31135" lon="4.98496">
        <ele>407</ele>
        <time>2012-10-07T10:58:29Z</time>
      </trkpt>
      <trkpt lat="47.31138" lon="4.98502">
        <ele>407</ele>
        <time>2012-10-07T10:58:32Z</time>
      </trkpt>
      <trkpt lat="47.31142" lon="4.98508">
        <ele>406</ele>
        <time>2012-10-07T10:58:35Z</time>
      </trkpt>
      <trkpt lat="47.31145" lon="4.98514">
        <ele>407</ele>
        <time>2012-10-07T10:58:38Z</time>
      </trkpt>
      <trkpt lat="47.31149" lon="4.9852">
        <ele>406</ele>
        <time>2012-10-07T10:58:41Z</time>
      </trkpt>
      <trkpt lat="47.31153" lon="4.98525">
        <ele>406</ele>
        <time>2012-10-07T10:58:44Z</time>
      </trkpt>
      <trkpt lat="47.31157" lon="4.9853">
        <ele>406</ele>
        <time>2012-10-07T10:58:47Z</time>
      </trkpt>
      <trkpt lat="47.31161" lon="4.98537">
        <ele>406</ele>
        <time>2012-10-07T10:58:50Z</time>
      </trkpt>
      <trkpt lat="47.31165" lon="4.98542">
        <ele>405</ele>
        <time>2012-10-07T10:58:53Z</time>
      </trkpt>
      <trkpt lat="47.31169" lon="4.98546">
        <ele>406</ele>
        <time>2012-10-07T10:58:56Z</time>
      </trkpt>
      <trkpt lat="47.31173" lon="4.98553">
        <ele>405</ele>
        <time>2012-10-07T10:58:59Z</time>
      </trkpt>
      <trkpt lat="47.31176" lon="4.98559">
        <ele>405</ele>
        <time>2012-10-07T10:59:02Z</time>
      </trkpt>
      <trkpt lat="47.3118" lon="4.98564">
        <ele>405</ele>
        <time>2012-10-07T10:59:05Z</time>
      </trkpt>
      <trkpt lat="47.31184" lon="4.98571">
        <ele>404</ele>
        <time>2012-10-07T10:59:08Z</time>
      </trkpt>
      <trkpt lat="47.31187" lon="4.98577">
        <ele>404</ele>
        <time>2012-10-07T10:59:11Z</time>
      </trkpt>
      <trkpt lat="47.3119" lon="4.98584">
        <ele>404</ele>
        <time>2012-10-07T10:59:14Z</time>
      </trkpt>
      <trkpt lat="47.31194" lon="4.9859">
        <ele>404</ele>
        <time>2012-10-07T10:59:17Z</time>
      </trkpt>
      <trkpt lat="47.31197" lon="4.98597">
        <ele>404</ele>
        <time>2012-10-07T10:59:20Z</time>
      </trkpt>
      <trkpt lat="47.312" lon="4.98604">
        <ele>404</ele>
        <time>2012-10-07T10:59:23Z</time>
      </trkpt>
      <trkpt lat="47.31203" lon="4.9861">
        <ele>404</ele>
        <time>2012-10-07T10:59:26Z</time>
      </trkpt>
      <trkpt lat="47.31206" lon="4.98617">
        <ele>404</ele>
        <time>2012-10-07T10:59:29Z</time>
      </trkpt>
      <trkpt lat="47.31209" lon="4.98623">
        <ele>404</ele>
        <time>2012-10-07T10:59:32Z</time>
      </trkpt>
      <trkpt lat="47.31212" lon="4.9863">
        <ele>404</ele>
        <time>2012-10-07T10:59:35Z</time>
      </trkpt>
      <trkpt lat="47.31215" lon="4.98637">
        <ele>404</ele>
        <time>2012-10-07T10:59:38Z</time>
      </trkpt>
      <trkpt lat="47.31218" lon="4.98644">
        <ele>403</ele>
        <time>2012-10-07T10:59:41Z</time>
      </trkpt>
      <trkpt lat="47.31221" lon="4.9865">
        <ele>403</ele>
        <time>2012-10-07T10:59:44Z</time>
      </trkpt>
      <trkpt lat="47.31225" lon="4.98657">
        <ele>402</ele>
        <time>2012-10-07T10:59:47Z</time>
      </trkpt>
      <trkpt lat="47.31228" lon="4.98662">
        <ele>402</ele>
        <time>2012-10-07T10:59:50Z</time>
      </trkpt>
      <trkpt lat="47.31233" lon="4.98667">
        <ele>402</ele>
        <time>2012-10-07T10:59:53Z</time>
      </trkpt>
      <trkpt lat="47.31237" lon="4.98671">
        <ele>403</ele>
        <time>2012-10-07T10:59:56Z</time>
      </trkpt>
      <trkpt lat="47.31241" lon="4.98677">
        <ele>403</ele>
        <time>2012-10-07T10:59:59Z</time>
      </trkpt>
      <trkpt lat="47.31245" lon="4.98683">
        <ele>404</ele>
        <time>2012-10-07T11:00:03Z</time>
      </trkpt>
      <trkpt lat="47.3125" lon="4.98687">
        <ele>408</ele>
        <time>2012-10-07T11:00:08Z</time>
      </trkpt>
      <trkpt lat="47.31252" lon="4.98694">
        <ele>410</ele>
        <time>2012-10-07T11:00:12Z</time>
      </trkpt>
      <trkpt lat="47.31253" lon="4.98701">
        <ele>412</ele>
        <time>2012-10-07T11:00:15Z</time>
      </trkpt>
      <trkpt lat="47.31257" lon="4.98707">
        <ele>412</ele>
        <time>2012-10-07T11:00:18Z</time>
      </trkpt>
      <trkpt lat="47.3126" lon="4.98713">
        <ele>412</ele>
        <time>2012-10-07T11:00:21Z</time>
      </trkpt>
      <trkpt lat="47.3126" lon="4.98713">
        <ele>412</ele>
        <time>2012-10-07T11:00:21Z</time>
      </trkpt>
      <trkpt lat="47.3126" lon="4.98713">
        <ele>412</ele>
        <time>2012-10-07T11:00:23Z</time>
      </trkpt>
      <trkpt lat="47.31264" lon="4.98718">
        <ele>411</ele>
        <time>2012-10-07T11:00:25Z</time>
      </trkpt>
      <trkpt lat="47.31267" lon="4.98724">
        <ele>411</ele>
        <time>2012-10-07T11:00:27Z</time>
      </trkpt>
      <trkpt lat="47.3127" lon="4.98731">
        <ele>411</ele>
        <time>2012-10-07T11:00:30Z</time>
      </trkpt>
      <trkpt lat="47.31274" lon="4.98737">
        <ele>411</ele>
        <time>2012-10-07T11:00:33Z</time>
      </trkpt>
      <trkpt lat="47.31278" lon="4.98744">
        <ele>410</ele>
        <time>2012-10-07T11:00:36Z</time>
      </trkpt>
      <trkpt lat="47.31281" lon="4.98752">
        <ele>411</ele>
        <time>2012-10-07T11:00:40Z</time>
      </trkpt>
      <trkpt lat="47.31282" lon="4.98759">
        <ele>411</ele>
        <time>2012-10-07T11:00:42Z</time>
      </trkpt>
      <trkpt lat="47.31286" lon="4.98766">
        <ele>411</ele>
        <time>2012-10-07T11:00:45Z</time>
      </trkpt>
      <trkpt lat="47.31288" lon="4.98772">
        <ele>410</ele>
        <time>2012-10-07T11:00:48Z</time>
      </trkpt>
      <trkpt lat="47.31291" lon="4.98778">
        <ele>409</ele>
        <time>2012-10-07T11:00:50Z</time>
      </trkpt>
      <trkpt lat="47.31294" lon="4.98786">
        <ele>404</ele>
        <time>2012-10-07T11:00:53Z</time>
      </trkpt>
      <trkpt lat="47.313" lon="4.98788">
        <ele>403</ele>
        <time>2012-10-07T11:00:56Z</time>
      </trkpt>
      <trkpt lat="47.31305" lon="4.98787">
        <ele>401</ele>
        <time>2012-10-07T11:01:00Z</time>
      </trkpt>
      <trkpt lat="47.31309" lon="4.98784">
        <ele>402</ele>
        <time>2012-10-07T11:01:04Z</time>
      </trkpt>
      <trkpt lat="47.31314" lon="4.98782">
        <ele>402</ele>
        <time>2012-10-07T11:01:07Z</time>
      </trkpt>
      <trkpt lat="47.3132" lon="4.9878">
        <ele>404</ele>
        <time>2012-10-07T11:01:11Z</time>
      </trkpt>
      <trkpt lat="47.31325" lon="4.9878">
        <ele>404</ele>
        <time>2012-10-07T11:01:14Z</time>
      </trkpt>
      <trkpt lat="47.3133" lon="4.98779">
        <ele>404</ele>
        <time>2012-10-07T11:01:17Z</time>
      </trkpt>
      <trkpt lat="47.31335" lon="4.98778">
        <ele>404</ele>
        <time>2012-10-07T11:01:20Z</time>
      </trkpt>
      <trkpt lat="47.3134" lon="4.98776">
        <ele>403</ele>
        <time>2012-10-07T11:01:23Z</time>
      </trkpt>
      <trkpt lat="47.31345" lon="4.98775">
        <ele>404</ele>
        <time>2012-10-07T11:01:26Z</time>
      </trkpt>
      <trkpt lat="47.3135" lon="4.98776">
        <ele>404</ele>
        <time>2012-10-07T11:01:29Z</time>
      </trkpt>
      <trkpt lat="47.31356" lon="4.98778">
        <ele>404</ele>
        <time>2012-10-07T11:01:32Z</time>
      </trkpt>
      <trkpt lat="47.3136" lon="4.98776">
        <ele>404</ele>
        <time>2012-10-07T11:01:36Z</time>
      </trkpt>
      <trkpt lat="47.31366" lon="4.98774">
        <ele>404</ele>
        <time>2012-10-07T11:01:40Z</time>
      </trkpt>
      <trkpt lat="47.31372" lon="4.98772">
        <ele>404</ele>
        <time>2012-10-07T11:01:44Z</time>
      </trkpt>
      <trkpt lat="47.31377" lon="4.98771">
        <ele>403</ele>
        <time>2012-10-07T11:01:48Z</time>
      </trkpt>
      <trkpt lat="47.31382" lon="4.98771">
        <ele>405</ele>
        <time>2012-10-07T11:01:53Z</time>
      </trkpt>
      <trkpt lat="47.31387" lon="4.98766">
        <ele>405</ele>
        <time>2012-10-07T11:01:57Z</time>
      </trkpt>
      <trkpt lat="47.31387" lon="4.98758">
        <ele>408</ele>
        <time>2012-10-07T11:02:01Z</time>
      </trkpt>
      <trkpt lat="47.31386" lon="4.98751">
        <ele>410</ele>
        <time>2012-10-07T11:02:06Z</time>
      </trkpt>
      <trkpt lat="47.31384" lon="4.98744">
        <ele>412</ele>
        <time>2012-10-07T11:02:09Z</time>
      </trkpt>
      <trkpt lat="47.31381" lon="4.98737">
        <ele>411</ele>
        <time>2012-10-07T11:02:13Z</time>
      </trkpt>
      <trkpt lat="47.31379" lon="4.9873">
        <ele>413</ele>
        <time>2012-10-07T11:02:17Z</time>
      </trkpt>
      <trkpt lat="47.31377" lon="4.98722">
        <ele>414</ele>
        <time>2012-10-07T11:02:21Z</time>
      </trkpt>
      <trkpt lat="47.31377" lon="4.98715">
        <ele>413</ele>
        <time>2012-10-07T11:02:23Z</time>
      </trkpt>
      <trkpt lat="47.31378" lon="4.98707">
        <ele>413</ele>
        <time>2012-10-07T11:02:26Z</time>
      </trkpt>
      <trkpt lat="47.3138" lon="4.98702">
        <ele>414</ele>
        <time>2012-10-07T11:02:30Z</time>
      </trkpt>
      <trkpt lat="47.31381" lon="4.98695">
        <ele>413</ele>
        <time>2012-10-07T11:02:35Z</time>
      </trkpt>
      <trkpt lat="47.31386" lon="4.98692">
        <ele>412</ele>
        <time>2012-10-07T11:02:38Z</time>
      </trkpt>
      <trkpt lat="47.31391" lon="4.98691">
        <ele>413</ele>
        <time>2012-10-07T11:02:48Z</time>
      </trkpt>
      <trkpt lat="47.31392" lon="4.98698">
        <ele>412</ele>
        <time>2012-10-07T11:03:07Z</time>
      </trkpt>
      <trkpt lat="47.31392" lon="4.98706">
        <ele>410</ele>
        <time>2012-10-07T11:03:10Z</time>
      </trkpt>
      <trkpt lat="47.31397" lon="4.9871">
        <ele>408</ele>
        <time>2012-10-07T11:03:17Z</time>
      </trkpt>
      <trkpt lat="47.31397" lon="4.9871">
        <ele>408</ele>
        <time>2012-10-07T11:03:17Z</time>
      </trkpt>
      <trkpt lat="47.31397" lon="4.9871">
        <ele>408</ele>
        <time>2012-10-07T11:03:18Z</time>
      </trkpt>
      <trkpt lat="47.31401" lon="4.98704">
        <ele>410</ele>
        <time>2012-10-07T11:03:22Z</time>
      </trkpt>
      <trkpt lat="47.31406" lon="4.98706">
        <ele>410</ele>
        <time>2012-10-07T11:05:13Z</time>
      </trkpt>
      <trkpt lat="47.31411" lon="4.98704">
        <ele>406</ele>
        <time>2012-10-07T11:05:53Z</time>
      </trkpt>
      <trkpt lat="47.31414" lon="4.9871">
        <ele>407</ele>
        <time>2012-10-07T11:05:59Z</time>
      </trkpt>
      <trkpt lat="47.31414" lon="4.9871">
        <ele>407</ele>
        <time>2012-10-07T11:05:59Z</time>
      </trkpt>
      <trkpt lat="47.31414" lon="4.9871">
        <ele>407</ele>
        <time>2012-10-07T11:06:00Z</time>
      </trkpt>
      <trkpt lat="47.31411" lon="4.98716">
        <ele>406</ele>
        <time>2012-10-07T11:06:15Z</time>
      </trkpt>
    </trkseg>
  </trk>
</gpx>